
Distance (Route):
Temperature : 0°C
Humidity : 0%
Pressure : 0hPa| Receiver | Frames | First received | Last received |
|---|---|---|---|
| MIELECB | 831 | 2026-09-02 23:26:24 | 2026-09-03 01:05:11 |
| SQ9PSP-11 | 354 | 2026-09-02 23:20:04 | 2026-09-03 01:05:10 |
| AKAW68 | 223 | 2026-09-02 23:20:49 | 2026-09-03 01:05:00 |
| AKAW682 | 189 | 2026-09-02 23:30:43 | 2026-09-03 01:04:58 |
| SQ9EZE-12 | 155 | 2026-09-02 23:22:32 | 2026-09-03 00:59:18 |
| OE3JTB-15 | 24 | 2026-09-03 00:01:12 | 2026-09-03 00:58:50 |
| SP8MDH-15 | 11 | 2026-09-03 00:37:09 | 2026-09-03 00:43:34 |
| SQ9EZE-14 | 4 | 2026-09-03 00:24:36 | 2026-09-03 00:33:57 |
| SP9KGR-15 | 4 | 2026-09-03 01:37:56 | 2026-09-03 01:39:55 |
| GYPAP8-17 | 3 | 2026-09-02 23:57:04 | 2026-09-03 00:27:37 |
| Receiver | Date | Latitude | Longitude | Direction | Speed | Altitude | Climb | Temperature | Humidity | Pressure | Voltage | Killtimer | Uptime | BKT | XDATA |
|---|---|---|---|---|---|---|---|---|---|---|---|---|---|---|---|
| SP9KGR-15 | 2026-09-03 01:39:55 | 49.91449 | 22.02729 | 64° | 7km/h | 873m | -10.1m/s | 0°C | 0% | 0hPa | 0V | 00:00:00 | 00:00:00 | 00:00:00 | |
| SP9KGR-15 | 2026-09-03 01:39:06 | 49.91410 | 22.02574 | 105° | 9km/h | 1387m | -11.9m/s | 0°C | 0% | 0hPa | 0V | 00:00:00 | 00:00:00 | 00:00:00 | |
| SP9KGR-15 | 2026-09-03 01:38:11 | 49.91461 | 22.02338 | 116° | 18km/h | 1954m | -10.5m/s | 0°C | 0% | 0hPa | 0V | 00:00:00 | 00:00:00 | 00:00:00 | |
| SP9KGR-15 | 2026-09-03 01:37:56 | 49.91492 | 22.02245 | 112° | 26km/h | 2132m | -9.4m/s | 0°C | 0% | 0hPa | 0V | 00:00:00 | 00:00:00 | 00:00:00 | |
| MIELECB | 2026-09-03 01:05:11 | 49.95498 | 21.76008 | 334° | 18km/h | 34349m | 3.9m/s | 0°C | 0% | 0hPa | 0V | 00:00:00 | 00:00:00 | 00:00:00 | |
| SQ9PSP-11 | 2026-09-03 01:05:10 | 49.95494 | 21.76009 | 53° | 9km/h | 34346m | 5.4m/s | 0°C | 0% | 0hPa | 0V | 00:00:00 | 00:00:00 | 00:00:00 | |
| MIELECB | 2026-09-03 01:05:05 | 49.95509 | 21.75948 | 119° | 35km/h | 34324m | 3.4m/s | 0°C | 0% | 0hPa | 0V | 00:00:00 | 00:00:00 | 00:00:00 | |
| AKAW68 | 2026-09-03 01:05:00 | 49.95499 | 21.75966 | 165° | 7km/h | 34302m | 9.0m/s | 0°C | 0% | 0hPa | 0V | 00:00:00 | 00:00:00 | 00:00:00 | |
| MIELECB | 2026-09-03 01:04:59 | 49.95501 | 21.75958 | 130° | 20km/h | 34292m | 9.5m/s | 0°C | 0% | 0hPa | 0V | 00:00:00 | 00:00:00 | 00:00:00 | |
| AKAW682 | 2026-09-03 01:04:58 | 49.95505 | 21.75945 | 126° | 24km/h | 34281m | 7.9m/s | 0°C | 0% | 0hPa | 0V | 00:00:00 | 00:00:00 | 00:00:00 | |
| SQ9PSP-11 | 2026-09-03 01:04:54 | 49.95515 | 21.75883 | 53° | 22km/h | 34255m | 7.5m/s | 0°C | 0% | 0hPa | 0V | 00:00:00 | 00:00:00 | 00:00:00 | |
| MIELECB | 2026-09-03 01:04:48 | 49.95511 | 21.75856 | 111° | 15km/h | 34185m | 7.1m/s | 0°C | 0% | 0hPa | 0V | 00:00:00 | 00:00:00 | 00:00:00 | |
| MIELECB | 2026-09-03 01:04:43 | 49.95499 | 21.75838 | 100° | 11km/h | 34157m | 11.7m/s | 0°C | 0% | 0hPa | 0V | 00:00:00 | 00:00:00 | 00:00:00 | |
| AKAW68 | 2026-09-03 01:04:39 | 49.95511 | 21.75811 | 143° | 20km/h | 34107m | -0.3m/s | 0°C | 0% | 0hPa | 0V | 00:00:00 | 00:00:00 | 00:00:00 | |
| MIELECB | 2026-09-03 01:04:38 | 49.95510 | 21.75801 | 47° | 15km/h | 34104m | 3.3m/s | 0°C | 0% | 0hPa | 0V | 00:00:00 | 00:00:00 | 00:00:00 | |
| MIELECB | 2026-09-03 01:04:30 | 49.95484 | 21.75760 | 130° | 29km/h | 34082m | 4.9m/s | 0°C | 0% | 0hPa | 0V | 00:00:00 | 00:00:00 | 00:00:00 | |
| MIELECB | 2026-09-03 01:04:25 | 49.95475 | 21.75745 | 344° | 26km/h | 34048m | 4.0m/s | 0°C | 0% | 0hPa | 0V | 00:00:00 | 00:00:00 | 00:00:00 | |
| SQ9PSP-11 | 2026-09-03 01:04:23 | 49.95462 | 21.75742 | 48° | 16km/h | 34036m | 5.3m/s | 0°C | 0% | 0hPa | 0V | 00:00:00 | 00:00:00 | 00:00:00 | |
| MIELECB | 2026-09-03 01:04:19 | 49.95471 | 21.75711 | 125° | 24km/h | 34003m | 2.3m/s | 0°C | 0% | 0hPa | 0V | 00:00:00 | 00:00:00 | 00:00:00 | |
| AKAW682 | 2026-09-03 01:04:16 | 49.95466 | 21.75701 | 9° | 5km/h | 33992m | 3.8m/s | 0°C | 0% | 0hPa | 0V | 00:00:00 | 00:00:00 | 00:00:00 | |
| MIELECB | 2026-09-03 01:04:14 | 49.95465 | 21.75703 | 61° | 13km/h | 33990m | 9.8m/s | 0°C | 0% | 0hPa | 0V | 00:00:00 | 00:00:00 | 00:00:00 | |
| MIELECB | 2026-09-03 01:03:45 | 49.95439 | 21.75563 | 107° | 37km/h | 33806m | 6.1m/s | 0°C | 0% | 0hPa | 0V | 00:00:00 | 00:00:00 | 00:00:00 | |
| MIELECB | 2026-09-03 01:03:40 | 49.95449 | 21.75529 | 30° | 20km/h | 33780m | 8.1m/s | 0°C | 0% | 0hPa | 0V | 00:00:00 | 00:00:00 | 00:00:00 | |
| SQ9PSP-11 | 2026-09-03 01:03:36 | 49.95432 | 21.75487 | 78° | 33km/h | 33744m | 5.4m/s | 0°C | 0% | 0hPa | 0V | 00:00:00 | 00:00:00 | 00:00:00 | |
| MIELECB | 2026-09-03 01:03:35 | 49.95431 | 21.75474 | 83° | 26km/h | 33736m | 5.6m/s | 0°C | 0% | 0hPa | 0V | 00:00:00 | 00:00:00 | 00:00:00 | |
| MIELECB | 2026-09-03 01:03:28 | 49.95450 | 21.75403 | 82° | 46km/h | 33686m | 6.1m/s | 0°C | 0% | 0hPa | 0V | 00:00:00 | 00:00:00 | 00:00:00 | |
| SQ9PSP-11 | 2026-09-03 01:03:20 | 49.95448 | 21.75332 | 122° | 46km/h | 33624m | 0.5m/s | 0°C | 0% | 0hPa | 0V | 00:00:00 | 00:00:00 | 00:00:00 | |
| MIELECB | 2026-09-03 01:03:15 | 49.95440 | 21.75298 | 334° | 27km/h | 33608m | 1.0m/s | 0°C | 0% | 0hPa | 0V | 00:00:00 | 00:00:00 | 00:00:00 | |
| AKAW682 | 2026-09-03 01:03:14 | 49.95434 | 21.75301 | 5° | 18km/h | 33607m | 5.2m/s | 0°C | 0% | 0hPa | 0V | 00:00:00 | 00:00:00 | 00:00:00 | |
| MIELECB | 2026-09-03 01:03:09 | 49.95445 | 21.75261 | 128° | 29km/h | 33568m | 4.4m/s | 0°C | 0% | 0hPa | 0V | 00:00:00 | 00:00:00 | 00:00:00 | |
| SQ9PSP-11 | 2026-09-03 01:03:05 | 49.95441 | 21.75235 | 44° | 37km/h | 33544m | 6.6m/s | 0°C | 0% | 0hPa | 0V | 00:00:00 | 00:00:00 | 00:00:00 | |
| MIELECB | 2026-09-03 01:03:02 | 49.95429 | 21.75201 | 64° | 29km/h | 33522m | 4.7m/s | 0°C | 0% | 0hPa | 0V | 00:00:00 | 00:00:00 | 00:00:00 | |
| MIELECB | 2026-09-03 01:02:54 | 49.95447 | 21.75145 | 69° | 44km/h | 33465m | 7.4m/s | 0°C | 0% | 0hPa | 0V | 00:00:00 | 00:00:00 | 00:00:00 | |
| AKAW68 | 2026-09-03 01:02:53 | 49.95443 | 21.75130 | 46° | 35km/h | 33455m | 4.5m/s | 0°C | 0% | 0hPa | 0V | 00:00:00 | 00:00:00 | 00:00:00 | |
| AKAW682 | 2026-09-03 01:02:51 | 49.95428 | 21.75118 | 346° | 44km/h | 33447m | -1.8m/s | 0°C | 0% | 0hPa | 0V | 00:00:00 | 00:00:00 | 00:00:00 | |
| SQ9PSP-11 | 2026-09-03 01:02:49 | 49.95408 | 21.75132 | 320° | 16km/h | 33442m | 2.5m/s | 0°C | 0% | 0hPa | 0V | 00:00:00 | 00:00:00 | 00:00:00 | |
| MIELECB | 2026-09-03 01:02:47 | 49.95412 | 21.75123 | 130° | 33km/h | 33427m | 9.9m/s | 0°C | 0% | 0hPa | 0V | 00:00:00 | 00:00:00 | 00:00:00 | |
| MIELECB | 2026-09-03 01:02:41 | 49.95402 | 21.75065 | 312° | 38km/h | 33401m | 4.5m/s | 0°C | 0% | 0hPa | 0V | 00:00:00 | 00:00:00 | 00:00:00 | |
| MIELECB | 2026-09-03 01:02:36 | 49.95393 | 21.75062 | 101° | 42km/h | 33372m | 7.3m/s | 0°C | 0% | 0hPa | 0V | 00:00:00 | 00:00:00 | 00:00:00 | |
| SQ9PSP-11 | 2026-09-03 01:02:32 | 49.95385 | 21.75000 | 19° | 13km/h | 33348m | 2.2m/s | 0°C | 0% | 0hPa | 0V | 00:00:00 | 00:00:00 | 00:00:00 | |
| MIELECB | 2026-09-03 01:02:31 | 49.95380 | 21.75001 | 327° | 20km/h | 33343m | 4.3m/s | 0°C | 0% | 0hPa | 0V | 00:00:00 | 00:00:00 | 00:00:00 | |
| AKAW682 | 2026-09-03 01:02:30 | 49.95376 | 21.75005 | 320° | 16km/h | 33339m | 7.1m/s | 0°C | 0% | 0hPa | 0V | 00:00:00 | 00:00:00 | 00:00:00 | |
| MIELECB | 2026-09-03 01:02:25 | 49.95370 | 21.74984 | 73° | 26km/h | 33304m | 6.4m/s | 0°C | 0% | 0hPa | 0V | 00:00:00 | 00:00:00 | 00:00:00 | |
| MIELECB | 2026-09-03 01:02:19 | 49.95341 | 21.74924 | 84° | 22km/h | 33267m | 7.2m/s | 0°C | 0% | 0hPa | 0V | 00:00:00 | 00:00:00 | 00:00:00 | |
| SQ9PSP-11 | 2026-09-03 01:02:17 | 49.95341 | 21.74912 | 89° | 7km/h | 33254m | 5.2m/s | 0°C | 0% | 0hPa | 0V | 00:00:00 | 00:00:00 | 00:00:00 | |
| MIELECB | 2026-09-03 01:02:14 | 49.95336 | 21.74904 | 39° | 24km/h | 33238m | 4.9m/s | 0°C | 0% | 0hPa | 0V | 00:00:00 | 00:00:00 | 00:00:00 | |
| AKAW682 | 2026-09-03 01:02:10 | 49.95326 | 21.74859 | 73° | 27km/h | 33209m | 3.6m/s | 0°C | 0% | 0hPa | 0V | 00:00:00 | 00:00:00 | 00:00:00 | |
| MIELECB | 2026-09-03 01:02:09 | 49.95324 | 21.74849 | 69° | 20km/h | 33203m | 4.3m/s | 0°C | 0% | 0hPa | 0V | 00:00:00 | 00:00:00 | 00:00:00 | |
| MIELECB | 2026-09-03 01:02:03 | 49.95307 | 21.74830 | 99° | 27km/h | 33160m | 5.8m/s | 0°C | 0% | 0hPa | 0V | 00:00:00 | 00:00:00 | 00:00:00 | |
| SQ9PSP-11 | 2026-09-03 01:02:02 | 49.95307 | 21.74817 | 85° | 37km/h | 33151m | 2.9m/s | 0°C | 0% | 0hPa | 0V | 00:00:00 | 00:00:00 | 00:00:00 | |
| MIELECB | 2026-09-03 01:01:56 | 49.95278 | 21.74775 | 27° | 7km/h | 33123m | 6.9m/s | 0°C | 0% | 0hPa | 0V | 00:00:00 | 00:00:00 | 00:00:00 | |
| AKAW682 | 2026-09-03 01:01:50 | 49.95260 | 21.74735 | 14° | 42km/h | 33078m | 3.0m/s | 0°C | 0% | 0hPa | 0V | 00:00:00 | 00:00:00 | 00:00:00 | |
| SQ9PSP-11 | 2026-09-03 01:01:46 | 49.95243 | 21.74717 | 77° | 16km/h | 33064m | 7.0m/s | 0°C | 0% | 0hPa | 0V | 00:00:00 | 00:00:00 | 00:00:00 | |
| MIELECB | 2026-09-03 01:01:45 | 49.95245 | 21.74710 | 140° | 22km/h | 33056m | 4.5m/s | 0°C | 0% | 0hPa | 0V | 00:00:00 | 00:00:00 | 00:00:00 | |
| MIELECB | 2026-09-03 01:01:37 | 49.95222 | 21.74699 | 87° | 16km/h | 33016m | 6.1m/s | 0°C | 0% | 0hPa | 0V | 00:00:00 | 00:00:00 | 00:00:00 | |
| MIELECB | 2026-09-03 01:01:31 | 49.95227 | 21.74682 | 21° | 18km/h | 32979m | 4.7m/s | 0°C | 0% | 0hPa | 0V | 00:00:00 | 00:00:00 | 00:00:00 | |
| SQ9PSP-11 | 2026-09-03 01:01:30 | 49.95223 | 21.74679 | 41° | 24km/h | 32974m | 6.8m/s | 0°C | 0% | 0hPa | 0V | 00:00:00 | 00:00:00 | 00:00:00 | |
| MIELECB | 2026-09-03 01:01:25 | 49.95207 | 21.74625 | 52° | 22km/h | 32940m | 6.6m/s | 0°C | 0% | 0hPa | 0V | 00:00:00 | 00:00:00 | 00:00:00 | |
| MIELECB | 2026-09-03 01:01:19 | 49.95212 | 21.74606 | 88° | 18km/h | 32902m | 4.3m/s | 0°C | 0% | 0hPa | 0V | 00:00:00 | 00:00:00 | 00:00:00 | |
| SQ9PSP-11 | 2026-09-03 01:01:15 | 49.95193 | 21.74584 | 38° | 22km/h | 32881m | 1.8m/s | 0°C | 0% | 0hPa | 0V | 00:00:00 | 00:00:00 | 00:00:00 | |
| MIELECB | 2026-09-03 01:01:13 | 49.95190 | 21.74573 | 138° | 20km/h | 32871m | 8.1m/s | 0°C | 0% | 0hPa | 0V | 00:00:00 | 00:00:00 | 00:00:00 | |
| AKAW682 | 2026-09-03 01:01:09 | 49.95218 | 21.74560 | 162° | 11km/h | 32850m | 5.7m/s | 0°C | 0% | 0hPa | 0V | 00:00:00 | 00:00:00 | 00:00:00 | |
| AKAW68 | 2026-09-03 01:01:08 | 49.95218 | 21.74559 | 32° | 11km/h | 32844m | 7.1m/s | 0°C | 0% | 0hPa | 0V | 00:00:00 | 00:00:00 | 00:00:00 | |
| MIELECB | 2026-09-03 01:01:06 | 49.95205 | 21.74548 | 35° | 37km/h | 32833m | 4.3m/s | 0°C | 0% | 0hPa | 0V | 00:00:00 | 00:00:00 | 00:00:00 | |
| MIELECB | 2026-09-03 01:01:00 | 49.95208 | 21.74519 | 221° | 20km/h | 32798m | 5.2m/s | 0°C | 0% | 0hPa | 0V | 00:00:00 | 00:00:00 | 00:00:00 | |
| MIELECB | 2026-09-03 01:00:55 | 49.95193 | 21.74511 | 80° | 31km/h | 32765m | 6.8m/s | 0°C | 0% | 0hPa | 0V | 00:00:00 | 00:00:00 | 00:00:00 | |
| MIELECB | 2026-09-03 01:00:49 | 49.95189 | 21.74447 | 343° | 13km/h | 32731m | 6.3m/s | 0°C | 0% | 0hPa | 0V | 00:00:00 | 00:00:00 | 00:00:00 | |
| AKAW68 | 2026-09-03 01:00:48 | 49.95187 | 21.74450 | 316° | 11km/h | 32724m | 6.0m/s | 0°C | 0% | 0hPa | 0V | 00:00:00 | 00:00:00 | 00:00:00 | |
| SQ9PSP-11 | 2026-09-03 01:00:44 | 49.95182 | 21.74445 | 69° | 22km/h | 32702m | 5.1m/s | 0°C | 0% | 0hPa | 0V | 00:00:00 | 00:00:00 | 00:00:00 | |
| MIELECB | 2026-09-03 01:00:38 | 49.95157 | 21.74392 | 124° | 5km/h | 32665m | 7.3m/s | 0°C | 0% | 0hPa | 0V | 00:00:00 | 00:00:00 | 00:00:00 | |
| MIELECB | 2026-09-03 01:00:32 | 49.95143 | 21.74385 | 35° | 42km/h | 32637m | 4.4m/s | 0°C | 0% | 0hPa | 0V | 00:00:00 | 00:00:00 | 00:00:00 | |
| SQ9PSP-11 | 2026-09-03 01:00:28 | 49.95135 | 21.74336 | 131° | 22km/h | 32614m | 4.4m/s | 0°C | 0% | 0hPa | 0V | 00:00:00 | 00:00:00 | 00:00:00 | |
| AKAW68 | 2026-09-03 01:00:27 | 49.95138 | 21.74332 | 146° | 9km/h | 32610m | 6.7m/s | 0°C | 0% | 0hPa | 0V | 00:00:00 | 00:00:00 | 00:00:00 | |
| MIELECB | 2026-09-03 01:00:26 | 49.95139 | 21.74331 | 284° | 2km/h | 32604m | 7.6m/s | 0°C | 0% | 0hPa | 0V | 00:00:00 | 00:00:00 | 00:00:00 | |
| MIELECB | 2026-09-03 01:00:21 | 49.95124 | 21.74327 | 82° | 29km/h | 32569m | 6.2m/s | 0°C | 0% | 0hPa | 0V | 00:00:00 | 00:00:00 | 00:00:00 | |
| MIELECB | 2026-09-03 01:00:14 | 49.95116 | 21.74277 | 184° | 15km/h | 32523m | 5.2m/s | 0°C | 0% | 0hPa | 0V | 00:00:00 | 00:00:00 | 00:00:00 | |
| SQ9PSP-11 | 2026-09-03 01:00:13 | 49.95120 | 21.74278 | 184° | 15km/h | 32519m | 3.9m/s | 0°C | 0% | 0hPa | 0V | 00:00:00 | 00:00:00 | 00:00:00 | |
| MIELECB | 2026-09-03 01:00:08 | 49.95103 | 21.74257 | 50° | 33km/h | 32494m | 2.9m/s | 0°C | 0% | 0hPa | 0V | 00:00:00 | 00:00:00 | 00:00:00 | |
| AKAW68 | 2026-09-03 01:00:06 | 49.95101 | 21.74235 | 118° | 27km/h | 32486m | 8.3m/s | 0°C | 0% | 0hPa | 0V | 00:00:00 | 00:00:00 | 00:00:00 | |
| AKAW682 | 2026-09-03 01:00:04 | 49.95115 | 21.74227 | 176° | 37km/h | 32474m | 5.5m/s | 0°C | 0% | 0hPa | 0V | 00:00:00 | 00:00:00 | 00:00:00 | |
| MIELECB | 2026-09-03 01:00:01 | 49.95129 | 21.74233 | 350° | 7km/h | 32456m | 6.6m/s | 0°C | 0% | 0hPa | 0V | 00:00:00 | 00:00:00 | 00:00:00 | |
| SQ9PSP-11 | 2026-09-03 00:59:58 | 49.95113 | 21.74208 | 71° | 44km/h | 32436m | 7.2m/s | 0°C | 0% | 0hPa | 0V | 00:00:00 | 00:00:00 | 00:00:00 | |
| MIELECB | 2026-09-03 00:59:56 | 49.95114 | 21.74178 | 116° | 40km/h | 32422m | 5.7m/s | 0°C | 0% | 0hPa | 0V | 00:00:00 | 00:00:00 | 00:00:00 | |
| MIELECB | 2026-09-03 00:59:49 | 49.95123 | 21.74137 | 89° | 29km/h | 32374m | 6.0m/s | 0°C | 0% | 0hPa | 0V | 00:00:00 | 00:00:00 | 00:00:00 | |
| AKAW68 | 2026-09-03 00:59:45 | 49.95135 | 21.74085 | 118° | 24km/h | 32350m | 4.5m/s | 0°C | 0% | 0hPa | 0V | 00:00:00 | 00:00:00 | 00:00:00 | |
| AKAW682 | 2026-09-03 00:59:43 | 49.95136 | 21.74072 | 63° | 13km/h | 32339m | 4.0m/s | 0°C | 0% | 0hPa | 0V | 00:00:00 | 00:00:00 | 00:00:00 | |
| SQ9PSP-11 | 2026-09-03 00:59:42 | 49.95134 | 21.74065 | 68° | 22km/h | 32333m | 4.5m/s | 0°C | 0% | 0hPa | 0V | 00:00:00 | 00:00:00 | 00:00:00 | |
| MIELECB | 2026-09-03 00:59:38 | 49.95136 | 21.74016 | 110° | 31km/h | 32312m | 5.2m/s | 0°C | 0% | 0hPa | 0V | 00:00:00 | 00:00:00 | 00:00:00 | |
| MIELECB | 2026-09-03 00:59:31 | 49.95159 | 21.73939 | 95° | 35km/h | 32265m | 3.5m/s | 0°C | 0% | 0hPa | 0V | 00:00:00 | 00:00:00 | 00:00:00 | |
| SQ9PSP-11 | 2026-09-03 00:59:27 | 49.95167 | 21.73901 | 129° | 29km/h | 32247m | 5.3m/s | 0°C | 0% | 0hPa | 0V | 00:00:00 | 00:00:00 | 00:00:00 | |
| MIELECB | 2026-09-03 00:59:25 | 49.95182 | 21.73876 | 128° | 46km/h | 32234m | 4.9m/s | 0°C | 0% | 0hPa | 0V | 00:00:00 | 00:00:00 | 00:00:00 | |
| AKAW68 | 2026-09-03 00:59:24 | 49.95188 | 21.73859 | 116° | 55km/h | 32230m | 4.3m/s | 0°C | 0% | 0hPa | 0V | 00:00:00 | 00:00:00 | 00:00:00 | |
| AKAW682 | 2026-09-03 00:59:22 | 49.95194 | 21.73827 | 88° | 37km/h | 32219m | 7.5m/s | 0°C | 0% | 0hPa | 0V | 00:00:00 | 00:00:00 | 00:00:00 | |
| SQ9EZE-12 | 2026-09-03 00:59:18 | 49.95188 | 21.73766 | 120° | 47km/h | 32187m | 7.6m/s | 0°C | 0% | 0hPa | 0V | 00:00:00 | 00:00:00 | 00:00:00 | |
| SQ9PSP-11 | 2026-09-03 00:59:11 | 49.95213 | 21.73690 | 58° | 27km/h | 32154m | 4.5m/s | 0°C | 0% | 0hPa | 0V | 00:00:00 | 00:00:00 | 00:00:00 | |
| MIELECB | 2026-09-03 00:59:10 | 49.95210 | 21.73677 | 74° | 38km/h | 32149m | 6.6m/s | 0°C | 0% | 0hPa | 0V | 00:00:00 | 00:00:00 | 00:00:00 | |
| AKAW68 | 2026-09-03 00:59:04 | 49.95211 | 21.73594 | 112° | 31km/h | 32111m | 4.6m/s | 0°C | 0% | 0hPa | 0V | 00:00:00 | 00:00:00 | 00:00:00 | |
| AKAW682 | 2026-09-03 00:59:02 | 49.95217 | 21.73573 | 112° | 35km/h | 32100m | 5.4m/s | 0°C | 0% | 0hPa | 0V | 00:00:00 | 00:00:00 | 00:00:00 | |
| MIELECB | 2026-09-03 00:59:00 | 49.95221 | 21.73544 | 86° | 44km/h | 32089m | 3.8m/s | 0°C | 0% | 0hPa | 0V | 00:00:00 | 00:00:00 | 00:00:00 | |
| SQ9PSP-11 | 2026-09-03 00:58:56 | 49.95206 | 21.73486 | 48° | 35km/h | 32062m | 5.3m/s | 0°C | 0% | 0hPa | 0V | 00:00:00 | 00:00:00 | 00:00:00 | |
| MIELECB | 2026-09-03 00:58:53 | 49.95198 | 21.73450 | 93° | 42km/h | 32043m | 7.4m/s | 0°C | 0% | 0hPa | 0V | 00:00:00 | 00:00:00 | 00:00:00 | |
| SQ9EZE-12 | 2026-09-03 00:58:52 | 49.95200 | 21.73432 | 105° | 49km/h | 32035m | 4.6m/s | 0°C | 0% | 0hPa | 0V | 00:00:00 | 00:00:00 | 00:00:00 | |
| OE3JTB-15 | 2026-09-03 00:58:50 | 49.95203 | 21.73396 | 90° | 42km/h | 32028m | 4.0m/s | 0°C | 0% | 0hPa | 0V | 00:00:00 | 00:00:00 | 00:00:00 | |
| MIELECB | 2026-09-03 00:58:45 | 49.95177 | 21.73348 | 63° | 35km/h | 31995m | 5.8m/s | 0°C | 0% | 0hPa | 0V | 00:00:00 | 00:00:00 | 00:00:00 | |
| AKAW68 | 2026-09-03 00:58:42 | 49.95175 | 21.73292 | 96° | 55km/h | 31970m | 5.6m/s | 0°C | 0% | 0hPa | 0V | 00:00:00 | 00:00:00 | 00:00:00 | |
| MIELECB | 2026-09-03 00:58:39 | 49.95174 | 21.73238 | 69° | 37km/h | 31953m | 6.8m/s | 0°C | 0% | 0hPa | 0V | 00:00:00 | 00:00:00 | 00:00:00 | |
| MIELECB | 2026-09-03 00:58:32 | 49.95143 | 21.73150 | 61° | 47km/h | 31909m | 7.8m/s | 0°C | 0% | 0hPa | 0V | 00:00:00 | 00:00:00 | 00:00:00 | |
| SQ9PSP-11 | 2026-09-03 00:58:26 | 49.95117 | 21.73058 | 85° | 38km/h | 31871m | 3.8m/s | 0°C | 0% | 0hPa | 0V | 00:00:00 | 00:00:00 | 00:00:00 | |
| MIELECB | 2026-09-03 00:58:24 | 49.95109 | 21.73037 | 33° | 38km/h | 31861m | 7.1m/s | 0°C | 0% | 0hPa | 0V | 00:00:00 | 00:00:00 | 00:00:00 | |
| SQ9EZE-12 | 2026-09-03 00:58:22 | 49.95090 | 21.73019 | 32° | 49km/h | 31850m | 3.6m/s | 0°C | 0% | 0hPa | 0V | 00:00:00 | 00:00:00 | 00:00:00 | |
| AKAW68 | 2026-09-03 00:58:20 | 49.95071 | 21.72993 | 52° | 49km/h | 31841m | 5.3m/s | 0°C | 0% | 0hPa | 0V | 00:00:00 | 00:00:00 | 00:00:00 | |
| AKAW682 | 2026-09-03 00:58:19 | 49.95065 | 21.72977 | 71° | 47km/h | 31835m | 6.6m/s | 0°C | 0% | 0hPa | 0V | 00:00:00 | 00:00:00 | 00:00:00 | |
| OE3JTB-15 | 2026-09-03 00:58:15 | 49.95059 | 21.72925 | 49° | 24km/h | 31821m | 9.0m/s | 0°C | 0% | 0hPa | 0V | 00:00:00 | 00:00:00 | 00:00:00 | |
| MIELECB | 2026-09-03 00:58:13 | 49.95042 | 21.72912 | 14° | 51km/h | 31801m | 5.4m/s | 0°C | 0% | 0hPa | 0V | 00:00:00 | 00:00:00 | 00:00:00 | |
| SQ9PSP-11 | 2026-09-03 00:58:10 | 49.95009 | 21.72880 | 59° | 51km/h | 31783m | 7.2m/s | 0°C | 0% | 0hPa | 0V | 00:00:00 | 00:00:00 | 00:00:00 | |
| MIELECB | 2026-09-03 00:58:08 | 49.95003 | 21.72845 | 85° | 42km/h | 31772m | 4.6m/s | 0°C | 0% | 0hPa | 0V | 00:00:00 | 00:00:00 | 00:00:00 | |
| MIELECB | 2026-09-03 00:58:02 | 49.94964 | 21.72801 | 22° | 42km/h | 31736m | 5.4m/s | 0°C | 0% | 0hPa | 0V | 00:00:00 | 00:00:00 | 00:00:00 | |
| SQ9EZE-12 | 2026-09-03 00:58:01 | 49.94955 | 21.72793 | 48° | 40km/h | 31730m | 7.3m/s | 0°C | 0% | 0hPa | 0V | 00:00:00 | 00:00:00 | 00:00:00 | |
| AKAW68 | 2026-09-03 00:58:00 | 49.94950 | 21.72780 | 70° | 40km/h | 31723m | 7.1m/s | 0°C | 0% | 0hPa | 0V | 00:00:00 | 00:00:00 | 00:00:00 | |
| AKAW682 | 2026-09-03 00:57:58 | 49.94945 | 21.72749 | 78° | 37km/h | 31711m | 6.3m/s | 0°C | 0% | 0hPa | 0V | 00:00:00 | 00:00:00 | 00:00:00 | |
| MIELECB | 2026-09-03 00:57:57 | 49.94942 | 21.72736 | 62° | 27km/h | 31704m | 6.9m/s | 0°C | 0% | 0hPa | 0V | 00:00:00 | 00:00:00 | 00:00:00 | |
| SQ9PSP-11 | 2026-09-03 00:57:54 | 49.94929 | 21.72719 | 25° | 24km/h | 31682m | 4.9m/s | 0°C | 0% | 0hPa | 0V | 00:00:00 | 00:00:00 | 00:00:00 | |
| MIELECB | 2026-09-03 00:57:51 | 49.94919 | 21.72693 | 72° | 37km/h | 31665m | 5.1m/s | 0°C | 0% | 0hPa | 0V | 00:00:00 | 00:00:00 | 00:00:00 | |
| MIELECB | 2026-09-03 00:57:45 | 49.94897 | 21.72639 | 82° | 18km/h | 31624m | 7.1m/s | 0°C | 0% | 0hPa | 0V | 00:00:00 | 00:00:00 | 00:00:00 | |
| AKAW682 | 2026-09-03 00:57:37 | 49.94879 | 21.72585 | 88° | 27km/h | 31576m | 6.8m/s | 0°C | 0% | 0hPa | 0V | 00:00:00 | 00:00:00 | 00:00:00 | |
| MIELECB | 2026-09-03 00:57:34 | 49.94880 | 21.72557 | 88° | 16km/h | 31560m | 6.3m/s | 0°C | 0% | 0hPa | 0V | 00:00:00 | 00:00:00 | 00:00:00 | |
| MIELECB | 2026-09-03 00:57:26 | 49.94872 | 21.72524 | 108° | 13km/h | 31511m | 6.1m/s | 0°C | 0% | 0hPa | 0V | 00:00:00 | 00:00:00 | 00:00:00 | |
| SQ9PSP-11 | 2026-09-03 00:57:24 | 49.94875 | 21.72516 | 95° | 13km/h | 31503m | 5.1m/s | 0°C | 0% | 0hPa | 0V | 00:00:00 | 00:00:00 | 00:00:00 | |
| MIELECB | 2026-09-03 00:57:19 | 49.94879 | 21.72490 | 39° | 11km/h | 31471m | 5.4m/s | 0°C | 0% | 0hPa | 0V | 00:00:00 | 00:00:00 | 00:00:00 | |
| AKAW68 | 2026-09-03 00:57:18 | 49.94877 | 21.72489 | 357° | 9km/h | 31465m | 6.9m/s | 0°C | 0% | 0hPa | 0V | 00:00:00 | 00:00:00 | 00:00:00 | |
| AKAW682 | 2026-09-03 00:57:17 | 49.94875 | 21.72488 | 26° | 13km/h | 31460m | 6.0m/s | 0°C | 0% | 0hPa | 0V | 00:00:00 | 00:00:00 | 00:00:00 | |
| MIELECB | 2026-09-03 00:57:10 | 49.94876 | 21.72450 | 44° | 22km/h | 31415m | 5.9m/s | 0°C | 0% | 0hPa | 0V | 00:00:00 | 00:00:00 | 00:00:00 | |
| SQ9PSP-11 | 2026-09-03 00:57:09 | 49.94871 | 21.72444 | 44° | 27km/h | 31411m | 6.1m/s | 0°C | 0% | 0hPa | 0V | 00:00:00 | 00:00:00 | 00:00:00 | |
| MIELECB | 2026-09-03 00:57:05 | 49.94864 | 21.72415 | 93° | 20km/h | 31390m | 9.6m/s | 0°C | 0% | 0hPa | 0V | 00:00:00 | 00:00:00 | 00:00:00 | |
| AKAW68 | 2026-09-03 00:56:58 | 49.94866 | 21.72367 | 89° | 24km/h | 31337m | 3.7m/s | 0°C | 0% | 0hPa | 0V | 00:00:00 | 00:00:00 | 00:00:00 | |
| AKAW682 | 2026-09-03 00:56:57 | 49.94865 | 21.72358 | 70° | 20km/h | 31332m | 6.9m/s | 0°C | 0% | 0hPa | 0V | 00:00:00 | 00:00:00 | 00:00:00 | |
| SQ9PSP-11 | 2026-09-03 00:56:53 | 49.94853 | 21.72345 | 107° | 4km/h | 31302m | 5.1m/s | 0°C | 0% | 0hPa | 0V | 00:00:00 | 00:00:00 | 00:00:00 | |
| MIELECB | 2026-09-03 00:56:52 | 49.94855 | 21.72343 | 135° | 15km/h | 31297m | 6.1m/s | 0°C | 0% | 0hPa | 0V | 00:00:00 | 00:00:00 | 00:00:00 | |
| MIELECB | 2026-09-03 00:56:46 | 49.94860 | 21.72318 | 45° | 13km/h | 31271m | 6.4m/s | 0°C | 0% | 0hPa | 0V | 00:00:00 | 00:00:00 | 00:00:00 | |
| MIELECB | 2026-09-03 00:56:41 | 49.94853 | 21.72295 | 53° | 18km/h | 31235m | 8.1m/s | 0°C | 0% | 0hPa | 0V | 00:00:00 | 00:00:00 | 00:00:00 | |
| SQ9PSP-11 | 2026-09-03 00:56:38 | 49.94846 | 21.72273 | 92° | 20km/h | 31212m | 7.9m/s | 0°C | 0% | 0hPa | 0V | 00:00:00 | 00:00:00 | 00:00:00 | |
| AKAW68 | 2026-09-03 00:56:37 | 49.94847 | 21.72265 | 98° | 20km/h | 31205m | 5.9m/s | 0°C | 0% | 0hPa | 0V | 00:00:00 | 00:00:00 | 00:00:00 | |
| AKAW682 | 2026-09-03 00:56:36 | 49.94847 | 21.72258 | 78° | 18km/h | 31200m | 5.1m/s | 0°C | 0% | 0hPa | 0V | 00:00:00 | 00:00:00 | 00:00:00 | |
| MIELECB | 2026-09-03 00:56:34 | 49.94840 | 21.72247 | 21° | 24km/h | 31186m | 7.2m/s | 0°C | 0% | 0hPa | 0V | 00:00:00 | 00:00:00 | 00:00:00 | |
| MIELECB | 2026-09-03 00:56:29 | 49.94816 | 21.72214 | 79° | 27km/h | 31152m | 4.3m/s | 0°C | 0% | 0hPa | 0V | 00:00:00 | 00:00:00 | 00:00:00 | |
| SQ9PSP-11 | 2026-09-03 00:56:22 | 49.94787 | 21.72164 | 78° | 15km/h | 31108m | 6.3m/s | 0°C | 0% | 0hPa | 0V | 00:00:00 | 00:00:00 | 00:00:00 | |
| AKAW68 | 2026-09-03 00:56:15 | 49.94760 | 21.72105 | 73° | 18km/h | 31064m | 5.4m/s | 0°C | 0% | 0hPa | 0V | 00:00:00 | 00:00:00 | 00:00:00 | |
| AKAW682 | 2026-09-03 00:56:14 | 49.94759 | 21.72099 | 79° | 18km/h | 31060m | 6.1m/s | 0°C | 0% | 0hPa | 0V | 00:00:00 | 00:00:00 | 00:00:00 | |
| MIELECB | 2026-09-03 00:56:09 | 49.94738 | 21.72071 | 29° | 24km/h | 31023m | 5.7m/s | 0°C | 0% | 0hPa | 0V | 00:00:00 | 00:00:00 | 00:00:00 | |
| SQ9PSP-11 | 2026-09-03 00:56:07 | 49.94731 | 21.72060 | 46° | 11km/h | 31008m | 5.4m/s | 0°C | 0% | 0hPa | 0V | 00:00:00 | 00:00:00 | 00:00:00 | |
| MIELECB | 2026-09-03 00:56:03 | 49.94717 | 21.72037 | 31° | 33km/h | 30990m | 5.6m/s | 0°C | 0% | 0hPa | 0V | 00:00:00 | 00:00:00 | 00:00:00 | |
| MIELECB | 2026-09-03 00:55:58 | 49.94695 | 21.72018 | 76° | 7km/h | 30962m | 7.0m/s | 0°C | 0% | 0hPa | 0V | 00:00:00 | 00:00:00 | 00:00:00 | |
| AKAW68 | 2026-09-03 00:55:54 | 49.94676 | 21.71995 | 27° | 33km/h | 30926m | 6.5m/s | 0°C | 0% | 0hPa | 0V | 00:00:00 | 00:00:00 | 00:00:00 | |
| MIELECB | 2026-09-03 00:55:52 | 49.94664 | 21.71984 | 24° | 15km/h | 30908m | 7.1m/s | 0°C | 0% | 0hPa | 0V | 00:00:00 | 00:00:00 | 00:00:00 | |
| SQ9PSP-11 | 2026-09-03 00:55:51 | 49.94660 | 21.71982 | 4° | 13km/h | 30901m | 6.1m/s | 0°C | 0% | 0hPa | 0V | 00:00:00 | 00:00:00 | 00:00:00 | |
| MIELECB | 2026-09-03 00:55:47 | 49.94642 | 21.71981 | 2° | 20km/h | 30875m | 5.2m/s | 0°C | 0% | 0hPa | 0V | 00:00:00 | 00:00:00 | 00:00:00 | |
| MIELECB | 2026-09-03 00:55:41 | 49.94620 | 21.71958 | 36° | 27km/h | 30838m | 6.0m/s | 0°C | 0% | 0hPa | 0V | 00:00:00 | 00:00:00 | 00:00:00 | |
| SQ9PSP-11 | 2026-09-03 00:55:36 | 49.94597 | 21.71949 | 279° | 7km/h | 30813m | 4.1m/s | 0°C | 0% | 0hPa | 0V | 00:00:00 | 00:00:00 | 00:00:00 | |
| AKAW682 | 2026-09-03 00:55:34 | 49.94587 | 21.71949 | 8° | 22km/h | 30796m | 6.4m/s | 0°C | 0% | 0hPa | 0V | 00:00:00 | 00:00:00 | 00:00:00 | |
| MIELECB | 2026-09-03 00:55:30 | 49.94560 | 21.71941 | 360° | 29km/h | 30780m | 4.9m/s | 0°C | 0% | 0hPa | 0V | 00:00:00 | 00:00:00 | 00:00:00 | |
| MIELECB | 2026-09-03 00:55:24 | 49.94545 | 21.71948 | 18° | 20km/h | 30740m | 5.7m/s | 0°C | 0% | 0hPa | 0V | 00:00:00 | 00:00:00 | 00:00:00 | |
| SQ9PSP-11 | 2026-09-03 00:55:20 | 49.94531 | 21.71940 | 2° | 13km/h | 30711m | 5.9m/s | 0°C | 0% | 0hPa | 0V | 00:00:00 | 00:00:00 | 00:00:00 | |
| MIELECB | 2026-09-03 00:55:18 | 49.94521 | 21.71938 | 358° | 22km/h | 30696m | 6.2m/s | 0°C | 0% | 0hPa | 0V | 00:00:00 | 00:00:00 | 00:00:00 | |
| MIELECB | 2026-09-03 00:55:13 | 49.94517 | 21.71942 | 169° | 15km/h | 30663m | 4.7m/s | 0°C | 0% | 0hPa | 0V | 00:00:00 | 00:00:00 | 00:00:00 | |
| AKAW68 | 2026-09-03 00:55:12 | 49.94519 | 21.71939 | 141° | 11km/h | 30658m | 3.8m/s | 0°C | 0% | 0hPa | 0V | 00:00:00 | 00:00:00 | 00:00:00 | |
| MIELECB | 2026-09-03 00:55:07 | 49.94498 | 21.71942 | 318° | 15km/h | 30629m | 6.7m/s | 0°C | 0% | 0hPa | 0V | 00:00:00 | 00:00:00 | 00:00:00 | |
| SQ9PSP-11 | 2026-09-03 00:55:04 | 49.94505 | 21.71944 | 156° | 22km/h | 30612m | 6.7m/s | 0°C | 0% | 0hPa | 0V | 00:00:00 | 00:00:00 | 00:00:00 | |
| MIELECB | 2026-09-03 00:55:01 | 49.94513 | 21.71929 | 112° | 7km/h | 30591m | 7.3m/s | 0°C | 0% | 0hPa | 0V | 00:00:00 | 00:00:00 | 00:00:00 | |
| MIELECB | 2026-09-03 00:54:55 | 49.94513 | 21.71935 | 93° | 5km/h | 30549m | 5.1m/s | 0°C | 0% | 0hPa | 0V | 00:00:00 | 00:00:00 | 00:00:00 | |
| AKAW682 | 2026-09-03 00:54:52 | 49.94521 | 21.71933 | 201° | 22km/h | 30532m | 5.5m/s | 0°C | 0% | 0hPa | 0V | 00:00:00 | 00:00:00 | 00:00:00 | |
| SQ9PSP-11 | 2026-09-03 00:54:49 | 49.94532 | 21.71945 | 249° | 11km/h | 30518m | 6.2m/s | 0°C | 0% | 0hPa | 0V | 00:00:00 | 00:00:00 | 00:00:00 | |
| MIELECB | 2026-09-03 00:54:43 | 49.94542 | 21.71945 | 191° | 33km/h | 30478m | 6.6m/s | 0°C | 0% | 0hPa | 0V | 00:00:00 | 00:00:00 | 00:00:00 | |
| MIELECB | 2026-09-03 00:54:38 | 49.94568 | 21.71935 | 80° | 11km/h | 30453m | 5.9m/s | 0°C | 0% | 0hPa | 0V | 00:00:00 | 00:00:00 | 00:00:00 | |
| SQ9PSP-11 | 2026-09-03 00:54:33 | 49.94584 | 21.71933 | 162° | 26km/h | 30425m | 6.8m/s | 0°C | 0% | 0hPa | 0V | 00:00:00 | 00:00:00 | 00:00:00 | |
| MIELECB | 2026-09-03 00:54:32 | 49.94590 | 21.71930 | 154° | 24km/h | 30421m | 5.0m/s | 0°C | 0% | 0hPa | 0V | 00:00:00 | 00:00:00 | 00:00:00 | |
| AKAW682 | 2026-09-03 00:54:31 | 49.94595 | 21.71928 | 160° | 20km/h | 30417m | 6.2m/s | 0°C | 0% | 0hPa | 0V | 00:00:00 | 00:00:00 | 00:00:00 | |
| AKAW68 | 2026-09-03 00:54:30 | 49.94601 | 21.71927 | 180° | 22km/h | 30411m | 6.3m/s | 0°C | 0% | 0hPa | 0V | 00:00:00 | 00:00:00 | 00:00:00 | |
| MIELECB | 2026-09-03 00:54:27 | 49.94616 | 21.71931 | 143° | 13km/h | 30396m | 7.5m/s | 0°C | 0% | 0hPa | 0V | 00:00:00 | 00:00:00 | 00:00:00 | |
| MIELECB | 2026-09-03 00:54:21 | 49.94642 | 21.71897 | 179° | 29km/h | 30344m | 7.3m/s | 0°C | 0% | 0hPa | 0V | 00:00:00 | 00:00:00 | 00:00:00 | |
| SQ9PSP-11 | 2026-09-03 00:54:17 | 49.94657 | 21.71894 | 106° | 15km/h | 30319m | 6.5m/s | 0°C | 0% | 0hPa | 0V | 00:00:00 | 00:00:00 | 00:00:00 | |
| MIELECB | 2026-09-03 00:54:15 | 49.94658 | 21.71884 | 143° | 7km/h | 30303m | 6.7m/s | 0°C | 0% | 0hPa | 0V | 00:00:00 | 00:00:00 | 00:00:00 | |
| AKAW68 | 2026-09-03 00:54:10 | 49.94678 | 21.71873 | 126° | 16km/h | 30266m | 5.4m/s | 0°C | 0% | 0hPa | 0V | 00:00:00 | 00:00:00 | 00:00:00 | |
| MIELECB | 2026-09-03 00:54:09 | 49.94679 | 21.71866 | 94° | 15km/h | 30260m | 4.9m/s | 0°C | 0% | 0hPa | 0V | 00:00:00 | 00:00:00 | 00:00:00 | |
| MIELECB | 2026-09-03 00:54:03 | 49.94684 | 21.71865 | 129° | 13km/h | 30229m | 6.9m/s | 0°C | 0% | 0hPa | 0V | 00:00:00 | 00:00:00 | 00:00:00 | |
| SQ9PSP-11 | 2026-09-03 00:54:01 | 49.94689 | 21.71854 | 111° | 11km/h | 30217m | 6.1m/s | 0°C | 0% | 0hPa | 0V | 00:00:00 | 00:00:00 | 00:00:00 | |
| MIELECB | 2026-09-03 00:53:57 | 49.94692 | 21.71855 | 311° | 11km/h | 30190m | 6.9m/s | 0°C | 0% | 0hPa | 0V | 00:00:00 | 00:00:00 | 00:00:00 | |
| MIELECB | 2026-09-03 00:53:51 | 49.94689 | 21.71848 | 198° | 9km/h | 30146m | 6.9m/s | 0°C | 0% | 0hPa | 0V | 00:00:00 | 00:00:00 | 00:00:00 | |
| AKAW682 | 2026-09-03 00:53:50 | 49.94692 | 21.71849 | 188° | 9km/h | 30140m | 5.7m/s | 0°C | 0% | 0hPa | 0V | 00:00:00 | 00:00:00 | 00:00:00 | |
| MIELECB | 2026-09-03 00:53:46 | 49.94695 | 21.71839 | 76° | 2km/h | 30114m | 5.5m/s | 0°C | 0% | 0hPa | 0V | 00:00:00 | 00:00:00 | 00:00:00 | |
| SQ9PSP-11 | 2026-09-03 00:53:45 | 49.94695 | 21.71839 | 271° | 7km/h | 30107m | 6.0m/s | 0°C | 0% | 0hPa | 0V | 00:00:00 | 00:00:00 | 00:00:00 | |
| MIELECB | 2026-09-03 00:53:41 | 49.94705 | 21.71851 | 137° | 20km/h | 30090m | 9.2m/s | 0°C | 0% | 0hPa | 0V | 00:00:00 | 00:00:00 | 00:00:00 | |
| MIELECB | 2026-09-03 00:53:36 | 49.94720 | 21.71831 | 250° | 7km/h | 30049m | 6.9m/s | 0°C | 0% | 0hPa | 0V | 00:00:00 | 00:00:00 | 00:00:00 | |
| MIELECB | 2026-09-03 00:53:31 | 49.94727 | 21.71823 | 157° | 24km/h | 30021m | 3.5m/s | 0°C | 0% | 0hPa | 0V | 00:00:00 | 00:00:00 | 00:00:00 | |
| SQ9PSP-11 | 2026-09-03 00:53:30 | 49.94734 | 21.71821 | 175° | 26km/h | 30017m | 5.2m/s | 0°C | 0% | 0hPa | 0V | 00:00:00 | 00:00:00 | 00:00:00 | |
| AKAW682 | 2026-09-03 00:53:29 | 49.94747 | 21.71819 | 187° | 20km/h | 30008m | 4.5m/s | 0°C | 0% | 0hPa | 0V | 00:00:00 | 00:00:00 | 00:00:00 | |
| MIELECB | 2026-09-03 00:53:25 | 49.94753 | 21.71814 | 72° | 18km/h | 29990m | 7.3m/s | 0°C | 0% | 0hPa | 0V | 00:00:00 | 00:00:00 | 00:00:00 | |
| MIELECB | 2026-09-03 00:53:20 | 49.94753 | 21.71799 | 166° | 15km/h | 29953m | 5.7m/s | 0°C | 0% | 0hPa | 0V | 00:00:00 | 00:00:00 | 00:00:00 | |
| AKAW68 | 2026-09-03 00:53:08 | 49.94777 | 21.71736 | 128° | 24km/h | 29898m | 6.8m/s | 0°C | 0% | 0hPa | 0V | 00:00:00 | 00:00:00 | 00:00:00 | |
| AKAW682 | 2026-09-03 00:53:05 | 49.94789 | 21.71719 | 132° | 15km/h | 29871m | 8.2m/s | 0°C | 0% | 0hPa | 0V | 00:00:00 | 00:00:00 | 00:00:00 | |
| MIELECB | 2026-09-03 00:53:02 | 49.94790 | 21.71693 | 82° | 29km/h | 29840m | 10.5m/s | 0°C | 0% | 0hPa | 0V | 00:00:00 | 00:00:00 | 00:00:00 | |
| SQ9PSP-11 | 2026-09-03 00:52:59 | 49.94784 | 21.71668 | 92° | 9km/h | 29810m | 3.8m/s | 0°C | 0% | 0hPa | 0V | 00:00:00 | 00:00:00 | 00:00:00 | |
| MIELECB | 2026-09-03 00:52:55 | 49.94790 | 21.71646 | 125° | 22km/h | 29784m | 2.7m/s | 0°C | 0% | 0hPa | 0V | 00:00:00 | 00:00:00 | 00:00:00 | |
| MIELECB | 2026-09-03 00:52:49 | 49.94780 | 21.71619 | 49° | 29km/h | 29755m | 6.1m/s | 0°C | 0% | 0hPa | 0V | 00:00:00 | 00:00:00 | 00:00:00 | |
| AKAW68 | 2026-09-03 00:52:47 | 49.94775 | 21.71602 | 73° | 24km/h | 29746m | 5.4m/s | 0°C | 0% | 0hPa | 0V | 00:00:00 | 00:00:00 | 00:00:00 | |
| SQ9PSP-11 | 2026-09-03 00:52:44 | 49.94780 | 21.71597 | 198° | 16km/h | 29725m | 4.9m/s | 0°C | 0% | 0hPa | 0V | 00:00:00 | 00:00:00 | 00:00:00 | |
| MIELECB | 2026-09-03 00:52:39 | 49.94780 | 21.71569 | 42° | 33km/h | 29689m | 7.0m/s | 0°C | 0% | 0hPa | 0V | 00:00:00 | 00:00:00 | 00:00:00 | |
| MIELECB | 2026-09-03 00:52:33 | 49.94770 | 21.71544 | 149° | 24km/h | 29653m | 4.2m/s | 0°C | 0% | 0hPa | 0V | 00:00:00 | 00:00:00 | 00:00:00 | |
| MIELECB | 2026-09-03 00:52:28 | 49.94775 | 21.71527 | 56° | 27km/h | 29624m | 7.7m/s | 0°C | 0% | 0hPa | 0V | 00:00:00 | 00:00:00 | 00:00:00 | |
| AKAW68 | 2026-09-03 00:52:26 | 49.94768 | 21.71506 | 70° | 33km/h | 29612m | 3.7m/s | 0°C | 0% | 0hPa | 0V | 00:00:00 | 00:00:00 | 00:00:00 | |
| AKAW682 | 2026-09-03 00:52:22 | 49.94767 | 21.71487 | 153° | 11km/h | 29591m | 6.1m/s | 0°C | 0% | 0hPa | 0V | 00:00:00 | 00:00:00 | 00:00:00 | |
| MIELECB | 2026-09-03 00:52:21 | 49.94770 | 21.71484 | 159° | 20km/h | 29585m | 6.5m/s | 0°C | 0% | 0hPa | 0V | 00:00:00 | 00:00:00 | 00:00:00 | |
| MIELECB | 2026-09-03 00:52:16 | 49.94773 | 21.71453 | 33° | 24km/h | 29552m | 5.7m/s | 0°C | 0% | 0hPa | 0V | 00:00:00 | 00:00:00 | 00:00:00 | |
| SQ9PSP-11 | 2026-09-03 00:52:13 | 49.94765 | 21.71432 | 96° | 20km/h | 29530m | 5.4m/s | 0°C | 0% | 0hPa | 0V | 00:00:00 | 00:00:00 | 00:00:00 | |
| MIELECB | 2026-09-03 00:52:10 | 49.94770 | 21.71418 | 159° | 4km/h | 29505m | 6.1m/s | 0°C | 0% | 0hPa | 0V | 00:00:00 | 00:00:00 | 00:00:00 | |
| AKAW68 | 2026-09-03 00:52:06 | 49.94762 | 21.71385 | 58° | 26km/h | 29471m | 4.0m/s | 0°C | 0% | 0hPa | 0V | 00:00:00 | 00:00:00 | 00:00:00 | |
| MIELECB | 2026-09-03 00:52:05 | 49.94762 | 21.71385 | 58° | 26km/h | 29471m | 4.0m/s | 0°C | 0% | 0hPa | 0V | 00:00:00 | 00:00:00 | 00:00:00 | |
| OE3JTB-15 | 2026-09-03 00:52:04 | 49.94758 | 21.71380 | 37° | 20km/h | 29466m | 6.1m/s | 0°C | 0% | 0hPa | 0V | 00:00:00 | 00:00:00 | 00:00:00 | |
| AKAW682 | 2026-09-03 00:52:02 | 49.94757 | 21.71378 | 194° | 4km/h | 29455m | 5.7m/s | 0°C | 0% | 0hPa | 0V | 00:00:00 | 00:00:00 | 00:00:00 | |
| MIELECB | 2026-09-03 00:51:59 | 49.94764 | 21.71371 | 127° | 18km/h | 29434m | 4.3m/s | 0°C | 0% | 0hPa | 0V | 00:00:00 | 00:00:00 | 00:00:00 | |
| SQ9PSP-11 | 2026-09-03 00:51:58 | 49.94767 | 21.71366 | 122° | 15km/h | 29433m | 3.6m/s | 0°C | 0% | 0hPa | 0V | 00:00:00 | 00:00:00 | 00:00:00 | |
| MIELECB | 2026-09-03 00:51:53 | 49.94756 | 21.71326 | 83° | 27km/h | 29406m | 6.8m/s | 0°C | 0% | 0hPa | 0V | 00:00:00 | 00:00:00 | 00:00:00 | |
| MIELECB | 2026-09-03 00:51:48 | 49.94757 | 21.71306 | 274° | 2km/h | 29376m | 3.2m/s | 0°C | 0% | 0hPa | 0V | 00:00:00 | 00:00:00 | 00:00:00 | |
| AKAW68 | 2026-09-03 00:51:44 | 49.94750 | 21.71277 | 61° | 37km/h | 29350m | 5.3m/s | 0°C | 0% | 0hPa | 0V | 00:00:00 | 00:00:00 | 00:00:00 | |
| MIELECB | 2026-09-03 00:51:42 | 49.94740 | 21.71259 | 20° | 22km/h | 29335m | 7.3m/s | 0°C | 0% | 0hPa | 0V | 00:00:00 | 00:00:00 | 00:00:00 | |
| SQ9PSP-11 | 2026-09-03 00:51:41 | 49.94735 | 21.71257 | 347° | 18km/h | 29328m | 4.7m/s | 0°C | 0% | 0hPa | 0V | 00:00:00 | 00:00:00 | 00:00:00 | |
| MIELECB | 2026-09-03 00:51:37 | 49.94731 | 21.71260 | 54° | 7km/h | 29300m | 6.0m/s | 0°C | 0% | 0hPa | 0V | 00:00:00 | 00:00:00 | 00:00:00 | |
| MIELECB | 2026-09-03 00:51:31 | 49.94707 | 21.71223 | 53° | 31km/h | 29264m | 6.4m/s | 0°C | 0% | 0hPa | 0V | 00:00:00 | 00:00:00 | 00:00:00 | |
| SQ9PSP-11 | 2026-09-03 00:51:26 | 49.94695 | 21.71218 | 299° | 11km/h | 29232m | 3.1m/s | 0°C | 0% | 0hPa | 0V | 00:00:00 | 00:00:00 | 00:00:00 | |
| MIELECB | 2026-09-03 00:51:25 | 49.94695 | 21.71221 | 341° | 5km/h | 29228m | 6.1m/s | 0°C | 0% | 0hPa | 0V | 00:00:00 | 00:00:00 | 00:00:00 | |
| AKAW68 | 2026-09-03 00:51:24 | 49.94695 | 21.71218 | 85° | 15km/h | 29221m | 7.9m/s | 0°C | 0% | 0hPa | 0V | 00:00:00 | 00:00:00 | 00:00:00 | |
| AKAW682 | 2026-09-03 00:51:21 | 49.94684 | 21.71182 | 51° | 40km/h | 29201m | 3.4m/s | 0°C | 0% | 0hPa | 0V | 00:00:00 | 00:00:00 | 00:00:00 | |
| MIELECB | 2026-09-03 00:51:18 | 49.94667 | 21.71162 | 9° | 13km/h | 29187m | 6.1m/s | 0°C | 0% | 0hPa | 0V | 00:00:00 | 00:00:00 | 00:00:00 | |
| OE3JTB-15 | 2026-09-03 00:51:14 | 49.94673 | 21.71156 | 150° | 16km/h | 29159m | 6.0m/s | 0°C | 0% | 0hPa | 0V | 00:00:00 | 00:00:00 | 00:00:00 | |
| MIELECB | 2026-09-03 00:51:12 | 49.94673 | 21.71150 | 29° | 18km/h | 29144m | 7.7m/s | 0°C | 0% | 0hPa | 0V | 00:00:00 | 00:00:00 | 00:00:00 | |
| SQ9PSP-11 | 2026-09-03 00:51:10 | 49.94662 | 21.71140 | 34° | 33km/h | 29133m | 4.7m/s | 0°C | 0% | 0hPa | 0V | 00:00:00 | 00:00:00 | 00:00:00 | |
| MIELECB | 2026-09-03 00:51:06 | 49.94651 | 21.71114 | 25° | 5km/h | 29120m | 4.2m/s | 0°C | 0% | 0hPa | 0V | 00:00:00 | 00:00:00 | 00:00:00 | |
| AKAW68 | 2026-09-03 00:51:03 | 49.94644 | 21.71116 | 332° | 18km/h | 29097m | 5.2m/s | 0°C | 0% | 0hPa | 0V | 00:00:00 | 00:00:00 | 00:00:00 | |
| AKAW682 | 2026-09-03 00:51:00 | 49.94632 | 21.71107 | 56° | 18km/h | 29069m | 4.7m/s | 0°C | 0% | 0hPa | 0V | 00:00:00 | 00:00:00 | 00:00:00 | |
| SQ9PSP-11 | 2026-09-03 00:50:54 | 49.94610 | 21.71078 | 5° | 4km/h | 29024m | 7.4m/s | 0°C | 0% | 0hPa | 0V | 00:00:00 | 00:00:00 | 00:00:00 | |
| MIELECB | 2026-09-03 00:50:52 | 49.94610 | 21.71077 | 344° | 5km/h | 29011m | 5.9m/s | 0°C | 0% | 0hPa | 0V | 00:00:00 | 00:00:00 | 00:00:00 | |
| MIELECB | 2026-09-03 00:50:44 | 49.94577 | 21.71068 | 354° | 11km/h | 28972m | 6.5m/s | 0°C | 0% | 0hPa | 0V | 00:00:00 | 00:00:00 | 00:00:00 | |
| AKAW68 | 2026-09-03 00:50:41 | 49.94570 | 21.71066 | 37° | 9km/h | 28951m | 8.1m/s | 0°C | 0% | 0hPa | 0V | 00:00:00 | 00:00:00 | 00:00:00 | |
| AKAW682 | 2026-09-03 00:50:40 | 49.94569 | 21.71062 | 68° | 11km/h | 28943m | 6.8m/s | 0°C | 0% | 0hPa | 0V | 00:00:00 | 00:00:00 | 00:00:00 | |
| SQ9PSP-11 | 2026-09-03 00:50:38 | 49.94562 | 21.71053 | 34° | 24km/h | 28931m | 8.8m/s | 0°C | 0% | 0hPa | 0V | 00:00:00 | 00:00:00 | 00:00:00 | |
| MIELECB | 2026-09-03 00:50:36 | 49.94550 | 21.71046 | 5° | 29km/h | 28916m | 4.5m/s | 0°C | 0% | 0hPa | 0V | 00:00:00 | 00:00:00 | 00:00:00 | |
| MIELECB | 2026-09-03 00:50:30 | 49.94543 | 21.71030 | 328° | 7km/h | 28872m | 5.8m/s | 0°C | 0% | 0hPa | 0V | 00:00:00 | 00:00:00 | 00:00:00 | |
| MIELECB | 2026-09-03 00:50:23 | 49.94517 | 21.71015 | 5° | 9km/h | 28835m | 6.6m/s | 0°C | 0% | 0hPa | 0V | 00:00:00 | 00:00:00 | 00:00:00 | |
| SQ9PSP-11 | 2026-09-03 00:50:21 | 49.94513 | 21.71020 | 278° | 11km/h | 28823m | 5.0m/s | 0°C | 0% | 0hPa | 0V | 00:00:00 | 00:00:00 | 00:00:00 | |
| AKAW682 | 2026-09-03 00:50:19 | 49.94514 | 21.71023 | 170° | 5km/h | 28810m | 5.8m/s | 0°C | 0% | 0hPa | 0V | 00:00:00 | 00:00:00 | 00:00:00 | |
| MIELECB | 2026-09-03 00:50:16 | 49.94515 | 21.71019 | 15° | 9km/h | 28797m | 6.2m/s | 0°C | 0% | 0hPa | 0V | 00:00:00 | 00:00:00 | 00:00:00 | |
| MIELECB | 2026-09-03 00:50:08 | 49.94506 | 21.71003 | 275° | 7km/h | 28751m | 6.1m/s | 0°C | 0% | 0hPa | 0V | 00:00:00 | 00:00:00 | 00:00:00 | |
| SQ9PSP-11 | 2026-09-03 00:50:03 | 49.94507 | 21.71003 | 110° | 11km/h | 28724m | 5.1m/s | 0°C | 0% | 0hPa | 0V | 00:00:00 | 00:00:00 | 00:00:00 | |
| MIELECB | 2026-09-03 00:50:02 | 49.94507 | 21.70999 | 95° | 7km/h | 28717m | 7.7m/s | 0°C | 0% | 0hPa | 0V | 00:00:00 | 00:00:00 | 00:00:00 | |
| AKAW682 | 2026-09-03 00:50:00 | 49.94502 | 21.70995 | 33° | 7km/h | 28694m | 6.1m/s | 0°C | 0% | 0hPa | 0V | 00:00:00 | 00:00:00 | 00:00:00 | |
| AKAW68 | 2026-09-03 00:49:58 | 49.94501 | 21.70993 | 97° | 7km/h | 28687m | 8.1m/s | 0°C | 0% | 0hPa | 0V | 00:00:00 | 00:00:00 | 00:00:00 | |
| SQ9PSP-11 | 2026-09-03 00:49:42 | 49.94523 | 21.70936 | 136° | 26km/h | 28591m | 5.7m/s | 0°C | 0% | 0hPa | 0V | 00:00:00 | 00:00:00 | 00:00:00 | |
| AKAW682 | 2026-09-03 00:49:39 | 49.94529 | 21.70923 | 75° | 7km/h | 28579m | 5.4m/s | 0°C | 0% | 0hPa | 0V | 00:00:00 | 00:00:00 | 00:00:00 | |
| AKAW68 | 2026-09-03 00:49:37 | 49.94529 | 21.70914 | 113° | 16km/h | 28568m | 7.9m/s | 0°C | 0% | 0hPa | 0V | 00:00:00 | 00:00:00 | 00:00:00 | |
| SQ9PSP-11 | 2026-09-03 00:49:25 | 49.94529 | 21.70833 | 52° | 15km/h | 28483m | 1.6m/s | 0°C | 0% | 0hPa | 0V | 00:00:00 | 00:00:00 | 00:00:00 | |
| AKAW682 | 2026-09-03 00:49:18 | 49.94526 | 21.70785 | 63° | 16km/h | 28449m | 6.9m/s | 0°C | 0% | 0hPa | 0V | 00:00:00 | 00:00:00 | 00:00:00 | |
| MIELECB | 2026-09-03 00:49:17 | 49.94524 | 21.70778 | 80° | 27km/h | 28442m | 8.2m/s | 0°C | 0% | 0hPa | 0V | 00:00:00 | 00:00:00 | 00:00:00 | |
| AKAW68 | 2026-09-03 00:49:16 | 49.94522 | 21.70767 | 76° | 26km/h | 28433m | 7.7m/s | 0°C | 0% | 0hPa | 0V | 00:00:00 | 00:00:00 | 00:00:00 | |
| MIELECB | 2026-09-03 00:49:12 | 49.94516 | 21.70731 | 50° | 22km/h | 28402m | 7.7m/s | 0°C | 0% | 0hPa | 0V | 00:00:00 | 00:00:00 | 00:00:00 | |
| SQ9PSP-11 | 2026-09-03 00:49:08 | 49.94509 | 21.70706 | 90° | 24km/h | 28371m | 6.1m/s | 0°C | 0% | 0hPa | 0V | 00:00:00 | 00:00:00 | 00:00:00 | |
| MIELECB | 2026-09-03 00:49:06 | 49.94508 | 21.70682 | 84° | 35km/h | 28361m | 3.0m/s | 0°C | 0% | 0hPa | 0V | 00:00:00 | 00:00:00 | 00:00:00 | |
| MIELECB | 2026-09-03 00:48:59 | 49.94489 | 21.70634 | 75° | 24km/h | 28324m | 4.8m/s | 0°C | 0% | 0hPa | 0V | 00:00:00 | 00:00:00 | 00:00:00 | |
| AKAW682 | 2026-09-03 00:48:57 | 49.94484 | 21.70618 | 55° | 20km/h | 28314m | 6.0m/s | 0°C | 0% | 0hPa | 0V | 00:00:00 | 00:00:00 | 00:00:00 | |
| AKAW68 | 2026-09-03 00:48:56 | 49.94480 | 21.70612 | 44° | 22km/h | 28309m | 5.4m/s | 0°C | 0% | 0hPa | 0V | 00:00:00 | 00:00:00 | 00:00:00 | |
| SQ9PSP-11 | 2026-09-03 00:48:52 | 49.94469 | 21.70581 | 78° | 22km/h | 28288m | 4.2m/s | 0°C | 0% | 0hPa | 0V | 00:00:00 | 00:00:00 | 00:00:00 | |
| MIELECB | 2026-09-03 00:48:47 | 49.94445 | 21.70557 | 28° | 16km/h | 28261m | 6.5m/s | 0°C | 0% | 0hPa | 0V | 00:00:00 | 00:00:00 | 00:00:00 | |
| MIELECB | 2026-09-03 00:48:42 | 49.94430 | 21.70525 | 30° | 20km/h | 28225m | 4.9m/s | 0°C | 0% | 0hPa | 0V | 00:00:00 | 00:00:00 | 00:00:00 | |
| MIELECB | 2026-09-03 00:48:37 | 49.94419 | 21.70527 | 356° | 9km/h | 28199m | 3.5m/s | 0°C | 0% | 0hPa | 0V | 00:00:00 | 00:00:00 | 00:00:00 | |
| SQ9PSP-11 | 2026-09-03 00:48:36 | 49.94416 | 21.70529 | 351° | 18km/h | 28197m | 7.1m/s | 0°C | 0% | 0hPa | 0V | 00:00:00 | 00:00:00 | 00:00:00 | |
| AKAW68 | 2026-09-03 00:48:35 | 49.94410 | 21.70529 | 360° | 27km/h | 28189m | 7.5m/s | 0°C | 0% | 0hPa | 0V | 00:00:00 | 00:00:00 | 00:00:00 | |
| MIELECB | 2026-09-03 00:48:31 | 49.94386 | 21.70515 | 78° | 15km/h | 28172m | 6.7m/s | 0°C | 0% | 0hPa | 0V | 00:00:00 | 00:00:00 | 00:00:00 | |
| MIELECB | 2026-09-03 00:48:25 | 49.94380 | 21.70532 | 333° | 20km/h | 28134m | 6.7m/s | 0°C | 0% | 0hPa | 0V | 00:00:00 | 00:00:00 | 00:00:00 | |
| MIELECB | 2026-09-03 00:48:21 | 49.94368 | 21.70518 | 44° | 11km/h | 28099m | 8.4m/s | 0°C | 0% | 0hPa | 0V | 00:00:00 | 00:00:00 | 00:00:00 | |
| SQ9PSP-11 | 2026-09-03 00:48:20 | 49.94368 | 21.70518 | 44° | 11km/h | 28099m | 8.4m/s | 0°C | 0% | 0hPa | 0V | 00:00:00 | 00:00:00 | 00:00:00 | |
| AKAW682 | 2026-09-03 00:48:15 | 49.94366 | 21.70546 | 285° | 22km/h | 28053m | 7.8m/s | 0°C | 0% | 0hPa | 0V | 00:00:00 | 00:00:00 | 00:00:00 | |
| MIELECB | 2026-09-03 00:48:14 | 49.94366 | 21.70546 | 285° | 22km/h | 28053m | 7.8m/s | 0°C | 0% | 0hPa | 0V | 00:00:00 | 00:00:00 | 00:00:00 | |
| MIELECB | 2026-09-03 00:48:08 | 49.94362 | 21.70556 | 205° | 13km/h | 28030m | 0.9m/s | 0°C | 0% | 0hPa | 0V | 00:00:00 | 00:00:00 | 00:00:00 | |
| SQ9PSP-11 | 2026-09-03 00:48:03 | 49.94360 | 21.70584 | 267° | 20km/h | 27993m | 3.3m/s | 0°C | 0% | 0hPa | 0V | 00:00:00 | 00:00:00 | 00:00:00 | |
| MIELECB | 2026-09-03 00:47:58 | 49.94375 | 21.70597 | 254° | 7km/h | 27968m | 4.2m/s | 0°C | 0% | 0hPa | 0V | 00:00:00 | 00:00:00 | 00:00:00 | |
| AKAW682 | 2026-09-03 00:47:53 | 49.94379 | 21.70623 | 221° | 22km/h | 27950m | 7.1m/s | 0°C | 0% | 0hPa | 0V | 00:00:00 | 00:00:00 | 00:00:00 | |
| MIELECB | 2026-09-03 00:47:52 | 49.94382 | 21.70630 | 225° | 16km/h | 27943m | 7.0m/s | 0°C | 0% | 0hPa | 0V | 00:00:00 | 00:00:00 | 00:00:00 | |
| SQ9PSP-11 | 2026-09-03 00:47:48 | 49.94390 | 21.70631 | 142° | 13km/h | 27918m | 6.2m/s | 0°C | 0% | 0hPa | 0V | 00:00:00 | 00:00:00 | 00:00:00 | |
| MIELECB | 2026-09-03 00:47:47 | 49.94393 | 21.70628 | 139° | 18km/h | 27914m | 5.3m/s | 0°C | 0% | 0hPa | 0V | 00:00:00 | 00:00:00 | 00:00:00 | |
| MIELECB | 2026-09-03 00:47:41 | 49.94395 | 21.70639 | 240° | 11km/h | 27879m | 5.2m/s | 0°C | 0% | 0hPa | 0V | 00:00:00 | 00:00:00 | 00:00:00 | |
| MIELECB | 2026-09-03 00:47:35 | 49.94414 | 21.70625 | 300° | 11km/h | 27850m | 6.8m/s | 0°C | 0% | 0hPa | 0V | 00:00:00 | 00:00:00 | 00:00:00 | |
| SQ9PSP-11 | 2026-09-03 00:47:33 | 49.94414 | 21.70630 | 230° | 9km/h | 27836m | 4.9m/s | 0°C | 0% | 0hPa | 0V | 00:00:00 | 00:00:00 | 00:00:00 | |
| AKAW682 | 2026-09-03 00:47:32 | 49.94416 | 21.70631 | 173° | 9km/h | 27832m | 5.3m/s | 0°C | 0% | 0hPa | 0V | 00:00:00 | 00:00:00 | 00:00:00 | |
| MIELECB | 2026-09-03 00:47:31 | 49.94418 | 21.70623 | 91° | 11km/h | 27820m | 5.8m/s | 0°C | 0% | 0hPa | 0V | 00:00:00 | 00:00:00 | 00:00:00 | |
| MIELECB | 2026-09-03 00:47:24 | 49.94426 | 21.70596 | 127° | 5km/h | 27783m | 7.2m/s | 0°C | 0% | 0hPa | 0V | 00:00:00 | 00:00:00 | 00:00:00 | |
| MIELECB | 2026-09-03 00:47:19 | 49.94419 | 21.70575 | 96° | 13km/h | 27751m | 6.7m/s | 0°C | 0% | 0hPa | 0V | 00:00:00 | 00:00:00 | 00:00:00 | |
| SQ9PSP-11 | 2026-09-03 00:47:17 | 49.94422 | 21.70568 | 143° | 13km/h | 27739m | 5.1m/s | 0°C | 0% | 0hPa | 0V | 00:00:00 | 00:00:00 | 00:00:00 | |
| MIELECB | 2026-09-03 00:47:14 | 49.94418 | 21.70558 | 34° | 16km/h | 27714m | 5.4m/s | 0°C | 0% | 0hPa | 0V | 00:00:00 | 00:00:00 | 00:00:00 | |
| AKAW682 | 2026-09-03 00:47:12 | 49.94416 | 21.70553 | 66° | 16km/h | 27708m | 5.5m/s | 0°C | 0% | 0hPa | 0V | 00:00:00 | 00:00:00 | 00:00:00 | |
| AKAW68 | 2026-09-03 00:47:10 | 49.94416 | 21.70540 | 113° | 24km/h | 27696m | 3.9m/s | 0°C | 0% | 0hPa | 0V | 00:00:00 | 00:00:00 | 00:00:00 | |
| MIELECB | 2026-09-03 00:47:07 | 49.94419 | 21.70521 | 49° | 13km/h | 27680m | 6.0m/s | 0°C | 0% | 0hPa | 0V | 00:00:00 | 00:00:00 | 00:00:00 | |
| MIELECB | 2026-09-03 00:47:02 | 49.94403 | 21.70507 | 95° | 9km/h | 27651m | 6.8m/s | 0°C | 0% | 0hPa | 0V | 00:00:00 | 00:00:00 | 00:00:00 | |
| MIELECB | 2026-09-03 00:46:57 | 49.94390 | 21.70473 | 71° | 11km/h | 27606m | 6.5m/s | 0°C | 0% | 0hPa | 0V | 00:00:00 | 00:00:00 | 00:00:00 | |
| AKAW682 | 2026-09-03 00:46:53 | 49.94387 | 21.70475 | 334° | 13km/h | 27587m | 6.0m/s | 0°C | 0% | 0hPa | 0V | 00:00:00 | 00:00:00 | 00:00:00 | |
| AKAW68 | 2026-09-03 00:46:50 | 49.94379 | 21.70480 | 323° | 13km/h | 27576m | 6.4m/s | 0°C | 0% | 0hPa | 0V | 00:00:00 | 00:00:00 | 00:00:00 | |
| SQ9PSP-11 | 2026-09-03 00:46:46 | 49.94375 | 21.70477 | 32° | 5km/h | 27559m | 7.1m/s | 0°C | 0% | 0hPa | 0V | 00:00:00 | 00:00:00 | 00:00:00 | |
| MIELECB | 2026-09-03 00:46:44 | 49.94373 | 21.70476 | 323° | 11km/h | 27544m | 6.2m/s | 0°C | 0% | 0hPa | 0V | 00:00:00 | 00:00:00 | 00:00:00 | |
| MIELECB | 2026-09-03 00:46:39 | 49.94370 | 21.70484 | 304° | 7km/h | 27512m | 4.9m/s | 0°C | 0% | 0hPa | 0V | 00:00:00 | 00:00:00 | 00:00:00 | |
| MIELECB | 2026-09-03 00:46:34 | 49.94366 | 21.70475 | 102° | 13km/h | 27485m | 3.8m/s | 0°C | 0% | 0hPa | 0V | 00:00:00 | 00:00:00 | 00:00:00 | |
| AKAW682 | 2026-09-03 00:46:31 | 49.94367 | 21.70468 | 306° | 5km/h | 27468m | 6.1m/s | 0°C | 0% | 0hPa | 0V | 00:00:00 | 00:00:00 | 00:00:00 | |
| SQ9PSP-11 | 2026-09-03 00:46:30 | 49.94366 | 21.70472 | 300° | 13km/h | 27462m | 4.7m/s | 0°C | 0% | 0hPa | 0V | 00:00:00 | 00:00:00 | 00:00:00 | |
| AKAW68 | 2026-09-03 00:46:29 | 49.94364 | 21.70475 | 302° | 13km/h | 27456m | 5.0m/s | 0°C | 0% | 0hPa | 0V | 00:00:00 | 00:00:00 | 00:00:00 | |
| MIELECB | 2026-09-03 00:46:28 | 49.94363 | 21.70479 | 217° | 9km/h | 27451m | 6.5m/s | 0°C | 0% | 0hPa | 0V | 00:00:00 | 00:00:00 | 00:00:00 | |
| OE3JTB-15 | 2026-09-03 00:46:23 | 49.94357 | 21.70461 | 30° | 11km/h | 27418m | 5.6m/s | 0°C | 0% | 0hPa | 0V | 00:00:00 | 00:00:00 | 00:00:00 | |
| MIELECB | 2026-09-03 00:46:18 | 49.94352 | 21.70475 | 293° | 11km/h | 27392m | 5.5m/s | 0°C | 0% | 0hPa | 0V | 00:00:00 | 00:00:00 | 00:00:00 | |
| SQ9PSP-11 | 2026-09-03 00:46:15 | 49.94344 | 21.70485 | 2° | 9km/h | 27378m | 4.8m/s | 0°C | 0% | 0hPa | 0V | 00:00:00 | 00:00:00 | 00:00:00 | |
| MIELECB | 2026-09-03 00:46:12 | 49.94347 | 21.70482 | 162° | 9km/h | 27363m | 4.4m/s | 0°C | 0% | 0hPa | 0V | 00:00:00 | 00:00:00 | 00:00:00 | |
| AKAW682 | 2026-09-03 00:46:10 | 49.94350 | 21.70481 | 245° | 4km/h | 27350m | 8.4m/s | 0°C | 0% | 0hPa | 0V | 00:00:00 | 00:00:00 | 00:00:00 | |
| AKAW68 | 2026-09-03 00:46:09 | 49.94349 | 21.70483 | 329° | 13km/h | 27342m | 5.8m/s | 0°C | 0% | 0hPa | 0V | 00:00:00 | 00:00:00 | 00:00:00 | |
| MIELECB | 2026-09-03 00:46:06 | 49.94344 | 21.70484 | 216° | 5km/h | 27327m | 5.1m/s | 0°C | 0% | 0hPa | 0V | 00:00:00 | 00:00:00 | 00:00:00 | |
| MIELECB | 2026-09-03 00:46:01 | 49.94356 | 21.70473 | 163° | 9km/h | 27300m | 1.9m/s | 0°C | 0% | 0hPa | 0V | 00:00:00 | 00:00:00 | 00:00:00 | |
| SQ9PSP-11 | 2026-09-03 00:45:59 | 49.94361 | 21.70475 | 183° | 15km/h | 27292m | 4.3m/s | 0°C | 0% | 0hPa | 0V | 00:00:00 | 00:00:00 | 00:00:00 | |
| MIELECB | 2026-09-03 00:45:56 | 49.94370 | 21.70468 | 108° | 7km/h | 27273m | 7.2m/s | 0°C | 0% | 0hPa | 0V | 00:00:00 | 00:00:00 | 00:00:00 | |
| OE3JTB-15 | 2026-09-03 00:45:54 | 49.94371 | 21.70461 | 124° | 16km/h | 27263m | 5.5m/s | 0°C | 0% | 0hPa | 0V | 00:00:00 | 00:00:00 | 00:00:00 | |
| MIELECB | 2026-09-03 00:45:51 | 49.94381 | 21.70457 | 129° | 9km/h | 27243m | 5.2m/s | 0°C | 0% | 0hPa | 0V | 00:00:00 | 00:00:00 | 00:00:00 | |
| AKAW68 | 2026-09-03 00:45:48 | 49.94387 | 21.70453 | 165° | 13km/h | 27236m | 6.4m/s | 0°C | 0% | 0hPa | 0V | 00:00:00 | 00:00:00 | 00:00:00 | |
| SQ9EZE-12 | 2026-09-03 00:45:45 | 49.94396 | 21.70453 | 168° | 7km/h | 27217m | 5.6m/s | 0°C | 0% | 0hPa | 0V | 00:00:00 | 00:00:00 | 00:00:00 | |
| SQ9PSP-11 | 2026-09-03 00:45:44 | 49.94397 | 21.70450 | 110° | 5km/h | 27209m | 6.6m/s | 0°C | 0% | 0hPa | 0V | 00:00:00 | 00:00:00 | 00:00:00 | |
| MIELECB | 2026-09-03 00:45:38 | 49.94410 | 21.70435 | 166° | 18km/h | 27174m | 5.2m/s | 0°C | 0% | 0hPa | 0V | 00:00:00 | 00:00:00 | 00:00:00 | |
| MIELECB | 2026-09-03 00:45:32 | 49.94429 | 21.70406 | 163° | 24km/h | 27139m | 6.8m/s | 0°C | 0% | 0hPa | 0V | 00:00:00 | 00:00:00 | 00:00:00 | |
| SQ9PSP-11 | 2026-09-03 00:45:28 | 49.94441 | 21.70389 | 103° | 22km/h | 27107m | 6.4m/s | 0°C | 0% | 0hPa | 0V | 00:00:00 | 00:00:00 | 00:00:00 | |
| AKAW68 | 2026-09-03 00:45:27 | 49.94442 | 21.70380 | 112° | 20km/h | 27101m | 5.1m/s | 0°C | 0% | 0hPa | 0V | 00:00:00 | 00:00:00 | 00:00:00 | |
| MIELECB | 2026-09-03 00:45:26 | 49.94443 | 21.70373 | 126° | 18km/h | 27095m | 7.1m/s | 0°C | 0% | 0hPa | 0V | 00:00:00 | 00:00:00 | 00:00:00 | |
| OE3JTB-15 | 2026-09-03 00:45:22 | 49.94457 | 21.70360 | 146° | 22km/h | 27064m | 6.7m/s | 0°C | 0% | 0hPa | 0V | 00:00:00 | 00:00:00 | 00:00:00 | |
| MIELECB | 2026-09-03 00:45:21 | 49.94459 | 21.70356 | 111° | 16km/h | 27057m | 4.6m/s | 0°C | 0% | 0hPa | 0V | 00:00:00 | 00:00:00 | 00:00:00 | |
| MIELECB | 2026-09-03 00:45:17 | 49.94473 | 21.70334 | 130° | 20km/h | 27032m | 4.7m/s | 0°C | 0% | 0hPa | 0V | 00:00:00 | 00:00:00 | 00:00:00 | |
| SQ9PSP-11 | 2026-09-03 00:45:13 | 49.94482 | 21.70317 | 118° | 15km/h | 27017m | 5.2m/s | 0°C | 0% | 0hPa | 0V | 00:00:00 | 00:00:00 | 00:00:00 | |
| MIELECB | 2026-09-03 00:45:10 | 49.94490 | 21.70309 | 155° | 9km/h | 26998m | 4.4m/s | 0°C | 0% | 0hPa | 0V | 00:00:00 | 00:00:00 | 00:00:00 | |
| AKAW68 | 2026-09-03 00:45:07 | 49.94494 | 21.70292 | 96° | 18km/h | 26978m | 6.1m/s | 0°C | 0% | 0hPa | 0V | 00:00:00 | 00:00:00 | 00:00:00 | |
| AKAW682 | 2026-09-03 00:45:06 | 49.94494 | 21.70292 | 96° | 18km/h | 26978m | 6.1m/s | 0°C | 0% | 0hPa | 0V | 00:00:00 | 00:00:00 | 00:00:00 | |
| MIELECB | 2026-09-03 00:45:04 | 49.94496 | 21.70282 | 125° | 13km/h | 26965m | 6.0m/s | 0°C | 0% | 0hPa | 0V | 00:00:00 | 00:00:00 | 00:00:00 | |
| MIELECB | 2026-09-03 00:44:59 | 49.94500 | 21.70264 | 132° | 7km/h | 26935m | 5.1m/s | 0°C | 0% | 0hPa | 0V | 00:00:00 | 00:00:00 | 00:00:00 | |
| SQ9PSP-11 | 2026-09-03 00:44:57 | 49.94502 | 21.70262 | 154° | 4km/h | 26925m | 2.7m/s | 0°C | 0% | 0hPa | 0V | 00:00:00 | 00:00:00 | 00:00:00 | |
| MIELECB | 2026-09-03 00:44:54 | 49.94498 | 21.70241 | 76° | 24km/h | 26902m | 6.8m/s | 0°C | 0% | 0hPa | 0V | 00:00:00 | 00:00:00 | 00:00:00 | |
| MIELECB | 2026-09-03 00:44:48 | 49.94503 | 21.70226 | 42° | 5km/h | 26868m | 5.2m/s | 0°C | 0% | 0hPa | 0V | 00:00:00 | 00:00:00 | 00:00:00 | |
| AKAW682 | 2026-09-03 00:44:45 | 49.94495 | 21.70217 | 36° | 15km/h | 26856m | 6.1m/s | 0°C | 0% | 0hPa | 0V | 00:00:00 | 00:00:00 | 00:00:00 | |
| SQ9PSP-11 | 2026-09-03 00:44:42 | 49.94490 | 21.70204 | 77° | 20km/h | 26839m | 6.4m/s | 0°C | 0% | 0hPa | 0V | 00:00:00 | 00:00:00 | 00:00:00 | |
| MIELECB | 2026-09-03 00:44:37 | 49.94482 | 21.70179 | 184° | 4km/h | 26810m | 5.8m/s | 0°C | 0% | 0hPa | 0V | 00:00:00 | 00:00:00 | 00:00:00 | |
| SQ9EZE-12 | 2026-09-03 00:44:35 | 49.94482 | 21.70177 | 91° | 5km/h | 26797m | 7.7m/s | 0°C | 0% | 0hPa | 0V | 00:00:00 | 00:00:00 | 00:00:00 | |
| MIELECB | 2026-09-03 00:44:32 | 49.94479 | 21.70157 | 76° | 24km/h | 26771m | 5.9m/s | 0°C | 0% | 0hPa | 0V | 00:00:00 | 00:00:00 | 00:00:00 | |
| MIELECB | 2026-09-03 00:44:27 | 49.94466 | 21.70138 | 28° | 13km/h | 26744m | 6.0m/s | 0°C | 0% | 0hPa | 0V | 00:00:00 | 00:00:00 | 00:00:00 | |
| AKAW68 | 2026-09-03 00:44:25 | 49.94462 | 21.70136 | 194° | 5km/h | 26734m | 5.3m/s | 0°C | 0% | 0hPa | 0V | 00:00:00 | 00:00:00 | 00:00:00 | |
| MIELECB | 2026-09-03 00:44:21 | 49.94473 | 21.70132 | 103° | 11km/h | 26715m | 6.2m/s | 0°C | 0% | 0hPa | 0V | 00:00:00 | 00:00:00 | 00:00:00 | |
| MIELECB | 2026-09-03 00:44:16 | 49.94458 | 21.70119 | 250° | 5km/h | 26687m | 5.8m/s | 0°C | 0% | 0hPa | 0V | 00:00:00 | 00:00:00 | 00:00:00 | |
| SQ9PSP-11 | 2026-09-03 00:44:13 | 49.94465 | 21.70109 | 81° | 16km/h | 26666m | 5.2m/s | 0°C | 0% | 0hPa | 0V | 00:00:00 | 00:00:00 | 00:00:00 | |
| MIELECB | 2026-09-03 00:44:10 | 49.94459 | 21.70103 | 7° | 18km/h | 26654m | 7.5m/s | 0°C | 0% | 0hPa | 0V | 00:00:00 | 00:00:00 | 00:00:00 | |
| MIELECB | 2026-09-03 00:44:04 | 49.94443 | 21.70103 | 87° | 18km/h | 26618m | 5.7m/s | 0°C | 0% | 0hPa | 0V | 00:00:00 | 00:00:00 | 00:00:00 | |
| MIELECB | 2026-09-03 00:43:59 | 49.94444 | 21.70094 | 8° | 9km/h | 26596m | 5.7m/s | 0°C | 0% | 0hPa | 0V | 00:00:00 | 00:00:00 | 00:00:00 | |
| SQ9PSP-11 | 2026-09-03 00:43:56 | 49.94438 | 21.70096 | 77° | 4km/h | 26579m | 7.5m/s | 0°C | 0% | 0hPa | 0V | 00:00:00 | 00:00:00 | 00:00:00 | |
| MIELECB | 2026-09-03 00:43:53 | 49.94443 | 21.70095 | 168° | 9km/h | 26558m | 6.3m/s | 0°C | 0% | 0hPa | 0V | 00:00:00 | 00:00:00 | 00:00:00 | |
| MIELECB | 2026-09-03 00:43:48 | 49.94446 | 21.70091 | 267° | 9km/h | 26524m | 7.2m/s | 0°C | 0% | 0hPa | 0V | 00:00:00 | 00:00:00 | 00:00:00 | |
| AKAW68 | 2026-09-03 00:43:43 | 49.94453 | 21.70094 | 179° | 16km/h | 26491m | 5.5m/s | 0°C | 0% | 0hPa | 0V | 00:00:00 | 00:00:00 | 00:00:00 | |
| MIELECB | 2026-09-03 00:43:42 | 49.94457 | 21.70095 | 196° | 15km/h | 26486m | 5.8m/s | 0°C | 0% | 0hPa | 0V | 00:00:00 | 00:00:00 | 00:00:00 | |
| SQ9PSP-11 | 2026-09-03 00:43:40 | 49.94461 | 21.70096 | 173° | 5km/h | 26473m | 5.2m/s | 0°C | 0% | 0hPa | 0V | 00:00:00 | 00:00:00 | 00:00:00 | |
| MIELECB | 2026-09-03 00:43:36 | 49.94466 | 21.70092 | 203° | 13km/h | 26456m | 5.8m/s | 0°C | 0% | 0hPa | 0V | 00:00:00 | 00:00:00 | 00:00:00 | |
| SP8MDH-15 | 2026-09-03 00:43:34 | 49.94473 | 21.70095 | 175° | 16km/h | 26443m | 7.4m/s | 0°C | 0% | 0hPa | 0V | 00:00:00 | 00:00:00 | 00:00:00 | |
| MIELECB | 2026-09-03 00:43:31 | 49.94488 | 21.70084 | 139° | 18km/h | 26419m | 4.9m/s | 0°C | 0% | 0hPa | 0V | 00:00:00 | 00:00:00 | 00:00:00 | |
| MIELECB | 2026-09-03 00:43:25 | 49.94510 | 21.70072 | 158° | 26km/h | 26387m | 1.4m/s | 0°C | 0% | 0hPa | 0V | 00:00:00 | 00:00:00 | 00:00:00 | |
| SQ9PSP-11 | 2026-09-03 00:43:24 | 49.94516 | 21.70069 | 166° | 27km/h | 26385m | 3.0m/s | 0°C | 0% | 0hPa | 0V | 00:00:00 | 00:00:00 | 00:00:00 | |
| AKAW682 | 2026-09-03 00:43:23 | 49.94523 | 21.70067 | 186° | 22km/h | 26382m | 6.6m/s | 0°C | 0% | 0hPa | 0V | 00:00:00 | 00:00:00 | 00:00:00 | |
| AKAW68 | 2026-09-03 00:43:21 | 49.94532 | 21.70071 | 203° | 15km/h | 26370m | 6.4m/s | 0°C | 0% | 0hPa | 0V | 00:00:00 | 00:00:00 | 00:00:00 | |
| MIELECB | 2026-09-03 00:43:14 | 49.94555 | 21.70062 | 156° | 26km/h | 26324m | 7.1m/s | 0°C | 0% | 0hPa | 0V | 00:00:00 | 00:00:00 | 00:00:00 | |
| MIELECB | 2026-09-03 00:43:09 | 49.94580 | 21.70051 | 189° | 18km/h | 26300m | 6.5m/s | 0°C | 0% | 0hPa | 0V | 00:00:00 | 00:00:00 | 00:00:00 | |
| SQ9PSP-11 | 2026-09-03 00:43:08 | 49.94584 | 21.70051 | 167° | 16km/h | 26294m | 5.4m/s | 0°C | 0% | 0hPa | 0V | 00:00:00 | 00:00:00 | 00:00:00 | |
| MIELECB | 2026-09-03 00:43:04 | 49.94598 | 21.70025 | 152° | 15km/h | 26260m | 4.2m/s | 0°C | 0% | 0hPa | 0V | 00:00:00 | 00:00:00 | 00:00:00 | |
| AKAW682 | 2026-09-03 00:43:01 | 49.94603 | 21.70017 | 148° | 20km/h | 26248m | 5.9m/s | 0°C | 0% | 0hPa | 0V | 00:00:00 | 00:00:00 | 00:00:00 | |
| AKAW68 | 2026-09-03 00:43:00 | 49.94608 | 21.70012 | 154° | 26km/h | 26243m | 4.7m/s | 0°C | 0% | 0hPa | 0V | 00:00:00 | 00:00:00 | 00:00:00 | |
| MIELECB | 2026-09-03 00:42:57 | 49.94627 | 21.70004 | 182° | 26km/h | 26229m | 5.0m/s | 0°C | 0% | 0hPa | 0V | 00:00:00 | 00:00:00 | 00:00:00 | |
| MIELECB | 2026-09-03 00:42:53 | 49.94645 | 21.69974 | 102° | 29km/h | 26202m | 5.0m/s | 0°C | 0% | 0hPa | 0V | 00:00:00 | 00:00:00 | 00:00:00 | |
| MIELECB | 2026-09-03 00:42:46 | 49.94667 | 21.69954 | 168° | 20km/h | 26164m | 1.6m/s | 0°C | 0% | 0hPa | 0V | 00:00:00 | 00:00:00 | 00:00:00 | |
| AKAW68 | 2026-09-03 00:42:40 | 49.94686 | 21.69932 | 142° | 24km/h | 26134m | 6.7m/s | 0°C | 0% | 0hPa | 0V | 00:00:00 | 00:00:00 | 00:00:00 | |
| SQ9PSP-11 | 2026-09-03 00:42:37 | 49.94694 | 21.69913 | 100° | 7km/h | 26112m | 6.9m/s | 0°C | 0% | 0hPa | 0V | 00:00:00 | 00:00:00 | 00:00:00 | |
| MIELECB | 2026-09-03 00:42:35 | 49.94690 | 21.69909 | 58° | 7km/h | 26096m | 4.7m/s | 0°C | 0% | 0hPa | 0V | 00:00:00 | 00:00:00 | 00:00:00 | |
| MIELECB | 2026-09-03 00:42:29 | 49.94706 | 21.69884 | 108° | 11km/h | 26075m | 5.7m/s | 0°C | 0% | 0hPa | 0V | 00:00:00 | 00:00:00 | 00:00:00 | |
| MIELECB | 2026-09-03 00:42:24 | 49.94713 | 21.69856 | 85° | 13km/h | 26048m | 6.7m/s | 0°C | 0% | 0hPa | 0V | 00:00:00 | 00:00:00 | 00:00:00 | |
| SQ9PSP-11 | 2026-09-03 00:42:22 | 49.94709 | 21.69847 | 57° | 13km/h | 26036m | 6.2m/s | 0°C | 0% | 0hPa | 0V | 00:00:00 | 00:00:00 | 00:00:00 | |
| AKAW68 | 2026-09-03 00:42:20 | 49.94710 | 21.69832 | 129° | 22km/h | 26017m | 5.7m/s | 0°C | 0% | 0hPa | 0V | 00:00:00 | 00:00:00 | 00:00:00 | |
| MIELECB | 2026-09-03 00:42:19 | 49.94713 | 21.69826 | 124° | 22km/h | 26010m | 6.5m/s | 0°C | 0% | 0hPa | 0V | 00:00:00 | 00:00:00 | 00:00:00 | |
| MIELECB | 2026-09-03 00:42:12 | 49.94711 | 21.69797 | 127° | 18km/h | 25975m | 5.9m/s | 0°C | 0% | 0hPa | 0V | 00:00:00 | 00:00:00 | 00:00:00 | |
| MIELECB | 2026-09-03 00:42:07 | 49.94719 | 21.69774 | 287° | 4km/h | 25948m | 1.4m/s | 0°C | 0% | 0hPa | 0V | 00:00:00 | 00:00:00 | 00:00:00 | |
| MIELECB | 2026-09-03 00:42:02 | 49.94732 | 21.69773 | 129° | 13km/h | 25915m | 4.8m/s | 0°C | 0% | 0hPa | 0V | 00:00:00 | 00:00:00 | 00:00:00 | |
| AKAW682 | 2026-09-03 00:42:01 | 49.94732 | 21.69761 | 98° | 15km/h | 25905m | 2.5m/s | 0°C | 0% | 0hPa | 0V | 00:00:00 | 00:00:00 | 00:00:00 | |
| SP8MDH-15 | 2026-09-03 00:42:00 | 49.94732 | 21.69761 | 98° | 15km/h | 25905m | 2.5m/s | 0°C | 0% | 0hPa | 0V | 00:00:00 | 00:00:00 | 00:00:00 | |
| AKAW68 | 2026-09-03 00:41:59 | 49.94734 | 21.69756 | 127° | 15km/h | 25899m | 5.6m/s | 0°C | 0% | 0hPa | 0V | 00:00:00 | 00:00:00 | 00:00:00 | |
| MIELECB | 2026-09-03 00:41:56 | 49.94742 | 21.69756 | 242° | 15km/h | 25878m | 5.3m/s | 0°C | 0% | 0hPa | 0V | 00:00:00 | 00:00:00 | 00:00:00 | |
| SQ9PSP-11 | 2026-09-03 00:41:51 | 49.94752 | 21.69755 | 126° | 18km/h | 25853m | 4.2m/s | 0°C | 0% | 0hPa | 0V | 00:00:00 | 00:00:00 | 00:00:00 | |
| MIELECB | 2026-09-03 00:41:50 | 49.94754 | 21.69749 | 122° | 18km/h | 25848m | 4.0m/s | 0°C | 0% | 0hPa | 0V | 00:00:00 | 00:00:00 | 00:00:00 | |
| MIELECB | 2026-09-03 00:41:44 | 49.94764 | 21.69757 | 232° | 24km/h | 25822m | 4.3m/s | 0°C | 0% | 0hPa | 0V | 00:00:00 | 00:00:00 | 00:00:00 | |
| AKAW68 | 2026-09-03 00:41:39 | 49.94769 | 21.69745 | 118° | 16km/h | 25795m | 6.2m/s | 0°C | 0% | 0hPa | 0V | 00:00:00 | 00:00:00 | 00:00:00 | |
| MIELECB | 2026-09-03 00:41:37 | 49.94777 | 21.69741 | 214° | 24km/h | 25778m | 6.2m/s | 0°C | 0% | 0hPa | 0V | 00:00:00 | 00:00:00 | 00:00:00 | |
| SQ9PSP-11 | 2026-09-03 00:41:35 | 49.94786 | 21.69758 | 244° | 33km/h | 25764m | 5.3m/s | 0°C | 0% | 0hPa | 0V | 00:00:00 | 00:00:00 | 00:00:00 | |
| MIELECB | 2026-09-03 00:41:31 | 49.94792 | 21.69788 | 209° | 16km/h | 25745m | 6.2m/s | 0°C | 0% | 0hPa | 0V | 00:00:00 | 00:00:00 | 00:00:00 | |
| MIELECB | 2026-09-03 00:41:25 | 49.94814 | 21.69801 | 216° | 27km/h | 25710m | 6.4m/s | 0°C | 0% | 0hPa | 0V | 00:00:00 | 00:00:00 | 00:00:00 | |
| MIELECB | 2026-09-03 00:41:20 | 49.94831 | 21.69833 | 262° | 4km/h | 25684m | 4.2m/s | 0°C | 0% | 0hPa | 0V | 00:00:00 | 00:00:00 | 00:00:00 | |
| SQ9PSP-11 | 2026-09-03 00:41:19 | 49.94831 | 21.69834 | 182° | 7km/h | 25678m | 6.7m/s | 0°C | 0% | 0hPa | 0V | 00:00:00 | 00:00:00 | 00:00:00 | |
| AKAW682 | 2026-09-03 00:41:18 | 49.94834 | 21.69834 | 190° | 18km/h | 25671m | 5.7m/s | 0°C | 0% | 0hPa | 0V | 00:00:00 | 00:00:00 | 00:00:00 | |
| MIELECB | 2026-09-03 00:41:14 | 49.94856 | 21.69849 | 222° | 24km/h | 25651m | 4.2m/s | 0°C | 0% | 0hPa | 0V | 00:00:00 | 00:00:00 | 00:00:00 | |
| SP8MDH-15 | 2026-09-03 00:41:09 | 49.94878 | 21.69868 | 169° | 9km/h | 25615m | 6.9m/s | 0°C | 0% | 0hPa | 0V | 00:00:00 | 00:00:00 | 00:00:00 | |
| SQ9PSP-11 | 2026-09-03 00:41:04 | 49.94897 | 21.69852 | 175° | 29km/h | 25589m | 5.4m/s | 0°C | 0% | 0hPa | 0V | 00:00:00 | 00:00:00 | 00:00:00 | |
| MIELECB | 2026-09-03 00:41:03 | 49.94903 | 21.69852 | 180° | 26km/h | 25584m | 5.3m/s | 0°C | 0% | 0hPa | 0V | 00:00:00 | 00:00:00 | 00:00:00 | |
| AKAW682 | 2026-09-03 00:40:58 | 49.94912 | 21.69852 | 162° | 9km/h | 25555m | 3.3m/s | 0°C | 0% | 0hPa | 0V | 00:00:00 | 00:00:00 | 00:00:00 | |
| AKAW68 | 2026-09-03 00:40:57 | 49.94916 | 21.69852 | 181° | 20km/h | 25550m | 2.6m/s | 0°C | 0% | 0hPa | 0V | 00:00:00 | 00:00:00 | 00:00:00 | |
| MIELECB | 2026-09-03 00:40:51 | 49.94941 | 21.69819 | 128° | 22km/h | 25517m | 6.9m/s | 0°C | 0% | 0hPa | 0V | 00:00:00 | 00:00:00 | 00:00:00 | |
| SQ9PSP-11 | 2026-09-03 00:40:48 | 49.94949 | 21.69803 | 109° | 15km/h | 25501m | 6.3m/s | 0°C | 0% | 0hPa | 0V | 00:00:00 | 00:00:00 | 00:00:00 | |
| MIELECB | 2026-09-03 00:40:45 | 49.94952 | 21.69784 | 132° | 20km/h | 25482m | 7.0m/s | 0°C | 0% | 0hPa | 0V | 00:00:00 | 00:00:00 | 00:00:00 | |
| MIELECB | 2026-09-03 00:40:40 | 49.94969 | 21.69745 | 75° | 13km/h | 25451m | 4.1m/s | 0°C | 0% | 0hPa | 0V | 00:00:00 | 00:00:00 | 00:00:00 | |
| AKAW68 | 2026-09-03 00:40:38 | 49.94973 | 21.69735 | 97° | 5km/h | 25437m | 1.4m/s | 0°C | 0% | 0hPa | 0V | 00:00:00 | 00:00:00 | 00:00:00 | |
| MIELECB | 2026-09-03 00:40:34 | 49.94972 | 21.69715 | 89° | 24km/h | 25422m | 5.2m/s | 0°C | 0% | 0hPa | 0V | 00:00:00 | 00:00:00 | 00:00:00 | |
| SQ9PSP-11 | 2026-09-03 00:40:32 | 49.94975 | 21.69696 | 128° | 26km/h | 25409m | 7.0m/s | 0°C | 0% | 0hPa | 0V | 00:00:00 | 00:00:00 | 00:00:00 | |
| MIELECB | 2026-09-03 00:40:28 | 49.94985 | 21.69666 | 73° | 15km/h | 25386m | 3.7m/s | 0°C | 0% | 0hPa | 0V | 00:00:00 | 00:00:00 | 00:00:00 | |
| MIELECB | 2026-09-03 00:40:24 | 49.94984 | 21.69645 | 113° | 22km/h | 25357m | 9.8m/s | 0°C | 0% | 0hPa | 0V | 00:00:00 | 00:00:00 | 00:00:00 | |
| SP8MDH-15 | 2026-09-03 00:40:23 | 49.94984 | 21.69645 | 113° | 22km/h | 25357m | 9.8m/s | 0°C | 0% | 0hPa | 0V | 00:00:00 | 00:00:00 | 00:00:00 | |
| SQ9PSP-11 | 2026-09-03 00:40:18 | 49.94995 | 21.69600 | 71° | 9km/h | 25321m | 4.3m/s | 0°C | 0% | 0hPa | 0V | 00:00:00 | 00:00:00 | 00:00:00 | |
| MIELECB | 2026-09-03 00:40:17 | 49.94995 | 21.69600 | 71° | 9km/h | 25321m | 4.3m/s | 0°C | 0% | 0hPa | 0V | 00:00:00 | 00:00:00 | 00:00:00 | |
| AKAW68 | 2026-09-03 00:40:16 | 49.94993 | 21.69595 | 53° | 15km/h | 25316m | 3.0m/s | 0°C | 0% | 0hPa | 0V | 00:00:00 | 00:00:00 | 00:00:00 | |
| AKAW682 | 2026-09-03 00:40:14 | 49.94991 | 21.69587 | 91° | 9km/h | 25306m | 5.0m/s | 0°C | 0% | 0hPa | 0V | 00:00:00 | 00:00:00 | 00:00:00 | |
| MIELECB | 2026-09-03 00:40:11 | 49.94997 | 21.69571 | 116° | 18km/h | 25288m | 5.4m/s | 0°C | 0% | 0hPa | 0V | 00:00:00 | 00:00:00 | 00:00:00 | |
| MIELECB | 2026-09-03 00:40:05 | 49.95005 | 21.69559 | 190° | 4km/h | 25255m | 4.1m/s | 0°C | 0% | 0hPa | 0V | 00:00:00 | 00:00:00 | 00:00:00 | |
| SQ9PSP-11 | 2026-09-03 00:40:01 | 49.95005 | 21.69542 | 122° | 11km/h | 25227m | 5.8m/s | 0°C | 0% | 0hPa | 0V | 00:00:00 | 00:00:00 | 00:00:00 | |
| MIELECB | 2026-09-03 00:39:59 | 49.95010 | 21.69537 | 176° | 15km/h | 25218m | 3.0m/s | 0°C | 0% | 0hPa | 0V | 00:00:00 | 00:00:00 | 00:00:00 | |
| AKAW68 | 2026-09-03 00:39:55 | 49.95020 | 21.69538 | 206° | 9km/h | 25200m | 4.1m/s | 0°C | 0% | 0hPa | 0V | 00:00:00 | 00:00:00 | 00:00:00 | |
| SP8MDH-15 | 2026-09-03 00:39:54 | 49.95023 | 21.69540 | 213° | 13km/h | 25194m | 4.8m/s | 0°C | 0% | 0hPa | 0V | 00:00:00 | 00:00:00 | 00:00:00 | |
| MIELECB | 2026-09-03 00:39:48 | 49.95036 | 21.69523 | 150° | 13km/h | 25163m | 5.3m/s | 0°C | 0% | 0hPa | 0V | 00:00:00 | 00:00:00 | 00:00:00 | |
| SQ9PSP-11 | 2026-09-03 00:39:45 | 49.95045 | 21.69522 | 153° | 13km/h | 25145m | 6.6m/s | 0°C | 0% | 0hPa | 0V | 00:00:00 | 00:00:00 | 00:00:00 | |
| MIELECB | 2026-09-03 00:39:43 | 49.95049 | 21.69514 | 119° | 18km/h | 25131m | 6.1m/s | 0°C | 0% | 0hPa | 0V | 00:00:00 | 00:00:00 | 00:00:00 | |
| MIELECB | 2026-09-03 00:39:37 | 49.95069 | 21.69491 | 92° | 4km/h | 25095m | 5.7m/s | 0°C | 0% | 0hPa | 0V | 00:00:00 | 00:00:00 | 00:00:00 | |
| AKAW68 | 2026-09-03 00:39:35 | 49.95070 | 21.69492 | 218° | 4km/h | 25086m | 6.3m/s | 0°C | 0% | 0hPa | 0V | 00:00:00 | 00:00:00 | 00:00:00 | |
| AKAW682 | 2026-09-03 00:39:34 | 49.95072 | 21.69492 | 184° | 9km/h | 25080m | 6.7m/s | 0°C | 0% | 0hPa | 0V | 00:00:00 | 00:00:00 | 00:00:00 | |
| MIELECB | 2026-09-03 00:39:32 | 49.95078 | 21.69489 | 132° | 16km/h | 25069m | 5.2m/s | 0°C | 0% | 0hPa | 0V | 00:00:00 | 00:00:00 | 00:00:00 | |
| SQ9PSP-11 | 2026-09-03 00:39:30 | 49.95082 | 21.69475 | 111° | 24km/h | 25056m | 4.7m/s | 0°C | 0% | 0hPa | 0V | 00:00:00 | 00:00:00 | 00:00:00 | |
| MIELECB | 2026-09-03 00:39:26 | 49.95093 | 21.69450 | 135° | 9km/h | 25035m | 5.1m/s | 0°C | 0% | 0hPa | 0V | 00:00:00 | 00:00:00 | 00:00:00 | |
| SP8MDH-15 | 2026-09-03 00:39:24 | 49.95095 | 21.69442 | 82° | 13km/h | 25025m | 3.5m/s | 0°C | 0% | 0hPa | 0V | 00:00:00 | 00:00:00 | 00:00:00 | |
| MIELECB | 2026-09-03 00:39:22 | 49.95101 | 21.69422 | 133° | 29km/h | 25009m | 7.1m/s | 0°C | 0% | 0hPa | 0V | 00:00:00 | 00:00:00 | 00:00:00 | |
| MIELECB | 2026-09-03 00:39:15 | 49.95117 | 21.69384 | 135° | 16km/h | 24966m | 4.5m/s | 0°C | 0% | 0hPa | 0V | 00:00:00 | 00:00:00 | 00:00:00 | |
| SQ9PSP-11 | 2026-09-03 00:39:14 | 49.95119 | 21.69382 | 144° | 13km/h | 24963m | 4.3m/s | 0°C | 0% | 0hPa | 0V | 00:00:00 | 00:00:00 | 00:00:00 | |
| AKAW682 | 2026-09-03 00:39:10 | 49.95130 | 21.69349 | 113° | 33km/h | 24933m | 5.7m/s | 0°C | 0% | 0hPa | 0V | 00:00:00 | 00:00:00 | 00:00:00 | |
| MIELECB | 2026-09-03 00:39:05 | 49.95137 | 21.69308 | 75° | 11km/h | 24912m | 1.5m/s | 0°C | 0% | 0hPa | 0V | 00:00:00 | 00:00:00 | 00:00:00 | |
| SP8MDH-15 | 2026-09-03 00:38:59 | 49.95152 | 21.69271 | 103° | 27km/h | 24891m | 6.3m/s | 0°C | 0% | 0hPa | 0V | 00:00:00 | 00:00:00 | 00:00:00 | |
| SQ9PSP-11 | 2026-09-03 00:38:58 | 49.95153 | 21.69261 | 91° | 27km/h | 24885m | 5.5m/s | 0°C | 0% | 0hPa | 0V | 00:00:00 | 00:00:00 | 00:00:00 | |
| MIELECB | 2026-09-03 00:38:54 | 49.95158 | 21.69221 | 100° | 24km/h | 24864m | 4.6m/s | 0°C | 0% | 0hPa | 0V | 00:00:00 | 00:00:00 | 00:00:00 | |
| AKAW68 | 2026-09-03 00:38:53 | 49.95158 | 21.69212 | 87° | 20km/h | 24859m | 4.7m/s | 0°C | 0% | 0hPa | 0V | 00:00:00 | 00:00:00 | 00:00:00 | |
| MIELECB | 2026-09-03 00:38:48 | 49.95168 | 21.69157 | 107° | 37km/h | 24827m | 5.4m/s | 0°C | 0% | 0hPa | 0V | 00:00:00 | 00:00:00 | 00:00:00 | |
| AKAW682 | 2026-09-03 00:38:45 | 49.95173 | 21.69123 | 91° | 24km/h | 24810m | 4.5m/s | 0°C | 0% | 0hPa | 0V | 00:00:00 | 00:00:00 | 00:00:00 | |
| SQ9PSP-11 | 2026-09-03 00:38:43 | 49.95174 | 21.69107 | 99° | 20km/h | 24801m | 5.1m/s | 0°C | 0% | 0hPa | 0V | 00:00:00 | 00:00:00 | 00:00:00 | |
| MIELECB | 2026-09-03 00:38:37 | 49.95179 | 21.69048 | 124° | 27km/h | 24770m | 8.3m/s | 0°C | 0% | 0hPa | 0V | 00:00:00 | 00:00:00 | 00:00:00 | |
| SP8MDH-15 | 2026-09-03 00:38:33 | 49.95184 | 21.69012 | 77° | 20km/h | 24743m | 6.9m/s | 0°C | 0% | 0hPa | 0V | 00:00:00 | 00:00:00 | 00:00:00 | |
| MIELECB | 2026-09-03 00:38:32 | 49.95181 | 21.69004 | 56° | 24km/h | 24737m | 5.8m/s | 0°C | 0% | 0hPa | 0V | 00:00:00 | 00:00:00 | 00:00:00 | |
| OE3JTB-15 | 2026-09-03 00:38:31 | 49.95178 | 21.68996 | 73° | 15km/h | 24731m | 5.9m/s | 0°C | 0% | 0hPa | 0V | 00:00:00 | 00:00:00 | 00:00:00 | |
| SQ9PSP-11 | 2026-09-03 00:38:28 | 49.95180 | 21.68965 | 95° | 26km/h | 24712m | 7.2m/s | 0°C | 0% | 0hPa | 0V | 00:00:00 | 00:00:00 | 00:00:00 | |
| MIELECB | 2026-09-03 00:38:26 | 49.95180 | 21.68948 | 68° | 16km/h | 24698m | 5.3m/s | 0°C | 0% | 0hPa | 0V | 00:00:00 | 00:00:00 | 00:00:00 | |
| AKAW682 | 2026-09-03 00:38:24 | 49.95179 | 21.68939 | 128° | 11km/h | 24686m | 6.5m/s | 0°C | 0% | 0hPa | 0V | 00:00:00 | 00:00:00 | 00:00:00 | |
| MIELECB | 2026-09-03 00:38:20 | 49.95172 | 21.68917 | 51° | 24km/h | 24656m | 5.4m/s | 0°C | 0% | 0hPa | 0V | 00:00:00 | 00:00:00 | 00:00:00 | |
| MIELECB | 2026-09-03 00:38:15 | 49.95167 | 21.68885 | 75° | 16km/h | 24619m | 7.7m/s | 0°C | 0% | 0hPa | 0V | 00:00:00 | 00:00:00 | 00:00:00 | |
| SQ9PSP-11 | 2026-09-03 00:38:12 | 49.95162 | 21.68870 | 70° | 5km/h | 24597m | 6.6m/s | 0°C | 0% | 0hPa | 0V | 00:00:00 | 00:00:00 | 00:00:00 | |
| SP8MDH-15 | 2026-09-03 00:38:09 | 49.95155 | 21.68864 | 20° | 16km/h | 24578m | 4.3m/s | 0°C | 0% | 0hPa | 0V | 00:00:00 | 00:00:00 | 00:00:00 | |
| MIELECB | 2026-09-03 00:38:03 | 49.95144 | 21.68851 | 15° | 5km/h | 24557m | 6.6m/s | 0°C | 0% | 0hPa | 0V | 00:00:00 | 00:00:00 | 00:00:00 | |
| OE3JTB-15 | 2026-09-03 00:38:00 | 49.95134 | 21.68848 | 24° | 11km/h | 24538m | 5.2m/s | 0°C | 0% | 0hPa | 0V | 00:00:00 | 00:00:00 | 00:00:00 | |
| AKAW682 | 2026-09-03 00:37:59 | 49.95130 | 21.68846 | 8° | 16km/h | 24532m | 7.0m/s | 0°C | 0% | 0hPa | 0V | 00:00:00 | 00:00:00 | 00:00:00 | |
| MIELECB | 2026-09-03 00:37:58 | 49.95127 | 21.68845 | 4° | 11km/h | 24524m | 6.3m/s | 0°C | 0% | 0hPa | 0V | 00:00:00 | 00:00:00 | 00:00:00 | |
| SQ9PSP-11 | 2026-09-03 00:37:57 | 49.95124 | 21.68846 | 332° | 7km/h | 24518m | 5.7m/s | 0°C | 0% | 0hPa | 0V | 00:00:00 | 00:00:00 | 00:00:00 | |
| MIELECB | 2026-09-03 00:37:52 | 49.95117 | 21.68849 | 257° | 7km/h | 24485m | 4.2m/s | 0°C | 0% | 0hPa | 0V | 00:00:00 | 00:00:00 | 00:00:00 | |
| AKAW68 | 2026-09-03 00:37:50 | 49.95114 | 21.68850 | 360° | 11km/h | 24480m | 4.2m/s | 0°C | 0% | 0hPa | 0V | 00:00:00 | 00:00:00 | 00:00:00 | |
| MIELECB | 2026-09-03 00:37:46 | 49.95101 | 21.68847 | 0° | 0km/h | 24465m | 5.9m/s | 0°C | 0% | 0hPa | 0V | 00:00:00 | 00:00:00 | 00:00:00 | |
| SQ9PSP-11 | 2026-09-03 00:37:42 | 49.95094 | 21.68863 | 316° | 20km/h | 24439m | 3.2m/s | 0°C | 0% | 0hPa | 0V | 00:00:00 | 00:00:00 | 00:00:00 | |
| MIELECB | 2026-09-03 00:37:41 | 49.95094 | 21.68863 | 316° | 20km/h | 24439m | 3.2m/s | 0°C | 0% | 0hPa | 0V | 00:00:00 | 00:00:00 | 00:00:00 | |
| AKAW682 | 2026-09-03 00:37:37 | 49.95087 | 21.68879 | 335° | 11km/h | 24418m | 5.5m/s | 0°C | 0% | 0hPa | 0V | 00:00:00 | 00:00:00 | 00:00:00 | |
| MIELECB | 2026-09-03 00:37:35 | 49.95083 | 21.68879 | 339° | 5km/h | 24407m | 5.8m/s | 0°C | 0% | 0hPa | 0V | 00:00:00 | 00:00:00 | 00:00:00 | |
| SP8MDH-15 | 2026-09-03 00:37:31 | 49.95080 | 21.68883 | 309° | 7km/h | 24383m | 5.9m/s | 0°C | 0% | 0hPa | 0V | 00:00:00 | 00:00:00 | 00:00:00 | |
| MIELECB | 2026-09-03 00:37:30 | 49.95078 | 21.68886 | 312° | 13km/h | 24377m | 4.2m/s | 0°C | 0% | 0hPa | 0V | 00:00:00 | 00:00:00 | 00:00:00 | |
| AKAW68 | 2026-09-03 00:37:28 | 49.95074 | 21.68894 | 301° | 16km/h | 24366m | 4.8m/s | 0°C | 0% | 0hPa | 0V | 00:00:00 | 00:00:00 | 00:00:00 | |
| SQ9PSP-11 | 2026-09-03 00:37:26 | 49.95072 | 21.68904 | 280° | 13km/h | 24357m | 4.0m/s | 0°C | 0% | 0hPa | 0V | 00:00:00 | 00:00:00 | 00:00:00 | |
| MIELECB | 2026-09-03 00:37:24 | 49.95069 | 21.68910 | 314° | 11km/h | 24347m | 5.7m/s | 0°C | 0% | 0hPa | 0V | 00:00:00 | 00:00:00 | 00:00:00 | |
| MIELECB | 2026-09-03 00:37:18 | 49.95067 | 21.68927 | 292° | 15km/h | 24314m | 4.0m/s | 0°C | 0% | 0hPa | 0V | 00:00:00 | 00:00:00 | 00:00:00 | |
| AKAW682 | 2026-09-03 00:37:16 | 49.95066 | 21.68934 | 255° | 13km/h | 24300m | 7.0m/s | 0°C | 0% | 0hPa | 0V | 00:00:00 | 00:00:00 | 00:00:00 | |
| MIELECB | 2026-09-03 00:37:13 | 49.95069 | 21.68941 | 261° | 4km/h | 24280m | 4.0m/s | 0°C | 0% | 0hPa | 0V | 00:00:00 | 00:00:00 | 00:00:00 | |
| SQ9PSP-11 | 2026-09-03 00:37:11 | 49.95068 | 21.68945 | 301° | 7km/h | 24273m | 2.2m/s | 0°C | 0% | 0hPa | 0V | 00:00:00 | 00:00:00 | 00:00:00 | |
| SP8MDH-15 | 2026-09-03 00:37:09 | 49.95070 | 21.68952 | 240° | 11km/h | 24261m | 2.7m/s | 0°C | 0% | 0hPa | 0V | 00:00:00 | 00:00:00 | 00:00:00 | |
| MIELECB | 2026-09-03 00:37:07 | 49.95071 | 21.68956 | 267° | 9km/h | 24256m | 5.4m/s | 0°C | 0% | 0hPa | 0V | 00:00:00 | 00:00:00 | 00:00:00 | |
| AKAW68 | 2026-09-03 00:37:06 | 49.95072 | 21.68960 | 285° | 13km/h | 24251m | 5.8m/s | 0°C | 0% | 0hPa | 0V | 00:00:00 | 00:00:00 | 00:00:00 | |
| MIELECB | 2026-09-03 00:37:01 | 49.95081 | 21.68977 | 216° | 16km/h | 24221m | 5.8m/s | 0°C | 0% | 0hPa | 0V | 00:00:00 | 00:00:00 | 00:00:00 | |
| SQ9PSP-11 | 2026-09-03 00:36:56 | 49.95084 | 21.68996 | 205° | 9km/h | 24197m | 4.6m/s | 0°C | 0% | 0hPa | 0V | 00:00:00 | 00:00:00 | 00:00:00 | |
| MIELECB | 2026-09-03 00:36:52 | 49.95099 | 21.69017 | 231° | 22km/h | 24175m | 5.4m/s | 0°C | 0% | 0hPa | 0V | 00:00:00 | 00:00:00 | 00:00:00 | |
| AKAW68 | 2026-09-03 00:36:46 | 49.95097 | 21.69037 | 344° | 13km/h | 24150m | 3.5m/s | 0°C | 0% | 0hPa | 0V | 00:00:00 | 00:00:00 | 00:00:00 | |
| MIELECB | 2026-09-03 00:36:45 | 49.95095 | 21.69037 | 43° | 4km/h | 24147m | 7.2m/s | 0°C | 0% | 0hPa | 0V | 00:00:00 | 00:00:00 | 00:00:00 | |
| OE3JTB-15 | 2026-09-03 00:36:42 | 49.95109 | 21.69043 | 213° | 16km/h | 24127m | 8.7m/s | 0°C | 0% | 0hPa | 0V | 00:00:00 | 00:00:00 | 00:00:00 | |
| SQ9PSP-11 | 2026-09-03 00:36:41 | 49.95114 | 21.69049 | 222° | 27km/h | 24119m | 5.3m/s | 0°C | 0% | 0hPa | 0V | 00:00:00 | 00:00:00 | 00:00:00 | |
| MIELECB | 2026-09-03 00:36:40 | 49.95117 | 21.69057 | 246° | 18km/h | 24114m | 5.1m/s | 0°C | 0% | 0hPa | 0V | 00:00:00 | 00:00:00 | 00:00:00 | |
| MIELECB | 2026-09-03 00:36:34 | 49.95119 | 21.69068 | 203° | 16km/h | 24082m | 5.5m/s | 0°C | 0% | 0hPa | 0V | 00:00:00 | 00:00:00 | 00:00:00 | |
| AKAW682 | 2026-09-03 00:36:32 | 49.95132 | 21.69078 | 191° | 15km/h | 24067m | 6.3m/s | 0°C | 0% | 0hPa | 0V | 00:00:00 | 00:00:00 | 00:00:00 | |
| MIELECB | 2026-09-03 00:36:28 | 49.95136 | 21.69078 | 160° | 2km/h | 24051m | 5.4m/s | 0°C | 0% | 0hPa | 0V | 00:00:00 | 00:00:00 | 00:00:00 | |
| AKAW68 | 2026-09-03 00:36:25 | 49.95137 | 21.69080 | 163° | 5km/h | 24043m | 5.4m/s | 0°C | 0% | 0hPa | 0V | 00:00:00 | 00:00:00 | 00:00:00 | |
| SQ9PSP-11 | 2026-09-03 00:36:24 | 49.95139 | 21.69079 | 182° | 13km/h | 24039m | 5.1m/s | 0°C | 0% | 0hPa | 0V | 00:00:00 | 00:00:00 | 00:00:00 | |
| MIELECB | 2026-09-03 00:36:22 | 49.95148 | 21.69080 | 202° | 16km/h | 24030m | 6.2m/s | 0°C | 0% | 0hPa | 0V | 00:00:00 | 00:00:00 | 00:00:00 | |
| MIELECB | 2026-09-03 00:36:16 | 49.95156 | 21.69086 | 71° | 9km/h | 23982m | 4.1m/s | 0°C | 0% | 0hPa | 0V | 00:00:00 | 00:00:00 | 00:00:00 | |
| MIELECB | 2026-09-03 00:36:10 | 49.95164 | 21.69085 | 169° | 13km/h | 23943m | 10.7m/s | 0°C | 0% | 0hPa | 0V | 00:00:00 | 00:00:00 | 00:00:00 | |
| AKAW682 | 2026-09-03 00:36:09 | 49.95169 | 21.69087 | 351° | 7km/h | 23942m | 8.1m/s | 0°C | 0% | 0hPa | 0V | 00:00:00 | 00:00:00 | 00:00:00 | |
| SQ9PSP-11 | 2026-09-03 00:36:06 | 49.95166 | 21.69087 | 356° | 5km/h | 23931m | 6.7m/s | 0°C | 0% | 0hPa | 0V | 00:00:00 | 00:00:00 | 00:00:00 | |
| AKAW68 | 2026-09-03 00:36:05 | 49.95166 | 21.69087 | 102° | 4km/h | 23926m | 6.4m/s | 0°C | 0% | 0hPa | 0V | 00:00:00 | 00:00:00 | 00:00:00 | |
| MIELECB | 2026-09-03 00:36:04 | 49.95166 | 21.69086 | 126° | 7km/h | 23919m | 5.1m/s | 0°C | 0% | 0hPa | 0V | 00:00:00 | 00:00:00 | 00:00:00 | |
| MIELECB | 2026-09-03 00:35:59 | 49.95169 | 21.69086 | 212° | 9km/h | 23894m | 7.0m/s | 0°C | 0% | 0hPa | 0V | 00:00:00 | 00:00:00 | 00:00:00 | |
| OE3JTB-15 | 2026-09-03 00:35:58 | 49.95172 | 21.69086 | 169° | 7km/h | 23885m | 5.2m/s | 0°C | 0% | 0hPa | 0V | 00:00:00 | 00:00:00 | 00:00:00 | |
| MIELECB | 2026-09-03 00:35:53 | 49.95171 | 21.69086 | 270° | 5km/h | 23854m | 5.7m/s | 0°C | 0% | 0hPa | 0V | 00:00:00 | 00:00:00 | 00:00:00 | |
| SQ9PSP-11 | 2026-09-03 00:35:50 | 49.95177 | 21.69090 | 189° | 11km/h | 23833m | 6.3m/s | 0°C | 0% | 0hPa | 0V | 00:00:00 | 00:00:00 | 00:00:00 | |
| MIELECB | 2026-09-03 00:35:48 | 49.95185 | 21.69090 | 177° | 11km/h | 23813m | 5.4m/s | 0°C | 0% | 0hPa | 0V | 00:00:00 | 00:00:00 | 00:00:00 | |
| AKAW68 | 2026-09-03 00:35:43 | 49.95187 | 21.69090 | 17° | 7km/h | 23792m | 2.6m/s | 0°C | 0% | 0hPa | 0V | 00:00:00 | 00:00:00 | 00:00:00 | |
| MIELECB | 2026-09-03 00:35:41 | 49.95185 | 21.69088 | 125° | 7km/h | 23783m | 5.7m/s | 0°C | 0% | 0hPa | 0V | 00:00:00 | 00:00:00 | 00:00:00 | |
| MIELECB | 2026-09-03 00:35:36 | 49.95196 | 21.69084 | 224° | 7km/h | 23752m | 5.8m/s | 0°C | 0% | 0hPa | 0V | 00:00:00 | 00:00:00 | 00:00:00 | |
| SQ9PSP-11 | 2026-09-03 00:35:34 | 49.95197 | 21.69085 | 246° | 4km/h | 23745m | 4.7m/s | 0°C | 0% | 0hPa | 0V | 00:00:00 | 00:00:00 | 00:00:00 | |
| MIELECB | 2026-09-03 00:35:31 | 49.95191 | 21.69084 | 60° | 7km/h | 23731m | 5.8m/s | 0°C | 0% | 0hPa | 0V | 00:00:00 | 00:00:00 | 00:00:00 | |
| MIELECB | 2026-09-03 00:35:24 | 49.95193 | 21.69081 | 345° | 9km/h | 23698m | 2.5m/s | 0°C | 0% | 0hPa | 0V | 00:00:00 | 00:00:00 | 00:00:00 | |
| AKAW682 | 2026-09-03 00:35:23 | 49.95191 | 21.69083 | 315° | 5km/h | 23694m | 4.3m/s | 0°C | 0% | 0hPa | 0V | 00:00:00 | 00:00:00 | 00:00:00 | |
| AKAW68 | 2026-09-03 00:35:22 | 49.95190 | 21.69085 | 283° | 5km/h | 23689m | 6.2m/s | 0°C | 0% | 0hPa | 0V | 00:00:00 | 00:00:00 | 00:00:00 | |
| SQ9PSP-11 | 2026-09-03 00:35:18 | 49.95186 | 21.69088 | 335° | 5km/h | 23660m | 5.1m/s | 0°C | 0% | 0hPa | 0V | 00:00:00 | 00:00:00 | 00:00:00 | |
| MIELECB | 2026-09-03 00:35:14 | 49.95187 | 21.69088 | 327° | 4km/h | 23642m | 6.4m/s | 0°C | 0% | 0hPa | 0V | 00:00:00 | 00:00:00 | 00:00:00 | |
| MIELECB | 2026-09-03 00:35:09 | 49.95178 | 21.69093 | 95° | 4km/h | 23612m | 6.5m/s | 0°C | 0% | 0hPa | 0V | 00:00:00 | 00:00:00 | 00:00:00 | |
| AKAW682 | 2026-09-03 00:35:04 | 49.95177 | 21.69095 | 292° | 9km/h | 23587m | 3.7m/s | 0°C | 0% | 0hPa | 0V | 00:00:00 | 00:00:00 | 00:00:00 | |
| SQ9PSP-11 | 2026-09-03 00:35:03 | 49.95175 | 21.69098 | 320° | 16km/h | 23580m | 4.4m/s | 0°C | 0% | 0hPa | 0V | 00:00:00 | 00:00:00 | 00:00:00 | |
| MIELECB | 2026-09-03 00:35:02 | 49.95175 | 21.69098 | 320° | 16km/h | 23580m | 4.4m/s | 0°C | 0% | 0hPa | 0V | 00:00:00 | 00:00:00 | 00:00:00 | |
| AKAW68 | 2026-09-03 00:35:01 | 49.95171 | 21.69101 | 351° | 24km/h | 23576m | 8.4m/s | 0°C | 0% | 0hPa | 0V | 00:00:00 | 00:00:00 | 00:00:00 | |
| MIELECB | 2026-09-03 00:34:56 | 49.95154 | 21.69110 | 219° | 7km/h | 23542m | 5.1m/s | 0°C | 0% | 0hPa | 0V | 00:00:00 | 00:00:00 | 00:00:00 | |
| MIELECB | 2026-09-03 00:34:51 | 49.95152 | 21.69109 | 326° | 9km/h | 23524m | 5.9m/s | 0°C | 0% | 0hPa | 0V | 00:00:00 | 00:00:00 | 00:00:00 | |
| SQ9EZE-12 | 2026-09-03 00:34:50 | 49.95149 | 21.69111 | 333° | 13km/h | 23517m | 6.0m/s | 0°C | 0% | 0hPa | 0V | 00:00:00 | 00:00:00 | 00:00:00 | |
| SQ9PSP-11 | 2026-09-03 00:34:47 | 49.95134 | 21.69108 | 360° | 15km/h | 23496m | 6.9m/s | 0°C | 0% | 0hPa | 0V | 00:00:00 | 00:00:00 | 00:00:00 | |
| MIELECB | 2026-09-03 00:34:45 | 49.95130 | 21.69110 | 330° | 13km/h | 23489m | 6.6m/s | 0°C | 0% | 0hPa | 0V | 00:00:00 | 00:00:00 | 00:00:00 | |
| AKAW682 | 2026-09-03 00:34:42 | 49.95130 | 21.69116 | 175° | 9km/h | 23465m | 3.1m/s | 0°C | 0% | 0hPa | 0V | 00:00:00 | 00:00:00 | 00:00:00 | |
| AKAW68 | 2026-09-03 00:34:40 | 49.95132 | 21.69116 | 207° | 4km/h | 23461m | 5.8m/s | 0°C | 0% | 0hPa | 0V | 00:00:00 | 00:00:00 | 00:00:00 | |
| MIELECB | 2026-09-03 00:34:34 | 49.95125 | 21.69110 | 63° | 7km/h | 23420m | 3.8m/s | 0°C | 0% | 0hPa | 0V | 00:00:00 | 00:00:00 | 00:00:00 | |
| SQ9PSP-11 | 2026-09-03 00:34:30 | 49.95120 | 21.69106 | 95° | 5km/h | 23389m | 5.7m/s | 0°C | 0% | 0hPa | 0V | 00:00:00 | 00:00:00 | 00:00:00 | |
| SQ9EZE-12 | 2026-09-03 00:34:29 | 49.95120 | 21.69106 | 95° | 5km/h | 23389m | 5.7m/s | 0°C | 0% | 0hPa | 0V | 00:00:00 | 00:00:00 | 00:00:00 | |
| MIELECB | 2026-09-03 00:34:28 | 49.95120 | 21.69104 | 94° | 5km/h | 23383m | 5.6m/s | 0°C | 0% | 0hPa | 0V | 00:00:00 | 00:00:00 | 00:00:00 | |
| MIELECB | 2026-09-03 00:34:22 | 49.95123 | 21.69090 | 108° | 9km/h | 23360m | 2.8m/s | 0°C | 0% | 0hPa | 0V | 00:00:00 | 00:00:00 | 00:00:00 | |
| AKAW682 | 2026-09-03 00:34:20 | 49.95122 | 21.69085 | 21° | 4km/h | 23348m | 5.1m/s | 0°C | 0% | 0hPa | 0V | 00:00:00 | 00:00:00 | 00:00:00 | |
| AKAW68 | 2026-09-03 00:34:19 | 49.95121 | 21.69084 | 324° | 5km/h | 23342m | 4.9m/s | 0°C | 0% | 0hPa | 0V | 00:00:00 | 00:00:00 | 00:00:00 | |
| MIELECB | 2026-09-03 00:34:17 | 49.95119 | 21.69083 | 78° | 11km/h | 23330m | 6.3m/s | 0°C | 0% | 0hPa | 0V | 00:00:00 | 00:00:00 | 00:00:00 | |
| SQ9EZE-12 | 2026-09-03 00:34:14 | 49.95121 | 21.69071 | 133° | 7km/h | 23313m | 6.5m/s | 0°C | 0% | 0hPa | 0V | 00:00:00 | 00:00:00 | 00:00:00 | |
| SQ9PSP-11 | 2026-09-03 00:34:12 | 49.95125 | 21.69070 | 152° | 11km/h | 23305m | 2.8m/s | 0°C | 0% | 0hPa | 0V | 00:00:00 | 00:00:00 | 00:00:00 | |
| MIELECB | 2026-09-03 00:34:11 | 49.95129 | 21.69068 | 159° | 11km/h | 23301m | 3.8m/s | 0°C | 0% | 0hPa | 0V | 00:00:00 | 00:00:00 | 00:00:00 | |
| MIELECB | 2026-09-03 00:34:05 | 49.95135 | 21.69058 | 103° | 7km/h | 23277m | 5.8m/s | 0°C | 0% | 0hPa | 0V | 00:00:00 | 00:00:00 | 00:00:00 | |
| MIELECB | 2026-09-03 00:34:00 | 49.95141 | 21.69035 | 208° | 4km/h | 23253m | 2.3m/s | 0°C | 0% | 0hPa | 0V | 00:00:00 | 00:00:00 | 00:00:00 | |
| AKAW682 | 2026-09-03 00:33:59 | 49.95142 | 21.69035 | 0° | 0km/h | 23251m | 4.7m/s | 0°C | 0% | 0hPa | 0V | 00:00:00 | 00:00:00 | 00:00:00 | |
| AKAW68 | 2026-09-03 00:33:58 | 49.95141 | 21.69034 | 66° | 5km/h | 23245m | 6.0m/s | 0°C | 0% | 0hPa | 0V | 00:00:00 | 00:00:00 | 00:00:00 | |
| SQ9EZE-14 | 2026-09-03 00:33:57 | 49.95140 | 21.69031 | 75° | 15km/h | 23240m | 6.1m/s | 0°C | 0% | 0hPa | 0V | 00:00:00 | 00:00:00 | 00:00:00 | |
| SQ9PSP-11 | 2026-09-03 00:33:56 | 49.95138 | 21.69026 | 55° | 15km/h | 23233m | 6.8m/s | 0°C | 0% | 0hPa | 0V | 00:00:00 | 00:00:00 | 00:00:00 | |
| MIELECB | 2026-09-03 00:33:55 | 49.95136 | 21.69022 | 51° | 11km/h | 23227m | 6.9m/s | 0°C | 0% | 0hPa | 0V | 00:00:00 | 00:00:00 | 00:00:00 | |
| MIELECB | 2026-09-03 00:33:49 | 49.95138 | 21.68997 | 133° | 9km/h | 23193m | 5.8m/s | 0°C | 0% | 0hPa | 0V | 00:00:00 | 00:00:00 | 00:00:00 | |
| MIELECB | 2026-09-03 00:33:44 | 49.95134 | 21.68978 | 84° | 24km/h | 23163m | 7.4m/s | 0°C | 0% | 0hPa | 0V | 00:00:00 | 00:00:00 | 00:00:00 | |
| SQ9EZE-14 | 2026-09-03 00:33:42 | 49.95133 | 21.68962 | 73° | 15km/h | 23150m | 6.1m/s | 0°C | 0% | 0hPa | 0V | 00:00:00 | 00:00:00 | 00:00:00 | |
| SQ9PSP-11 | 2026-09-03 00:33:41 | 49.95132 | 21.68957 | 51° | 7km/h | 23143m | 5.8m/s | 0°C | 0% | 0hPa | 0V | 00:00:00 | 00:00:00 | 00:00:00 | |
| MIELECB | 2026-09-03 00:33:39 | 49.95129 | 21.68957 | 341° | 7km/h | 23130m | 2.9m/s | 0°C | 0% | 0hPa | 0V | 00:00:00 | 00:00:00 | 00:00:00 | |
| AKAW68 | 2026-09-03 00:33:38 | 49.95127 | 21.68955 | 55° | 7km/h | 23118m | 3.1m/s | 0°C | 0% | 0hPa | 0V | 00:00:00 | 00:00:00 | 00:00:00 | |
| MIELECB | 2026-09-03 00:33:33 | 49.95112 | 21.68936 | 42° | 20km/h | 23102m | 4.6m/s | 0°C | 0% | 0hPa | 0V | 00:00:00 | 00:00:00 | 00:00:00 | |
| MIELECB | 2026-09-03 00:33:28 | 49.95108 | 21.68925 | 295° | 13km/h | 23076m | 5.9m/s | 0°C | 0% | 0hPa | 0V | 00:00:00 | 00:00:00 | 00:00:00 | |
| SQ9PSP-11 | 2026-09-03 00:33:26 | 49.95104 | 21.68931 | 340° | 13km/h | 23066m | 6.3m/s | 0°C | 0% | 0hPa | 0V | 00:00:00 | 00:00:00 | 00:00:00 | |
| MIELECB | 2026-09-03 00:33:23 | 49.95094 | 21.68922 | 33° | 20km/h | 23052m | 5.8m/s | 0°C | 0% | 0hPa | 0V | 00:00:00 | 00:00:00 | 00:00:00 | |
| AKAW68 | 2026-09-03 00:33:17 | 49.95084 | 21.68922 | 290° | 7km/h | 23023m | 5.8m/s | 0°C | 0% | 0hPa | 0V | 00:00:00 | 00:00:00 | 00:00:00 | |
| MIELECB | 2026-09-03 00:33:12 | 49.95067 | 21.68930 | 32° | 13km/h | 22994m | 6.4m/s | 0°C | 0% | 0hPa | 0V | 00:00:00 | 00:00:00 | 00:00:00 | |
| SQ9PSP-11 | 2026-09-03 00:33:10 | 49.95064 | 21.68926 | 13° | 7km/h | 22983m | 5.1m/s | 0°C | 0% | 0hPa | 0V | 00:00:00 | 00:00:00 | 00:00:00 | |
| MIELECB | 2026-09-03 00:33:06 | 49.95054 | 21.68936 | 338° | 11km/h | 22958m | 6.2m/s | 0°C | 0% | 0hPa | 0V | 00:00:00 | 00:00:00 | 00:00:00 | |
| MIELECB | 2026-09-03 00:33:01 | 49.95046 | 21.68945 | 358° | 5km/h | 22931m | 6.2m/s | 0°C | 0% | 0hPa | 0V | 00:00:00 | 00:00:00 | 00:00:00 | |
| AKAW682 | 2026-09-03 00:32:57 | 49.95038 | 21.68947 | 293° | 13km/h | 22906m | 3.3m/s | 0°C | 0% | 0hPa | 0V | 00:00:00 | 00:00:00 | 00:00:00 | |
| MIELECB | 2026-09-03 00:32:50 | 49.95039 | 21.68955 | 300° | 7km/h | 22871m | 4.9m/s | 0°C | 0% | 0hPa | 0V | 00:00:00 | 00:00:00 | 00:00:00 | |
| MIELECB | 2026-09-03 00:32:44 | 49.95041 | 21.68947 | 226° | 4km/h | 22847m | 5.6m/s | 0°C | 0% | 0hPa | 0V | 00:00:00 | 00:00:00 | 00:00:00 | |
| MIELECB | 2026-09-03 00:32:39 | 49.95042 | 21.68949 | 288° | 4km/h | 22819m | 5.2m/s | 0°C | 0% | 0hPa | 0V | 00:00:00 | 00:00:00 | 00:00:00 | |
| AKAW682 | 2026-09-03 00:32:35 | 49.95047 | 21.68940 | 109° | 18km/h | 22800m | 4.9m/s | 0°C | 0% | 0hPa | 0V | 00:00:00 | 00:00:00 | 00:00:00 | |
| MIELECB | 2026-09-03 00:32:34 | 49.95049 | 21.68934 | 120° | 13km/h | 22794m | 6.7m/s | 0°C | 0% | 0hPa | 0V | 00:00:00 | 00:00:00 | 00:00:00 | |
| MIELECB | 2026-09-03 00:32:28 | 49.95051 | 21.68931 | 200° | 4km/h | 22763m | 8.6m/s | 0°C | 0% | 0hPa | 0V | 00:00:00 | 00:00:00 | 00:00:00 | |
| SQ9PSP-11 | 2026-09-03 00:32:23 | 49.95061 | 21.68912 | 112° | 22km/h | 22734m | 5.7m/s | 0°C | 0% | 0hPa | 0V | 00:00:00 | 00:00:00 | 00:00:00 | |
| MIELECB | 2026-09-03 00:32:17 | 49.95074 | 21.68895 | 130° | 13km/h | 22697m | 4.6m/s | 0°C | 0% | 0hPa | 0V | 00:00:00 | 00:00:00 | 00:00:00 | |
| AKAW682 | 2026-09-03 00:32:14 | 49.95079 | 21.68879 | 113° | 20km/h | 22680m | 4.1m/s | 0°C | 0% | 0hPa | 0V | 00:00:00 | 00:00:00 | 00:00:00 | |
| MIELECB | 2026-09-03 00:32:12 | 49.95082 | 21.68860 | 112° | 29km/h | 22668m | 5.3m/s | 0°C | 0% | 0hPa | 0V | 00:00:00 | 00:00:00 | 00:00:00 | |
| SQ9PSP-11 | 2026-09-03 00:32:08 | 49.95089 | 21.68842 | 151° | 7km/h | 22645m | 4.9m/s | 0°C | 0% | 0hPa | 0V | 00:00:00 | 00:00:00 | 00:00:00 | |
| MIELECB | 2026-09-03 00:32:06 | 49.95093 | 21.68836 | 114° | 15km/h | 22634m | 3.7m/s | 0°C | 0% | 0hPa | 0V | 00:00:00 | 00:00:00 | 00:00:00 | |
| MIELECB | 2026-09-03 00:32:00 | 49.95103 | 21.68784 | 104° | 22km/h | 22606m | 4.4m/s | 0°C | 0% | 0hPa | 0V | 00:00:00 | 00:00:00 | 00:00:00 | |
| AKAW68 | 2026-09-03 00:31:54 | 49.95106 | 21.68761 | 107° | 20km/h | 22572m | 3.8m/s | 0°C | 0% | 0hPa | 0V | 00:00:00 | 00:00:00 | 00:00:00 | |
| SQ9PSP-11 | 2026-09-03 00:31:52 | 49.95108 | 21.68740 | 101° | 26km/h | 22561m | 4.7m/s | 0°C | 0% | 0hPa | 0V | 00:00:00 | 00:00:00 | 00:00:00 | |
| AKAW682 | 2026-09-03 00:31:51 | 49.95109 | 21.68731 | 86° | 22km/h | 22556m | 5.3m/s | 0°C | 0% | 0hPa | 0V | 00:00:00 | 00:00:00 | 00:00:00 | |
| MIELECB | 2026-09-03 00:31:47 | 49.95114 | 21.68697 | 96° | 20km/h | 22535m | 5.4m/s | 0°C | 0% | 0hPa | 0V | 00:00:00 | 00:00:00 | 00:00:00 | |
| MIELECB | 2026-09-03 00:31:40 | 49.95105 | 21.68641 | 91° | 24km/h | 22505m | 5.3m/s | 0°C | 0% | 0hPa | 0V | 00:00:00 | 00:00:00 | 00:00:00 | |
| SQ9PSP-11 | 2026-09-03 00:31:37 | 49.95103 | 21.68622 | 75° | 15km/h | 22488m | 5.1m/s | 0°C | 0% | 0hPa | 0V | 00:00:00 | 00:00:00 | 00:00:00 | |
| AKAW68 | 2026-09-03 00:31:34 | 49.95097 | 21.68599 | 51° | 20km/h | 22472m | 4.6m/s | 0°C | 0% | 0hPa | 0V | 00:00:00 | 00:00:00 | 00:00:00 | |
| AKAW682 | 2026-09-03 00:31:31 | 49.95092 | 21.68582 | 77° | 27km/h | 22460m | 7.2m/s | 0°C | 0% | 0hPa | 0V | 00:00:00 | 00:00:00 | 00:00:00 | |
| SQ9EZE-12 | 2026-09-03 00:31:30 | 49.95091 | 21.68571 | 89° | 29km/h | 22453m | 6.4m/s | 0°C | 0% | 0hPa | 0V | 00:00:00 | 00:00:00 | 00:00:00 | |
| MIELECB | 2026-09-03 00:31:28 | 49.95091 | 21.68553 | 87° | 16km/h | 22443m | 6.2m/s | 0°C | 0% | 0hPa | 0V | 00:00:00 | 00:00:00 | 00:00:00 | |
| MIELECB | 2026-09-03 00:31:22 | 49.95085 | 21.68533 | 73° | 15km/h | 22414m | 5.2m/s | 0°C | 0% | 0hPa | 0V | 00:00:00 | 00:00:00 | 00:00:00 | |
| SQ9PSP-11 | 2026-09-03 00:31:21 | 49.95083 | 21.68528 | 67° | 20km/h | 22409m | 5.5m/s | 0°C | 0% | 0hPa | 0V | 00:00:00 | 00:00:00 | 00:00:00 | |
| MIELECB | 2026-09-03 00:31:16 | 49.95077 | 21.68495 | 79° | 15km/h | 22387m | 3.4m/s | 0°C | 0% | 0hPa | 0V | 00:00:00 | 00:00:00 | 00:00:00 | |
| SQ9EZE-12 | 2026-09-03 00:31:13 | 49.95064 | 21.68471 | 29° | 16km/h | 22368m | 5.0m/s | 0°C | 0% | 0hPa | 0V | 00:00:00 | 00:00:00 | 00:00:00 | |
| AKAW682 | 2026-09-03 00:31:10 | 49.95060 | 21.68464 | 84° | 11km/h | 22355m | 5.4m/s | 0°C | 0% | 0hPa | 0V | 00:00:00 | 00:00:00 | 00:00:00 | |
| SQ9PSP-11 | 2026-09-03 00:31:05 | 49.95044 | 21.68442 | 28° | 20km/h | 22327m | 5.2m/s | 0°C | 0% | 0hPa | 0V | 00:00:00 | 00:00:00 | 00:00:00 | |
| MIELECB | 2026-09-03 00:31:04 | 49.95039 | 21.68439 | 17° | 18km/h | 22322m | 3.6m/s | 0°C | 0% | 0hPa | 0V | 00:00:00 | 00:00:00 | 00:00:00 | |
| MIELECB | 2026-09-03 00:30:58 | 49.95013 | 21.68426 | 53° | 22km/h | 22292m | 5.1m/s | 0°C | 0% | 0hPa | 0V | 00:00:00 | 00:00:00 | 00:00:00 | |
| SQ9EZE-12 | 2026-09-03 00:30:54 | 49.94997 | 21.68408 | 4° | 13km/h | 22270m | 7.3m/s | 0°C | 0% | 0hPa | 0V | 00:00:00 | 00:00:00 | 00:00:00 | |
| MIELECB | 2026-09-03 00:30:53 | 49.94994 | 21.68410 | 328° | 13km/h | 22264m | 6.7m/s | 0°C | 0% | 0hPa | 0V | 00:00:00 | 00:00:00 | 00:00:00 | |
| AKAW68 | 2026-09-03 00:30:51 | 49.94989 | 21.68415 | 331° | 15km/h | 22253m | 4.8m/s | 0°C | 0% | 0hPa | 0V | 00:00:00 | 00:00:00 | 00:00:00 | |
| AKAW682 | 2026-09-03 00:30:50 | 49.94985 | 21.68418 | 339° | 20km/h | 22247m | 4.9m/s | 0°C | 0% | 0hPa | 0V | 00:00:00 | 00:00:00 | 00:00:00 | |
| SQ9PSP-11 | 2026-09-03 00:30:49 | 49.94980 | 21.68420 | 1° | 22km/h | 22243m | 4.8m/s | 0°C | 0% | 0hPa | 0V | 00:00:00 | 00:00:00 | 00:00:00 | |
| MIELECB | 2026-09-03 00:30:47 | 49.94973 | 21.68418 | 23° | 11km/h | 22232m | 5.6m/s | 0°C | 0% | 0hPa | 0V | 00:00:00 | 00:00:00 | 00:00:00 | |
| MIELECB | 2026-09-03 00:30:41 | 49.94956 | 21.68424 | 299° | 15km/h | 22196m | 5.4m/s | 0°C | 0% | 0hPa | 0V | 00:00:00 | 00:00:00 | 00:00:00 | |
| SQ9EZE-12 | 2026-09-03 00:30:39 | 49.94952 | 21.68432 | 319° | 15km/h | 22185m | 5.4m/s | 0°C | 0% | 0hPa | 0V | 00:00:00 | 00:00:00 | 00:00:00 | |
| MIELECB | 2026-09-03 00:30:36 | 49.94942 | 21.68434 | 33° | 9km/h | 22169m | 6.4m/s | 0°C | 0% | 0hPa | 0V | 00:00:00 | 00:00:00 | 00:00:00 | |
| SQ9PSP-11 | 2026-09-03 00:30:33 | 49.94937 | 21.68429 | 8° | 9km/h | 22154m | 5.7m/s | 0°C | 0% | 0hPa | 0V | 00:00:00 | 00:00:00 | 00:00:00 | |
| AKAW68 | 2026-09-03 00:30:31 | 49.94931 | 21.68431 | 0° | 0km/h | 22136m | 6.5m/s | 0°C | 0% | 0hPa | 0V | 00:00:00 | 00:00:00 | 00:00:00 | |
| MIELECB | 2026-09-03 00:30:30 | 49.94931 | 21.68431 | 0° | 0km/h | 22136m | 6.5m/s | 0°C | 0% | 0hPa | 0V | 00:00:00 | 00:00:00 | 00:00:00 | |
| AKAW682 | 2026-09-03 00:30:28 | 49.94932 | 21.68433 | 265° | 5km/h | 22123m | 6.2m/s | 0°C | 0% | 0hPa | 0V | 00:00:00 | 00:00:00 | 00:00:00 | |
| MIELECB | 2026-09-03 00:30:24 | 49.94925 | 21.68440 | 11° | 2km/h | 22097m | 6.4m/s | 0°C | 0% | 0hPa | 0V | 00:00:00 | 00:00:00 | 00:00:00 | |
| MIELECB | 2026-09-03 00:30:20 | 49.94918 | 21.68438 | 304° | 13km/h | 22055m | 4.6m/s | 0°C | 0% | 0hPa | 0V | 00:00:00 | 00:00:00 | 00:00:00 | |
| SQ9PSP-11 | 2026-09-03 00:30:17 | 49.94915 | 21.68441 | 240° | 4km/h | 22036m | 6.5m/s | 0°C | 0% | 0hPa | 0V | 00:00:00 | 00:00:00 | 00:00:00 | |
| MIELECB | 2026-09-03 00:30:13 | 49.94913 | 21.68441 | 271° | 5km/h | 21995m | 6.1m/s | 0°C | 0% | 0hPa | 0V | 00:00:00 | 00:00:00 | 00:00:00 | |
| AKAW68 | 2026-09-03 00:30:10 | 49.94917 | 21.68448 | 237° | 13km/h | 21971m | -2.6m/s | 0°C | 0% | 0hPa | 0V | 00:00:00 | 00:00:00 | 00:00:00 | |
| MIELECB | 2026-09-03 00:30:08 | 49.94919 | 21.68460 | 261° | 15km/h | 21974m | -3.1m/s | 0°C | 0% | 0hPa | 0V | 00:00:00 | 00:00:00 | 00:00:00 | |
| AKAW682 | 2026-09-03 00:30:00 | 49.94927 | 21.68476 | 200° | 18km/h | 21971m | 6.2m/s | 0°C | 0% | 0hPa | 0V | 00:00:00 | 00:00:00 | 00:00:00 | |
| MIELECB | 2026-09-03 00:29:56 | 49.94943 | 21.68489 | 241° | 9km/h | 21946m | 3.9m/s | 0°C | 0% | 0hPa | 0V | 00:00:00 | 00:00:00 | 00:00:00 | |
| MIELECB | 2026-09-03 00:29:51 | 49.94949 | 21.68489 | 202° | 7km/h | 21927m | 6.0m/s | 0°C | 0% | 0hPa | 0V | 00:00:00 | 00:00:00 | 00:00:00 | |
| AKAW68 | 2026-09-03 00:29:50 | 49.94950 | 21.68491 | 238° | 9km/h | 21919m | 4.5m/s | 0°C | 0% | 0hPa | 0V | 00:00:00 | 00:00:00 | 00:00:00 | |
| SQ9PSP-11 | 2026-09-03 00:29:47 | 49.94959 | 21.68490 | 152° | 18km/h | 21890m | 5.6m/s | 0°C | 0% | 0hPa | 0V | 00:00:00 | 00:00:00 | 00:00:00 | |
| MIELECB | 2026-09-03 00:29:45 | 49.94962 | 21.68485 | 149° | 13km/h | 21882m | 6.1m/s | 0°C | 0% | 0hPa | 0V | 00:00:00 | 00:00:00 | 00:00:00 | |
| MIELECB | 2026-09-03 00:29:39 | 49.94971 | 21.68484 | 173° | 7km/h | 21870m | 5.9m/s | 0°C | 0% | 0hPa | 0V | 00:00:00 | 00:00:00 | 00:00:00 | |
| AKAW682 | 2026-09-03 00:29:38 | 49.94973 | 21.68484 | 203° | 15km/h | 21863m | 7.1m/s | 0°C | 0% | 0hPa | 0V | 00:00:00 | 00:00:00 | 00:00:00 | |
| MIELECB | 2026-09-03 00:29:34 | 49.94990 | 21.68480 | 153° | 26km/h | 21835m | 5.0m/s | 0°C | 0% | 0hPa | 0V | 00:00:00 | 00:00:00 | 00:00:00 | |
| SQ9PSP-11 | 2026-09-03 00:29:30 | 49.95003 | 21.68468 | 199° | 9km/h | 21810m | 2.9m/s | 0°C | 0% | 0hPa | 0V | 00:00:00 | 00:00:00 | 00:00:00 | |
| MIELECB | 2026-09-03 00:29:29 | 49.95004 | 21.68468 | 194° | 11km/h | 21805m | -0.7m/s | 0°C | 0% | 0hPa | 0V | 00:00:00 | 00:00:00 | 00:00:00 | |
| OE3JTB-15 | 2026-09-03 00:29:25 | 49.95020 | 21.68459 | 161° | 18km/h | 21811m | 4.7m/s | 0°C | 0% | 0hPa | 0V | 00:00:00 | 00:00:00 | 00:00:00 | |
| MIELECB | 2026-09-03 00:29:18 | 49.95042 | 21.68433 | 118° | 4km/h | 21772m | 7.8m/s | 0°C | 0% | 0hPa | 0V | 00:00:00 | 00:00:00 | 00:00:00 | |
| SQ9PSP-11 | 2026-09-03 00:29:14 | 49.95052 | 21.68420 | 132° | 22km/h | 21745m | 4.8m/s | 0°C | 0% | 0hPa | 0V | 00:00:00 | 00:00:00 | 00:00:00 | |
| MIELECB | 2026-09-03 00:29:12 | 49.95058 | 21.68408 | 122° | 13km/h | 21733m | 6.6m/s | 0°C | 0% | 0hPa | 0V | 00:00:00 | 00:00:00 | 00:00:00 | |
| AKAW68 | 2026-09-03 00:29:09 | 49.95066 | 21.68391 | 120° | 24km/h | 21717m | 6.6m/s | 0°C | 0% | 0hPa | 0V | 00:00:00 | 00:00:00 | 00:00:00 | |
| MIELECB | 2026-09-03 00:29:06 | 49.95071 | 21.68370 | 111° | 13km/h | 21697m | 5.4m/s | 0°C | 0% | 0hPa | 0V | 00:00:00 | 00:00:00 | 00:00:00 | |
| AKAW682 | 2026-09-03 00:29:05 | 49.95072 | 21.68364 | 87° | 13km/h | 21690m | 3.8m/s | 0°C | 0% | 0hPa | 0V | 00:00:00 | 00:00:00 | 00:00:00 | |
| MIELECB | 2026-09-03 00:29:01 | 49.95078 | 21.68336 | 130° | 24km/h | 21666m | 6.4m/s | 0°C | 0% | 0hPa | 0V | 00:00:00 | 00:00:00 | 00:00:00 | |
| SQ9PSP-11 | 2026-09-03 00:28:59 | 49.95086 | 21.68327 | 143° | 13km/h | 21649m | 2.5m/s | 0°C | 0% | 0hPa | 0V | 00:00:00 | 00:00:00 | 00:00:00 | |
| MIELECB | 2026-09-03 00:28:55 | 49.95093 | 21.68306 | 111° | 18km/h | 21623m | 2.6m/s | 0°C | 0% | 0hPa | 0V | 00:00:00 | 00:00:00 | 00:00:00 | |
| AKAW68 | 2026-09-03 00:28:49 | 49.95104 | 21.68261 | 133° | 16km/h | 21577m | 0.3m/s | 0°C | 0% | 0hPa | 0V | 00:00:00 | 00:00:00 | 00:00:00 | |
| MIELECB | 2026-09-03 00:28:44 | 49.95103 | 21.68240 | 69° | 22km/h | 21575m | 1.9m/s | 0°C | 0% | 0hPa | 0V | 00:00:00 | 00:00:00 | 00:00:00 | |
| SQ9PSP-11 | 2026-09-03 00:28:43 | 49.95100 | 21.68232 | 66° | 24km/h | 21571m | 0.8m/s | 0°C | 0% | 0hPa | 0V | 00:00:00 | 00:00:00 | 00:00:00 | |
| AKAW682 | 2026-09-03 00:28:40 | 49.95091 | 21.68215 | 51° | 13km/h | 21561m | 2.5m/s | 0°C | 0% | 0hPa | 0V | 00:00:00 | 00:00:00 | 00:00:00 | |
| MIELECB | 2026-09-03 00:28:38 | 49.95090 | 21.68206 | 122° | 15km/h | 21555m | 3.6m/s | 0°C | 0% | 0hPa | 0V | 00:00:00 | 00:00:00 | 00:00:00 | |
| MIELECB | 2026-09-03 00:28:33 | 49.95086 | 21.68190 | 60° | 22km/h | 21536m | 4.4m/s | 0°C | 0% | 0hPa | 0V | 00:00:00 | 00:00:00 | 00:00:00 | |
| MIELECB | 2026-09-03 00:28:28 | 49.95075 | 21.68161 | 91° | 11km/h | 21516m | 5.8m/s | 0°C | 0% | 0hPa | 0V | 00:00:00 | 00:00:00 | 00:00:00 | |
| SQ9PSP-11 | 2026-09-03 00:28:27 | 49.95075 | 21.68156 | 103° | 13km/h | 21512m | 5.7m/s | 0°C | 0% | 0hPa | 0V | 00:00:00 | 00:00:00 | 00:00:00 | |
| MIELECB | 2026-09-03 00:28:22 | 49.95061 | 21.68137 | 29° | 22km/h | 21483m | 5.1m/s | 0°C | 0% | 0hPa | 0V | 00:00:00 | 00:00:00 | 00:00:00 | |
| MIELECB | 2026-09-03 00:28:17 | 49.95044 | 21.68109 | 27° | 20km/h | 21457m | 6.7m/s | 0°C | 0% | 0hPa | 0V | 00:00:00 | 00:00:00 | 00:00:00 | |
| AKAW682 | 2026-09-03 00:28:13 | 49.95030 | 21.68096 | 40° | 16km/h | 21437m | 4.5m/s | 0°C | 0% | 0hPa | 0V | 00:00:00 | 00:00:00 | 00:00:00 | |
| SQ9PSP-11 | 2026-09-03 00:28:11 | 49.95028 | 21.68088 | 91° | 11km/h | 21427m | 4.3m/s | 0°C | 0% | 0hPa | 0V | 00:00:00 | 00:00:00 | 00:00:00 | |
| AKAW68 | 2026-09-03 00:28:07 | 49.95021 | 21.68066 | 38° | 22km/h | 21410m | 5.8m/s | 0°C | 0% | 0hPa | 0V | 00:00:00 | 00:00:00 | 00:00:00 | |
| MIELECB | 2026-09-03 00:28:05 | 49.95010 | 21.68061 | 5° | 24km/h | 21398m | 4.9m/s | 0°C | 0% | 0hPa | 0V | 00:00:00 | 00:00:00 | 00:00:00 | |
| MIELECB | 2026-09-03 00:28:00 | 49.94994 | 21.68054 | 123° | 5km/h | 21364m | 4.9m/s | 0°C | 0% | 0hPa | 0V | 00:00:00 | 00:00:00 | 00:00:00 | |
| SQ9PSP-11 | 2026-09-03 00:27:55 | 49.94984 | 21.68036 | 10° | 16km/h | 21333m | 4.8m/s | 0°C | 0% | 0hPa | 0V | 00:00:00 | 00:00:00 | 00:00:00 | |
| AKAW682 | 2026-09-03 00:27:52 | 49.94973 | 21.68032 | 32° | 11km/h | 21316m | 3.7m/s | 0°C | 0% | 0hPa | 0V | 00:00:00 | 00:00:00 | 00:00:00 | |
| MIELECB | 2026-09-03 00:27:49 | 49.94973 | 21.68027 | 158° | 4km/h | 21297m | 5.3m/s | 0°C | 0% | 0hPa | 0V | 00:00:00 | 00:00:00 | 00:00:00 | |
| AKAW68 | 2026-09-03 00:27:47 | 49.94973 | 21.68023 | 80° | 5km/h | 21284m | 5.1m/s | 0°C | 0% | 0hPa | 0V | 00:00:00 | 00:00:00 | 00:00:00 | |
| MIELECB | 2026-09-03 00:27:43 | 49.94962 | 21.68010 | 13° | 7km/h | 21255m | 4.1m/s | 0°C | 0% | 0hPa | 0V | 00:00:00 | 00:00:00 | 00:00:00 | |
| SQ9EZE-12 | 2026-09-03 00:27:40 | 49.94961 | 21.68003 | 115° | 7km/h | 21234m | 1.7m/s | 0°C | 0% | 0hPa | 0V | 00:00:00 | 00:00:00 | 00:00:00 | |
| SQ9PSP-11 | 2026-09-03 00:27:39 | 49.94961 | 21.67999 | 112° | 7km/h | 21235m | 3.7m/s | 0°C | 0% | 0hPa | 0V | 00:00:00 | 00:00:00 | 00:00:00 | |
| MIELECB | 2026-09-03 00:27:38 | 49.94962 | 21.67995 | 139° | 4km/h | 21226m | 2.4m/s | 0°C | 0% | 0hPa | 0V | 00:00:00 | 00:00:00 | 00:00:00 | |
| GYPAP8-17 | 2026-09-03 00:27:37 | 49.94962 | 21.67996 | 276° | 4km/h | 21219m | 2.7m/s | 0°C | 0% | 0hPa | 0V | 00:00:00 | 00:00:00 | 00:00:00 | |
| MIELECB | 2026-09-03 00:27:33 | 49.94956 | 21.67997 | 47° | 13km/h | 21218m | 1.5m/s | 0°C | 0% | 0hPa | 0V | 00:00:00 | 00:00:00 | 00:00:00 | |
| AKAW682 | 2026-09-03 00:27:30 | 49.94952 | 21.67989 | 0° | 0km/h | 21211m | 1.2m/s | 0°C | 0% | 0hPa | 0V | 00:00:00 | 00:00:00 | 00:00:00 | |
| MIELECB | 2026-09-03 00:27:28 | 49.94954 | 21.67987 | 134° | 9km/h | 21204m | 6.2m/s | 0°C | 0% | 0hPa | 0V | 00:00:00 | 00:00:00 | 00:00:00 | |
| AKAW68 | 2026-09-03 00:27:27 | 49.94957 | 21.67981 | 98° | 7km/h | 21193m | 5.1m/s | 0°C | 0% | 0hPa | 0V | 00:00:00 | 00:00:00 | 00:00:00 | |
| SQ9PSP-11 | 2026-09-03 00:27:24 | 49.94956 | 21.67980 | 345° | 4km/h | 21184m | 3.9m/s | 0°C | 0% | 0hPa | 0V | 00:00:00 | 00:00:00 | 00:00:00 | |
| MIELECB | 2026-09-03 00:27:22 | 49.94955 | 21.67979 | 105° | 5km/h | 21175m | 7.0m/s | 0°C | 0% | 0hPa | 0V | 00:00:00 | 00:00:00 | 00:00:00 | |
| MIELECB | 2026-09-03 00:27:17 | 49.94958 | 21.67975 | 165° | 7km/h | 21146m | 6.3m/s | 0°C | 0% | 0hPa | 0V | 00:00:00 | 00:00:00 | 00:00:00 | |
| GYPAP8-17 | 2026-09-03 00:27:16 | 49.94960 | 21.67973 | 139° | 9km/h | 21139m | 6.1m/s | 0°C | 0% | 0hPa | 0V | 00:00:00 | 00:00:00 | 00:00:00 | |
| MIELECB | 2026-09-03 00:27:11 | 49.94963 | 21.67965 | 225° | 11km/h | 21119m | 3.3m/s | 0°C | 0% | 0hPa | 0V | 00:00:00 | 00:00:00 | 00:00:00 | |
| AKAW682 | 2026-09-03 00:27:09 | 49.94971 | 21.67968 | 182° | 26km/h | 21104m | 5.6m/s | 0°C | 0% | 0hPa | 0V | 00:00:00 | 00:00:00 | 00:00:00 | |
| SQ9PSP-11 | 2026-09-03 00:27:08 | 49.94978 | 21.67968 | 183° | 27km/h | 21099m | 4.1m/s | 0°C | 0% | 0hPa | 0V | 00:00:00 | 00:00:00 | 00:00:00 | |
| MIELECB | 2026-09-03 00:27:06 | 49.94988 | 21.67970 | 206° | 18km/h | 21088m | 5.2m/s | 0°C | 0% | 0hPa | 0V | 00:00:00 | 00:00:00 | 00:00:00 | |
| SQ9EZE-12 | 2026-09-03 00:27:04 | 49.94990 | 21.67972 | 61° | 4km/h | 21078m | 4.7m/s | 0°C | 0% | 0hPa | 0V | 00:00:00 | 00:00:00 | 00:00:00 | |
| MIELECB | 2026-09-03 00:27:01 | 49.94990 | 21.67958 | 97° | 16km/h | 21064m | 3.1m/s | 0°C | 0% | 0hPa | 0V | 00:00:00 | 00:00:00 | 00:00:00 | |
| MIELECB | 2026-09-03 00:26:55 | 49.95017 | 21.67938 | 160° | 20km/h | 21036m | 4.4m/s | 0°C | 0% | 0hPa | 0V | 00:00:00 | 00:00:00 | 00:00:00 | |
| SQ9PSP-11 | 2026-09-03 00:26:52 | 49.95021 | 21.67930 | 83° | 13km/h | 21023m | 4.5m/s | 0°C | 0% | 0hPa | 0V | 00:00:00 | 00:00:00 | 00:00:00 | |
| SQ9EZE-12 | 2026-09-03 00:26:49 | 49.95023 | 21.67908 | 118° | 22km/h | 21009m | 3.4m/s | 0°C | 0% | 0hPa | 0V | 00:00:00 | 00:00:00 | 00:00:00 | |
| AKAW682 | 2026-09-03 00:26:48 | 49.95027 | 21.67901 | 136° | 18km/h | 21006m | 7.3m/s | 0°C | 0% | 0hPa | 0V | 00:00:00 | 00:00:00 | 00:00:00 | |
| AKAW68 | 2026-09-03 00:26:45 | 49.95040 | 21.67903 | 199° | 22km/h | 20987m | 5.5m/s | 0°C | 0% | 0hPa | 0V | 00:00:00 | 00:00:00 | 00:00:00 | |
| MIELECB | 2026-09-03 00:26:44 | 49.95045 | 21.67903 | 180° | 18km/h | 20982m | 5.4m/s | 0°C | 0% | 0hPa | 0V | 00:00:00 | 00:00:00 | 00:00:00 | |
| MIELECB | 2026-09-03 00:26:39 | 49.95057 | 21.67887 | 127° | 16km/h | 20955m | 3.6m/s | 0°C | 0% | 0hPa | 0V | 00:00:00 | 00:00:00 | 00:00:00 | |
| SQ9PSP-11 | 2026-09-03 00:26:34 | 49.95084 | 21.67866 | 186° | 16km/h | 20931m | 5.4m/s | 0°C | 0% | 0hPa | 0V | 00:00:00 | 00:00:00 | 00:00:00 | |
| MIELECB | 2026-09-03 00:26:33 | 49.95087 | 21.67867 | 204° | 15km/h | 20925m | 4.6m/s | 0°C | 0% | 0hPa | 0V | 00:00:00 | 00:00:00 | 00:00:00 | |
| AKAW682 | 2026-09-03 00:26:27 | 49.95118 | 21.67879 | 167° | 22km/h | 20899m | 4.8m/s | 0°C | 0% | 0hPa | 0V | 00:00:00 | 00:00:00 | 00:00:00 | |
| AKAW68 | 2026-09-03 00:26:25 | 49.95130 | 21.67877 | 172° | 31km/h | 20890m | 6.9m/s | 0°C | 0% | 0hPa | 0V | 00:00:00 | 00:00:00 | 00:00:00 | |
| MIELECB | 2026-09-03 00:26:22 | 49.95151 | 21.67874 | 186° | 24km/h | 20877m | 7.7m/s | 0°C | 0% | 0hPa | 0V | 00:00:00 | 00:00:00 | 00:00:00 | |
| MIELECB | 2026-09-03 00:26:17 | 49.95175 | 21.67880 | 167° | 27km/h | 20846m | 3.7m/s | 0°C | 0% | 0hPa | 0V | 00:00:00 | 00:00:00 | 00:00:00 | |
| SQ9PSP-11 | 2026-09-03 00:26:15 | 49.95187 | 21.67873 | 157° | 26km/h | 20838m | 4.8m/s | 0°C | 0% | 0hPa | 0V | 00:00:00 | 00:00:00 | 00:00:00 | |
| MIELECB | 2026-09-03 00:26:11 | 49.95216 | 21.67860 | 176° | 24km/h | 20822m | 6.0m/s | 0°C | 0% | 0hPa | 0V | 00:00:00 | 00:00:00 | 00:00:00 | |
| AKAW682 | 2026-09-03 00:26:06 | 49.95232 | 21.67864 | 174° | 22km/h | 20790m | 6.3m/s | 0°C | 0% | 0hPa | 0V | 00:00:00 | 00:00:00 | 00:00:00 | |
| MIELECB | 2026-09-03 00:26:05 | 49.95238 | 21.67861 | 163° | 24km/h | 20784m | 6.5m/s | 0°C | 0% | 0hPa | 0V | 00:00:00 | 00:00:00 | 00:00:00 | |
| AKAW68 | 2026-09-03 00:26:04 | 49.95243 | 21.67857 | 155° | 26km/h | 20777m | 6.0m/s | 0°C | 0% | 0hPa | 0V | 00:00:00 | 00:00:00 | 00:00:00 | |
| SQ9PSP-11 | 2026-09-03 00:25:58 | 49.95269 | 21.67836 | 153° | 9km/h | 20733m | 6.2m/s | 0°C | 0% | 0hPa | 0V | 00:00:00 | 00:00:00 | 00:00:00 | |
| MIELECB | 2026-09-03 00:25:53 | 49.95288 | 21.67816 | 152° | 31km/h | 20704m | 5.7m/s | 0°C | 0% | 0hPa | 0V | 00:00:00 | 00:00:00 | 00:00:00 | |
| MIELECB | 2026-09-03 00:25:47 | 49.95313 | 21.67801 | 172° | 15km/h | 20660m | 4.9m/s | 0°C | 0% | 0hPa | 0V | 00:00:00 | 00:00:00 | 00:00:00 | |
| AKAW682 | 2026-09-03 00:25:44 | 49.95320 | 21.67790 | 134° | 26km/h | 20640m | -4.9m/s | 0°C | 0% | 0hPa | 0V | 00:00:00 | 00:00:00 | 00:00:00 | |
| AKAW68 | 2026-09-03 00:25:43 | 49.95325 | 21.67784 | 150° | 26km/h | 20657m | -1.9m/s | 0°C | 0% | 0hPa | 0V | 00:00:00 | 00:00:00 | 00:00:00 | |
| MIELECB | 2026-09-03 00:25:42 | 49.95330 | 21.67780 | 151° | 26km/h | 20665m | 1.3m/s | 0°C | 0% | 0hPa | 0V | 00:00:00 | 00:00:00 | 00:00:00 | |
| SQ9PSP-11 | 2026-09-03 00:25:37 | 49.95353 | 21.67764 | 190° | 15km/h | 20648m | 4.8m/s | 0°C | 0% | 0hPa | 0V | 00:00:00 | 00:00:00 | 00:00:00 | |
| MIELECB | 2026-09-03 00:25:36 | 49.95357 | 21.67764 | 177° | 15km/h | 20641m | 3.8m/s | 0°C | 0% | 0hPa | 0V | 00:00:00 | 00:00:00 | 00:00:00 | |
| SQ9EZE-12 | 2026-09-03 00:25:34 | 49.95362 | 21.67757 | 135° | 18km/h | 20631m | 5.2m/s | 0°C | 0% | 0hPa | 0V | 00:00:00 | 00:00:00 | 00:00:00 | |
| MIELECB | 2026-09-03 00:25:31 | 49.95373 | 21.67743 | 158° | 15km/h | 20615m | 6.2m/s | 0°C | 0% | 0hPa | 0V | 00:00:00 | 00:00:00 | 00:00:00 | |
| MIELECB | 2026-09-03 00:25:25 | 49.95384 | 21.67736 | 164° | 20km/h | 20584m | 5.1m/s | 0°C | 0% | 0hPa | 0V | 00:00:00 | 00:00:00 | 00:00:00 | |
| AKAW68 | 2026-09-03 00:25:23 | 49.95394 | 21.67730 | 153° | 22km/h | 20573m | 6.2m/s | 0°C | 0% | 0hPa | 0V | 00:00:00 | 00:00:00 | 00:00:00 | |
| AKAW682 | 2026-09-03 00:25:22 | 49.95397 | 21.67726 | 144° | 20km/h | 20567m | 4.0m/s | 0°C | 0% | 0hPa | 0V | 00:00:00 | 00:00:00 | 00:00:00 | |
| SQ9PSP-11 | 2026-09-03 00:25:21 | 49.95401 | 21.67723 | 154° | 16km/h | 20564m | 5.5m/s | 0°C | 0% | 0hPa | 0V | 00:00:00 | 00:00:00 | 00:00:00 | |
| MIELECB | 2026-09-03 00:25:20 | 49.95405 | 21.67720 | 162° | 15km/h | 20558m | 5.8m/s | 0°C | 0% | 0hPa | 0V | 00:00:00 | 00:00:00 | 00:00:00 | |
| MIELECB | 2026-09-03 00:25:14 | 49.95416 | 21.67708 | 139° | 16km/h | 20529m | 6.1m/s | 0°C | 0% | 0hPa | 0V | 00:00:00 | 00:00:00 | 00:00:00 | |
| MIELECB | 2026-09-03 00:25:10 | 49.95434 | 21.67694 | 148° | 15km/h | 20504m | 6.0m/s | 0°C | 0% | 0hPa | 0V | 00:00:00 | 00:00:00 | 00:00:00 | |
| SQ9PSP-11 | 2026-09-03 00:25:05 | 49.95445 | 21.67675 | 113° | 18km/h | 20481m | 4.9m/s | 0°C | 0% | 0hPa | 0V | 00:00:00 | 00:00:00 | 00:00:00 | |
| MIELECB | 2026-09-03 00:25:03 | 49.95449 | 21.67663 | 128° | 16km/h | 20472m | 6.6m/s | 0°C | 0% | 0hPa | 0V | 00:00:00 | 00:00:00 | 00:00:00 | |
| AKAW68 | 2026-09-03 00:25:02 | 49.95452 | 21.67658 | 153° | 15km/h | 20465m | 5.2m/s | 0°C | 0% | 0hPa | 0V | 00:00:00 | 00:00:00 | 00:00:00 | |
| OE3JTB-15 | 2026-09-03 00:25:01 | 49.95456 | 21.67657 | 178° | 22km/h | 20460m | 4.0m/s | 0°C | 0% | 0hPa | 0V | 00:00:00 | 00:00:00 | 00:00:00 | |
| AKAW682 | 2026-09-03 00:25:00 | 49.95460 | 21.67657 | 170° | 13km/h | 20456m | 6.2m/s | 0°C | 0% | 0hPa | 0V | 00:00:00 | 00:00:00 | 00:00:00 | |
| MIELECB | 2026-09-03 00:24:58 | 49.95466 | 21.67651 | 138° | 18km/h | 20447m | 3.0m/s | 0°C | 0% | 0hPa | 0V | 00:00:00 | 00:00:00 | 00:00:00 | |
| SQ9EZE-14 | 2026-09-03 00:24:52 | 49.95486 | 21.67616 | 123° | 11km/h | 20420m | 3.2m/s | 0°C | 0% | 0hPa | 0V | 00:00:00 | 00:00:00 | 00:00:00 | |
| SQ9PSP-11 | 2026-09-03 00:24:50 | 49.95492 | 21.67607 | 144° | 24km/h | 20410m | 4.9m/s | 0°C | 0% | 0hPa | 0V | 00:00:00 | 00:00:00 | 00:00:00 | |
| MIELECB | 2026-09-03 00:24:47 | 49.95506 | 21.67581 | 119° | 29km/h | 20398m | 5.9m/s | 0°C | 0% | 0hPa | 0V | 00:00:00 | 00:00:00 | 00:00:00 | |
| AKAW68 | 2026-09-03 00:24:42 | 49.95526 | 21.67551 | 146° | 18km/h | 20375m | 5.4m/s | 0°C | 0% | 0hPa | 0V | 00:00:00 | 00:00:00 | 00:00:00 | |
| MIELECB | 2026-09-03 00:24:41 | 49.95530 | 21.67546 | 130° | 18km/h | 20372m | 4.8m/s | 0°C | 0% | 0hPa | 0V | 00:00:00 | 00:00:00 | 00:00:00 | |
| AKAW682 | 2026-09-03 00:24:39 | 49.95536 | 21.67534 | 142° | 24km/h | 20366m | 7.2m/s | 0°C | 0% | 0hPa | 0V | 00:00:00 | 00:00:00 | 00:00:00 | |
| SQ9EZE-14 | 2026-09-03 00:24:36 | 49.95552 | 21.67515 | 126° | 26km/h | 20351m | 6.6m/s | 0°C | 0% | 0hPa | 0V | 00:00:00 | 00:00:00 | 00:00:00 | |
| MIELECB | 2026-09-03 00:24:35 | 49.95556 | 21.67507 | 116° | 20km/h | 20345m | 4.4m/s | 0°C | 0% | 0hPa | 0V | 00:00:00 | 00:00:00 | 00:00:00 | |
| SQ9PSP-11 | 2026-09-03 00:24:34 | 49.95557 | 21.67500 | 111° | 16km/h | 20341m | 4.3m/s | 0°C | 0% | 0hPa | 0V | 00:00:00 | 00:00:00 | 00:00:00 | |
| MIELECB | 2026-09-03 00:24:30 | 49.95570 | 21.67483 | 140° | 22km/h | 20316m | 6.1m/s | 0°C | 0% | 0hPa | 0V | 00:00:00 | 00:00:00 | 00:00:00 | |
| MIELECB | 2026-09-03 00:24:24 | 49.95599 | 21.67425 | 122° | 33km/h | 20286m | 5.0m/s | 0°C | 0% | 0hPa | 0V | 00:00:00 | 00:00:00 | 00:00:00 | |
| AKAW68 | 2026-09-03 00:24:21 | 49.95608 | 21.67399 | 130° | 18km/h | 20269m | 6.6m/s | 0°C | 0% | 0hPa | 0V | 00:00:00 | 00:00:00 | 00:00:00 | |
| MIELECB | 2026-09-03 00:24:19 | 49.95616 | 21.67389 | 139° | 20km/h | 20259m | 4.8m/s | 0°C | 0% | 0hPa | 0V | 00:00:00 | 00:00:00 | 00:00:00 | |
| SQ9PSP-11 | 2026-09-03 00:24:17 | 49.95623 | 21.67374 | 113° | 26km/h | 20248m | 4.7m/s | 0°C | 0% | 0hPa | 0V | 00:00:00 | 00:00:00 | 00:00:00 | |
| MIELECB | 2026-09-03 00:24:13 | 49.95635 | 21.67334 | 125° | 29km/h | 20234m | 4.8m/s | 0°C | 0% | 0hPa | 0V | 00:00:00 | 00:00:00 | 00:00:00 | |
| SQ9EZE-12 | 2026-09-03 00:24:11 | 49.95642 | 21.67315 | 114° | 33km/h | 20226m | 6.0m/s | 0°C | 0% | 0hPa | 0V | 00:00:00 | 00:00:00 | 00:00:00 | |
| AKAW682 | 2026-09-03 00:24:07 | 49.95653 | 21.67264 | 120° | 35km/h | 20207m | 6.4m/s | 0°C | 0% | 0hPa | 0V | 00:00:00 | 00:00:00 | 00:00:00 | |
| MIELECB | 2026-09-03 00:24:02 | 49.95666 | 21.67211 | 98° | 29km/h | 20183m | 5.6m/s | 0°C | 0% | 0hPa | 0V | 00:00:00 | 00:00:00 | 00:00:00 | |
| SQ9PSP-11 | 2026-09-03 00:24:01 | 49.95667 | 21.67199 | 105° | 31km/h | 20177m | 6.5m/s | 0°C | 0% | 0hPa | 0V | 00:00:00 | 00:00:00 | 00:00:00 | |
| AKAW68 | 2026-09-03 00:23:59 | 49.95670 | 21.67176 | 93° | 33km/h | 20167m | 6.5m/s | 0°C | 0% | 0hPa | 0V | 00:00:00 | 00:00:00 | 00:00:00 | |
| MIELECB | 2026-09-03 00:23:56 | 49.95675 | 21.67140 | 99° | 24km/h | 20154m | 5.6m/s | 0°C | 0% | 0hPa | 0V | 00:00:00 | 00:00:00 | 00:00:00 | |
| MIELECB | 2026-09-03 00:23:51 | 49.95678 | 21.67106 | 91° | 29km/h | 20129m | 5.3m/s | 0°C | 0% | 0hPa | 0V | 00:00:00 | 00:00:00 | 00:00:00 | |
| SQ9EZE-12 | 2026-09-03 00:23:45 | 49.95690 | 21.67051 | 91° | 16km/h | 20101m | 4.2m/s | 0°C | 0% | 0hPa | 0V | 00:00:00 | 00:00:00 | 00:00:00 | |
| SQ9PSP-11 | 2026-09-03 00:23:41 | 49.95691 | 21.67020 | 86° | 22km/h | 20087m | 6.4m/s | 0°C | 0% | 0hPa | 0V | 00:00:00 | 00:00:00 | 00:00:00 | |
| MIELECB | 2026-09-03 00:23:40 | 49.95690 | 21.67001 | 92° | 26km/h | 20079m | 6.7m/s | 0°C | 0% | 0hPa | 0V | 00:00:00 | 00:00:00 | 00:00:00 | |
| AKAW68 | 2026-09-03 00:23:39 | 49.95690 | 21.67001 | 92° | 26km/h | 20079m | 6.7m/s | 0°C | 0% | 0hPa | 0V | 00:00:00 | 00:00:00 | 00:00:00 | |
| AKAW682 | 2026-09-03 00:23:36 | 49.95694 | 21.66974 | 105° | 20km/h | 20064m | 5.6m/s | 0°C | 0% | 0hPa | 0V | 00:00:00 | 00:00:00 | 00:00:00 | |
| MIELECB | 2026-09-03 00:23:35 | 49.95695 | 21.66959 | 79° | 18km/h | 20053m | 5.4m/s | 0°C | 0% | 0hPa | 0V | 00:00:00 | 00:00:00 | 00:00:00 | |
| SQ9EZE-12 | 2026-09-03 00:23:30 | 49.95694 | 21.66928 | 98° | 24km/h | 20034m | 5.8m/s | 0°C | 0% | 0hPa | 0V | 00:00:00 | 00:00:00 | 00:00:00 | |
| MIELECB | 2026-09-03 00:23:28 | 49.95695 | 21.66906 | 90° | 29km/h | 20023m | 6.1m/s | 0°C | 0% | 0hPa | 0V | 00:00:00 | 00:00:00 | 00:00:00 | |
| MIELECB | 2026-09-03 00:23:23 | 49.95700 | 21.66853 | 90° | 27km/h | 19992m | 4.3m/s | 0°C | 0% | 0hPa | 0V | 00:00:00 | 00:00:00 | 00:00:00 | |
| SQ9PSP-11 | 2026-09-03 00:23:22 | 49.95699 | 21.66842 | 79° | 29km/h | 19987m | 4.1m/s | 0°C | 0% | 0hPa | 0V | 00:00:00 | 00:00:00 | 00:00:00 | |
| AKAW68 | 2026-09-03 00:23:18 | 49.95701 | 21.66790 | 94° | 35km/h | 19967m | 4.8m/s | 0°C | 0% | 0hPa | 0V | 00:00:00 | 00:00:00 | 00:00:00 | |
| MIELECB | 2026-09-03 00:23:17 | 49.95702 | 21.66776 | 99° | 40km/h | 19962m | 6.0m/s | 0°C | 0% | 0hPa | 0V | 00:00:00 | 00:00:00 | 00:00:00 | |
| MIELECB | 2026-09-03 00:23:12 | 49.95706 | 21.66715 | 83° | 26km/h | 19938m | 3.7m/s | 0°C | 0% | 0hPa | 0V | 00:00:00 | 00:00:00 | 00:00:00 | |
| SQ9EZE-12 | 2026-09-03 00:23:10 | 49.95705 | 21.66696 | 85° | 22km/h | 19931m | 3.5m/s | 0°C | 0% | 0hPa | 0V | 00:00:00 | 00:00:00 | 00:00:00 | |
| SQ9PSP-11 | 2026-09-03 00:23:07 | 49.95709 | 21.66668 | 115° | 29km/h | 19917m | 4.4m/s | 0°C | 0% | 0hPa | 0V | 00:00:00 | 00:00:00 | 00:00:00 | |
| MIELECB | 2026-09-03 00:23:06 | 49.95712 | 21.66656 | 104° | 31km/h | 19913m | 5.7m/s | 0°C | 0% | 0hPa | 0V | 00:00:00 | 00:00:00 | 00:00:00 | |
| MIELECB | 2026-09-03 00:23:01 | 49.95711 | 21.66607 | 101° | 29km/h | 19894m | 6.1m/s | 0°C | 0% | 0hPa | 0V | 00:00:00 | 00:00:00 | 00:00:00 | |
| AKAW68 | 2026-09-03 00:22:57 | 49.95718 | 21.66562 | 103° | 29km/h | 19874m | 5.1m/s | 0°C | 0% | 0hPa | 0V | 00:00:00 | 00:00:00 | 00:00:00 | |
| MIELECB | 2026-09-03 00:22:55 | 49.95721 | 21.66541 | 111° | 22km/h | 19863m | 6.2m/s | 0°C | 0% | 0hPa | 0V | 00:00:00 | 00:00:00 | 00:00:00 | |
| SQ9EZE-12 | 2026-09-03 00:22:53 | 49.95724 | 21.66524 | 90° | 13km/h | 19847m | 3.6m/s | 0°C | 0% | 0hPa | 0V | 00:00:00 | 00:00:00 | 00:00:00 | |
| SQ9PSP-11 | 2026-09-03 00:22:51 | 49.95724 | 21.66518 | 96° | 18km/h | 19844m | 5.3m/s | 0°C | 0% | 0hPa | 0V | 00:00:00 | 00:00:00 | 00:00:00 | |
| MIELECB | 2026-09-03 00:22:49 | 49.95726 | 21.66500 | 99° | 29km/h | 19833m | 6.1m/s | 0°C | 0% | 0hPa | 0V | 00:00:00 | 00:00:00 | 00:00:00 | |
| MIELECB | 2026-09-03 00:22:43 | 49.95746 | 21.66443 | 147° | 18km/h | 19804m | 6.6m/s | 0°C | 0% | 0hPa | 0V | 00:00:00 | 00:00:00 | 00:00:00 | |
| MIELECB | 2026-09-03 00:22:38 | 49.95757 | 21.66414 | 117° | 29km/h | 19781m | 5.9m/s | 0°C | 0% | 0hPa | 0V | 00:00:00 | 00:00:00 | 00:00:00 | |
| AKAW682 | 2026-09-03 00:22:36 | 49.95762 | 21.66381 | 94° | 27km/h | 19764m | 5.5m/s | 0°C | 0% | 0hPa | 0V | 00:00:00 | 00:00:00 | 00:00:00 | |
| MIELECB | 2026-09-03 00:22:33 | 49.95765 | 21.66363 | 117° | 26km/h | 19755m | 6.3m/s | 0°C | 0% | 0hPa | 0V | 00:00:00 | 00:00:00 | 00:00:00 | |
| MIELECB | 2026-09-03 00:22:27 | 49.95782 | 21.66317 | 115° | 24km/h | 19722m | 6.0m/s | 0°C | 0% | 0hPa | 0V | 00:00:00 | 00:00:00 | 00:00:00 | |
| MIELECB | 2026-09-03 00:22:22 | 49.95781 | 21.66264 | 84° | 27km/h | 19697m | 4.0m/s | 0°C | 0% | 0hPa | 0V | 00:00:00 | 00:00:00 | 00:00:00 | |
| SQ9PSP-11 | 2026-09-03 00:22:20 | 49.95782 | 21.66245 | 106° | 24km/h | 19691m | 3.5m/s | 0°C | 0% | 0hPa | 0V | 00:00:00 | 00:00:00 | 00:00:00 | |
| SQ9EZE-12 | 2026-09-03 00:22:18 | 49.95784 | 21.66225 | 93° | 31km/h | 19682m | 5.7m/s | 0°C | 0% | 0hPa | 0V | 00:00:00 | 00:00:00 | 00:00:00 | |
| MIELECB | 2026-09-03 00:22:16 | 49.95784 | 21.66201 | 102° | 29km/h | 19672m | 6.6m/s | 0°C | 0% | 0hPa | 0V | 00:00:00 | 00:00:00 | 00:00:00 | |
| AKAW682 | 2026-09-03 00:22:14 | 49.95787 | 21.66180 | 110° | 27km/h | 19661m | 5.0m/s | 0°C | 0% | 0hPa | 0V | 00:00:00 | 00:00:00 | 00:00:00 | |
| MIELECB | 2026-09-03 00:22:11 | 49.95789 | 21.66151 | 84° | 27km/h | 19646m | 3.3m/s | 0°C | 0% | 0hPa | 0V | 00:00:00 | 00:00:00 | 00:00:00 | |
| MIELECB | 2026-09-03 00:22:05 | 49.95795 | 21.66113 | 114° | 11km/h | 19617m | 6.1m/s | 0°C | 0% | 0hPa | 0V | 00:00:00 | 00:00:00 | 00:00:00 | |
| SQ9PSP-11 | 2026-09-03 00:22:04 | 49.95795 | 21.66108 | 86° | 13km/h | 19612m | 5.7m/s | 0°C | 0% | 0hPa | 0V | 00:00:00 | 00:00:00 | 00:00:00 | |
| SQ9EZE-12 | 2026-09-03 00:22:02 | 49.95795 | 21.66096 | 94° | 16km/h | 19603m | 7.5m/s | 0°C | 0% | 0hPa | 0V | 00:00:00 | 00:00:00 | 00:00:00 | |
| MIELECB | 2026-09-03 00:22:00 | 49.95798 | 21.66082 | 105° | 20km/h | 19590m | 5.0m/s | 0°C | 0% | 0hPa | 0V | 00:00:00 | 00:00:00 | 00:00:00 | |
| MIELECB | 2026-09-03 00:21:55 | 49.95803 | 21.66052 | 140° | 16km/h | 19563m | 4.8m/s | 0°C | 0% | 0hPa | 0V | 00:00:00 | 00:00:00 | 00:00:00 | |
| AKAW68 | 2026-09-03 00:21:53 | 49.95808 | 21.66044 | 102° | 11km/h | 19554m | 4.7m/s | 0°C | 0% | 0hPa | 0V | 00:00:00 | 00:00:00 | 00:00:00 | |
| AKAW682 | 2026-09-03 00:21:51 | 49.95807 | 21.66035 | 89° | 15km/h | 19545m | 3.7m/s | 0°C | 0% | 0hPa | 0V | 00:00:00 | 00:00:00 | 00:00:00 | |
| MIELECB | 2026-09-03 00:21:49 | 49.95810 | 21.66023 | 122° | 16km/h | 19536m | 3.7m/s | 0°C | 0% | 0hPa | 0V | 00:00:00 | 00:00:00 | 00:00:00 | |
| SQ9PSP-11 | 2026-09-03 00:21:48 | 49.95812 | 21.66018 | 118° | 15km/h | 19531m | 5.0m/s | 0°C | 0% | 0hPa | 0V | 00:00:00 | 00:00:00 | 00:00:00 | |
| SQ9EZE-12 | 2026-09-03 00:21:45 | 49.95819 | 21.66000 | 144° | 11km/h | 19513m | 5.8m/s | 0°C | 0% | 0hPa | 0V | 00:00:00 | 00:00:00 | 00:00:00 | |
| MIELECB | 2026-09-03 00:21:44 | 49.95821 | 21.65997 | 128° | 11km/h | 19508m | 5.8m/s | 0°C | 0% | 0hPa | 0V | 00:00:00 | 00:00:00 | 00:00:00 | |
| MIELECB | 2026-09-03 00:21:38 | 49.95829 | 21.65984 | 149° | 16km/h | 19484m | 3.7m/s | 0°C | 0% | 0hPa | 0V | 00:00:00 | 00:00:00 | 00:00:00 | |
| MIELECB | 2026-09-03 00:21:32 | 49.95839 | 21.65969 | 170° | 11km/h | 19451m | 5.6m/s | 0°C | 0% | 0hPa | 0V | 00:00:00 | 00:00:00 | 00:00:00 | |
| AKAW682 | 2026-09-03 00:21:30 | 49.95845 | 21.65969 | 188° | 11km/h | 19441m | 4.9m/s | 0°C | 0% | 0hPa | 0V | 00:00:00 | 00:00:00 | 00:00:00 | |
| SQ9EZE-12 | 2026-09-03 00:21:29 | 49.95847 | 21.65969 | 179° | 7km/h | 19436m | 4.8m/s | 0°C | 0% | 0hPa | 0V | 00:00:00 | 00:00:00 | 00:00:00 | |
| MIELECB | 2026-09-03 00:21:27 | 49.95851 | 21.65968 | 163° | 13km/h | 19428m | 5.0m/s | 0°C | 0% | 0hPa | 0V | 00:00:00 | 00:00:00 | 00:00:00 | |
| MIELECB | 2026-09-03 00:21:21 | 49.95866 | 21.65942 | 118° | 11km/h | 19396m | 4.3m/s | 0°C | 0% | 0hPa | 0V | 00:00:00 | 00:00:00 | 00:00:00 | |
| MIELECB | 2026-09-03 00:21:16 | 49.95876 | 21.65935 | 141° | 11km/h | 19377m | 5.1m/s | 0°C | 0% | 0hPa | 0V | 00:00:00 | 00:00:00 | 00:00:00 | |
| AKAW68 | 2026-09-03 00:21:11 | 49.95887 | 21.65902 | 97° | 16km/h | 19351m | 3.3m/s | 0°C | 0% | 0hPa | 0V | 00:00:00 | 00:00:00 | 00:00:00 | |
| MIELECB | 2026-09-03 00:21:10 | 49.95888 | 21.65897 | 92° | 9km/h | 19345m | 4.8m/s | 0°C | 0% | 0hPa | 0V | 00:00:00 | 00:00:00 | 00:00:00 | |
| SQ9PSP-11 | 2026-09-03 00:21:09 | 49.95890 | 21.65895 | 159° | 9km/h | 19341m | 3.8m/s | 0°C | 0% | 0hPa | 0V | 00:00:00 | 00:00:00 | 00:00:00 | |
| SQ9EZE-12 | 2026-09-03 00:21:08 | 49.95892 | 21.65895 | 192° | 11km/h | 19337m | 2.3m/s | 0°C | 0% | 0hPa | 0V | 00:00:00 | 00:00:00 | 00:00:00 | |
| AKAW682 | 2026-09-03 00:21:07 | 49.95895 | 21.65895 | 178° | 7km/h | 19334m | 1.8m/s | 0°C | 0% | 0hPa | 0V | 00:00:00 | 00:00:00 | 00:00:00 | |
| MIELECB | 2026-09-03 00:21:04 | 49.95896 | 21.65887 | 71° | 16km/h | 19321m | 5.3m/s | 0°C | 0% | 0hPa | 0V | 00:00:00 | 00:00:00 | 00:00:00 | |
| MIELECB | 2026-09-03 00:20:59 | 49.95903 | 21.65852 | 130° | 15km/h | 19296m | 5.7m/s | 0°C | 0% | 0hPa | 0V | 00:00:00 | 00:00:00 | 00:00:00 | |
| MIELECB | 2026-09-03 00:20:54 | 49.95913 | 21.65825 | 101° | 18km/h | 19271m | 6.9m/s | 0°C | 0% | 0hPa | 0V | 00:00:00 | 00:00:00 | 00:00:00 | |
| SQ9EZE-12 | 2026-09-03 00:20:53 | 49.95914 | 21.65818 | 95° | 18km/h | 19265m | 5.5m/s | 0°C | 0% | 0hPa | 0V | 00:00:00 | 00:00:00 | 00:00:00 | |
| AKAW68 | 2026-09-03 00:20:50 | 49.95919 | 21.65795 | 139° | 20km/h | 19249m | 2.5m/s | 0°C | 0% | 0hPa | 0V | 00:00:00 | 00:00:00 | 00:00:00 | |
| MIELECB | 2026-09-03 00:20:48 | 49.95925 | 21.65782 | 109° | 20km/h | 19242m | 4.7m/s | 0°C | 0% | 0hPa | 0V | 00:00:00 | 00:00:00 | 00:00:00 | |
| AKAW682 | 2026-09-03 00:20:46 | 49.95928 | 21.65769 | 113° | 20km/h | 19235m | 2.9m/s | 0°C | 0% | 0hPa | 0V | 00:00:00 | 00:00:00 | 00:00:00 | |
| MIELECB | 2026-09-03 00:20:43 | 49.95940 | 21.65744 | 137° | 29km/h | 19222m | 4.8m/s | 0°C | 0% | 0hPa | 0V | 00:00:00 | 00:00:00 | 00:00:00 | |
| MIELECB | 2026-09-03 00:20:37 | 49.95960 | 21.65708 | 120° | 27km/h | 19195m | 3.4m/s | 0°C | 0% | 0hPa | 0V | 00:00:00 | 00:00:00 | 00:00:00 | |
| SQ9PSP-11 | 2026-09-03 00:20:36 | 49.95962 | 21.65698 | 111° | 27km/h | 19192m | 5.1m/s | 0°C | 0% | 0hPa | 0V | 00:00:00 | 00:00:00 | 00:00:00 | |
| MIELECB | 2026-09-03 00:20:32 | 49.95975 | 21.65657 | 126° | 37km/h | 19171m | 4.9m/s | 0°C | 0% | 0hPa | 0V | 00:00:00 | 00:00:00 | 00:00:00 | |
| AKAW68 | 2026-09-03 00:20:30 | 49.95984 | 21.65636 | 115° | 29km/h | 19163m | 5.5m/s | 0°C | 0% | 0hPa | 0V | 00:00:00 | 00:00:00 | 00:00:00 | |
| MIELECB | 2026-09-03 00:20:26 | 49.95994 | 21.65597 | 125° | 27km/h | 19139m | 4.8m/s | 0°C | 0% | 0hPa | 0V | 00:00:00 | 00:00:00 | 00:00:00 | |
| SQ9PSP-11 | 2026-09-03 00:20:21 | 49.96017 | 21.65554 | 117° | 26km/h | 19116m | 4.3m/s | 0°C | 0% | 0hPa | 0V | 00:00:00 | 00:00:00 | 00:00:00 | |
| MIELECB | 2026-09-03 00:20:20 | 49.96021 | 21.65545 | 129° | 29km/h | 19111m | 4.8m/s | 0°C | 0% | 0hPa | 0V | 00:00:00 | 00:00:00 | 00:00:00 | |
| SQ9EZE-12 | 2026-09-03 00:20:16 | 49.96037 | 21.65498 | 111° | 33km/h | 19096m | 3.4m/s | 0°C | 0% | 0hPa | 0V | 00:00:00 | 00:00:00 | 00:00:00 | |
| MIELECB | 2026-09-03 00:20:15 | 49.96040 | 21.65487 | 118° | 29km/h | 19092m | 5.6m/s | 0°C | 0% | 0hPa | 0V | 00:00:00 | 00:00:00 | 00:00:00 | |
| AKAW682 | 2026-09-03 00:20:12 | 49.96053 | 21.65461 | 131° | 26km/h | 19073m | 7.1m/s | 0°C | 0% | 0hPa | 0V | 00:00:00 | 00:00:00 | 00:00:00 | |
| AKAW68 | 2026-09-03 00:20:09 | 49.96066 | 21.65435 | 135° | 35km/h | 19058m | 6.5m/s | 0°C | 0% | 0hPa | 0V | 00:00:00 | 00:00:00 | 00:00:00 | |
| SQ9PSP-11 | 2026-09-03 00:20:06 | 49.96079 | 21.65400 | 111° | 38km/h | 19047m | 5.5m/s | 0°C | 0% | 0hPa | 0V | 00:00:00 | 00:00:00 | 00:00:00 | |
| MIELECB | 2026-09-03 00:20:04 | 49.96087 | 21.65371 | 120° | 40km/h | 19039m | 5.6m/s | 0°C | 0% | 0hPa | 0V | 00:00:00 | 00:00:00 | 00:00:00 | |
| MIELECB | 2026-09-03 00:19:59 | 49.96111 | 21.65315 | 110° | 37km/h | 19016m | 4.4m/s | 0°C | 0% | 0hPa | 0V | 00:00:00 | 00:00:00 | 00:00:00 | |
| MIELECB | 2026-09-03 00:19:53 | 49.96136 | 21.65225 | 103° | 37km/h | 18987m | 4.2m/s | 0°C | 0% | 0hPa | 0V | 00:00:00 | 00:00:00 | 00:00:00 | |
| AKAW682 | 2026-09-03 00:19:51 | 49.96141 | 21.65195 | 117° | 44km/h | 18976m | 5.8m/s | 0°C | 0% | 0hPa | 0V | 00:00:00 | 00:00:00 | 00:00:00 | |
| SQ9PSP-11 | 2026-09-03 00:19:50 | 49.96145 | 21.65182 | 120° | 38km/h | 18971m | 4.2m/s | 0°C | 0% | 0hPa | 0V | 00:00:00 | 00:00:00 | 00:00:00 | |
| AKAW68 | 2026-09-03 00:19:48 | 49.96153 | 21.65154 | 110° | 40km/h | 18961m | 4.0m/s | 0°C | 0% | 0hPa | 0V | 00:00:00 | 00:00:00 | 00:00:00 | |
| MIELECB | 2026-09-03 00:19:47 | 49.96156 | 21.65140 | 107° | 42km/h | 18958m | 4.2m/s | 0°C | 0% | 0hPa | 0V | 00:00:00 | 00:00:00 | 00:00:00 | |
| MIELECB | 2026-09-03 00:19:41 | 49.96176 | 21.65045 | 113° | 35km/h | 18936m | 5.7m/s | 0°C | 0% | 0hPa | 0V | 00:00:00 | 00:00:00 | 00:00:00 | |
| SQ9EZE-12 | 2026-09-03 00:19:39 | 49.96182 | 21.65020 | 111° | 35km/h | 18925m | 5.3m/s | 0°C | 0% | 0hPa | 0V | 00:00:00 | 00:00:00 | 00:00:00 | |
| MIELECB | 2026-09-03 00:19:36 | 49.96187 | 21.64977 | 102° | 42km/h | 18910m | 4.9m/s | 0°C | 0% | 0hPa | 0V | 00:00:00 | 00:00:00 | 00:00:00 | |
| SQ9PSP-11 | 2026-09-03 00:19:35 | 49.96190 | 21.64962 | 109° | 42km/h | 18906m | 5.5m/s | 0°C | 0% | 0hPa | 0V | 00:00:00 | 00:00:00 | 00:00:00 | |
| AKAW682 | 2026-09-03 00:19:30 | 49.96205 | 21.64895 | 118° | 38km/h | 18882m | 5.7m/s | 0°C | 0% | 0hPa | 0V | 00:00:00 | 00:00:00 | 00:00:00 | |
| AKAW68 | 2026-09-03 00:19:27 | 49.96217 | 21.64851 | 103° | 42km/h | 18869m | 5.7m/s | 0°C | 0% | 0hPa | 0V | 00:00:00 | 00:00:00 | 00:00:00 | |
| MIELECB | 2026-09-03 00:19:25 | 49.96221 | 21.64817 | 107° | 47km/h | 18860m | 6.6m/s | 0°C | 0% | 0hPa | 0V | 00:00:00 | 00:00:00 | 00:00:00 | |
| SQ9EZE-12 | 2026-09-03 00:19:19 | 49.96240 | 21.64712 | 98° | 40km/h | 18831m | 5.4m/s | 0°C | 0% | 0hPa | 0V | 00:00:00 | 00:00:00 | 00:00:00 | |
| MIELECB | 2026-09-03 00:19:13 | 49.96262 | 21.64610 | 105° | 46km/h | 18804m | 5.0m/s | 0°C | 0% | 0hPa | 0V | 00:00:00 | 00:00:00 | 00:00:00 | |
| MIELECB | 2026-09-03 00:19:08 | 49.96277 | 21.64505 | 104° | 57km/h | 18782m | 5.5m/s | 0°C | 0% | 0hPa | 0V | 00:00:00 | 00:00:00 | 00:00:00 | |
| AKAW682 | 2026-09-03 00:19:07 | 49.96280 | 21.64485 | 102° | 51km/h | 18777m | 4.7m/s | 0°C | 0% | 0hPa | 0V | 00:00:00 | 00:00:00 | 00:00:00 | |
| SQ9PSP-11 | 2026-09-03 00:19:03 | 49.96296 | 21.64424 | 116° | 38km/h | 18764m | 4.0m/s | 0°C | 0% | 0hPa | 0V | 00:00:00 | 00:00:00 | 00:00:00 | |
| MIELECB | 2026-09-03 00:19:02 | 49.96300 | 21.64409 | 108° | 42km/h | 18759m | 3.8m/s | 0°C | 0% | 0hPa | 0V | 00:00:00 | 00:00:00 | 00:00:00 | |
| SQ9EZE-12 | 2026-09-03 00:19:00 | 49.96302 | 21.64372 | 92° | 53km/h | 18751m | 3.9m/s | 0°C | 0% | 0hPa | 0V | 00:00:00 | 00:00:00 | 00:00:00 | |
| MIELECB | 2026-09-03 00:18:56 | 49.96310 | 21.64297 | 108° | 40km/h | 18727m | 6.4m/s | 0°C | 0% | 0hPa | 0V | 00:00:00 | 00:00:00 | 00:00:00 | |
| MIELECB | 2026-09-03 00:18:51 | 49.96325 | 21.64219 | 103° | 42km/h | 18704m | 3.8m/s | 0°C | 0% | 0hPa | 0V | 00:00:00 | 00:00:00 | 00:00:00 | |
| SQ9PSP-11 | 2026-09-03 00:18:48 | 49.96328 | 21.64169 | 101° | 44km/h | 18691m | 4.8m/s | 0°C | 0% | 0hPa | 0V | 00:00:00 | 00:00:00 | 00:00:00 | |
| AKAW682 | 2026-09-03 00:18:47 | 49.96334 | 21.64133 | 107° | 49km/h | 18683m | 5.1m/s | 0°C | 0% | 0hPa | 0V | 00:00:00 | 00:00:00 | 00:00:00 | |
| MIELECB | 2026-09-03 00:18:40 | 49.96347 | 21.64033 | 101° | 44km/h | 18656m | 5.1m/s | 0°C | 0% | 0hPa | 0V | 00:00:00 | 00:00:00 | 00:00:00 | |
| SQ9EZE-12 | 2026-09-03 00:18:39 | 49.96348 | 21.64017 | 93° | 40km/h | 18650m | 4.3m/s | 0°C | 0% | 0hPa | 0V | 00:00:00 | 00:00:00 | 00:00:00 | |
| MIELECB | 2026-09-03 00:18:35 | 49.96354 | 21.63944 | 100° | 55km/h | 18633m | 4.3m/s | 0°C | 0% | 0hPa | 0V | 00:00:00 | 00:00:00 | 00:00:00 | |
| SQ9PSP-11 | 2026-09-03 00:18:32 | 49.96356 | 21.63884 | 87° | 47km/h | 18618m | 5.4m/s | 0°C | 0% | 0hPa | 0V | 00:00:00 | 00:00:00 | 00:00:00 | |
| MIELECB | 2026-09-03 00:18:29 | 49.96356 | 21.63838 | 94° | 31km/h | 18605m | 5.5m/s | 0°C | 0% | 0hPa | 0V | 00:00:00 | 00:00:00 | 00:00:00 | |
| AKAW682 | 2026-09-03 00:18:26 | 49.96358 | 21.63799 | 103° | 40km/h | 18591m | 6.6m/s | 0°C | 0% | 0hPa | 0V | 00:00:00 | 00:00:00 | 00:00:00 | |
| SQ9EZE-12 | 2026-09-03 00:18:23 | 49.96363 | 21.63741 | 87° | 53km/h | 18574m | 4.0m/s | 0°C | 0% | 0hPa | 0V | 00:00:00 | 00:00:00 | 00:00:00 | |
| MIELECB | 2026-09-03 00:18:18 | 49.96353 | 21.63651 | 95° | 40km/h | 18555m | 3.7m/s | 0°C | 0% | 0hPa | 0V | 00:00:00 | 00:00:00 | 00:00:00 | |
| SQ9PSP-11 | 2026-09-03 00:18:17 | 49.96355 | 21.63634 | 102° | 42km/h | 18553m | 5.1m/s | 0°C | 0% | 0hPa | 0V | 00:00:00 | 00:00:00 | 00:00:00 | |
| MIELECB | 2026-09-03 00:18:13 | 49.96363 | 21.63558 | 96° | 55km/h | 18541m | 7.6m/s | 0°C | 0% | 0hPa | 0V | 00:00:00 | 00:00:00 | 00:00:00 | |
| MIELECB | 2026-09-03 00:18:07 | 49.96354 | 21.63445 | 95° | 38km/h | 18519m | 4.0m/s | 0°C | 0% | 0hPa | 0V | 00:00:00 | 00:00:00 | 00:00:00 | |
| AKAW68 | 2026-09-03 00:18:05 | 49.96354 | 21.63409 | 91° | 49km/h | 18513m | 4.8m/s | 0°C | 0% | 0hPa | 0V | 00:00:00 | 00:00:00 | 00:00:00 | |
| AKAW682 | 2026-09-03 00:18:02 | 49.96356 | 21.63346 | 95° | 47km/h | 18511m | 6.2m/s | 0°C | 0% | 0hPa | 0V | 00:00:00 | 00:00:00 | 00:00:00 | |
| MIELECB | 2026-09-03 00:18:01 | 49.96357 | 21.63327 | 98° | 47km/h | 18506m | 6.9m/s | 0°C | 0% | 0hPa | 0V | 00:00:00 | 00:00:00 | 00:00:00 | |
| SQ9EZE-12 | 2026-09-03 00:18:00 | 49.96358 | 21.63309 | 97° | 40km/h | 18503m | 9.9m/s | 0°C | 0% | 0hPa | 0V | 00:00:00 | 00:00:00 | 00:00:00 | |
| MIELECB | 2026-09-03 00:17:56 | 49.96360 | 21.63242 | 89° | 42km/h | 18453m | 6.0m/s | 0°C | 0% | 0hPa | 0V | 00:00:00 | 00:00:00 | 00:00:00 | |
| MIELECB | 2026-09-03 00:17:50 | 49.96358 | 21.63143 | 96° | 38km/h | 18418m | 5.3m/s | 0°C | 0% | 0hPa | 0V | 00:00:00 | 00:00:00 | 00:00:00 | |
| SQ9PSP-11 | 2026-09-03 00:17:46 | 49.96353 | 21.63078 | 81° | 40km/h | 18388m | 6.7m/s | 0°C | 0% | 0hPa | 0V | 00:00:00 | 00:00:00 | 00:00:00 | |
| MIELECB | 2026-09-03 00:17:44 | 49.96349 | 21.63048 | 75° | 40km/h | 18377m | 4.4m/s | 0°C | 0% | 0hPa | 0V | 00:00:00 | 00:00:00 | 00:00:00 | |
| SQ9EZE-12 | 2026-09-03 00:17:42 | 49.96343 | 21.63016 | 77° | 42km/h | 18371m | 5.3m/s | 0°C | 0% | 0hPa | 0V | 00:00:00 | 00:00:00 | 00:00:00 | |
| MIELECB | 2026-09-03 00:17:39 | 49.96338 | 21.62975 | 96° | 33km/h | 18354m | 6.7m/s | 0°C | 0% | 0hPa | 0V | 00:00:00 | 00:00:00 | 00:00:00 | |
| AKAW682 | 2026-09-03 00:17:35 | 49.96338 | 21.62909 | 91° | 42km/h | 18351m | 4.9m/s | 0°C | 0% | 0hPa | 0V | 00:00:00 | 00:00:00 | 00:00:00 | |
| MIELECB | 2026-09-03 00:17:33 | 49.96338 | 21.62876 | 94° | 42km/h | 18340m | 4.6m/s | 0°C | 0% | 0hPa | 0V | 00:00:00 | 00:00:00 | 00:00:00 | |
| SQ9PSP-11 | 2026-09-03 00:17:31 | 49.96338 | 21.62842 | 88° | 44km/h | 18330m | 6.2m/s | 0°C | 0% | 0hPa | 0V | 00:00:00 | 00:00:00 | 00:00:00 | |
| MIELECB | 2026-09-03 00:17:27 | 49.96334 | 21.62782 | 79° | 38km/h | 18307m | 5.2m/s | 0°C | 0% | 0hPa | 0V | 00:00:00 | 00:00:00 | 00:00:00 | |
| AKAW68 | 2026-09-03 00:17:24 | 49.96329 | 21.62733 | 83° | 38km/h | 18294m | 6.0m/s | 0°C | 0% | 0hPa | 0V | 00:00:00 | 00:00:00 | 00:00:00 | |
| MIELECB | 2026-09-03 00:17:22 | 49.96325 | 21.62704 | 73° | 40km/h | 18286m | 6.4m/s | 0°C | 0% | 0hPa | 0V | 00:00:00 | 00:00:00 | 00:00:00 | |
| SQ9EZE-12 | 2026-09-03 00:17:17 | 49.96306 | 21.62634 | 77° | 35km/h | 18263m | 4.3m/s | 0°C | 0% | 0hPa | 0V | 00:00:00 | 00:00:00 | 00:00:00 | |
| MIELECB | 2026-09-03 00:17:16 | 49.96304 | 21.62620 | 76° | 40km/h | 18258m | 5.5m/s | 0°C | 0% | 0hPa | 0V | 00:00:00 | 00:00:00 | 00:00:00 | |
| SQ9PSP-11 | 2026-09-03 00:17:15 | 49.96301 | 21.62604 | 77° | 46km/h | 18255m | 6.3m/s | 0°C | 0% | 0hPa | 0V | 00:00:00 | 00:00:00 | 00:00:00 | |
| MIELECB | 2026-09-03 00:17:11 | 49.96289 | 21.62539 | 72° | 44km/h | 18241m | 5.1m/s | 0°C | 0% | 0hPa | 0V | 00:00:00 | 00:00:00 | 00:00:00 | |
| AKAW682 | 2026-09-03 00:17:03 | 49.96262 | 21.62423 | 62° | 47km/h | 18204m | 5.6m/s | 0°C | 0% | 0hPa | 0V | 00:00:00 | 00:00:00 | 00:00:00 | |
| MIELECB | 2026-09-03 00:17:00 | 49.96244 | 21.62377 | 58° | 49km/h | 18187m | 5.1m/s | 0°C | 0% | 0hPa | 0V | 00:00:00 | 00:00:00 | 00:00:00 | |
| MIELECB | 2026-09-03 00:16:55 | 49.96218 | 21.62292 | 71° | 35km/h | 18163m | 6.4m/s | 0°C | 0% | 0hPa | 0V | 00:00:00 | 00:00:00 | 00:00:00 | |
| SQ9EZE-12 | 2026-09-03 00:16:52 | 49.96209 | 21.62262 | 61° | 47km/h | 18155m | 4.9m/s | 0°C | 0% | 0hPa | 0V | 00:00:00 | 00:00:00 | 00:00:00 | |
| MIELECB | 2026-09-03 00:16:49 | 49.96192 | 21.62217 | 59° | 37km/h | 18143m | 5.4m/s | 0°C | 0% | 0hPa | 0V | 00:00:00 | 00:00:00 | 00:00:00 | |
| SQ9PSP-11 | 2026-09-03 00:16:45 | 49.96179 | 21.62163 | 79° | 38km/h | 18122m | 4.6m/s | 0°C | 0% | 0hPa | 0V | 00:00:00 | 00:00:00 | 00:00:00 | |
| AKAW68 | 2026-09-03 00:16:43 | 49.96175 | 21.62137 | 65° | 33km/h | 18112m | 4.6m/s | 0°C | 0% | 0hPa | 0V | 00:00:00 | 00:00:00 | 00:00:00 | |
| AKAW682 | 2026-09-03 00:16:42 | 49.96170 | 21.62125 | 60° | 38km/h | 18107m | 5.4m/s | 0°C | 0% | 0hPa | 0V | 00:00:00 | 00:00:00 | 00:00:00 | |
| MIELECB | 2026-09-03 00:16:38 | 49.96152 | 21.62072 | 71° | 33km/h | 18088m | 5.1m/s | 0°C | 0% | 0hPa | 0V | 00:00:00 | 00:00:00 | 00:00:00 | |
| SQ9EZE-12 | 2026-09-03 00:16:36 | 49.96147 | 21.62047 | 78° | 35km/h | 18077m | 6.3m/s | 0°C | 0% | 0hPa | 0V | 00:00:00 | 00:00:00 | 00:00:00 | |
| MIELECB | 2026-09-03 00:16:32 | 49.96141 | 21.61990 | 73° | 27km/h | 18056m | 5.9m/s | 0°C | 0% | 0hPa | 0V | 00:00:00 | 00:00:00 | 00:00:00 | |
| OE3JTB-15 | 2026-09-03 00:16:30 | 49.96135 | 21.61972 | 60° | 31km/h | 18045m | 4.7m/s | 0°C | 0% | 0hPa | 0V | 00:00:00 | 00:00:00 | 00:00:00 | |
| SQ9PSP-11 | 2026-09-03 00:16:29 | 49.96132 | 21.61963 | 55° | 33km/h | 18041m | 4.9m/s | 0°C | 0% | 0hPa | 0V | 00:00:00 | 00:00:00 | 00:00:00 | |
| MIELECB | 2026-09-03 00:16:26 | 49.96122 | 21.61930 | 79° | 29km/h | 18026m | 3.2m/s | 0°C | 0% | 0hPa | 0V | 00:00:00 | 00:00:00 | 00:00:00 | |
| AKAW68 | 2026-09-03 00:16:23 | 49.96118 | 21.61894 | 78° | 35km/h | 18013m | 4.4m/s | 0°C | 0% | 0hPa | 0V | 00:00:00 | 00:00:00 | 00:00:00 | |
| MIELECB | 2026-09-03 00:16:21 | 49.96115 | 21.61872 | 78° | 26km/h | 17999m | 6.8m/s | 0°C | 0% | 0hPa | 0V | 00:00:00 | 00:00:00 | 00:00:00 | |
| MIELECB | 2026-09-03 00:16:16 | 49.96106 | 21.61814 | 83° | 37km/h | 17974m | 5.4m/s | 0°C | 0% | 0hPa | 0V | 00:00:00 | 00:00:00 | 00:00:00 | |
| SQ9PSP-11 | 2026-09-03 00:16:14 | 49.96106 | 21.61790 | 95° | 27km/h | 17961m | 4.6m/s | 0°C | 0% | 0hPa | 0V | 00:00:00 | 00:00:00 | 00:00:00 | |
| SQ9EZE-12 | 2026-09-03 00:16:13 | 49.96108 | 21.61780 | 102° | 27km/h | 17955m | 3.1m/s | 0°C | 0% | 0hPa | 0V | 00:00:00 | 00:00:00 | 00:00:00 | |
| MIELECB | 2026-09-03 00:16:10 | 49.96107 | 21.61746 | 84° | 27km/h | 17948m | 3.6m/s | 0°C | 0% | 0hPa | 0V | 00:00:00 | 00:00:00 | 00:00:00 | |
| MIELECB | 2026-09-03 00:16:04 | 49.96097 | 21.61673 | 77° | 35km/h | 17918m | 4.7m/s | 0°C | 0% | 0hPa | 0V | 00:00:00 | 00:00:00 | 00:00:00 | |
| AKAW68 | 2026-09-03 00:16:02 | 49.96094 | 21.61650 | 80° | 24km/h | 17907m | 3.9m/s | 0°C | 0% | 0hPa | 0V | 00:00:00 | 00:00:00 | 00:00:00 | |
| OE3JTB-15 | 2026-09-03 00:16:01 | 49.96093 | 21.61640 | 75° | 31km/h | 17902m | 3.8m/s | 0°C | 0% | 0hPa | 0V | 00:00:00 | 00:00:00 | 00:00:00 | |
| SQ9PSP-11 | 2026-09-03 00:15:58 | 49.96090 | 21.61608 | 72° | 27km/h | 17883m | 4.0m/s | 0°C | 0% | 0hPa | 0V | 00:00:00 | 00:00:00 | 00:00:00 | |
| MIELECB | 2026-09-03 00:15:53 | 49.96083 | 21.61540 | 94° | 38km/h | 17881m | 3.8m/s | 0°C | 0% | 0hPa | 0V | 00:00:00 | 00:00:00 | 00:00:00 | |
| MIELECB | 2026-09-03 00:15:47 | 49.96074 | 21.61464 | 84° | 29km/h | 17862m | 5.5m/s | 0°C | 0% | 0hPa | 0V | 00:00:00 | 00:00:00 | 00:00:00 | |
| SQ9PSP-11 | 2026-09-03 00:15:43 | 49.96075 | 21.61416 | 93° | 40km/h | 17842m | 4.7m/s | 0°C | 0% | 0hPa | 0V | 00:00:00 | 00:00:00 | 00:00:00 | |
| MIELECB | 2026-09-03 00:15:42 | 49.96075 | 21.61400 | 85° | 38km/h | 17840m | 4.7m/s | 0°C | 0% | 0hPa | 0V | 00:00:00 | 00:00:00 | 00:00:00 | |
| MIELECB | 2026-09-03 00:15:36 | 49.96064 | 21.61323 | 84° | 26km/h | 17811m | 5.7m/s | 0°C | 0% | 0hPa | 0V | 00:00:00 | 00:00:00 | 00:00:00 | |
| OE3JTB-15 | 2026-09-03 00:15:32 | 49.96063 | 21.61280 | 89° | 33km/h | 17791m | 4.3m/s | 0°C | 0% | 0hPa | 0V | 00:00:00 | 00:00:00 | 00:00:00 | |
| MIELECB | 2026-09-03 00:15:31 | 49.96063 | 21.61266 | 90° | 38km/h | 17787m | 4.2m/s | 0°C | 0% | 0hPa | 0V | 00:00:00 | 00:00:00 | 00:00:00 | |
| SQ9PSP-11 | 2026-09-03 00:15:27 | 49.96061 | 21.61217 | 101° | 33km/h | 17770m | 5.7m/s | 0°C | 0% | 0hPa | 0V | 00:00:00 | 00:00:00 | 00:00:00 | |
| MIELECB | 2026-09-03 00:15:25 | 49.96065 | 21.61190 | 101° | 38km/h | 17759m | 4.5m/s | 0°C | 0% | 0hPa | 0V | 00:00:00 | 00:00:00 | 00:00:00 | |
| AKAW68 | 2026-09-03 00:15:22 | 49.96066 | 21.61151 | 91° | 29km/h | 17747m | 4.8m/s | 0°C | 0% | 0hPa | 0V | 00:00:00 | 00:00:00 | 00:00:00 | |
| MIELECB | 2026-09-03 00:15:20 | 49.96067 | 21.61127 | 99° | 33km/h | 17737m | 2.9m/s | 0°C | 0% | 0hPa | 0V | 00:00:00 | 00:00:00 | 00:00:00 | |
| SQ9EZE-12 | 2026-09-03 00:15:18 | 49.96071 | 21.61102 | 108° | 29km/h | 17731m | 6.5m/s | 0°C | 0% | 0hPa | 0V | 00:00:00 | 00:00:00 | 00:00:00 | |
| MIELECB | 2026-09-03 00:15:15 | 49.96077 | 21.61065 | 108° | 40km/h | 17715m | 6.8m/s | 0°C | 0% | 0hPa | 0V | 00:00:00 | 00:00:00 | 00:00:00 | |
| SQ9PSP-11 | 2026-09-03 00:15:11 | 49.96082 | 21.61006 | 98° | 31km/h | 17695m | 4.5m/s | 0°C | 0% | 0hPa | 0V | 00:00:00 | 00:00:00 | 00:00:00 | |
| MIELECB | 2026-09-03 00:15:09 | 49.96085 | 21.60982 | 116° | 31km/h | 17685m | 4.7m/s | 0°C | 0% | 0hPa | 0V | 00:00:00 | 00:00:00 | 00:00:00 | |
| OE3JTB-15 | 2026-09-03 00:15:03 | 49.96100 | 21.60905 | 99° | 40km/h | 17657m | 3.9m/s | 0°C | 0% | 0hPa | 0V | 00:00:00 | 00:00:00 | 00:00:00 | |
| AKAW68 | 2026-09-03 00:15:01 | 49.96103 | 21.60876 | 101° | 33km/h | 17649m | 4.3m/s | 0°C | 0% | 0hPa | 0V | 00:00:00 | 00:00:00 | 00:00:00 | |
| MIELECB | 2026-09-03 00:14:57 | 49.96117 | 21.60829 | 120° | 33km/h | 17631m | 5.2m/s | 0°C | 0% | 0hPa | 0V | 00:00:00 | 00:00:00 | 00:00:00 | |
| SQ9PSP-11 | 2026-09-03 00:14:56 | 49.96120 | 21.60817 | 111° | 31km/h | 17627m | 4.6m/s | 0°C | 0% | 0hPa | 0V | 00:00:00 | 00:00:00 | 00:00:00 | |
| SQ9EZE-12 | 2026-09-03 00:14:55 | 49.96122 | 21.60804 | 108° | 37km/h | 17623m | 3.7m/s | 0°C | 0% | 0hPa | 0V | 00:00:00 | 00:00:00 | 00:00:00 | |
| MIELECB | 2026-09-03 00:14:52 | 49.96130 | 21.60753 | 106° | 49km/h | 17607m | 4.3m/s | 0°C | 0% | 0hPa | 0V | 00:00:00 | 00:00:00 | 00:00:00 | |
| MIELECB | 2026-09-03 00:14:46 | 49.96149 | 21.60658 | 110° | 40km/h | 17583m | 4.8m/s | 0°C | 0% | 0hPa | 0V | 00:00:00 | 00:00:00 | 00:00:00 | |
| SQ9PSP-11 | 2026-09-03 00:14:41 | 49.96161 | 21.60582 | 106° | 44km/h | 17555m | 3.2m/s | 0°C | 0% | 0hPa | 0V | 00:00:00 | 00:00:00 | 00:00:00 | |
| AKAW68 | 2026-09-03 00:14:40 | 49.96164 | 21.60566 | 106° | 46km/h | 17552m | 5.6m/s | 0°C | 0% | 0hPa | 0V | 00:00:00 | 00:00:00 | 00:00:00 | |
| MIELECB | 2026-09-03 00:14:35 | 49.96175 | 21.60482 | 100° | 40km/h | 17528m | 4.5m/s | 0°C | 0% | 0hPa | 0V | 00:00:00 | 00:00:00 | 00:00:00 | |
| OE3JTB-15 | 2026-09-03 00:14:31 | 49.96176 | 21.60425 | 102° | 37km/h | 17510m | 4.8m/s | 0°C | 0% | 0hPa | 0V | 00:00:00 | 00:00:00 | 00:00:00 | |
| MIELECB | 2026-09-03 00:14:29 | 49.96181 | 21.60397 | 112° | 37km/h | 17502m | 5.3m/s | 0°C | 0% | 0hPa | 0V | 00:00:00 | 00:00:00 | 00:00:00 | |
| SQ9PSP-11 | 2026-09-03 00:14:26 | 49.96192 | 21.60355 | 117° | 44km/h | 17490m | 4.8m/s | 0°C | 0% | 0hPa | 0V | 00:00:00 | 00:00:00 | 00:00:00 | |
| MIELECB | 2026-09-03 00:14:24 | 49.96201 | 21.60326 | 108° | 37km/h | 17482m | 6.4m/s | 0°C | 0% | 0hPa | 0V | 00:00:00 | 00:00:00 | 00:00:00 | |
| AKAW68 | 2026-09-03 00:14:20 | 49.96206 | 21.60277 | 104° | 37km/h | 17462m | 7.2m/s | 0°C | 0% | 0hPa | 0V | 00:00:00 | 00:00:00 | 00:00:00 | |
| MIELECB | 2026-09-03 00:14:18 | 49.96210 | 21.60244 | 104° | 47km/h | 17452m | 4.0m/s | 0°C | 0% | 0hPa | 0V | 00:00:00 | 00:00:00 | 00:00:00 | |
| MIELECB | 2026-09-03 00:14:12 | 49.96232 | 21.60162 | 111° | 31km/h | 17424m | 4.2m/s | 0°C | 0% | 0hPa | 0V | 00:00:00 | 00:00:00 | 00:00:00 | |
| SQ9PSP-11 | 2026-09-03 00:14:11 | 49.96234 | 21.60151 | 101° | 29km/h | 17419m | 6.3m/s | 0°C | 0% | 0hPa | 0V | 00:00:00 | 00:00:00 | 00:00:00 | |
| MIELECB | 2026-09-03 00:14:07 | 49.96233 | 21.60084 | 96° | 37km/h | 17394m | 5.0m/s | 0°C | 0% | 0hPa | 0V | 00:00:00 | 00:00:00 | 00:00:00 | |
| SQ9EZE-12 | 2026-09-03 00:14:02 | 49.96244 | 21.60034 | 113° | 33km/h | 17375m | 4.8m/s | 0°C | 0% | 0hPa | 0V | 00:00:00 | 00:00:00 | 00:00:00 | |
| OE3JTB-15 | 2026-09-03 00:14:01 | 49.96247 | 21.60023 | 107° | 35km/h | 17370m | 4.4m/s | 0°C | 0% | 0hPa | 0V | 00:00:00 | 00:00:00 | 00:00:00 | |
| AKAW68 | 2026-09-03 00:13:59 | 49.96250 | 21.60003 | 97° | 29km/h | 17364m | 4.8m/s | 0°C | 0% | 0hPa | 0V | 00:00:00 | 00:00:00 | 00:00:00 | |
| MIELECB | 2026-09-03 00:13:56 | 49.96253 | 21.59963 | 102° | 38km/h | 17350m | 3.6m/s | 0°C | 0% | 0hPa | 0V | 00:00:00 | 00:00:00 | 00:00:00 | |
| SQ9PSP-11 | 2026-09-03 00:13:55 | 49.96255 | 21.59949 | 101° | 37km/h | 17346m | 5.5m/s | 0°C | 0% | 0hPa | 0V | 00:00:00 | 00:00:00 | 00:00:00 | |
| MIELECB | 2026-09-03 00:13:50 | 49.96268 | 21.59883 | 112° | 40km/h | 17325m | 5.2m/s | 0°C | 0% | 0hPa | 0V | 00:00:00 | 00:00:00 | 00:00:00 | |
| MIELECB | 2026-09-03 00:13:44 | 49.96289 | 21.59793 | 106° | 42km/h | 17296m | 5.4m/s | 0°C | 0% | 0hPa | 0V | 00:00:00 | 00:00:00 | 00:00:00 | |
| SQ9EZE-12 | 2026-09-03 00:13:41 | 49.96295 | 21.59745 | 103° | 44km/h | 17282m | 4.7m/s | 0°C | 0% | 0hPa | 0V | 00:00:00 | 00:00:00 | 00:00:00 | |
| SQ9PSP-11 | 2026-09-03 00:13:40 | 49.96298 | 21.59727 | 98° | 46km/h | 17278m | 4.3m/s | 0°C | 0% | 0hPa | 0V | 00:00:00 | 00:00:00 | 00:00:00 | |
| MIELECB | 2026-09-03 00:13:39 | 49.96299 | 21.59710 | 96° | 44km/h | 17274m | 3.1m/s | 0°C | 0% | 0hPa | 0V | 00:00:00 | 00:00:00 | 00:00:00 | |
| AKAW68 | 2026-09-03 00:13:38 | 49.96299 | 21.59694 | 88° | 38km/h | 17270m | 5.7m/s | 0°C | 0% | 0hPa | 0V | 00:00:00 | 00:00:00 | 00:00:00 | |
| MIELECB | 2026-09-03 00:13:33 | 49.96303 | 21.59621 | 104° | 38km/h | 17250m | 5.8m/s | 0°C | 0% | 0hPa | 0V | 00:00:00 | 00:00:00 | 00:00:00 | |
| OE3JTB-15 | 2026-09-03 00:13:32 | 49.96305 | 21.59606 | 97° | 35km/h | 17244m | 6.1m/s | 0°C | 0% | 0hPa | 0V | 00:00:00 | 00:00:00 | 00:00:00 | |
| MIELECB | 2026-09-03 00:13:27 | 49.96306 | 21.59530 | 90° | 37km/h | 17219m | 5.8m/s | 0°C | 0% | 0hPa | 0V | 00:00:00 | 00:00:00 | 00:00:00 | |
| SQ9PSP-11 | 2026-09-03 00:13:24 | 49.96305 | 21.59490 | 101° | 37km/h | 17204m | 5.9m/s | 0°C | 0% | 0hPa | 0V | 00:00:00 | 00:00:00 | 00:00:00 | |
| MIELECB | 2026-09-03 00:13:22 | 49.96310 | 21.59462 | 102° | 40km/h | 17195m | 5.9m/s | 0°C | 0% | 0hPa | 0V | 00:00:00 | 00:00:00 | 00:00:00 | |
| MIELECB | 2026-09-03 00:13:17 | 49.96316 | 21.59395 | 98° | 33km/h | 17172m | 4.9m/s | 0°C | 0% | 0hPa | 0V | 00:00:00 | 00:00:00 | 00:00:00 | |
| MIELECB | 2026-09-03 00:13:11 | 49.96322 | 21.59312 | 115° | 31km/h | 17148m | 4.1m/s | 0°C | 0% | 0hPa | 0V | 00:00:00 | 00:00:00 | 00:00:00 | |
| SQ9PSP-11 | 2026-09-03 00:13:08 | 49.96326 | 21.59282 | 93° | 29km/h | 17136m | 5.2m/s | 0°C | 0% | 0hPa | 0V | 00:00:00 | 00:00:00 | 00:00:00 | |
| SQ9EZE-12 | 2026-09-03 00:13:06 | 49.96327 | 21.59253 | 98° | 42km/h | 17126m | 4.2m/s | 0°C | 0% | 0hPa | 0V | 00:00:00 | 00:00:00 | 00:00:00 | |
| MIELECB | 2026-09-03 00:12:59 | 49.96332 | 21.59161 | 97° | 29km/h | 17098m | 4.9m/s | 0°C | 0% | 0hPa | 0V | 00:00:00 | 00:00:00 | 00:00:00 | |
| AKAW68 | 2026-09-03 00:12:57 | 49.96335 | 21.59136 | 98° | 38km/h | 17089m | 6.4m/s | 0°C | 0% | 0hPa | 0V | 00:00:00 | 00:00:00 | 00:00:00 | |
| MIELECB | 2026-09-03 00:12:54 | 49.96340 | 21.59084 | 103° | 44km/h | 17076m | 4.5m/s | 0°C | 0% | 0hPa | 0V | 00:00:00 | 00:00:00 | 00:00:00 | |
| SQ9PSP-11 | 2026-09-03 00:12:52 | 49.96345 | 21.59052 | 101° | 40km/h | 17066m | 6.4m/s | 0°C | 0% | 0hPa | 0V | 00:00:00 | 00:00:00 | 00:00:00 | |
| SQ9EZE-12 | 2026-09-03 00:12:48 | 49.96347 | 21.58995 | 98° | 33km/h | 17047m | 4.3m/s | 0°C | 0% | 0hPa | 0V | 00:00:00 | 00:00:00 | 00:00:00 | |
| AKAW682 | 2026-09-03 00:12:43 | 49.96354 | 21.58915 | 105° | 42km/h | 17023m | 4.2m/s | 0°C | 0% | 0hPa | 0V | 00:00:00 | 00:00:00 | 00:00:00 | |
| MIELECB | 2026-09-03 00:12:37 | 49.96361 | 21.58840 | 91° | 31km/h | 16995m | 5.9m/s | 0°C | 0% | 0hPa | 0V | 00:00:00 | 00:00:00 | 00:00:00 | |
| SQ9PSP-11 | 2026-09-03 00:12:36 | 49.96360 | 21.58827 | 83° | 35km/h | 16988m | 6.7m/s | 0°C | 0% | 0hPa | 0V | 00:00:00 | 00:00:00 | 00:00:00 | |
| AKAW68 | 2026-09-03 00:12:35 | 49.96359 | 21.58812 | 84° | 40km/h | 16983m | 4.3m/s | 0°C | 0% | 0hPa | 0V | 00:00:00 | 00:00:00 | 00:00:00 | |
| MIELECB | 2026-09-03 00:12:31 | 49.96362 | 21.58749 | 105° | 38km/h | 16965m | 4.0m/s | 0°C | 0% | 0hPa | 0V | 00:00:00 | 00:00:00 | 00:00:00 | |
| SQ9EZE-12 | 2026-09-03 00:12:30 | 49.96363 | 21.58734 | 99° | 40km/h | 16961m | 4.3m/s | 0°C | 0% | 0hPa | 0V | 00:00:00 | 00:00:00 | 00:00:00 | |
| MIELECB | 2026-09-03 00:12:25 | 49.96367 | 21.58666 | 90° | 31km/h | 16943m | 4.8m/s | 0°C | 0% | 0hPa | 0V | 00:00:00 | 00:00:00 | 00:00:00 | |
| SQ9PSP-11 | 2026-09-03 00:12:20 | 49.96364 | 21.58601 | 97° | 31km/h | 16919m | 5.2m/s | 0°C | 0% | 0hPa | 0V | 00:00:00 | 00:00:00 | 00:00:00 | |
| AKAW682 | 2026-09-03 00:12:19 | 49.96364 | 21.58589 | 95° | 33km/h | 16913m | 6.5m/s | 0°C | 0% | 0hPa | 0V | 00:00:00 | 00:00:00 | 00:00:00 | |
| AKAW68 | 2026-09-03 00:12:15 | 49.96368 | 21.58541 | 101° | 33km/h | 16896m | 3.8m/s | 0°C | 0% | 0hPa | 0V | 00:00:00 | 00:00:00 | 00:00:00 | |
| MIELECB | 2026-09-03 00:12:14 | 49.96369 | 21.58527 | 93° | 35km/h | 16893m | 5.0m/s | 0°C | 0% | 0hPa | 0V | 00:00:00 | 00:00:00 | 00:00:00 | |
| MIELECB | 2026-09-03 00:12:08 | 49.96358 | 21.58443 | 72° | 29km/h | 16867m | 3.8m/s | 0°C | 0% | 0hPa | 0V | 00:00:00 | 00:00:00 | 00:00:00 | |
| SQ9PSP-11 | 2026-09-03 00:12:05 | 49.96352 | 21.58403 | 88° | 40km/h | 16852m | 5.3m/s | 0°C | 0% | 0hPa | 0V | 00:00:00 | 00:00:00 | 00:00:00 | |
| MIELECB | 2026-09-03 00:12:02 | 49.96353 | 21.58361 | 93° | 35km/h | 16838m | 5.2m/s | 0°C | 0% | 0hPa | 0V | 00:00:00 | 00:00:00 | 00:00:00 | |
| MIELECB | 2026-09-03 00:11:57 | 49.96351 | 21.58295 | 95° | 29km/h | 16819m | 4.8m/s | 0°C | 0% | 0hPa | 0V | 00:00:00 | 00:00:00 | 00:00:00 | |
| MIELECB | 2026-09-03 00:11:52 | 49.96349 | 21.58233 | 87° | 33km/h | 16795m | 3.8m/s | 0°C | 0% | 0hPa | 0V | 00:00:00 | 00:00:00 | 00:00:00 | |
| AKAW682 | 2026-09-03 00:11:51 | 49.96348 | 21.58220 | 81° | 31km/h | 16792m | 4.4m/s | 0°C | 0% | 0hPa | 0V | 00:00:00 | 00:00:00 | 00:00:00 | |
| SQ9PSP-11 | 2026-09-03 00:11:50 | 49.96347 | 21.58208 | 81° | 33km/h | 16787m | 4.7m/s | 0°C | 0% | 0hPa | 0V | 00:00:00 | 00:00:00 | 00:00:00 | |
| MIELECB | 2026-09-03 00:11:46 | 49.96345 | 21.58157 | 97° | 31km/h | 16770m | 4.7m/s | 0°C | 0% | 0hPa | 0V | 00:00:00 | 00:00:00 | 00:00:00 | |
| MIELECB | 2026-09-03 00:11:41 | 49.96343 | 21.58089 | 86° | 29km/h | 16739m | 5.9m/s | 0°C | 0% | 0hPa | 0V | 00:00:00 | 00:00:00 | 00:00:00 | |
| AKAW68 | 2026-09-03 00:11:34 | 49.96349 | 21.58015 | 92° | 33km/h | 16711m | 4.6m/s | 0°C | 0% | 0hPa | 0V | 00:00:00 | 00:00:00 | 00:00:00 | |
| AKAW682 | 2026-09-03 00:11:30 | 49.96347 | 21.57960 | 98° | 35km/h | 16693m | 3.2m/s | 0°C | 0% | 0hPa | 0V | 00:00:00 | 00:00:00 | 00:00:00 | |
| MIELECB | 2026-09-03 00:11:28 | 49.96349 | 21.57936 | 93° | 29km/h | 16685m | 4.8m/s | 0°C | 0% | 0hPa | 0V | 00:00:00 | 00:00:00 | 00:00:00 | |
| SQ9EZE-12 | 2026-09-03 00:11:25 | 49.96347 | 21.57897 | 90° | 40km/h | 16674m | 4.6m/s | 0°C | 0% | 0hPa | 0V | 00:00:00 | 00:00:00 | 00:00:00 | |
| MIELECB | 2026-09-03 00:11:23 | 49.96347 | 21.57866 | 86° | 40km/h | 16663m | 5.3m/s | 0°C | 0% | 0hPa | 0V | 00:00:00 | 00:00:00 | 00:00:00 | |
| SQ9PSP-11 | 2026-09-03 00:11:18 | 49.96345 | 21.57796 | 90° | 26km/h | 16640m | 6.7m/s | 0°C | 0% | 0hPa | 0V | 00:00:00 | 00:00:00 | 00:00:00 | |
| MIELECB | 2026-09-03 00:11:17 | 49.96345 | 21.57786 | 89° | 26km/h | 16634m | 3.5m/s | 0°C | 0% | 0hPa | 0V | 00:00:00 | 00:00:00 | 00:00:00 | |
| AKAW68 | 2026-09-03 00:11:13 | 49.96348 | 21.57735 | 95° | 38km/h | 16615m | 5.5m/s | 0°C | 0% | 0hPa | 0V | 00:00:00 | 00:00:00 | 00:00:00 | |
| MIELECB | 2026-09-03 00:11:11 | 49.96347 | 21.57703 | 84° | 44km/h | 16607m | 4.5m/s | 0°C | 0% | 0hPa | 0V | 00:00:00 | 00:00:00 | 00:00:00 | |
| SQ9EZE-12 | 2026-09-03 00:11:10 | 49.96346 | 21.57685 | 88° | 47km/h | 16602m | 5.8m/s | 0°C | 0% | 0hPa | 0V | 00:00:00 | 00:00:00 | 00:00:00 | |
| AKAW682 | 2026-09-03 00:11:07 | 49.96343 | 21.57637 | 78° | 33km/h | 16588m | 6.0m/s | 0°C | 0% | 0hPa | 0V | 00:00:00 | 00:00:00 | 00:00:00 | |
| MIELECB | 2026-09-03 00:11:05 | 49.96341 | 21.57614 | 91° | 27km/h | 16578m | 5.3m/s | 0°C | 0% | 0hPa | 0V | 00:00:00 | 00:00:00 | 00:00:00 | |
| SQ9PSP-11 | 2026-09-03 00:11:03 | 49.96343 | 21.57588 | 97° | 38km/h | 16569m | 3.5m/s | 0°C | 0% | 0hPa | 0V | 00:00:00 | 00:00:00 | 00:00:00 | |
| MIELECB | 2026-09-03 00:11:00 | 49.96341 | 21.57535 | 85° | 51km/h | 16557m | 4.7m/s | 0°C | 0% | 0hPa | 0V | 00:00:00 | 00:00:00 | 00:00:00 | |
| MIELECB | 2026-09-03 00:10:54 | 49.96331 | 21.57416 | 79° | 40km/h | 16531m | 4.6m/s | 0°C | 0% | 0hPa | 0V | 00:00:00 | 00:00:00 | 00:00:00 | |
| AKAW68 | 2026-09-03 00:10:52 | 49.96330 | 21.57385 | 97° | 38km/h | 16522m | 4.9m/s | 0°C | 0% | 0hPa | 0V | 00:00:00 | 00:00:00 | 00:00:00 | |
| MIELECB | 2026-09-03 00:10:48 | 49.96330 | 21.57319 | 85° | 47km/h | 16506m | 3.2m/s | 0°C | 0% | 0hPa | 0V | 00:00:00 | 00:00:00 | 00:00:00 | |
| SQ9PSP-11 | 2026-09-03 00:10:47 | 49.96329 | 21.57301 | 87° | 46km/h | 16502m | 5.9m/s | 0°C | 0% | 0hPa | 0V | 00:00:00 | 00:00:00 | 00:00:00 | |
| AKAW682 | 2026-09-03 00:10:46 | 49.96328 | 21.57284 | 84° | 40km/h | 16496m | 4.7m/s | 0°C | 0% | 0hPa | 0V | 00:00:00 | 00:00:00 | 00:00:00 | |
| MIELECB | 2026-09-03 00:10:42 | 49.96323 | 21.57223 | 92° | 38km/h | 16481m | 6.3m/s | 0°C | 0% | 0hPa | 0V | 00:00:00 | 00:00:00 | 00:00:00 | |
| SQ9EZE-12 | 2026-09-03 00:10:38 | 49.96321 | 21.57167 | 87° | 37km/h | 16462m | 5.3m/s | 0°C | 0% | 0hPa | 0V | 00:00:00 | 00:00:00 | 00:00:00 | |
| MIELECB | 2026-09-03 00:10:36 | 49.96320 | 21.57139 | 92° | 35km/h | 16451m | 5.8m/s | 0°C | 0% | 0hPa | 0V | 00:00:00 | 00:00:00 | 00:00:00 | |
| SQ9PSP-11 | 2026-09-03 00:10:32 | 49.96320 | 21.57068 | 100° | 37km/h | 16427m | 4.8m/s | 0°C | 0% | 0hPa | 0V | 00:00:00 | 00:00:00 | 00:00:00 | |
| MIELECB | 2026-09-03 00:10:30 | 49.96321 | 21.57054 | 101° | 33km/h | 16422m | 5.9m/s | 0°C | 0% | 0hPa | 0V | 00:00:00 | 00:00:00 | 00:00:00 | |
| MIELECB | 2026-09-03 00:10:24 | 49.96327 | 21.56986 | 93° | 27km/h | 16395m | 5.4m/s | 0°C | 0% | 0hPa | 0V | 00:00:00 | 00:00:00 | 00:00:00 | |
| AKAW682 | 2026-09-03 00:10:23 | 49.96327 | 21.56975 | 94° | 33km/h | 16390m | 5.0m/s | 0°C | 0% | 0hPa | 0V | 00:00:00 | 00:00:00 | 00:00:00 | |
| SQ9EZE-12 | 2026-09-03 00:10:21 | 49.96331 | 21.56948 | 111° | 37km/h | 16381m | 4.2m/s | 0°C | 0% | 0hPa | 0V | 00:00:00 | 00:00:00 | 00:00:00 | |
| MIELECB | 2026-09-03 00:10:18 | 49.96338 | 21.56912 | 103° | 26km/h | 16368m | 4.5m/s | 0°C | 0% | 0hPa | 0V | 00:00:00 | 00:00:00 | 00:00:00 | |
| SQ9PSP-11 | 2026-09-03 00:10:16 | 49.96341 | 21.56894 | 122° | 26km/h | 16359m | 4.9m/s | 0°C | 0% | 0hPa | 0V | 00:00:00 | 00:00:00 | 00:00:00 | |
| MIELECB | 2026-09-03 00:10:13 | 49.96353 | 21.56863 | 115° | 37km/h | 16346m | 4.7m/s | 0°C | 0% | 0hPa | 0V | 00:00:00 | 00:00:00 | 00:00:00 | |
| AKAW68 | 2026-09-03 00:10:11 | 49.96358 | 21.56836 | 109° | 37km/h | 16337m | 5.0m/s | 0°C | 0% | 0hPa | 0V | 00:00:00 | 00:00:00 | 00:00:00 | |
| MIELECB | 2026-09-03 00:10:07 | 49.96369 | 21.56792 | 110° | 24km/h | 16322m | 4.2m/s | 0°C | 0% | 0hPa | 0V | 00:00:00 | 00:00:00 | 00:00:00 | |
| SQ9EZE-12 | 2026-09-03 00:10:06 | 49.96372 | 21.56783 | 119° | 24km/h | 16318m | 4.7m/s | 0°C | 0% | 0hPa | 0V | 00:00:00 | 00:00:00 | 00:00:00 | |
| OE3JTB-15 | 2026-09-03 00:10:03 | 49.96386 | 21.56757 | 131° | 37km/h | 16306m | 3.9m/s | 0°C | 0% | 0hPa | 0V | 00:00:00 | 00:00:00 | 00:00:00 | |
| MIELECB | 2026-09-03 00:10:02 | 49.96390 | 21.56748 | 127° | 29km/h | 16303m | 3.9m/s | 0°C | 0% | 0hPa | 0V | 00:00:00 | 00:00:00 | 00:00:00 | |
| SQ9PSP-11 | 2026-09-03 00:10:01 | 49.96395 | 21.56738 | 129° | 29km/h | 16299m | 4.3m/s | 0°C | 0% | 0hPa | 0V | 00:00:00 | 00:00:00 | 00:00:00 | |
| MIELECB | 2026-09-03 00:09:56 | 49.96418 | 21.56685 | 114° | 33km/h | 16275m | 4.0m/s | 0°C | 0% | 0hPa | 0V | 00:00:00 | 00:00:00 | 00:00:00 | |
| MIELECB | 2026-09-03 00:09:51 | 49.96448 | 21.56630 | 138° | 33km/h | 16254m | 4.4m/s | 0°C | 0% | 0hPa | 0V | 00:00:00 | 00:00:00 | 00:00:00 | |
| SQ9EZE-12 | 2026-09-03 00:09:50 | 49.96461 | 21.56611 | 132° | 35km/h | 16246m | 4.4m/s | 0°C | 0% | 0hPa | 0V | 00:00:00 | 00:00:00 | 00:00:00 | |
| SQ9PSP-11 | 2026-09-03 00:09:46 | 49.96477 | 21.56572 | 119° | 42km/h | 16234m | 5.3m/s | 0°C | 0% | 0hPa | 0V | 00:00:00 | 00:00:00 | 00:00:00 | |
| MIELECB | 2026-09-03 00:09:45 | 49.96482 | 21.56558 | 122° | 40km/h | 16229m | 4.6m/s | 0°C | 0% | 0hPa | 0V | 00:00:00 | 00:00:00 | 00:00:00 | |
| AKAW682 | 2026-09-03 00:09:42 | 49.96503 | 21.56514 | 132° | 51km/h | 16216m | 3.5m/s | 0°C | 0% | 0hPa | 0V | 00:00:00 | 00:00:00 | 00:00:00 | |
| MIELECB | 2026-09-03 00:09:39 | 49.96526 | 21.56477 | 133° | 35km/h | 16203m | 4.1m/s | 0°C | 0% | 0hPa | 0V | 00:00:00 | 00:00:00 | 00:00:00 | |
| SQ9EZE-12 | 2026-09-03 00:09:34 | 49.96550 | 21.56407 | 123° | 38km/h | 16182m | 4.0m/s | 0°C | 0% | 0hPa | 0V | 00:00:00 | 00:00:00 | 00:00:00 | |
| MIELECB | 2026-09-03 00:09:28 | 49.96586 | 21.56325 | 121° | 38km/h | 16157m | 5.6m/s | 0°C | 0% | 0hPa | 0V | 00:00:00 | 00:00:00 | 00:00:00 | |
| MIELECB | 2026-09-03 00:09:23 | 49.96606 | 21.56260 | 118° | 35km/h | 16136m | 5.9m/s | 0°C | 0% | 0hPa | 0V | 00:00:00 | 00:00:00 | 00:00:00 | |
| AKAW682 | 2026-09-03 00:09:20 | 49.96620 | 21.56220 | 119° | 44km/h | 16122m | 4.9m/s | 0°C | 0% | 0hPa | 0V | 00:00:00 | 00:00:00 | 00:00:00 | |
| MIELECB | 2026-09-03 00:09:19 | 49.96637 | 21.56177 | 117° | 38km/h | 16110m | 2.7m/s | 0°C | 0% | 0hPa | 0V | 00:00:00 | 00:00:00 | 00:00:00 | |
| SQ9PSP-11 | 2026-09-03 00:09:15 | 49.96643 | 21.56149 | 99° | 37km/h | 16101m | 4.8m/s | 0°C | 0% | 0hPa | 0V | 00:00:00 | 00:00:00 | 00:00:00 | |
| MIELECB | 2026-09-03 00:09:12 | 49.96645 | 21.56111 | 108° | 31km/h | 16089m | 3.5m/s | 0°C | 0% | 0hPa | 0V | 00:00:00 | 00:00:00 | 00:00:00 | |
| AKAW68 | 2026-09-03 00:09:10 | 49.96653 | 21.56083 | 119° | 46km/h | 16082m | 5.7m/s | 0°C | 0% | 0hPa | 0V | 00:00:00 | 00:00:00 | 00:00:00 | |
| MIELECB | 2026-09-03 00:09:06 | 49.96673 | 21.56023 | 117° | 33km/h | 16065m | 5.3m/s | 0°C | 0% | 0hPa | 0V | 00:00:00 | 00:00:00 | 00:00:00 | |
| MIELECB | 2026-09-03 00:09:00 | 49.96692 | 21.55949 | 119° | 37km/h | 16042m | 5.9m/s | 0°C | 0% | 0hPa | 0V | 00:00:00 | 00:00:00 | 00:00:00 | |
| SQ9PSP-11 | 2026-09-03 00:08:59 | 49.96696 | 21.55936 | 121° | 38km/h | 16037m | 4.2m/s | 0°C | 0% | 0hPa | 0V | 00:00:00 | 00:00:00 | 00:00:00 | |
| MIELECB | 2026-09-03 00:08:55 | 49.96709 | 21.55874 | 95° | 40km/h | 16019m | 6.0m/s | 0°C | 0% | 0hPa | 0V | 00:00:00 | 00:00:00 | 00:00:00 | |
| SQ9EZE-12 | 2026-09-03 00:08:53 | 49.96709 | 21.55842 | 94° | 42km/h | 16011m | 4.3m/s | 0°C | 0% | 0hPa | 0V | 00:00:00 | 00:00:00 | 00:00:00 | |
| AKAW682 | 2026-09-03 00:08:52 | 49.96710 | 21.55825 | 101° | 46km/h | 16006m | 4.5m/s | 0°C | 0% | 0hPa | 0V | 00:00:00 | 00:00:00 | 00:00:00 | |
| AKAW68 | 2026-09-03 00:08:49 | 49.96722 | 21.55774 | 118° | 42km/h | 15994m | 5.1m/s | 0°C | 0% | 0hPa | 0V | 00:00:00 | 00:00:00 | 00:00:00 | |
| SQ9PSP-11 | 2026-09-03 00:08:44 | 49.96738 | 21.55702 | 101° | 40km/h | 15974m | 5.0m/s | 0°C | 0% | 0hPa | 0V | 00:00:00 | 00:00:00 | 00:00:00 | |
| MIELECB | 2026-09-03 00:08:38 | 49.96755 | 21.55600 | 116° | 38km/h | 15949m | 5.0m/s | 0°C | 0% | 0hPa | 0V | 00:00:00 | 00:00:00 | 00:00:00 | |
| SQ9EZE-12 | 2026-09-03 00:08:37 | 49.96758 | 21.55588 | 117° | 29km/h | 15945m | 4.1m/s | 0°C | 0% | 0hPa | 0V | 00:00:00 | 00:00:00 | 00:00:00 | |
| AKAW682 | 2026-09-03 00:08:32 | 49.96774 | 21.55515 | 108° | 47km/h | 15923m | 4.0m/s | 0°C | 0% | 0hPa | 0V | 00:00:00 | 00:00:00 | 00:00:00 | |
| AKAW68 | 2026-09-03 00:08:29 | 49.96787 | 21.55460 | 114° | 53km/h | 15911m | 6.2m/s | 0°C | 0% | 0hPa | 0V | 00:00:00 | 00:00:00 | 00:00:00 | |
| SQ9PSP-11 | 2026-09-03 00:08:28 | 49.96792 | 21.55442 | 117° | 49km/h | 15906m | 4.0m/s | 0°C | 0% | 0hPa | 0V | 00:00:00 | 00:00:00 | 00:00:00 | |
| MIELECB | 2026-09-03 00:08:27 | 49.96796 | 21.55425 | 112° | 44km/h | 15902m | 4.6m/s | 0°C | 0% | 0hPa | 0V | 00:00:00 | 00:00:00 | 00:00:00 | |
| SQ9EZE-12 | 2026-09-03 00:08:21 | 49.96820 | 21.55342 | 121° | 58km/h | 15876m | 4.9m/s | 0°C | 0% | 0hPa | 0V | 00:00:00 | 00:00:00 | 00:00:00 | |
| SQ9PSP-11 | 2026-09-03 00:08:13 | 49.96861 | 21.55213 | 126° | 53km/h | 15840m | 4.8m/s | 0°C | 0% | 0hPa | 0V | 00:00:00 | 00:00:00 | 00:00:00 | |
| MIELECB | 2026-09-03 00:08:11 | 49.96875 | 21.55177 | 117° | 51km/h | 15832m | 4.0m/s | 0°C | 0% | 0hPa | 0V | 00:00:00 | 00:00:00 | 00:00:00 | |
| AKAW68 | 2026-09-03 00:08:08 | 49.96893 | 21.55131 | 127° | 44km/h | 15817m | 4.4m/s | 0°C | 0% | 0hPa | 0V | 00:00:00 | 00:00:00 | 00:00:00 | |
| MIELECB | 2026-09-03 00:08:05 | 49.96912 | 21.55083 | 119° | 60km/h | 15801m | 4.0m/s | 0°C | 0% | 0hPa | 0V | 00:00:00 | 00:00:00 | 00:00:00 | |
| SQ9EZE-12 | 2026-09-03 00:07:59 | 49.96960 | 21.54967 | 117° | 51km/h | 15775m | 5.2m/s | 0°C | 0% | 0hPa | 0V | 00:00:00 | 00:00:00 | 00:00:00 | |
| SQ9PSP-11 | 2026-09-03 00:07:58 | 49.96966 | 21.54948 | 117° | 57km/h | 15770m | 5.5m/s | 0°C | 0% | 0hPa | 0V | 00:00:00 | 00:00:00 | 00:00:00 | |
| MIELECB | 2026-09-03 00:07:53 | 49.96999 | 21.54858 | 118° | 57km/h | 15749m | 5.1m/s | 0°C | 0% | 0hPa | 0V | 00:00:00 | 00:00:00 | 00:00:00 | |
| AKAW682 | 2026-09-03 00:07:50 | 49.97024 | 21.54771 | 117° | 57km/h | 15730m | 2.2m/s | 0°C | 0% | 0hPa | 0V | 00:00:00 | 00:00:00 | 00:00:00 | |
| AKAW68 | 2026-09-03 00:07:48 | 49.97030 | 21.54750 | 115° | 55km/h | 15727m | 4.4m/s | 0°C | 0% | 0hPa | 0V | 00:00:00 | 00:00:00 | 00:00:00 | |
| MIELECB | 2026-09-03 00:07:47 | 49.97036 | 21.54730 | 118° | 58km/h | 15722m | 5.3m/s | 0°C | 0% | 0hPa | 0V | 00:00:00 | 00:00:00 | 00:00:00 | |
| SQ9PSP-11 | 2026-09-03 00:07:42 | 49.97073 | 21.54629 | 121° | 66km/h | 15701m | 5.3m/s | 0°C | 0% | 0hPa | 0V | 00:00:00 | 00:00:00 | 00:00:00 | |
| SQ9EZE-12 | 2026-09-03 00:07:38 | 49.97101 | 21.54537 | 116° | 55km/h | 15688m | 3.7m/s | 0°C | 0% | 0hPa | 0V | 00:00:00 | 00:00:00 | 00:00:00 | |
| MIELECB | 2026-09-03 00:07:36 | 49.97113 | 21.54496 | 117° | 60km/h | 15680m | 5.0m/s | 0°C | 0% | 0hPa | 0V | 00:00:00 | 00:00:00 | 00:00:00 | |
| MIELECB | 2026-09-03 00:07:30 | 49.97156 | 21.54365 | 116° | 68km/h | 15654m | 4.4m/s | 0°C | 0% | 0hPa | 0V | 00:00:00 | 00:00:00 | 00:00:00 | |
| AKAW68 | 2026-09-03 00:07:27 | 49.97180 | 21.54293 | 118° | 64km/h | 15640m | 4.1m/s | 0°C | 0% | 0hPa | 0V | 00:00:00 | 00:00:00 | 00:00:00 | |
| SQ9PSP-11 | 2026-09-03 00:07:26 | 49.97186 | 21.54271 | 113° | 64km/h | 15636m | 3.8m/s | 0°C | 0% | 0hPa | 0V | 00:00:00 | 00:00:00 | 00:00:00 | |
| MIELECB | 2026-09-03 00:07:24 | 49.97197 | 21.54223 | 105° | 62km/h | 15628m | 3.3m/s | 0°C | 0% | 0hPa | 0V | 00:00:00 | 00:00:00 | 00:00:00 | |
| SQ9EZE-12 | 2026-09-03 00:07:20 | 49.97217 | 21.54133 | 113° | 64km/h | 15613m | 4.8m/s | 0°C | 0% | 0hPa | 0V | 00:00:00 | 00:00:00 | 00:00:00 | |
| MIELECB | 2026-09-03 00:07:19 | 49.97230 | 21.54084 | 115° | 73km/h | 15605m | 2.5m/s | 0°C | 0% | 0hPa | 0V | 00:00:00 | 00:00:00 | 00:00:00 | |
| MIELECB | 2026-09-03 00:07:12 | 49.97264 | 21.53924 | 103° | 69km/h | 15577m | 4.2m/s | 0°C | 0% | 0hPa | 0V | 00:00:00 | 00:00:00 | 00:00:00 | |
| SQ9PSP-11 | 2026-09-03 00:07:11 | 49.97269 | 21.53898 | 108° | 69km/h | 15573m | 4.4m/s | 0°C | 0% | 0hPa | 0V | 00:00:00 | 00:00:00 | 00:00:00 | |
| AKAW68 | 2026-09-03 00:07:07 | 49.97295 | 21.53792 | 110° | 77km/h | 15556m | 3.6m/s | 0°C | 0% | 0hPa | 0V | 00:00:00 | 00:00:00 | 00:00:00 | |
| SQ9EZE-12 | 2026-09-03 00:07:05 | 49.97308 | 21.53736 | 110° | 73km/h | 15550m | 5.1m/s | 0°C | 0% | 0hPa | 0V | 00:00:00 | 00:00:00 | 00:00:00 | |
| MIELECB | 2026-09-03 00:07:01 | 49.97329 | 21.53624 | 104° | 75km/h | 15535m | 4.4m/s | 0°C | 0% | 0hPa | 0V | 00:00:00 | 00:00:00 | 00:00:00 | |
| SQ9PSP-11 | 2026-09-03 00:06:55 | 49.97353 | 21.53465 | 104° | 71km/h | 15505m | 4.1m/s | 0°C | 0% | 0hPa | 0V | 00:00:00 | 00:00:00 | 00:00:00 | |
| SQ9EZE-12 | 2026-09-03 00:06:50 | 49.97371 | 21.53341 | 103° | 64km/h | 15480m | 3.4m/s | 0°C | 0% | 0hPa | 0V | 00:00:00 | 00:00:00 | 00:00:00 | |
| AKAW68 | 2026-09-03 00:06:48 | 49.97380 | 21.53268 | 103° | 66km/h | 15467m | 5.2m/s | 0°C | 0% | 0hPa | 0V | 00:00:00 | 00:00:00 | 00:00:00 | |
| SQ9PSP-11 | 2026-09-03 00:06:40 | 49.97398 | 21.53083 | 93° | 68km/h | 15433m | 3.8m/s | 0°C | 0% | 0hPa | 0V | 00:00:00 | 00:00:00 | 00:00:00 | |
| MIELECB | 2026-09-03 00:06:39 | 49.97399 | 21.53057 | 97° | 68km/h | 15429m | 3.7m/s | 0°C | 0% | 0hPa | 0V | 00:00:00 | 00:00:00 | 00:00:00 | |
| SQ9EZE-12 | 2026-09-03 00:06:35 | 49.97412 | 21.52951 | 102° | 77km/h | 15411m | 4.5m/s | 0°C | 0% | 0hPa | 0V | 00:00:00 | 00:00:00 | 00:00:00 | |
| MIELECB | 2026-09-03 00:06:33 | 49.97418 | 21.52892 | 97° | 71km/h | 15404m | 4.6m/s | 0°C | 0% | 0hPa | 0V | 00:00:00 | 00:00:00 | 00:00:00 | |
| MIELECB | 2026-09-03 00:06:27 | 49.97426 | 21.52731 | 99° | 82km/h | 15377m | 4.7m/s | 0°C | 0% | 0hPa | 0V | 00:00:00 | 00:00:00 | 00:00:00 | |
| AKAW68 | 2026-09-03 00:06:26 | 49.97429 | 21.52700 | 100° | 80km/h | 15373m | 5.1m/s | 0°C | 0% | 0hPa | 0V | 00:00:00 | 00:00:00 | 00:00:00 | |
| SQ9PSP-11 | 2026-09-03 00:06:24 | 49.97434 | 21.52640 | 97° | 75km/h | 15364m | 4.3m/s | 0°C | 0% | 0hPa | 0V | 00:00:00 | 00:00:00 | 00:00:00 | |
| MIELECB | 2026-09-03 00:06:21 | 49.97440 | 21.52551 | 98° | 77km/h | 15350m | 3.3m/s | 0°C | 0% | 0hPa | 0V | 00:00:00 | 00:00:00 | 00:00:00 | |
| SQ9EZE-12 | 2026-09-03 00:06:17 | 49.97448 | 21.52445 | 97° | 60km/h | 15330m | 3.8m/s | 0°C | 0% | 0hPa | 0V | 00:00:00 | 00:00:00 | 00:00:00 | |
| MIELECB | 2026-09-03 00:06:16 | 49.97449 | 21.52420 | 94° | 68km/h | 15327m | 3.4m/s | 0°C | 0% | 0hPa | 0V | 00:00:00 | 00:00:00 | 00:00:00 | |
| MIELECB | 2026-09-03 00:06:11 | 49.97454 | 21.52273 | 96° | 78km/h | 15306m | 5.1m/s | 0°C | 0% | 0hPa | 0V | 00:00:00 | 00:00:00 | 00:00:00 | |
| SQ9PSP-11 | 2026-09-03 00:06:08 | 49.97457 | 21.52183 | 92° | 77km/h | 15292m | 4.7m/s | 0°C | 0% | 0hPa | 0V | 00:00:00 | 00:00:00 | 00:00:00 | |
| AKAW68 | 2026-09-03 00:06:05 | 49.97458 | 21.52099 | 96° | 64km/h | 15279m | 4.7m/s | 0°C | 0% | 0hPa | 0V | 00:00:00 | 00:00:00 | 00:00:00 | |
| SQ9EZE-12 | 2026-09-03 00:06:02 | 49.97458 | 21.52022 | 89° | 69km/h | 15264m | 4.4m/s | 0°C | 0% | 0hPa | 0V | 00:00:00 | 00:00:00 | 00:00:00 | |
| MIELECB | 2026-09-03 00:06:00 | 49.97458 | 21.51966 | 93° | 69km/h | 15254m | 5.5m/s | 0°C | 0% | 0hPa | 0V | 00:00:00 | 00:00:00 | 00:00:00 | |
| MIELECB | 2026-09-03 00:05:55 | 49.97454 | 21.51838 | 90° | 60km/h | 15232m | 6.2m/s | 0°C | 0% | 0hPa | 0V | 00:00:00 | 00:00:00 | 00:00:00 | |
| SQ9PSP-11 | 2026-09-03 00:05:53 | 49.97455 | 21.51788 | 93° | 66km/h | 15223m | 5.0m/s | 0°C | 0% | 0hPa | 0V | 00:00:00 | 00:00:00 | 00:00:00 | |
| MIELECB | 2026-09-03 00:05:49 | 49.97453 | 21.51687 | 89° | 60km/h | 15207m | 5.2m/s | 0°C | 0% | 0hPa | 0V | 00:00:00 | 00:00:00 | 00:00:00 | |
| SQ9EZE-12 | 2026-09-03 00:05:46 | 49.97451 | 21.51612 | 86° | 68km/h | 15192m | 4.8m/s | 0°C | 0% | 0hPa | 0V | 00:00:00 | 00:00:00 | 00:00:00 | |
| AKAW68 | 2026-09-03 00:05:45 | 49.97449 | 21.51587 | 82° | 66km/h | 15188m | 4.8m/s | 0°C | 0% | 0hPa | 0V | 00:00:00 | 00:00:00 | 00:00:00 | |
| MIELECB | 2026-09-03 00:05:44 | 49.97446 | 21.51562 | 81° | 64km/h | 15182m | 6.3m/s | 0°C | 0% | 0hPa | 0V | 00:00:00 | 00:00:00 | 00:00:00 | |
| SQ9PSP-11 | 2026-09-03 00:05:38 | 49.97441 | 21.51411 | 93° | 62km/h | 15152m | 5.6m/s | 0°C | 0% | 0hPa | 0V | 00:00:00 | 00:00:00 | 00:00:00 | |
| MIELECB | 2026-09-03 00:05:33 | 49.97430 | 21.51302 | 77° | 62km/h | 15130m | 7.7m/s | 0°C | 0% | 0hPa | 0V | 00:00:00 | 00:00:00 | 00:00:00 | |
| AKAW682 | 2026-09-03 00:05:28 | 49.97417 | 21.51175 | 80° | 55km/h | 15105m | 3.7m/s | 0°C | 0% | 0hPa | 0V | 00:00:00 | 00:00:00 | 00:00:00 | |
| MIELECB | 2026-09-03 00:05:27 | 49.97415 | 21.51155 | 79° | 49km/h | 15100m | 4.2m/s | 0°C | 0% | 0hPa | 0V | 00:00:00 | 00:00:00 | 00:00:00 | |
| SQ9EZE-12 | 2026-09-03 00:05:26 | 49.97412 | 21.51137 | 80° | 46km/h | 15096m | 5.8m/s | 0°C | 0% | 0hPa | 0V | 00:00:00 | 00:00:00 | 00:00:00 | |
| AKAW68 | 2026-09-03 00:05:25 | 49.97410 | 21.51119 | 82° | 47km/h | 15091m | 5.7m/s | 0°C | 0% | 0hPa | 0V | 00:00:00 | 00:00:00 | 00:00:00 | |
| SQ9PSP-11 | 2026-09-03 00:05:22 | 49.97402 | 21.51061 | 77° | 55km/h | 15078m | 4.1m/s | 0°C | 0% | 0hPa | 0V | 00:00:00 | 00:00:00 | 00:00:00 | |
| MIELECB | 2026-09-03 00:05:21 | 49.97398 | 21.51041 | 73° | 55km/h | 15075m | 4.8m/s | 0°C | 0% | 0hPa | 0V | 00:00:00 | 00:00:00 | 00:00:00 | |
| MIELECB | 2026-09-03 00:05:16 | 49.97377 | 21.50936 | 68° | 57km/h | 15056m | 4.9m/s | 0°C | 0% | 0hPa | 0V | 00:00:00 | 00:00:00 | 00:00:00 | |
| SQ9EZE-12 | 2026-09-03 00:05:11 | 49.97353 | 21.50832 | 66° | 51km/h | 15033m | 4.6m/s | 0°C | 0% | 0hPa | 0V | 00:00:00 | 00:00:00 | 00:00:00 | |
| MIELECB | 2026-09-03 00:05:10 | 49.97348 | 21.50814 | 68° | 51km/h | 15029m | 7.2m/s | 0°C | 0% | 0hPa | 0V | 00:00:00 | 00:00:00 | 00:00:00 | |
| AKAW682 | 2026-09-03 00:05:06 | 49.97333 | 21.50739 | 70° | 46km/h | 15009m | 4.8m/s | 0°C | 0% | 0hPa | 0V | 00:00:00 | 00:00:00 | 00:00:00 | |
| MIELECB | 2026-09-03 00:05:05 | 49.97324 | 21.50706 | 69° | 47km/h | 15001m | 4.1m/s | 0°C | 0% | 0hPa | 0V | 00:00:00 | 00:00:00 | 00:00:00 | |
| AKAW68 | 2026-09-03 00:05:05 | 49.97324 | 21.50706 | 69° | 47km/h | 15001m | 4.1m/s | 0°C | 0% | 0hPa | 0V | 00:00:00 | 00:00:00 | 00:00:00 | |
| MIELECB | 2026-09-03 00:04:59 | 49.97297 | 21.50614 | 76° | 51km/h | 14979m | 6.4m/s | 0°C | 0% | 0hPa | 0V | 00:00:00 | 00:00:00 | 00:00:00 | |
| SQ9EZE-12 | 2026-09-03 00:04:56 | 49.97292 | 21.50557 | 85° | 47km/h | 14967m | 3.0m/s | 0°C | 0% | 0hPa | 0V | 00:00:00 | 00:00:00 | 00:00:00 | |
| MIELECB | 2026-09-03 00:04:54 | 49.97288 | 21.50519 | 79° | 53km/h | 14956m | 7.9m/s | 0°C | 0% | 0hPa | 0V | 00:00:00 | 00:00:00 | 00:00:00 | |
| SQ9PSP-11 | 2026-09-03 00:04:50 | 49.97272 | 21.50444 | 68° | 44km/h | 14935m | 4.0m/s | 0°C | 0% | 0hPa | 0V | 00:00:00 | 00:00:00 | 00:00:00 | |
| MIELECB | 2026-09-03 00:04:48 | 49.97264 | 21.50410 | 81° | 62km/h | 14926m | 5.8m/s | 0°C | 0% | 0hPa | 0V | 00:00:00 | 00:00:00 | 00:00:00 | |
| AKAW682 | 2026-09-03 00:04:44 | 49.97256 | 21.50325 | 86° | 47km/h | 14907m | 4.4m/s | 0°C | 0% | 0hPa | 0V | 00:00:00 | 00:00:00 | 00:00:00 | |
| MIELECB | 2026-09-03 00:04:43 | 49.97251 | 21.50288 | 78° | 51km/h | 14899m | 5.5m/s | 0°C | 0% | 0hPa | 0V | 00:00:00 | 00:00:00 | 00:00:00 | |
| SQ9EZE-12 | 2026-09-03 00:04:41 | 49.97245 | 21.50245 | 80° | 58km/h | 14889m | 4.5m/s | 0°C | 0% | 0hPa | 0V | 00:00:00 | 00:00:00 | 00:00:00 | |
| MIELECB | 2026-09-03 00:04:37 | 49.97238 | 21.50164 | 83° | 47km/h | 14875m | 4.7m/s | 0°C | 0% | 0hPa | 0V | 00:00:00 | 00:00:00 | 00:00:00 | |
| SQ9PSP-11 | 2026-09-03 00:04:35 | 49.97236 | 21.50145 | 76° | 49km/h | 14870m | 4.9m/s | 0°C | 0% | 0hPa | 0V | 00:00:00 | 00:00:00 | 00:00:00 | |
| MIELECB | 2026-09-03 00:04:32 | 49.97224 | 21.50042 | 87° | 68km/h | 14845m | 5.8m/s | 0°C | 0% | 0hPa | 0V | 00:00:00 | 00:00:00 | 00:00:00 | |
| SQ9EZE-12 | 2026-09-03 00:04:25 | 49.97217 | 21.49923 | 79° | 53km/h | 14821m | 5.1m/s | 0°C | 0% | 0hPa | 0V | 00:00:00 | 00:00:00 | 00:00:00 | |
| MIELECB | 2026-09-03 00:04:24 | 49.97214 | 21.49903 | 81° | 53km/h | 14817m | 2.7m/s | 0°C | 0% | 0hPa | 0V | 00:00:00 | 00:00:00 | 00:00:00 | |
| SQ9PSP-11 | 2026-09-03 00:04:20 | 49.97207 | 21.49818 | 86° | 60km/h | 14803m | 4.5m/s | 0°C | 0% | 0hPa | 0V | 00:00:00 | 00:00:00 | 00:00:00 | |
| MIELECB | 2026-09-03 00:04:18 | 49.97205 | 21.49768 | 92° | 62km/h | 14795m | 4.5m/s | 0°C | 0% | 0hPa | 0V | 00:00:00 | 00:00:00 | 00:00:00 | |
| MIELECB | 2026-09-03 00:04:12 | 49.97202 | 21.49636 | 87° | 51km/h | 14768m | 5.1m/s | 0°C | 0% | 0hPa | 0V | 00:00:00 | 00:00:00 | 00:00:00 | |
| SQ9EZE-12 | 2026-09-03 00:04:11 | 49.97200 | 21.49592 | 84° | 60km/h | 14758m | 4.5m/s | 0°C | 0% | 0hPa | 0V | 00:00:00 | 00:00:00 | 00:00:00 | |
| MIELECB | 2026-09-03 00:04:10 | 49.97197 | 21.49522 | 89° | 55km/h | 14747m | 3.8m/s | 0°C | 0% | 0hPa | 0V | 00:00:00 | 00:00:00 | 00:00:00 | |
| SQ9PSP-11 | 2026-09-03 00:04:06 | 49.97195 | 21.49482 | 82° | 49km/h | 14739m | 4.4m/s | 0°C | 0% | 0hPa | 0V | 00:00:00 | 00:00:00 | 00:00:00 | |
| AKAW682 | 2026-09-03 00:04:04 | 49.97193 | 21.49464 | 75° | 46km/h | 14735m | 3.5m/s | 0°C | 0% | 0hPa | 0V | 00:00:00 | 00:00:00 | 00:00:00 | |
| MIELECB | 2026-09-03 00:04:01 | 49.97186 | 21.49416 | 83° | 44km/h | 14723m | 3.2m/s | 0°C | 0% | 0hPa | 0V | 00:00:00 | 00:00:00 | 00:00:00 | |
| MIELECB | 2026-09-03 00:03:55 | 49.97180 | 21.49287 | 91° | 57km/h | 14694m | 4.5m/s | 0°C | 0% | 0hPa | 0V | 00:00:00 | 00:00:00 | 00:00:00 | |
| SQ9EZE-12 | 2026-09-03 00:03:54 | 49.97180 | 21.49265 | 87° | 57km/h | 14690m | 4.5m/s | 0°C | 0% | 0hPa | 0V | 00:00:00 | 00:00:00 | 00:00:00 | |
| SQ9PSP-11 | 2026-09-03 00:03:49 | 49.97181 | 21.49159 | 91° | 51km/h | 14667m | 5.0m/s | 0°C | 0% | 0hPa | 0V | 00:00:00 | 00:00:00 | 00:00:00 | |
| AKAW682 | 2026-09-03 00:03:44 | 49.97179 | 21.49060 | 87° | 53km/h | 14647m | 5.1m/s | 0°C | 0% | 0hPa | 0V | 00:00:00 | 00:00:00 | 00:00:00 | |
| AKAW68 | 2026-09-03 00:03:43 | 49.97179 | 21.49040 | 89° | 49km/h | 14643m | 2.7m/s | 0°C | 0% | 0hPa | 0V | 00:00:00 | 00:00:00 | 00:00:00 | |
| SQ9EZE-12 | 2026-09-03 00:03:40 | 49.97187 | 21.48933 | 97° | 60km/h | 14619m | 3.9m/s | 0°C | 0% | 0hPa | 0V | 00:00:00 | 00:00:00 | 00:00:00 | |
| MIELECB | 2026-09-03 00:03:39 | 49.97188 | 21.48910 | 95° | 58km/h | 14615m | 5.7m/s | 0°C | 0% | 0hPa | 0V | 00:00:00 | 00:00:00 | 00:00:00 | |
| SQ9PSP-11 | 2026-09-03 00:03:35 | 49.97189 | 21.48845 | 87° | 55km/h | 14600m | 5.5m/s | 0°C | 0% | 0hPa | 0V | 00:00:00 | 00:00:00 | 00:00:00 | |
| MIELECB | 2026-09-03 00:03:31 | 49.97190 | 21.48783 | 105° | 51km/h | 14588m | 6.4m/s | 0°C | 0% | 0hPa | 0V | 00:00:00 | 00:00:00 | 00:00:00 | |
| MIELECB | 2026-09-03 00:03:26 | 49.97210 | 21.48674 | 93° | 64km/h | 14565m | 4.9m/s | 0°C | 0% | 0hPa | 0V | 00:00:00 | 00:00:00 | 00:00:00 | |
| AKAW68 | 2026-09-03 00:03:23 | 49.97210 | 21.48582 | 93° | 60km/h | 14549m | 5.0m/s | 0°C | 0% | 0hPa | 0V | 00:00:00 | 00:00:00 | 00:00:00 | |
| SQ9EZE-12 | 2026-09-03 00:03:22 | 49.97210 | 21.48582 | 93° | 60km/h | 14549m | 5.0m/s | 0°C | 0% | 0hPa | 0V | 00:00:00 | 00:00:00 | 00:00:00 | |
| MIELECB | 2026-09-03 00:03:20 | 49.97212 | 21.48535 | 96° | 57km/h | 14539m | 5.2m/s | 0°C | 0% | 0hPa | 0V | 00:00:00 | 00:00:00 | 00:00:00 | |
| SQ9PSP-11 | 2026-09-03 00:03:19 | 49.97214 | 21.48514 | 100° | 53km/h | 14534m | 5.1m/s | 0°C | 0% | 0hPa | 0V | 00:00:00 | 00:00:00 | 00:00:00 | |
| MIELECB | 2026-09-03 00:03:16 | 49.97223 | 21.48435 | 105° | 62km/h | 14517m | 7.3m/s | 0°C | 0% | 0hPa | 0V | 00:00:00 | 00:00:00 | 00:00:00 | |
| MIELECB | 2026-09-03 00:03:09 | 49.97252 | 21.48287 | 108° | 62km/h | 14487m | 5.9m/s | 0°C | 0% | 0hPa | 0V | 00:00:00 | 00:00:00 | 00:00:00 | |
| SQ9EZE-12 | 2026-09-03 00:03:07 | 49.97265 | 21.48214 | 104° | 60km/h | 14470m | 5.7m/s | 0°C | 0% | 0hPa | 0V | 00:00:00 | 00:00:00 | 00:00:00 | |
| MIELECB | 2026-09-03 00:03:04 | 49.97271 | 21.48168 | 103° | 58km/h | 14461m | 5.1m/s | 0°C | 0% | 0hPa | 0V | 00:00:00 | 00:00:00 | 00:00:00 | |
| SQ9PSP-11 | 2026-09-03 00:03:01 | 49.97362 | 21.47396 | 94° | 62km/h | 14329m | 5.0m/s | 0°C | 0% | 0hPa | 0V | 00:00:00 | 00:00:00 | 00:00:00 | |
| MIELECB | 2026-09-03 00:02:58 | 49.97374 | 21.47280 | 103° | 68km/h | 14307m | 5.3m/s | 0°C | 0% | 0hPa | 0V | 00:00:00 | 00:00:00 | 00:00:00 | |
| MIELECB | 2026-09-03 00:02:50 | 49.97376 | 21.47119 | 93° | 64km/h | 14281m | 4.2m/s | 0°C | 0% | 0hPa | 0V | 00:00:00 | 00:00:00 | 00:00:00 | |
| AKAW68 | 2026-09-03 00:02:49 | 49.97377 | 21.47093 | 94° | 66km/h | 14278m | 2.6m/s | 0°C | 0% | 0hPa | 0V | 00:00:00 | 00:00:00 | 00:00:00 | |
| OE3JTB-15 | 2026-09-03 00:02:44 | 49.97379 | 21.47067 | 97° | 69km/h | 14275m | 4.5m/s | 0°C | 0% | 0hPa | 0V | 00:00:00 | 00:00:00 | 00:00:00 | |
| SQ9EZE-12 | 2026-09-03 00:02:41 | 49.97380 | 21.47013 | 93° | 69km/h | 14266m | 4.8m/s | 0°C | 0% | 0hPa | 0V | 00:00:00 | 00:00:00 | 00:00:00 | |
| MIELECB | 2026-09-03 00:02:39 | 49.97382 | 21.46958 | 93° | 68km/h | 14257m | 5.3m/s | 0°C | 0% | 0hPa | 0V | 00:00:00 | 00:00:00 | 00:00:00 | |
| MIELECB | 2026-09-03 00:02:33 | 49.97384 | 21.46825 | 88° | 66km/h | 14236m | 4.7m/s | 0°C | 0% | 0hPa | 0V | 00:00:00 | 00:00:00 | 00:00:00 | |
| MIELECB | 2026-09-03 00:02:26 | 49.97383 | 21.46671 | 95° | 73km/h | 14210m | 5.2m/s | 0°C | 0% | 0hPa | 0V | 00:00:00 | 00:00:00 | 00:00:00 | |
| SQ9PSP-11 | 2026-09-03 00:02:22 | 49.97387 | 21.46582 | 92° | 75km/h | 14197m | 4.6m/s | 0°C | 0% | 0hPa | 0V | 00:00:00 | 00:00:00 | 00:00:00 | |
| SQ9EZE-12 | 2026-09-03 00:02:20 | 49.97387 | 21.46553 | 92° | 69km/h | 14193m | 4.5m/s | 0°C | 0% | 0hPa | 0V | 00:00:00 | 00:00:00 | 00:00:00 | |
| AKAW68 | 2026-09-03 00:02:19 | 49.97387 | 21.46527 | 89° | 66km/h | 14189m | 4.4m/s | 0°C | 0% | 0hPa | 0V | 00:00:00 | 00:00:00 | 00:00:00 | |
| MIELECB | 2026-09-03 00:02:18 | 49.97386 | 21.46502 | 89° | 60km/h | 14185m | 4.9m/s | 0°C | 0% | 0hPa | 0V | 00:00:00 | 00:00:00 | 00:00:00 | |
| MIELECB | 2026-09-03 00:02:10 | 49.97382 | 21.46383 | 90° | 66km/h | 14164m | 3.8m/s | 0°C | 0% | 0hPa | 0V | 00:00:00 | 00:00:00 | 00:00:00 | |
| OE3JTB-15 | 2026-09-03 00:02:02 | 49.97378 | 21.46251 | 93° | 58km/h | 14142m | 4.5m/s | 0°C | 0% | 0hPa | 0V | 00:00:00 | 00:00:00 | 00:00:00 | |
| MIELECB | 2026-09-03 00:02:01 | 49.97379 | 21.46227 | 90° | 60km/h | 14136m | 5.3m/s | 0°C | 0% | 0hPa | 0V | 00:00:00 | 00:00:00 | 00:00:00 | |
| SQ9PSP-11 | 2026-09-03 00:02:00 | 49.97377 | 21.46183 | 88° | 57km/h | 14127m | 4.4m/s | 0°C | 0% | 0hPa | 0V | 00:00:00 | 00:00:00 | 00:00:00 | |
| MIELECB | 2026-09-03 00:01:57 | 49.97377 | 21.46115 | 87° | 60km/h | 14114m | 5.3m/s | 0°C | 0% | 0hPa | 0V | 00:00:00 | 00:00:00 | 00:00:00 | |
| AKAW682 | 2026-09-03 00:01:53 | 49.97375 | 21.46016 | 92° | 60km/h | 14096m | 3.8m/s | 0°C | 0% | 0hPa | 0V | 00:00:00 | 00:00:00 | 00:00:00 | |
| MIELECB | 2026-09-03 00:01:49 | 49.97374 | 21.45971 | 86° | 53km/h | 14086m | 3.6m/s | 0°C | 0% | 0hPa | 0V | 00:00:00 | 00:00:00 | 00:00:00 | |
| MIELECB | 2026-09-03 00:01:46 | 49.97368 | 21.45869 | 82° | 55km/h | 14065m | 4.8m/s | 0°C | 0% | 0hPa | 0V | 00:00:00 | 00:00:00 | 00:00:00 | |
| SQ9PSP-11 | 2026-09-03 00:01:45 | 49.97366 | 21.45847 | 85° | 58km/h | 14060m | 5.5m/s | 0°C | 0% | 0hPa | 0V | 00:00:00 | 00:00:00 | 00:00:00 | |
| SQ9EZE-12 | 2026-09-03 00:01:42 | 49.97365 | 21.45801 | 92° | 58km/h | 14051m | 3.9m/s | 0°C | 0% | 0hPa | 0V | 00:00:00 | 00:00:00 | 00:00:00 | |
| MIELECB | 2026-09-03 00:01:39 | 49.97366 | 21.45735 | 93° | 49km/h | 14039m | 5.7m/s | 0°C | 0% | 0hPa | 0V | 00:00:00 | 00:00:00 | 00:00:00 | |
| MIELECB | 2026-09-03 00:01:34 | 49.97364 | 21.45639 | 86° | 60km/h | 14016m | 4.8m/s | 0°C | 0% | 0hPa | 0V | 00:00:00 | 00:00:00 | 00:00:00 | |
| AKAW68 | 2026-09-03 00:01:27 | 49.97365 | 21.45567 | 96° | 62km/h | 14004m | 4.3m/s | 0°C | 0% | 0hPa | 0V | 00:00:00 | 00:00:00 | 00:00:00 | |
| AKAW682 | 2026-09-03 00:01:26 | 49.97366 | 21.45543 | 97° | 58km/h | 14000m | 4.5m/s | 0°C | 0% | 0hPa | 0V | 00:00:00 | 00:00:00 | 00:00:00 | |
| MIELECB | 2026-09-03 00:01:25 | 49.97368 | 21.45521 | 97° | 55km/h | 13996m | 3.8m/s | 0°C | 0% | 0hPa | 0V | 00:00:00 | 00:00:00 | 00:00:00 | |
| SQ9PSP-11 | 2026-09-03 00:01:24 | 49.97370 | 21.45499 | 102° | 57km/h | 13992m | 6.2m/s | 0°C | 0% | 0hPa | 0V | 00:00:00 | 00:00:00 | 00:00:00 | |
| SQ9EZE-12 | 2026-09-03 00:01:20 | 49.97375 | 21.45413 | 88° | 58km/h | 13971m | 4.5m/s | 0°C | 0% | 0hPa | 0V | 00:00:00 | 00:00:00 | 00:00:00 | |
| MIELECB | 2026-09-03 00:01:19 | 49.97375 | 21.45389 | 91° | 64km/h | 13967m | 5.4m/s | 0°C | 0% | 0hPa | 0V | 00:00:00 | 00:00:00 | 00:00:00 | |
| OE3JTB-15 | 2026-09-03 00:01:12 | 49.97376 | 21.45304 | 95° | 53km/h | 13950m | 2.6m/s | 0°C | 0% | 0hPa | 0V | 00:00:00 | 00:00:00 | 00:00:00 | |
| MIELECB | 2026-09-03 00:01:10 | 49.97378 | 21.45287 | 104° | 46km/h | 13946m | 4.4m/s | 0°C | 0% | 0hPa | 0V | 00:00:00 | 00:00:00 | 00:00:00 | |
| SQ9PSP-11 | 2026-09-03 00:01:05 | 49.97392 | 21.45191 | 98° | 53km/h | 13924m | 3.9m/s | 0°C | 0% | 0hPa | 0V | 00:00:00 | 00:00:00 | 00:00:00 | |
| MIELECB | 2026-09-03 00:01:03 | 49.97395 | 21.45170 | 100° | 53km/h | 13919m | 4.4m/s | 0°C | 0% | 0hPa | 0V | 00:00:00 | 00:00:00 | 00:00:00 | |
| AKAW68 | 2026-09-03 00:00:58 | 49.97399 | 21.45131 | 106° | 49km/h | 13910m | 5.1m/s | 0°C | 0% | 0hPa | 0V | 00:00:00 | 00:00:00 | 00:00:00 | |
| AKAW682 | 2026-09-03 00:00:57 | 49.97403 | 21.45112 | 106° | 51km/h | 13905m | 5.6m/s | 0°C | 0% | 0hPa | 0V | 00:00:00 | 00:00:00 | 00:00:00 | |
| MIELECB | 2026-09-03 00:00:54 | 49.97409 | 21.45075 | 106° | 47km/h | 13896m | 4.7m/s | 0°C | 0% | 0hPa | 0V | 00:00:00 | 00:00:00 | 00:00:00 | |
| SQ9EZE-12 | 2026-09-03 00:00:51 | 49.97419 | 21.45016 | 100° | 49km/h | 13884m | 5.4m/s | 0°C | 0% | 0hPa | 0V | 00:00:00 | 00:00:00 | 00:00:00 | |
| MIELECB | 2026-09-03 00:00:49 | 49.97427 | 21.44959 | 106° | 47km/h | 13871m | 4.9m/s | 0°C | 0% | 0hPa | 0V | 00:00:00 | 00:00:00 | 00:00:00 | |
| SQ9PSP-11 | 2026-09-03 00:00:48 | 49.97445 | 21.44887 | 109° | 49km/h | 13856m | 3.8m/s | 0°C | 0% | 0hPa | 0V | 00:00:00 | 00:00:00 | 00:00:00 | |
| AKAW68 | 2026-09-03 00:00:44 | 49.97471 | 21.44756 | 110° | 57km/h | 13825m | 4.9m/s | 0°C | 0% | 0hPa | 0V | 00:00:00 | 00:00:00 | 00:00:00 | |
| AKAW682 | 2026-09-03 00:00:43 | 49.97476 | 21.44736 | 112° | 55km/h | 13821m | 3.8m/s | 0°C | 0% | 0hPa | 0V | 00:00:00 | 00:00:00 | 00:00:00 | |
| MIELECB | 2026-09-03 00:00:37 | 49.97494 | 21.44658 | 106° | 51km/h | 13804m | 5.0m/s | 0°C | 0% | 0hPa | 0V | 00:00:00 | 00:00:00 | 00:00:00 | |
| SQ9PSP-11 | 2026-09-03 00:00:33 | 49.97507 | 21.44580 | 106° | 53km/h | 13786m | 5.3m/s | 0°C | 0% | 0hPa | 0V | 00:00:00 | 00:00:00 | 00:00:00 | |
| SQ9EZE-12 | 2026-09-03 00:00:30 | 49.97518 | 21.44516 | 103° | 53km/h | 13772m | 5.0m/s | 0°C | 0% | 0hPa | 0V | 00:00:00 | 00:00:00 | 00:00:00 | |
| MIELECB | 2026-09-03 00:00:22 | 49.97533 | 21.44409 | 106° | 55km/h | 13751m | 5.4m/s | 0°C | 0% | 0hPa | 0V | 00:00:00 | 00:00:00 | 00:00:00 | |
| AKAW68 | 2026-09-03 00:00:18 | 49.97553 | 21.44329 | 114° | 57km/h | 13735m | 4.5m/s | 0°C | 0% | 0hPa | 0V | 00:00:00 | 00:00:00 | 00:00:00 | |
| AKAW682 | 2026-09-03 00:00:15 | 49.97562 | 21.44289 | 103° | 53km/h | 13725m | 3.5m/s | 0°C | 0% | 0hPa | 0V | 00:00:00 | 00:00:00 | 00:00:00 | |
| SQ9PSP-11 | 2026-09-03 00:00:13 | 49.97565 | 21.44267 | 105° | 60km/h | 13721m | 5.3m/s | 0°C | 0% | 0hPa | 0V | 00:00:00 | 00:00:00 | 00:00:00 | |
| MIELECB | 2026-09-03 00:00:12 | 49.97573 | 21.44221 | 105° | 58km/h | 13714m | 4.6m/s | 0°C | 0% | 0hPa | 0V | 00:00:00 | 00:00:00 | 00:00:00 | |
| MIELECB | 2026-09-03 00:00:05 | 49.97601 | 21.44062 | 100° | 57km/h | 13682m | 4.3m/s | 0°C | 0% | 0hPa | 0V | 00:00:00 | 00:00:00 | 00:00:00 | |
| MIELECB | 2026-09-02 23:59:59 | 49.97618 | 21.43955 | 111° | 49km/h | 13661m | 4.9m/s | 0°C | 0% | 0hPa | 0V | 00:00:00 | 00:00:00 | 00:00:00 | |
| SQ9PSP-11 | 2026-09-02 23:59:58 | 49.97628 | 21.43916 | 114° | 57km/h | 13653m | 3.9m/s | 0°C | 0% | 0hPa | 0V | 00:00:00 | 00:00:00 | 00:00:00 | |
| AKAW68 | 2026-09-02 23:59:55 | 49.97639 | 21.43873 | 108° | 62km/h | 13644m | 6.1m/s | 0°C | 0% | 0hPa | 0V | 00:00:00 | 00:00:00 | 00:00:00 | |
| MIELECB | 2026-09-02 23:59:54 | 49.97643 | 21.43849 | 104° | 62km/h | 13639m | 4.0m/s | 0°C | 0% | 0hPa | 0V | 00:00:00 | 00:00:00 | 00:00:00 | |
| AKAW682 | 2026-09-02 23:59:53 | 49.97647 | 21.43825 | 105° | 62km/h | 13636m | 5.7m/s | 0°C | 0% | 0hPa | 0V | 00:00:00 | 00:00:00 | 00:00:00 | |
| MIELECB | 2026-09-02 23:59:48 | 49.97667 | 21.43708 | 111° | 57km/h | 13617m | 4.9m/s | 0°C | 0% | 0hPa | 0V | 00:00:00 | 00:00:00 | 00:00:00 | |
| MIELECB | 2026-09-02 23:59:43 | 49.97695 | 21.43593 | 108° | 69km/h | 13595m | 5.8m/s | 0°C | 0% | 0hPa | 0V | 00:00:00 | 00:00:00 | 00:00:00 | |
| SQ9PSP-11 | 2026-09-02 23:59:41 | 49.97705 | 21.43539 | 108° | 75km/h | 13585m | 5.3m/s | 0°C | 0% | 0hPa | 0V | 00:00:00 | 00:00:00 | 00:00:00 | |
| MIELECB | 2026-09-02 23:59:37 | 49.97725 | 21.43431 | 109° | 69km/h | 13567m | 4.5m/s | 0°C | 0% | 0hPa | 0V | 00:00:00 | 00:00:00 | 00:00:00 | |
| AKAW68 | 2026-09-02 23:59:35 | 49.97733 | 21.43383 | 104° | 58km/h | 13557m | 6.3m/s | 0°C | 0% | 0hPa | 0V | 00:00:00 | 00:00:00 | 00:00:00 | |
| AKAW682 | 2026-09-02 23:59:33 | 49.97739 | 21.43337 | 103° | 62km/h | 13549m | 5.1m/s | 0°C | 0% | 0hPa | 0V | 00:00:00 | 00:00:00 | 00:00:00 | |
| MIELECB | 2026-09-02 23:59:32 | 49.97743 | 21.43313 | 109° | 64km/h | 13544m | 4.4m/s | 0°C | 0% | 0hPa | 0V | 00:00:00 | 00:00:00 | 00:00:00 | |
| SQ9PSP-11 | 2026-09-02 23:59:26 | 49.97766 | 21.43164 | 107° | 58km/h | 13518m | 4.1m/s | 0°C | 0% | 0hPa | 0V | 00:00:00 | 00:00:00 | 00:00:00 | |
| SQ9EZE-12 | 2026-09-02 23:59:24 | 49.97773 | 21.43119 | 106° | 60km/h | 13511m | 5.6m/s | 0°C | 0% | 0hPa | 0V | 00:00:00 | 00:00:00 | 00:00:00 | |
| MIELECB | 2026-09-02 23:59:21 | 49.97784 | 21.43047 | 106° | 68km/h | 13497m | 4.7m/s | 0°C | 0% | 0hPa | 0V | 00:00:00 | 00:00:00 | 00:00:00 | |
| MIELECB | 2026-09-02 23:59:16 | 49.97798 | 21.42921 | 100° | 62km/h | 13476m | 4.7m/s | 0°C | 0% | 0hPa | 0V | 00:00:00 | 00:00:00 | 00:00:00 | |
| AKAW68 | 2026-09-02 23:59:14 | 49.97803 | 21.42874 | 99° | 58km/h | 13468m | 6.5m/s | 0°C | 0% | 0hPa | 0V | 00:00:00 | 00:00:00 | 00:00:00 | |
| AKAW682 | 2026-09-02 23:59:12 | 49.97807 | 21.42827 | 99° | 62km/h | 13459m | 6.4m/s | 0°C | 0% | 0hPa | 0V | 00:00:00 | 00:00:00 | 00:00:00 | |
| MIELECB | 2026-09-02 23:59:11 | 49.97810 | 21.42803 | 102° | 60km/h | 13454m | 3.7m/s | 0°C | 0% | 0hPa | 0V | 00:00:00 | 00:00:00 | 00:00:00 | |
| SQ9EZE-12 | 2026-09-02 23:59:09 | 49.97814 | 21.42757 | 97° | 64km/h | 13445m | 5.1m/s | 0°C | 0% | 0hPa | 0V | 00:00:00 | 00:00:00 | 00:00:00 | |
| MIELECB | 2026-09-02 23:59:05 | 49.97820 | 21.42658 | 103° | 62km/h | 13429m | 4.1m/s | 0°C | 0% | 0hPa | 0V | 00:00:00 | 00:00:00 | 00:00:00 | |
| MIELECB | 2026-09-02 23:59:00 | 49.97834 | 21.42540 | 101° | 62km/h | 13408m | 3.3m/s | 0°C | 0% | 0hPa | 0V | 00:00:00 | 00:00:00 | 00:00:00 | |
| MIELECB | 2026-09-02 23:58:55 | 49.97843 | 21.42420 | 99° | 62km/h | 13387m | 4.2m/s | 0°C | 0% | 0hPa | 0V | 00:00:00 | 00:00:00 | 00:00:00 | |
| AKAW68 | 2026-09-02 23:58:54 | 49.97845 | 21.42395 | 96° | 64km/h | 13382m | 6.3m/s | 0°C | 0% | 0hPa | 0V | 00:00:00 | 00:00:00 | 00:00:00 | |
| SQ9EZE-12 | 2026-09-02 23:58:52 | 49.97848 | 21.42348 | 99° | 58km/h | 13373m | 6.1m/s | 0°C | 0% | 0hPa | 0V | 00:00:00 | 00:00:00 | 00:00:00 | |
| AKAW682 | 2026-09-02 23:58:51 | 49.97849 | 21.42326 | 95° | 55km/h | 13368m | 4.4m/s | 0°C | 0% | 0hPa | 0V | 00:00:00 | 00:00:00 | 00:00:00 | |
| MIELECB | 2026-09-02 23:58:49 | 49.97851 | 21.42280 | 93° | 62km/h | 13358m | 4.5m/s | 0°C | 0% | 0hPa | 0V | 00:00:00 | 00:00:00 | 00:00:00 | |
| MIELECB | 2026-09-02 23:58:43 | 49.97862 | 21.42141 | 96° | 62km/h | 13334m | 4.0m/s | 0°C | 0% | 0hPa | 0V | 00:00:00 | 00:00:00 | 00:00:00 | |
| SQ9PSP-11 | 2026-09-02 23:58:39 | 49.97868 | 21.42051 | 94° | 62km/h | 13317m | 4.1m/s | 0°C | 0% | 0hPa | 0V | 00:00:00 | 00:00:00 | 00:00:00 | |
| MIELECB | 2026-09-02 23:58:38 | 49.97868 | 21.42026 | 93° | 62km/h | 13313m | 4.0m/s | 0°C | 0% | 0hPa | 0V | 00:00:00 | 00:00:00 | 00:00:00 | |
| SQ9EZE-12 | 2026-09-02 23:58:36 | 49.97872 | 21.41979 | 103° | 58km/h | 13304m | 6.1m/s | 0°C | 0% | 0hPa | 0V | 00:00:00 | 00:00:00 | 00:00:00 | |
| AKAW68 | 2026-09-02 23:58:33 | 49.97878 | 21.41906 | 96° | 62km/h | 13290m | 6.6m/s | 0°C | 0% | 0hPa | 0V | 00:00:00 | 00:00:00 | 00:00:00 | |
| MIELECB | 2026-09-02 23:58:32 | 49.97880 | 21.41883 | 96° | 58km/h | 13284m | 4.6m/s | 0°C | 0% | 0hPa | 0V | 00:00:00 | 00:00:00 | 00:00:00 | |
| AKAW682 | 2026-09-02 23:58:30 | 49.97882 | 21.41836 | 93° | 62km/h | 13276m | 6.0m/s | 0°C | 0% | 0hPa | 0V | 00:00:00 | 00:00:00 | 00:00:00 | |
| MIELECB | 2026-09-02 23:58:26 | 49.97888 | 21.41736 | 99° | 62km/h | 13259m | 5.5m/s | 0°C | 0% | 0hPa | 0V | 00:00:00 | 00:00:00 | 00:00:00 | |
| SQ9PSP-11 | 2026-09-02 23:58:24 | 49.97892 | 21.41687 | 97° | 62km/h | 13250m | 5.0m/s | 0°C | 0% | 0hPa | 0V | 00:00:00 | 00:00:00 | 00:00:00 | |
| MIELECB | 2026-09-02 23:58:21 | 49.97896 | 21.41621 | 95° | 57km/h | 13237m | 5.8m/s | 0°C | 0% | 0hPa | 0V | 00:00:00 | 00:00:00 | 00:00:00 | |
| MIELECB | 2026-09-02 23:58:15 | 49.97911 | 21.41479 | 98° | 58km/h | 13214m | 5.5m/s | 0°C | 0% | 0hPa | 0V | 00:00:00 | 00:00:00 | 00:00:00 | |
| AKAW68 | 2026-09-02 23:58:13 | 49.97914 | 21.41433 | 101° | 60km/h | 13204m | 6.3m/s | 0°C | 0% | 0hPa | 0V | 00:00:00 | 00:00:00 | 00:00:00 | |
| MIELECB | 2026-09-02 23:58:10 | 49.97921 | 21.41366 | 95° | 53km/h | 13192m | 4.4m/s | 0°C | 0% | 0hPa | 0V | 00:00:00 | 00:00:00 | 00:00:00 | |
| SQ9PSP-11 | 2026-09-02 23:58:09 | 49.97922 | 21.41346 | 101° | 49km/h | 13187m | 4.9m/s | 0°C | 0% | 0hPa | 0V | 00:00:00 | 00:00:00 | 00:00:00 | |
| SQ9EZE-12 | 2026-09-02 23:58:05 | 49.97934 | 21.41262 | 98° | 58km/h | 13170m | 2.7m/s | 0°C | 0% | 0hPa | 0V | 00:00:00 | 00:00:00 | 00:00:00 | |
| MIELECB | 2026-09-02 23:58:04 | 49.97936 | 21.41240 | 101° | 58km/h | 13166m | 4.5m/s | 0°C | 0% | 0hPa | 0V | 00:00:00 | 00:00:00 | 00:00:00 | |
| MIELECB | 2026-09-02 23:57:59 | 49.97948 | 21.41136 | 98° | 55km/h | 13146m | 3.2m/s | 0°C | 0% | 0hPa | 0V | 00:00:00 | 00:00:00 | 00:00:00 | |
| MIELECB | 2026-09-02 23:57:53 | 49.97963 | 21.40999 | 100° | 55km/h | 13122m | 4.2m/s | 0°C | 0% | 0hPa | 0V | 00:00:00 | 00:00:00 | 00:00:00 | |
| AKAW68 | 2026-09-02 23:57:52 | 49.97966 | 21.40978 | 104° | 51km/h | 13118m | 4.5m/s | 0°C | 0% | 0hPa | 0V | 00:00:00 | 00:00:00 | 00:00:00 | |
| AKAW682 | 2026-09-02 23:57:50 | 49.97971 | 21.40940 | 102° | 53km/h | 13109m | 4.2m/s | 0°C | 0% | 0hPa | 0V | 00:00:00 | 00:00:00 | 00:00:00 | |
| MIELECB | 2026-09-02 23:57:47 | 49.97980 | 21.40879 | 108° | 57km/h | 13098m | 3.4m/s | 0°C | 0% | 0hPa | 0V | 00:00:00 | 00:00:00 | 00:00:00 | |
| MIELECB | 2026-09-02 23:57:43 | 49.97997 | 21.40778 | 111° | 47km/h | 13078m | 4.9m/s | 0°C | 0% | 0hPa | 0V | 00:00:00 | 00:00:00 | 00:00:00 | |
| SQ9PSP-11 | 2026-09-02 23:57:38 | 49.98014 | 21.40702 | 110° | 55km/h | 13061m | 5.4m/s | 0°C | 0% | 0hPa | 0V | 00:00:00 | 00:00:00 | 00:00:00 | |
| MIELECB | 2026-09-02 23:57:37 | 49.98018 | 21.40682 | 110° | 53km/h | 13056m | 3.7m/s | 0°C | 0% | 0hPa | 0V | 00:00:00 | 00:00:00 | 00:00:00 | |
| SQ9EZE-12 | 2026-09-02 23:57:33 | 49.98035 | 21.40605 | 113° | 57km/h | 13041m | 5.2m/s | 0°C | 0% | 0hPa | 0V | 00:00:00 | 00:00:00 | 00:00:00 | |
| AKAW68 | 2026-09-02 23:57:32 | 49.98041 | 21.40584 | 115° | 58km/h | 13037m | 4.6m/s | 0°C | 0% | 0hPa | 0V | 00:00:00 | 00:00:00 | 00:00:00 | |
| MIELECB | 2026-09-02 23:57:31 | 49.98047 | 21.40563 | 117° | 57km/h | 13033m | 4.0m/s | 0°C | 0% | 0hPa | 0V | 00:00:00 | 00:00:00 | 00:00:00 | |
| AKAW682 | 2026-09-02 23:57:29 | 49.98059 | 21.40523 | 113° | 55km/h | 13024m | 4.2m/s | 0°C | 0% | 0hPa | 0V | 00:00:00 | 00:00:00 | 00:00:00 | |
| MIELECB | 2026-09-02 23:57:26 | 49.98076 | 21.40460 | 111° | 58km/h | 13011m | 3.4m/s | 0°C | 0% | 0hPa | 0V | 00:00:00 | 00:00:00 | 00:00:00 | |
| SQ9PSP-11 | 2026-09-02 23:57:22 | 49.98095 | 21.40372 | 114° | 62km/h | 12995m | 4.3m/s | 0°C | 0% | 0hPa | 0V | 00:00:00 | 00:00:00 | 00:00:00 | |
| MIELECB | 2026-09-02 23:57:17 | 49.98128 | 21.40269 | 114° | 64km/h | 12974m | 4.7m/s | 0°C | 0% | 0hPa | 0V | 00:00:00 | 00:00:00 | 00:00:00 | |
| SQ9EZE-12 | 2026-09-02 23:57:16 | 49.98133 | 21.40245 | 109° | 62km/h | 12970m | 4.3m/s | 0°C | 0% | 0hPa | 0V | 00:00:00 | 00:00:00 | 00:00:00 | |
| AKAW68 | 2026-09-02 23:57:12 | 49.98158 | 21.40126 | 112° | 60km/h | 12950m | 4.7m/s | 0°C | 0% | 0hPa | 0V | 00:00:00 | 00:00:00 | 00:00:00 | |
| MIELECB | 2026-09-02 23:57:11 | 49.98158 | 21.40126 | 112° | 60km/h | 12950m | 4.7m/s | 0°C | 0% | 0hPa | 0V | 00:00:00 | 00:00:00 | 00:00:00 | |
| AKAW682 | 2026-09-02 23:57:08 | 49.98173 | 21.40063 | 111° | 60km/h | 12937m | 4.8m/s | 0°C | 0% | 0hPa | 0V | 00:00:00 | 00:00:00 | 00:00:00 | |
| SQ9PSP-11 | 2026-09-02 23:57:07 | 49.98178 | 21.40040 | 111° | 62km/h | 12933m | 3.3m/s | 0°C | 0% | 0hPa | 0V | 00:00:00 | 00:00:00 | 00:00:00 | |
| GYPAP8-17 | 2026-09-02 23:57:04 | 49.98192 | 21.39971 | 107° | 60km/h | 12922m | 4.1m/s | 0°C | 0% | 0hPa | 0V | 00:00:00 | 00:00:00 | 00:00:00 | |
| SQ9EZE-12 | 2026-09-02 23:57:01 | 49.98206 | 21.39902 | 109° | 64km/h | 12910m | 3.2m/s | 0°C | 0% | 0hPa | 0V | 00:00:00 | 00:00:00 | 00:00:00 | |
| MIELECB | 2026-09-02 23:57:00 | 49.98210 | 21.39879 | 103° | 60km/h | 12906m | 5.6m/s | 0°C | 0% | 0hPa | 0V | 00:00:00 | 00:00:00 | 00:00:00 | |
| SQ9PSP-11 | 2026-09-02 23:56:51 | 49.98242 | 21.39671 | 107° | 58km/h | 12869m | 4.4m/s | 0°C | 0% | 0hPa | 0V | 00:00:00 | 00:00:00 | 00:00:00 | |
| AKAW68 | 2026-09-02 23:56:50 | 49.98246 | 21.39649 | 104° | 60km/h | 12864m | 3.0m/s | 0°C | 0% | 0hPa | 0V | 00:00:00 | 00:00:00 | 00:00:00 | |
| AKAW682 | 2026-09-02 23:56:47 | 49.98255 | 21.39574 | 101° | 64km/h | 12854m | 3.7m/s | 0°C | 0% | 0hPa | 0V | 00:00:00 | 00:00:00 | 00:00:00 | |
| SQ9EZE-12 | 2026-09-02 23:56:45 | 49.98259 | 21.39527 | 98° | 55km/h | 12845m | 4.6m/s | 0°C | 0% | 0hPa | 0V | 00:00:00 | 00:00:00 | 00:00:00 | |
| MIELECB | 2026-09-02 23:56:41 | 49.98271 | 21.39436 | 105° | 64km/h | 12828m | 4.7m/s | 0°C | 0% | 0hPa | 0V | 00:00:00 | 00:00:00 | 00:00:00 | |
| SQ9PSP-11 | 2026-09-02 23:56:36 | 49.98283 | 21.39321 | 97° | 60km/h | 12804m | 3.8m/s | 0°C | 0% | 0hPa | 0V | 00:00:00 | 00:00:00 | 00:00:00 | |
| MIELECB | 2026-09-02 23:56:35 | 49.98285 | 21.39296 | 99° | 68km/h | 12801m | 4.5m/s | 0°C | 0% | 0hPa | 0V | 00:00:00 | 00:00:00 | 00:00:00 | |
| MIELECB | 2026-09-02 23:56:30 | 49.98293 | 21.39157 | 95° | 66km/h | 12780m | 4.2m/s | 0°C | 0% | 0hPa | 0V | 00:00:00 | 00:00:00 | 00:00:00 | |
| AKAW68 | 2026-09-02 23:56:29 | 49.98294 | 21.39132 | 93° | 64km/h | 12776m | 4.5m/s | 0°C | 0% | 0hPa | 0V | 00:00:00 | 00:00:00 | 00:00:00 | |
| SQ9EZE-12 | 2026-09-02 23:56:26 | 49.98295 | 21.39062 | 94° | 60km/h | 12765m | 3.9m/s | 0°C | 0% | 0hPa | 0V | 00:00:00 | 00:00:00 | 00:00:00 | |
| MIELECB | 2026-09-02 23:56:24 | 49.98297 | 21.39010 | 93° | 69km/h | 12756m | 3.9m/s | 0°C | 0% | 0hPa | 0V | 00:00:00 | 00:00:00 | 00:00:00 | |
| MIELECB | 2026-09-02 23:56:19 | 49.98303 | 21.38880 | 86° | 60km/h | 12735m | 2.7m/s | 0°C | 0% | 0hPa | 0V | 00:00:00 | 00:00:00 | 00:00:00 | |
| MIELECB | 2026-09-02 23:56:11 | 49.98305 | 21.38688 | 90° | 60km/h | 12703m | 2.7m/s | 0°C | 0% | 0hPa | 0V | 00:00:00 | 00:00:00 | 00:00:00 | |
| AKAW68 | 2026-09-02 23:56:09 | 49.98304 | 21.38640 | 90° | 62km/h | 12695m | 3.3m/s | 0°C | 0% | 0hPa | 0V | 00:00:00 | 00:00:00 | 00:00:00 | |
| AKAW682 | 2026-09-02 23:56:06 | 49.98306 | 21.38571 | 100° | 57km/h | 12683m | 5.7m/s | 0°C | 0% | 0hPa | 0V | 00:00:00 | 00:00:00 | 00:00:00 | |
| SQ9PSP-11 | 2026-09-02 23:56:04 | 49.98308 | 21.38524 | 91° | 64km/h | 12672m | 4.7m/s | 0°C | 0% | 0hPa | 0V | 00:00:00 | 00:00:00 | 00:00:00 | |
| MIELECB | 2026-09-02 23:56:00 | 49.98309 | 21.38430 | 94° | 55km/h | 12658m | 3.7m/s | 0°C | 0% | 0hPa | 0V | 00:00:00 | 00:00:00 | 00:00:00 | |
| MIELECB | 2026-09-02 23:55:55 | 49.98312 | 21.38322 | 95° | 53km/h | 12636m | 4.3m/s | 0°C | 0% | 0hPa | 0V | 00:00:00 | 00:00:00 | 00:00:00 | |
| SQ9EZE-12 | 2026-09-02 23:55:54 | 49.98312 | 21.38301 | 91° | 55km/h | 12632m | 5.3m/s | 0°C | 0% | 0hPa | 0V | 00:00:00 | 00:00:00 | 00:00:00 | |
| MIELECB | 2026-09-02 23:55:49 | 49.98311 | 21.38193 | 86° | 55km/h | 12611m | 3.2m/s | 0°C | 0% | 0hPa | 0V | 00:00:00 | 00:00:00 | 00:00:00 | |
| SQ9PSP-11 | 2026-09-02 23:55:48 | 49.98310 | 21.38172 | 90° | 55km/h | 12607m | 5.8m/s | 0°C | 0% | 0hPa | 0V | 00:00:00 | 00:00:00 | 00:00:00 | |
| AKAW682 | 2026-09-02 23:55:45 | 49.98314 | 21.38107 | 97° | 51km/h | 12596m | 3.2m/s | 0°C | 0% | 0hPa | 0V | 00:00:00 | 00:00:00 | 00:00:00 | |
| MIELECB | 2026-09-02 23:55:43 | 49.98315 | 21.38070 | 94° | 47km/h | 12586m | 5.8m/s | 0°C | 0% | 0hPa | 0V | 00:00:00 | 00:00:00 | 00:00:00 | |
| SQ9EZE-12 | 2026-09-02 23:55:38 | 49.98312 | 21.37971 | 92° | 51km/h | 12568m | 4.1m/s | 0°C | 0% | 0hPa | 0V | 00:00:00 | 00:00:00 | 00:00:00 | |
| MIELECB | 2026-09-02 23:55:32 | 49.98313 | 21.37860 | 82° | 46km/h | 12545m | 3.8m/s | 0°C | 0% | 0hPa | 0V | 00:00:00 | 00:00:00 | 00:00:00 | |
| AKAW68 | 2026-09-02 23:55:27 | 49.98315 | 21.37768 | 91° | 51km/h | 12524m | 4.1m/s | 0°C | 0% | 0hPa | 0V | 00:00:00 | 00:00:00 | 00:00:00 | |
| MIELECB | 2026-09-02 23:55:26 | 49.98315 | 21.37749 | 91° | 46km/h | 12520m | 5.4m/s | 0°C | 0% | 0hPa | 0V | 00:00:00 | 00:00:00 | 00:00:00 | |
| AKAW682 | 2026-09-02 23:55:25 | 49.98314 | 21.37732 | 90° | 42km/h | 12515m | 5.1m/s | 0°C | 0% | 0hPa | 0V | 00:00:00 | 00:00:00 | 00:00:00 | |
| SQ9EZE-12 | 2026-09-02 23:55:21 | 49.98313 | 21.37656 | 93° | 42km/h | 12496m | 5.2m/s | 0°C | 0% | 0hPa | 0V | 00:00:00 | 00:00:00 | 00:00:00 | |
| SQ9PSP-11 | 2026-09-02 23:55:17 | 49.98317 | 21.37581 | 88° | 49km/h | 12478m | 4.8m/s | 0°C | 0% | 0hPa | 0V | 00:00:00 | 00:00:00 | 00:00:00 | |
| MIELECB | 2026-09-02 23:55:12 | 49.98315 | 21.37483 | 89° | 49km/h | 12460m | 4.1m/s | 0°C | 0% | 0hPa | 0V | 00:00:00 | 00:00:00 | 00:00:00 | |
| MIELECB | 2026-09-02 23:55:07 | 49.98312 | 21.37385 | 86° | 51km/h | 12440m | 4.8m/s | 0°C | 0% | 0hPa | 0V | 00:00:00 | 00:00:00 | 00:00:00 | |
| SQ9EZE-12 | 2026-09-02 23:55:06 | 49.98311 | 21.37366 | 91° | 47km/h | 12435m | 5.8m/s | 0°C | 0% | 0hPa | 0V | 00:00:00 | 00:00:00 | 00:00:00 | |
| AKAW682 | 2026-09-02 23:55:03 | 49.98310 | 21.37305 | 90° | 57km/h | 12424m | 2.6m/s | 0°C | 0% | 0hPa | 0V | 00:00:00 | 00:00:00 | 00:00:00 | |
| SQ9PSP-11 | 2026-09-02 23:55:01 | 49.98311 | 21.37264 | 91° | 51km/h | 12415m | 5.7m/s | 0°C | 0% | 0hPa | 0V | 00:00:00 | 00:00:00 | 00:00:00 | |
| MIELECB | 2026-09-02 23:55:00 | 49.98311 | 21.37243 | 91° | 55km/h | 12410m | 4.3m/s | 0°C | 0% | 0hPa | 0V | 00:00:00 | 00:00:00 | 00:00:00 | |
| MIELECB | 2026-09-02 23:54:55 | 49.98311 | 21.37136 | 93° | 49km/h | 12391m | 2.1m/s | 0°C | 0% | 0hPa | 0V | 00:00:00 | 00:00:00 | 00:00:00 | |
| SQ9EZE-12 | 2026-09-02 23:54:51 | 49.98310 | 21.37046 | 89° | 62km/h | 12375m | 7.1m/s | 0°C | 0% | 0hPa | 0V | 00:00:00 | 00:00:00 | 00:00:00 | |
| MIELECB | 2026-09-02 23:54:49 | 49.98310 | 21.36999 | 88° | 60km/h | 12365m | 3.6m/s | 0°C | 0% | 0hPa | 0V | 00:00:00 | 00:00:00 | 00:00:00 | |
| SQ9PSP-11 | 2026-09-02 23:54:45 | 49.98310 | 21.36908 | 88° | 55km/h | 12349m | 3.5m/s | 0°C | 0% | 0hPa | 0V | 00:00:00 | 00:00:00 | 00:00:00 | |
| MIELECB | 2026-09-02 23:54:44 | 49.98309 | 21.36886 | 85° | 57km/h | 12346m | 4.5m/s | 0°C | 0% | 0hPa | 0V | 00:00:00 | 00:00:00 | 00:00:00 | |
| AKAW682 | 2026-09-02 23:54:42 | 49.98309 | 21.36839 | 97° | 66km/h | 12338m | 3.0m/s | 0°C | 0% | 0hPa | 0V | 00:00:00 | 00:00:00 | 00:00:00 | |
| MIELECB | 2026-09-02 23:54:37 | 49.98316 | 21.36724 | 95° | 55km/h | 12319m | 4.4m/s | 0°C | 0% | 0hPa | 0V | 00:00:00 | 00:00:00 | 00:00:00 | |
| SQ9EZE-12 | 2026-09-02 23:54:34 | 49.98317 | 21.36658 | 91° | 60km/h | 12306m | 4.3m/s | 0°C | 0% | 0hPa | 0V | 00:00:00 | 00:00:00 | 00:00:00 | |
| MIELECB | 2026-09-02 23:54:31 | 49.98325 | 21.36580 | 108° | 69km/h | 12293m | 4.3m/s | 0°C | 0% | 0hPa | 0V | 00:00:00 | 00:00:00 | 00:00:00 | |
| SQ9PSP-11 | 2026-09-02 23:54:30 | 49.98330 | 21.36555 | 109° | 69km/h | 12288m | 5.3m/s | 0°C | 0% | 0hPa | 0V | 00:00:00 | 00:00:00 | 00:00:00 | |
| AKAW68 | 2026-09-02 23:54:25 | 49.98341 | 21.36440 | 97° | 62km/h | 12265m | 4.7m/s | 0°C | 0% | 0hPa | 0V | 00:00:00 | 00:00:00 | 00:00:00 | |
| AKAW682 | 2026-09-02 23:54:21 | 49.98351 | 21.36342 | 100° | 62km/h | 12250m | 3.9m/s | 0°C | 0% | 0hPa | 0V | 00:00:00 | 00:00:00 | 00:00:00 | |
| MIELECB | 2026-09-02 23:54:20 | 49.98353 | 21.36318 | 99° | 60km/h | 12247m | 3.4m/s | 0°C | 0% | 0hPa | 0V | 00:00:00 | 00:00:00 | 00:00:00 | |
| SQ9EZE-12 | 2026-09-02 23:54:18 | 49.98359 | 21.36271 | 106° | 66km/h | 12238m | 4.7m/s | 0°C | 0% | 0hPa | 0V | 00:00:00 | 00:00:00 | 00:00:00 | |
| SQ9PSP-11 | 2026-09-02 23:54:15 | 49.98368 | 21.36192 | 97° | 69km/h | 12226m | 2.8m/s | 0°C | 0% | 0hPa | 0V | 00:00:00 | 00:00:00 | 00:00:00 | |
| MIELECB | 2026-09-02 23:54:09 | 49.98386 | 21.36031 | 101° | 64km/h | 12202m | 3.2m/s | 0°C | 0% | 0hPa | 0V | 00:00:00 | 00:00:00 | 00:00:00 | |
| AKAW68 | 2026-09-02 23:54:04 | 49.98404 | 21.35901 | 100° | 68km/h | 12180m | 6.3m/s | 0°C | 0% | 0hPa | 0V | 00:00:00 | 00:00:00 | 00:00:00 | |
| MIELECB | 2026-09-02 23:54:03 | 49.98406 | 21.35875 | 98° | 66km/h | 12175m | 4.5m/s | 0°C | 0% | 0hPa | 0V | 00:00:00 | 00:00:00 | 00:00:00 | |
| AKAW682 | 2026-09-02 23:54:01 | 49.98409 | 21.35826 | 94° | 62km/h | 12167m | 4.0m/s | 0°C | 0% | 0hPa | 0V | 00:00:00 | 00:00:00 | 00:00:00 | |
| SQ9PSP-11 | 2026-09-02 23:54:00 | 49.98410 | 21.35803 | 97° | 58km/h | 12164m | 4.0m/s | 0°C | 0% | 0hPa | 0V | 00:00:00 | 00:00:00 | 00:00:00 | |
| MIELECB | 2026-09-02 23:53:58 | 49.98417 | 21.35759 | 109° | 60km/h | 12155m | 4.0m/s | 0°C | 0% | 0hPa | 0V | 00:00:00 | 00:00:00 | 00:00:00 | |
| MIELECB | 2026-09-02 23:53:53 | 49.98430 | 21.35640 | 93° | 66km/h | 12132m | 5.4m/s | 0°C | 0% | 0hPa | 0V | 00:00:00 | 00:00:00 | 00:00:00 | |
| SQ9PSP-11 | 2026-09-02 23:53:44 | 49.98445 | 21.35436 | 92° | 62km/h | 12093m | 4.8m/s | 0°C | 0% | 0hPa | 0V | 00:00:00 | 00:00:00 | 00:00:00 | |
| MIELECB | 2026-09-02 23:53:42 | 49.98444 | 21.35387 | 87° | 64km/h | 12084m | 4.6m/s | 0°C | 0% | 0hPa | 0V | 00:00:00 | 00:00:00 | 00:00:00 | |
| AKAW682 | 2026-09-02 23:53:39 | 49.98450 | 21.35319 | 110° | 53km/h | 12072m | 5.3m/s | 0°C | 0% | 0hPa | 0V | 00:00:00 | 00:00:00 | 00:00:00 | |
| SQ9EZE-12 | 2026-09-02 23:53:36 | 49.98461 | 21.35261 | 96° | 55km/h | 12058m | 4.9m/s | 0°C | 0% | 0hPa | 0V | 00:00:00 | 00:00:00 | 00:00:00 | |
| MIELECB | 2026-09-02 23:53:31 | 49.98466 | 21.35123 | 103° | 75km/h | 12032m | 4.4m/s | 0°C | 0% | 0hPa | 0V | 00:00:00 | 00:00:00 | 00:00:00 | |
| SQ9PSP-11 | 2026-09-02 23:53:28 | 49.98474 | 21.35051 | 94° | 55km/h | 12017m | 5.4m/s | 0°C | 0% | 0hPa | 0V | 00:00:00 | 00:00:00 | 00:00:00 | |
| AKAW68 | 2026-09-02 23:53:23 | 49.98484 | 21.34932 | 105° | 68km/h | 11990m | 4.8m/s | 0°C | 0% | 0hPa | 0V | 00:00:00 | 00:00:00 | 00:00:00 | |
| SQ9EZE-12 | 2026-09-02 23:53:20 | 49.98489 | 21.34855 | 93° | 60km/h | 11973m | 6.5m/s | 0°C | 0% | 0hPa | 0V | 00:00:00 | 00:00:00 | 00:00:00 | |
| AKAW682 | 2026-09-02 23:53:18 | 49.98489 | 21.34812 | 88° | 53km/h | 11964m | 6.8m/s | 0°C | 0% | 0hPa | 0V | 00:00:00 | 00:00:00 | 00:00:00 | |
| SQ9PSP-11 | 2026-09-02 23:53:12 | 49.98494 | 21.34682 | 93° | 60km/h | 11930m | 5.6m/s | 0°C | 0% | 0hPa | 0V | 00:00:00 | 00:00:00 | 00:00:00 | |
| MIELECB | 2026-09-02 23:53:08 | 49.98495 | 21.34596 | 92° | 51km/h | 11911m | 3.8m/s | 0°C | 0% | 0hPa | 0V | 00:00:00 | 00:00:00 | 00:00:00 | |
| AKAW68 | 2026-09-02 23:53:03 | 49.98500 | 21.34503 | 92° | 51km/h | 11887m | 5.9m/s | 0°C | 0% | 0hPa | 0V | 00:00:00 | 00:00:00 | 00:00:00 | |
| MIELECB | 2026-09-02 23:53:02 | 49.98500 | 21.34482 | 93° | 57km/h | 11881m | 3.7m/s | 0°C | 0% | 0hPa | 0V | 00:00:00 | 00:00:00 | 00:00:00 | |
| SQ9EZE-12 | 2026-09-02 23:53:00 | 49.98500 | 21.34437 | 89° | 55km/h | 11873m | 2.7m/s | 0°C | 0% | 0hPa | 0V | 00:00:00 | 00:00:00 | 00:00:00 | |
| AKAW682 | 2026-09-02 23:52:57 | 49.98500 | 21.34377 | 97° | 47km/h | 11859m | 6.2m/s | 0°C | 0% | 0hPa | 0V | 00:00:00 | 00:00:00 | 00:00:00 | |
| SQ9PSP-11 | 2026-09-02 23:52:56 | 49.98501 | 21.34358 | 94° | 51km/h | 11854m | 4.0m/s | 0°C | 0% | 0hPa | 0V | 00:00:00 | 00:00:00 | 00:00:00 | |
| MIELECB | 2026-09-02 23:52:50 | 49.98504 | 21.34234 | 90° | 53km/h | 11824m | 4.6m/s | 0°C | 0% | 0hPa | 0V | 00:00:00 | 00:00:00 | 00:00:00 | |
| MIELECB | 2026-09-02 23:52:43 | 49.98507 | 21.34088 | 92° | 53km/h | 11788m | 4.8m/s | 0°C | 0% | 0hPa | 0V | 00:00:00 | 00:00:00 | 00:00:00 | |
| AKAW68 | 2026-09-02 23:52:42 | 49.98507 | 21.34067 | 92° | 55km/h | 11783m | 6.3m/s | 0°C | 0% | 0hPa | 0V | 00:00:00 | 00:00:00 | 00:00:00 | |
| SQ9EZE-12 | 2026-09-02 23:52:41 | 49.98508 | 21.34045 | 97° | 55km/h | 11776m | 9.3m/s | 0°C | 0% | 0hPa | 0V | 00:00:00 | 00:00:00 | 00:00:00 | |
| SQ9PSP-11 | 2026-09-02 23:52:40 | 49.98509 | 21.34025 | 94° | 53km/h | 11769m | 5.2m/s | 0°C | 0% | 0hPa | 0V | 00:00:00 | 00:00:00 | 00:00:00 | |
| MIELECB | 2026-09-02 23:52:38 | 49.98510 | 21.33979 | 94° | 60km/h | 11760m | 4.9m/s | 0°C | 0% | 0hPa | 0V | 00:00:00 | 00:00:00 | 00:00:00 | |
| AKAW682 | 2026-09-02 23:52:36 | 49.98512 | 21.33935 | 95° | 55km/h | 11749m | 4.2m/s | 0°C | 0% | 0hPa | 0V | 00:00:00 | 00:00:00 | 00:00:00 | |
| MIELECB | 2026-09-02 23:52:32 | 49.98512 | 21.33860 | 86° | 38km/h | 11729m | 2.8m/s | 0°C | 0% | 0hPa | 0V | 00:00:00 | 00:00:00 | 00:00:00 | |
| MIELECB | 2026-09-02 23:52:27 | 49.98508 | 21.33775 | 93° | 51km/h | 11706m | 6.2m/s | 0°C | 0% | 0hPa | 0V | 00:00:00 | 00:00:00 | 00:00:00 | |
| SQ9PSP-11 | 2026-09-02 23:52:25 | 49.98508 | 21.33734 | 93° | 55km/h | 11695m | 6.0m/s | 0°C | 0% | 0hPa | 0V | 00:00:00 | 00:00:00 | 00:00:00 | |
| AKAW68 | 2026-09-02 23:52:21 | 49.98507 | 21.33654 | 84° | 49km/h | 11678m | 6.9m/s | 0°C | 0% | 0hPa | 0V | 00:00:00 | 00:00:00 | 00:00:00 | |
| MIELECB | 2026-09-02 23:52:16 | 49.98512 | 21.33560 | 101° | 49km/h | 11651m | 4.0m/s | 0°C | 0% | 0hPa | 0V | 00:00:00 | 00:00:00 | 00:00:00 | |
| AKAW682 | 2026-09-02 23:52:15 | 49.98513 | 21.33540 | 97° | 53km/h | 11646m | 5.0m/s | 0°C | 0% | 0hPa | 0V | 00:00:00 | 00:00:00 | 00:00:00 | |
| MIELECB | 2026-09-02 23:52:10 | 49.98513 | 21.33432 | 92° | 57km/h | 11621m | 5.5m/s | 0°C | 0% | 0hPa | 0V | 00:00:00 | 00:00:00 | 00:00:00 | |
| SQ9PSP-11 | 2026-09-02 23:52:09 | 49.98513 | 21.33411 | 93° | 53km/h | 11615m | 6.7m/s | 0°C | 0% | 0hPa | 0V | 00:00:00 | 00:00:00 | 00:00:00 | |
| MIELECB | 2026-09-02 23:52:05 | 49.98516 | 21.33328 | 97° | 55km/h | 11595m | 6.8m/s | 0°C | 0% | 0hPa | 0V | 00:00:00 | 00:00:00 | 00:00:00 | |
| AKAW68 | 2026-09-02 23:52:01 | 49.98523 | 21.33245 | 99° | 51km/h | 11574m | 6.5m/s | 0°C | 0% | 0hPa | 0V | 00:00:00 | 00:00:00 | 00:00:00 | |
| MIELECB | 2026-09-02 23:51:59 | 49.98527 | 21.33208 | 100° | 49km/h | 11562m | 9.2m/s | 0°C | 0% | 0hPa | 0V | 00:00:00 | 00:00:00 | 00:00:00 | |
| SQ9PSP-11 | 2026-09-02 23:51:54 | 49.98542 | 21.33116 | 107° | 55km/h | 11534m | 2.2m/s | 0°C | 0% | 0hPa | 0V | 00:00:00 | 00:00:00 | 00:00:00 | |
| SQ9EZE-12 | 2026-09-02 23:51:53 | 49.98545 | 21.33095 | 100° | 55km/h | 11531m | 5.2m/s | 0°C | 0% | 0hPa | 0V | 00:00:00 | 00:00:00 | 00:00:00 | |
| MIELECB | 2026-09-02 23:51:48 | 49.98557 | 21.33001 | 103° | 47km/h | 11506m | 7.5m/s | 0°C | 0% | 0hPa | 0V | 00:00:00 | 00:00:00 | 00:00:00 | |
| MIELECB | 2026-09-02 23:51:43 | 49.98577 | 21.32901 | 105° | 60km/h | 11477m | 4.5m/s | 0°C | 0% | 0hPa | 0V | 00:00:00 | 00:00:00 | 00:00:00 | |
| AKAW68 | 2026-09-02 23:51:40 | 49.98590 | 21.32840 | 107° | 49km/h | 11463m | 6.2m/s | 0°C | 0% | 0hPa | 0V | 00:00:00 | 00:00:00 | 00:00:00 | |
| MIELECB | 2026-09-02 23:51:38 | 49.98597 | 21.32801 | 107° | 51km/h | 11453m | 6.8m/s | 0°C | 0% | 0hPa | 0V | 00:00:00 | 00:00:00 | 00:00:00 | |
| SQ9EZE-12 | 2026-09-02 23:51:34 | 49.98615 | 21.32714 | 111° | 62km/h | 11429m | 4.0m/s | 0°C | 0% | 0hPa | 0V | 00:00:00 | 00:00:00 | 00:00:00 | |
| MIELECB | 2026-09-02 23:51:32 | 49.98624 | 21.32669 | 105° | 57km/h | 11421m | 6.3m/s | 0°C | 0% | 0hPa | 0V | 00:00:00 | 00:00:00 | 00:00:00 | |
| MIELECB | 2026-09-02 23:51:27 | 49.98639 | 21.32566 | 104° | 58km/h | 11393m | 5.1m/s | 0°C | 0% | 0hPa | 0V | 00:00:00 | 00:00:00 | 00:00:00 | |
| SQ9PSP-11 | 2026-09-02 23:51:23 | 49.98656 | 21.32471 | 105° | 64km/h | 11374m | 5.9m/s | 0°C | 0% | 0hPa | 0V | 00:00:00 | 00:00:00 | 00:00:00 | |
| MIELECB | 2026-09-02 23:51:22 | 49.98660 | 21.32447 | 106° | 64km/h | 11369m | 3.9m/s | 0°C | 0% | 0hPa | 0V | 00:00:00 | 00:00:00 | 00:00:00 | |
| AKAW68 | 2026-09-02 23:51:19 | 49.98670 | 21.32374 | 102° | 60km/h | 11354m | 2.2m/s | 0°C | 0% | 0hPa | 0V | 00:00:00 | 00:00:00 | 00:00:00 | |
| SQ9EZE-12 | 2026-09-02 23:51:16 | 49.98679 | 21.32307 | 101° | 60km/h | 11339m | 5.3m/s | 0°C | 0% | 0hPa | 0V | 00:00:00 | 00:00:00 | 00:00:00 | |
| MIELECB | 2026-09-02 23:51:11 | 49.98693 | 21.32188 | 100° | 60km/h | 11314m | 6.2m/s | 0°C | 0% | 0hPa | 0V | 00:00:00 | 00:00:00 | 00:00:00 | |
| SQ9PSP-11 | 2026-09-02 23:51:07 | 49.98697 | 21.32103 | 97° | 57km/h | 11292m | 6.4m/s | 0°C | 0% | 0hPa | 0V | 00:00:00 | 00:00:00 | 00:00:00 | |
| MIELECB | 2026-09-02 23:51:05 | 49.98701 | 21.32059 | 100° | 57km/h | 11280m | 6.2m/s | 0°C | 0% | 0hPa | 0V | 00:00:00 | 00:00:00 | 00:00:00 | |
| MIELECB | 2026-09-02 23:50:59 | 49.98709 | 21.31927 | 99° | 57km/h | 11248m | 3.8m/s | 0°C | 0% | 0hPa | 0V | 00:00:00 | 00:00:00 | 00:00:00 | |
| AKAW68 | 2026-09-02 23:50:58 | 49.98712 | 21.31906 | 102° | 57km/h | 11243m | 4.7m/s | 0°C | 0% | 0hPa | 0V | 00:00:00 | 00:00:00 | 00:00:00 | |
| SQ9EZE-12 | 2026-09-02 23:50:57 | 49.98715 | 21.31885 | 103° | 57km/h | 11238m | 6.3m/s | 0°C | 0% | 0hPa | 0V | 00:00:00 | 00:00:00 | 00:00:00 | |
| MIELECB | 2026-09-02 23:50:53 | 49.98723 | 21.31791 | 97° | 62km/h | 11218m | 7.3m/s | 0°C | 0% | 0hPa | 0V | 00:00:00 | 00:00:00 | 00:00:00 | |
| SQ9PSP-11 | 2026-09-02 23:50:51 | 49.98725 | 21.31744 | 97° | 58km/h | 11208m | 7.3m/s | 0°C | 0% | 0hPa | 0V | 00:00:00 | 00:00:00 | 00:00:00 | |
| MIELECB | 2026-09-02 23:50:47 | 49.98729 | 21.31649 | 91° | 60km/h | 11185m | 7.6m/s | 0°C | 0% | 0hPa | 0V | 00:00:00 | 00:00:00 | 00:00:00 | |
| MIELECB | 2026-09-02 23:50:42 | 49.98733 | 21.31545 | 88° | 55km/h | 11156m | 5.6m/s | 0°C | 0% | 0hPa | 0V | 00:00:00 | 00:00:00 | 00:00:00 | |
| AKAW68 | 2026-09-02 23:50:37 | 49.98736 | 21.31430 | 97° | 55km/h | 11126m | 5.2m/s | 0°C | 0% | 0hPa | 0V | 00:00:00 | 00:00:00 | 00:00:00 | |
| SQ9PSP-11 | 2026-09-02 23:50:36 | 49.98738 | 21.31408 | 97° | 58km/h | 11120m | 7.4m/s | 0°C | 0% | 0hPa | 0V | 00:00:00 | 00:00:00 | 00:00:00 | |
| SQ9EZE-12 | 2026-09-02 23:50:34 | 49.98737 | 21.31361 | 84° | 64km/h | 11107m | 8.1m/s | 0°C | 0% | 0hPa | 0V | 00:00:00 | 00:00:00 | 00:00:00 | |
| MIELECB | 2026-09-02 23:50:28 | 49.98737 | 21.31225 | 97° | 60km/h | 11074m | 5.3m/s | 0°C | 0% | 0hPa | 0V | 00:00:00 | 00:00:00 | 00:00:00 | |
| MIELECB | 2026-09-02 23:50:21 | 49.98742 | 21.31060 | 92° | 58km/h | 11039m | 6.4m/s | 0°C | 0% | 0hPa | 0V | 00:00:00 | 00:00:00 | 00:00:00 | |
| SQ9PSP-11 | 2026-09-02 23:50:20 | 49.98742 | 21.31038 | 98° | 57km/h | 11034m | 4.0m/s | 0°C | 0% | 0hPa | 0V | 00:00:00 | 00:00:00 | 00:00:00 | |
| SQ9EZE-12 | 2026-09-02 23:50:19 | 49.98744 | 21.31017 | 99° | 51km/h | 11029m | 6.9m/s | 0°C | 0% | 0hPa | 0V | 00:00:00 | 00:00:00 | 00:00:00 | |
| AKAW68 | 2026-09-02 23:50:17 | 49.98749 | 21.30980 | 106° | 46km/h | 11018m | 8.2m/s | 0°C | 0% | 0hPa | 0V | 00:00:00 | 00:00:00 | 00:00:00 | |
| MIELECB | 2026-09-02 23:50:16 | 49.98751 | 21.30961 | 103° | 53km/h | 11012m | 4.2m/s | 0°C | 0% | 0hPa | 0V | 00:00:00 | 00:00:00 | 00:00:00 | |
| MIELECB | 2026-09-02 23:50:10 | 49.98773 | 21.30823 | 108° | 57km/h | 10978m | 4.2m/s | 0°C | 0% | 0hPa | 0V | 00:00:00 | 00:00:00 | 00:00:00 | |
| SQ9PSP-11 | 2026-09-02 23:50:05 | 49.98793 | 21.30727 | 111° | 47km/h | 10951m | 5.0m/s | 0°C | 0% | 0hPa | 0V | 00:00:00 | 00:00:00 | 00:00:00 | |
| SQ9EZE-12 | 2026-09-02 23:50:03 | 49.98801 | 21.30690 | 105° | 55km/h | 10940m | 3.3m/s | 0°C | 0% | 0hPa | 0V | 00:00:00 | 00:00:00 | 00:00:00 | |
| MIELECB | 2026-09-02 23:49:57 | 49.98826 | 21.30562 | 113° | 58km/h | 10909m | 4.4m/s | 0°C | 0% | 0hPa | 0V | 00:00:00 | 00:00:00 | 00:00:00 | |
| AKAW68 | 2026-09-02 23:49:56 | 49.98830 | 21.30541 | 108° | 57km/h | 10904m | 6.4m/s | 0°C | 0% | 0hPa | 0V | 00:00:00 | 00:00:00 | 00:00:00 | |
| MIELECB | 2026-09-02 23:49:50 | 49.98843 | 21.30418 | 102° | 58km/h | 10873m | 5.7m/s | 0°C | 0% | 0hPa | 0V | 00:00:00 | 00:00:00 | 00:00:00 | |
| SQ9PSP-11 | 2026-09-02 23:49:49 | 49.98847 | 21.30396 | 110° | 57km/h | 10868m | 5.1m/s | 0°C | 0% | 0hPa | 0V | 00:00:00 | 00:00:00 | 00:00:00 | |
| SQ9EZE-12 | 2026-09-02 23:49:47 | 49.98857 | 21.30354 | 117° | 58km/h | 10859m | 5.0m/s | 0°C | 0% | 0hPa | 0V | 00:00:00 | 00:00:00 | 00:00:00 | |
| MIELECB | 2026-09-02 23:49:45 | 49.98869 | 21.30314 | 115° | 57km/h | 10850m | 6.9m/s | 0°C | 0% | 0hPa | 0V | 00:00:00 | 00:00:00 | 00:00:00 | |
| MIELECB | 2026-09-02 23:49:40 | 49.98895 | 21.30203 | 113° | 66km/h | 10819m | 7.7m/s | 0°C | 0% | 0hPa | 0V | 00:00:00 | 00:00:00 | 00:00:00 | |
| AKAW68 | 2026-09-02 23:49:36 | 49.98918 | 21.30110 | 110° | 60km/h | 10799m | 3.5m/s | 0°C | 0% | 0hPa | 0V | 00:00:00 | 00:00:00 | 00:00:00 | |
| MIELECB | 2026-09-02 23:49:35 | 49.98923 | 21.30086 | 112° | 64km/h | 10796m | 3.3m/s | 0°C | 0% | 0hPa | 0V | 00:00:00 | 00:00:00 | 00:00:00 | |
| SQ9PSP-11 | 2026-09-02 23:49:33 | 49.98932 | 21.30039 | 105° | 64km/h | 10787m | 3.6m/s | 0°C | 0% | 0hPa | 0V | 00:00:00 | 00:00:00 | 00:00:00 | |
| SQ9EZE-12 | 2026-09-02 23:49:31 | 49.98942 | 21.29992 | 111° | 64km/h | 10780m | 4.2m/s | 0°C | 0% | 0hPa | 0V | 00:00:00 | 00:00:00 | 00:00:00 | |
| MIELECB | 2026-09-02 23:49:28 | 49.98962 | 21.29918 | 113° | 75km/h | 10763m | 3.8m/s | 0°C | 0% | 0hPa | 0V | 00:00:00 | 00:00:00 | 00:00:00 | |
| MIELECB | 2026-09-02 23:49:22 | 49.99005 | 21.29766 | 112° | 68km/h | 10736m | 5.9m/s | 0°C | 0% | 0hPa | 0V | 00:00:00 | 00:00:00 | 00:00:00 | |
| SQ9PSP-11 | 2026-09-02 23:49:18 | 49.99030 | 21.29664 | 110° | 66km/h | 10711m | 6.1m/s | 0°C | 0% | 0hPa | 0V | 00:00:00 | 00:00:00 | 00:00:00 | |
| AKAW68 | 2026-09-02 23:49:16 | 49.99041 | 21.29616 | 111° | 66km/h | 10698m | 4.0m/s | 0°C | 0% | 0hPa | 0V | 00:00:00 | 00:00:00 | 00:00:00 | |
| SQ9EZE-12 | 2026-09-02 23:49:15 | 49.99045 | 21.29591 | 105° | 66km/h | 10693m | 5.5m/s | 0°C | 0% | 0hPa | 0V | 00:00:00 | 00:00:00 | 00:00:00 | |
| AKAW682 | 2026-09-02 23:49:13 | 49.99053 | 21.29538 | 105° | 73km/h | 10682m | 5.7m/s | 0°C | 0% | 0hPa | 0V | 00:00:00 | 00:00:00 | 00:00:00 | |
| MIELECB | 2026-09-02 23:49:10 | 49.99069 | 21.29447 | 108° | 89km/h | 10664m | 6.6m/s | 0°C | 0% | 0hPa | 0V | 00:00:00 | 00:00:00 | 00:00:00 | |
| MIELECB | 2026-09-02 23:49:05 | 49.99093 | 21.29297 | 100° | 69km/h | 10638m | 4.6m/s | 0°C | 0% | 0hPa | 0V | 00:00:00 | 00:00:00 | 00:00:00 | |
| SQ9PSP-11 | 2026-09-02 23:49:03 | 49.99098 | 21.29244 | 98° | 71km/h | 10626m | 5.6m/s | 0°C | 0% | 0hPa | 0V | 00:00:00 | 00:00:00 | 00:00:00 | |
| MIELECB | 2026-09-02 23:49:00 | 49.99110 | 21.29128 | 103° | 78km/h | 10608m | 4.8m/s | 0°C | 0% | 0hPa | 0V | 00:00:00 | 00:00:00 | 00:00:00 | |
| SQ9EZE-12 | 2026-09-02 23:48:59 | 49.99110 | 21.29128 | 103° | 78km/h | 10608m | 4.8m/s | 0°C | 0% | 0hPa | 0V | 00:00:00 | 00:00:00 | 00:00:00 | |
| AKAW68 | 2026-09-02 23:48:55 | 49.99129 | 21.29017 | 103° | 71km/h | 10585m | 5.9m/s | 0°C | 0% | 0hPa | 0V | 00:00:00 | 00:00:00 | 00:00:00 | |
| MIELECB | 2026-09-02 23:48:53 | 49.99136 | 21.28962 | 100° | 73km/h | 10574m | 6.9m/s | 0°C | 0% | 0hPa | 0V | 00:00:00 | 00:00:00 | 00:00:00 | |
| AKAW682 | 2026-09-02 23:48:50 | 49.99143 | 21.28876 | 99° | 69km/h | 10558m | 4.3m/s | 0°C | 0% | 0hPa | 0V | 00:00:00 | 00:00:00 | 00:00:00 | |
| MIELECB | 2026-09-02 23:48:47 | 49.99153 | 21.28797 | 108° | 69km/h | 10544m | 5.8m/s | 0°C | 0% | 0hPa | 0V | 00:00:00 | 00:00:00 | 00:00:00 | |
| SQ9EZE-12 | 2026-09-02 23:48:44 | 49.99164 | 21.28721 | 98° | 69km/h | 10526m | 4.6m/s | 0°C | 0% | 0hPa | 0V | 00:00:00 | 00:00:00 | 00:00:00 | |
| MIELECB | 2026-09-02 23:48:41 | 49.99169 | 21.28641 | 99° | 69km/h | 10511m | 2.5m/s | 0°C | 0% | 0hPa | 0V | 00:00:00 | 00:00:00 | 00:00:00 | |
| MIELECB | 2026-09-02 23:48:36 | 49.99177 | 21.28503 | 95° | 71km/h | 10488m | 7.9m/s | 0°C | 0% | 0hPa | 0V | 00:00:00 | 00:00:00 | 00:00:00 | |
| AKAW68 | 2026-09-02 23:48:34 | 49.99178 | 21.28448 | 93° | 69km/h | 10475m | 7.9m/s | 0°C | 0% | 0hPa | 0V | 00:00:00 | 00:00:00 | 00:00:00 | |
| SQ9PSP-11 | 2026-09-02 23:48:31 | 49.99181 | 21.28367 | 94° | 68km/h | 10459m | 5.5m/s | 0°C | 0% | 0hPa | 0V | 00:00:00 | 00:00:00 | 00:00:00 | |
| MIELECB | 2026-09-02 23:48:30 | 49.99182 | 21.28340 | 96° | 73km/h | 10453m | 6.9m/s | 0°C | 0% | 0hPa | 0V | 00:00:00 | 00:00:00 | 00:00:00 | |
| AKAW682 | 2026-09-02 23:48:29 | 49.99184 | 21.28310 | 93° | 75km/h | 10447m | 7.9m/s | 0°C | 0% | 0hPa | 0V | 00:00:00 | 00:00:00 | 00:00:00 | |
| MIELECB | 2026-09-02 23:48:25 | 49.99181 | 21.28191 | 92° | 71km/h | 10425m | 5.4m/s | 0°C | 0% | 0hPa | 0V | 00:00:00 | 00:00:00 | 00:00:00 | |
| MIELECB | 2026-09-02 23:48:19 | 49.99180 | 21.28035 | 88° | 75km/h | 10396m | 4.0m/s | 0°C | 0% | 0hPa | 0V | 00:00:00 | 00:00:00 | 00:00:00 | |
| SQ9PSP-11 | 2026-09-02 23:48:16 | 49.99176 | 21.27953 | 86° | 64km/h | 10380m | 4.8m/s | 0°C | 0% | 0hPa | 0V | 00:00:00 | 00:00:00 | 00:00:00 | |
| MIELECB | 2026-09-02 23:48:14 | 49.99175 | 21.27902 | 91° | 68km/h | 10369m | 7.6m/s | 0°C | 0% | 0hPa | 0V | 00:00:00 | 00:00:00 | 00:00:00 | |
| AKAW68 | 2026-09-02 23:48:13 | 49.99175 | 21.27875 | 93° | 71km/h | 10364m | 4.9m/s | 0°C | 0% | 0hPa | 0V | 00:00:00 | 00:00:00 | 00:00:00 | |
| SQ9EZE-12 | 2026-09-02 23:48:09 | 49.99173 | 21.27768 | 90° | 69km/h | 10346m | 5.3m/s | 0°C | 0% | 0hPa | 0V | 00:00:00 | 00:00:00 | 00:00:00 | |
| AKAW682 | 2026-09-02 23:48:08 | 49.99172 | 21.27741 | 84° | 69km/h | 10341m | 7.0m/s | 0°C | 0% | 0hPa | 0V | 00:00:00 | 00:00:00 | 00:00:00 | |
| MIELECB | 2026-09-02 23:48:02 | 49.99169 | 21.27589 | 80° | 68km/h | 10315m | 4.8m/s | 0°C | 0% | 0hPa | 0V | 00:00:00 | 00:00:00 | 00:00:00 | |
| MIELECB | 2026-09-02 23:47:57 | 49.99162 | 21.27471 | 95° | 53km/h | 10296m | 4.9m/s | 0°C | 0% | 0hPa | 0V | 00:00:00 | 00:00:00 | 00:00:00 | |
| AKAW68 | 2026-09-02 23:47:53 | 49.99158 | 21.27380 | 85° | 66km/h | 10277m | 5.1m/s | 0°C | 0% | 0hPa | 0V | 00:00:00 | 00:00:00 | 00:00:00 | |
| MIELECB | 2026-09-02 23:47:51 | 49.99155 | 21.27327 | 86° | 69km/h | 10269m | 5.0m/s | 0°C | 0% | 0hPa | 0V | 00:00:00 | 00:00:00 | 00:00:00 | |
| MIELECB | 2026-09-02 23:47:46 | 49.99155 | 21.27219 | 102° | 53km/h | 10247m | 3.1m/s | 0°C | 0% | 0hPa | 0V | 00:00:00 | 00:00:00 | 00:00:00 | |
| SQ9PSP-11 | 2026-09-02 23:47:45 | 49.99158 | 21.27197 | 100° | 57km/h | 10245m | 2.3m/s | 0°C | 0% | 0hPa | 0V | 00:00:00 | 00:00:00 | 00:00:00 | |
| AKAW682 | 2026-09-02 23:47:44 | 49.99160 | 21.27176 | 95° | 57km/h | 10241m | 4.8m/s | 0°C | 0% | 0hPa | 0V | 00:00:00 | 00:00:00 | 00:00:00 | |
| MIELECB | 2026-09-02 23:47:40 | 49.99150 | 21.27094 | 75° | 47km/h | 10224m | 4.8m/s | 0°C | 0% | 0hPa | 0V | 00:00:00 | 00:00:00 | 00:00:00 | |
| MIELECB | 2026-09-02 23:47:35 | 49.99155 | 21.26988 | 101° | 73km/h | 10200m | 3.3m/s | 0°C | 0% | 0hPa | 0V | 00:00:00 | 00:00:00 | 00:00:00 | |
| SQ9EZE-12 | 2026-09-02 23:47:34 | 49.99158 | 21.26961 | 101° | 71km/h | 10197m | 4.1m/s | 0°C | 0% | 0hPa | 0V | 00:00:00 | 00:00:00 | 00:00:00 | |
| AKAW68 | 2026-09-02 23:47:32 | 49.99162 | 21.26912 | 91° | 53km/h | 10187m | 4.8m/s | 0°C | 0% | 0hPa | 0V | 00:00:00 | 00:00:00 | 00:00:00 | |
| MIELECB | 2026-09-02 23:47:29 | 49.99157 | 21.26850 | 83° | 58km/h | 10169m | 5.6m/s | 0°C | 0% | 0hPa | 0V | 00:00:00 | 00:00:00 | 00:00:00 | |
| AKAW682 | 2026-09-02 23:47:23 | 49.99162 | 21.26710 | 89° | 58km/h | 10142m | 6.0m/s | 0°C | 0% | 0hPa | 0V | 00:00:00 | 00:00:00 | 00:00:00 | |
| MIELECB | 2026-09-02 23:47:18 | 49.99163 | 21.26606 | 100° | 49km/h | 10116m | 5.6m/s | 0°C | 0% | 0hPa | 0V | 00:00:00 | 00:00:00 | 00:00:00 | |
| SQ9EZE-12 | 2026-09-02 23:47:15 | 49.99161 | 21.26544 | 80° | 57km/h | 10098m | 3.6m/s | 0°C | 0% | 0hPa | 0V | 00:00:00 | 00:00:00 | 00:00:00 | |
| MIELECB | 2026-09-02 23:47:13 | 49.99157 | 21.26504 | 90° | 46km/h | 10088m | 6.1m/s | 0°C | 0% | 0hPa | 0V | 00:00:00 | 00:00:00 | 00:00:00 | |
| AKAW68 | 2026-09-02 23:47:11 | 49.99162 | 21.26468 | 108° | 47km/h | 10079m | 5.6m/s | 0°C | 0% | 0hPa | 0V | 00:00:00 | 00:00:00 | 00:00:00 | |
| MIELECB | 2026-09-02 23:47:07 | 49.99166 | 21.26374 | 92° | 66km/h | 10055m | 2.8m/s | 0°C | 0% | 0hPa | 0V | 00:00:00 | 00:00:00 | 00:00:00 | |
| AKAW682 | 2026-09-02 23:47:03 | 49.99175 | 21.26279 | 100° | 53km/h | 10035m | 5.5m/s | 0°C | 0% | 0hPa | 0V | 00:00:00 | 00:00:00 | 00:00:00 | |
| MIELECB | 2026-09-02 23:47:01 | 49.99177 | 21.26242 | 89° | 44km/h | 10022m | 3.3m/s | 0°C | 0% | 0hPa | 0V | 00:00:00 | 00:00:00 | 00:00:00 | |
| SQ9PSP-11 | 2026-09-02 23:46:58 | 49.99175 | 21.26180 | 91° | 64km/h | 10006m | 6.6m/s | 0°C | 0% | 0hPa | 0V | 00:00:00 | 00:00:00 | 00:00:00 | |
| SQ9EZE-12 | 2026-09-02 23:46:57 | 49.99175 | 21.26155 | 92° | 66km/h | 10000m | 5.3m/s | 0°C | 0% | 0hPa | 0V | 00:00:00 | 00:00:00 | 00:00:00 | |
| MIELECB | 2026-09-02 23:46:56 | 49.99177 | 21.26130 | 98° | 64km/h | 9995m | 4.4m/s | 0°C | 0% | 0hPa | 0V | 00:00:00 | 00:00:00 | 00:00:00 | |
| MIELECB | 2026-09-02 23:46:51 | 49.99193 | 21.26008 | 101° | 60km/h | 9967m | 6.5m/s | 0°C | 0% | 0hPa | 0V | 00:00:00 | 00:00:00 | 00:00:00 | |
| AKAW68 | 2026-09-02 23:46:50 | 49.99196 | 21.25985 | 106° | 58km/h | 9961m | 5.0m/s | 0°C | 0% | 0hPa | 0V | 00:00:00 | 00:00:00 | 00:00:00 | |
| MIELECB | 2026-09-02 23:46:45 | 49.99214 | 21.25859 | 93° | 73km/h | 9932m | 4.2m/s | 0°C | 0% | 0hPa | 0V | 00:00:00 | 00:00:00 | 00:00:00 | |
| AKAW682 | 2026-09-02 23:46:43 | 49.99216 | 21.25804 | 96° | 68km/h | 9923m | 5.8m/s | 0°C | 0% | 0hPa | 0V | 00:00:00 | 00:00:00 | 00:00:00 | |
| SQ9PSP-11 | 2026-09-02 23:46:42 | 49.99219 | 21.25778 | 103° | 64km/h | 9918m | 3.8m/s | 0°C | 0% | 0hPa | 0V | 00:00:00 | 00:00:00 | 00:00:00 | |
| MIELECB | 2026-09-02 23:46:39 | 49.99230 | 21.25711 | 108° | 60km/h | 9901m | 7.9m/s | 0°C | 0% | 0hPa | 0V | 00:00:00 | 00:00:00 | 00:00:00 | |
| MIELECB | 2026-09-02 23:46:33 | 49.99249 | 21.25565 | 100° | 66km/h | 9871m | 5.8m/s | 0°C | 0% | 0hPa | 0V | 00:00:00 | 00:00:00 | 00:00:00 | |
| AKAW68 | 2026-09-02 23:46:30 | 49.99257 | 21.25486 | 101° | 69km/h | 9854m | 7.2m/s | 0°C | 0% | 0hPa | 0V | 00:00:00 | 00:00:00 | 00:00:00 | |
| MIELECB | 2026-09-02 23:46:27 | 49.99265 | 21.25408 | 102° | 66km/h | 9837m | 2.9m/s | 0°C | 0% | 0hPa | 0V | 00:00:00 | 00:00:00 | 00:00:00 | |
| SQ9EZE-12 | 2026-09-02 23:46:24 | 49.99274 | 21.25314 | 104° | 58km/h | 9817m | 3.3m/s | 0°C | 0% | 0hPa | 0V | 00:00:00 | 00:00:00 | 00:00:00 | |
| MIELECB | 2026-09-02 23:46:22 | 49.99277 | 21.25291 | 104° | 62km/h | 9813m | 5.6m/s | 0°C | 0% | 0hPa | 0V | 00:00:00 | 00:00:00 | 00:00:00 | |
| MIELECB | 2026-09-02 23:46:17 | 49.99289 | 21.25158 | 94° | 69km/h | 9787m | 4.6m/s | 0°C | 0% | 0hPa | 0V | 00:00:00 | 00:00:00 | 00:00:00 | |
| SQ9PSP-11 | 2026-09-02 23:46:11 | 49.99311 | 21.25016 | 100° | 69km/h | 9753m | 4.7m/s | 0°C | 0% | 0hPa | 0V | 00:00:00 | 00:00:00 | 00:00:00 | |
| AKAW68 | 2026-09-02 23:46:10 | 49.99314 | 21.24988 | 101° | 73km/h | 9747m | 6.4m/s | 0°C | 0% | 0hPa | 0V | 00:00:00 | 00:00:00 | 00:00:00 | |
| SQ9EZE-12 | 2026-09-02 23:46:07 | 49.99324 | 21.24905 | 102° | 64km/h | 9731m | 4.6m/s | 0°C | 0% | 0hPa | 0V | 00:00:00 | 00:00:00 | 00:00:00 | |
| MIELECB | 2026-09-02 23:46:05 | 49.99330 | 21.24857 | 103° | 60km/h | 9721m | 6.0m/s | 0°C | 0% | 0hPa | 0V | 00:00:00 | 00:00:00 | 00:00:00 | |
| AKAW682 | 2026-09-02 23:46:02 | 49.99341 | 21.24784 | 97° | 66km/h | 9707m | 3.8m/s | 0°C | 0% | 0hPa | 0V | 00:00:00 | 00:00:00 | 00:00:00 | |
| MIELECB | 2026-09-02 23:46:00 | 49.99343 | 21.24731 | 93° | 73km/h | 9694m | 4.4m/s | 0°C | 0% | 0hPa | 0V | 00:00:00 | 00:00:00 | 00:00:00 | |
| SQ9PSP-11 | 2026-09-02 23:45:56 | 49.99350 | 21.24620 | 105° | 69km/h | 9674m | 5.0m/s | 0°C | 0% | 0hPa | 0V | 00:00:00 | 00:00:00 | 00:00:00 | |
| MIELECB | 2026-09-02 23:45:54 | 49.99360 | 21.24569 | 109° | 68km/h | 9662m | 5.8m/s | 0°C | 0% | 0hPa | 0V | 00:00:00 | 00:00:00 | 00:00:00 | |
| SQ9EZE-12 | 2026-09-02 23:45:51 | 49.99368 | 21.24488 | 92° | 68km/h | 9646m | 3.9m/s | 0°C | 0% | 0hPa | 0V | 00:00:00 | 00:00:00 | 00:00:00 | |
| AKAW68 | 2026-09-02 23:45:49 | 49.99368 | 21.24436 | 91° | 66km/h | 9636m | 5.0m/s | 0°C | 0% | 0hPa | 0V | 00:00:00 | 00:00:00 | 00:00:00 | |
| MIELECB | 2026-09-02 23:45:48 | 49.99368 | 21.24411 | 98° | 64km/h | 9632m | 3.6m/s | 0°C | 0% | 0hPa | 0V | 00:00:00 | 00:00:00 | 00:00:00 | |
| MIELECB | 2026-09-02 23:45:43 | 49.99384 | 21.24282 | 98° | 75km/h | 9603m | 4.2m/s | 0°C | 0% | 0hPa | 0V | 00:00:00 | 00:00:00 | 00:00:00 | |
| SQ9PSP-11 | 2026-09-02 23:45:41 | 49.99388 | 21.24225 | 95° | 73km/h | 9593m | 3.1m/s | 0°C | 0% | 0hPa | 0V | 00:00:00 | 00:00:00 | 00:00:00 | |
| MIELECB | 2026-09-02 23:45:37 | 49.99399 | 21.24121 | 103° | 60km/h | 9571m | 5.0m/s | 0°C | 0% | 0hPa | 0V | 00:00:00 | 00:00:00 | 00:00:00 | |
| SQ9EZE-12 | 2026-09-02 23:45:33 | 49.99412 | 21.24017 | 98° | 75km/h | 9549m | 7.7m/s | 0°C | 0% | 0hPa | 0V | 00:00:00 | 00:00:00 | 00:00:00 | |
| MIELECB | 2026-09-02 23:45:32 | 49.99414 | 21.23988 | 98° | 75km/h | 9543m | 4.8m/s | 0°C | 0% | 0hPa | 0V | 00:00:00 | 00:00:00 | 00:00:00 | |
| SQ9PSP-11 | 2026-09-02 23:45:26 | 49.99431 | 21.23825 | 106° | 66km/h | 9512m | 5.3m/s | 0°C | 0% | 0hPa | 0V | 00:00:00 | 00:00:00 | 00:00:00 | |
| AKAW682 | 2026-09-02 23:45:22 | 49.99443 | 21.23706 | 95° | 64km/h | 9486m | 4.4m/s | 0°C | 0% | 0hPa | 0V | 00:00:00 | 00:00:00 | 00:00:00 | |
| SQ9EZE-12 | 2026-09-02 23:45:17 | 49.99457 | 21.23596 | 102° | 80km/h | 9467m | 7.2m/s | 0°C | 0% | 0hPa | 0V | 00:00:00 | 00:00:00 | 00:00:00 | |
| MIELECB | 2026-09-02 23:45:15 | 49.99466 | 21.23538 | 105° | 73km/h | 9456m | 6.4m/s | 0°C | 0% | 0hPa | 0V | 00:00:00 | 00:00:00 | 00:00:00 | |
| MIELECB | 2026-09-02 23:45:10 | 49.99482 | 21.23414 | 103° | 62km/h | 9428m | 8.6m/s | 0°C | 0% | 0hPa | 0V | 00:00:00 | 00:00:00 | 00:00:00 | |
| AKAW68 | 2026-09-02 23:45:08 | 49.99488 | 21.23362 | 102° | 71km/h | 9416m | 6.4m/s | 0°C | 0% | 0hPa | 0V | 00:00:00 | 00:00:00 | 00:00:00 | |
| MIELECB | 2026-09-02 23:45:04 | 49.99505 | 21.23250 | 104° | 66km/h | 9396m | 6.2m/s | 0°C | 0% | 0hPa | 0V | 00:00:00 | 00:00:00 | 00:00:00 | |
| SQ9EZE-12 | 2026-09-02 23:45:02 | 49.99513 | 21.23201 | 102° | 64km/h | 9384m | 7.4m/s | 0°C | 0% | 0hPa | 0V | 00:00:00 | 00:00:00 | 00:00:00 | |
| AKAW682 | 2026-09-02 23:45:00 | 49.99519 | 21.23150 | 105° | 69km/h | 9373m | 4.3m/s | 0°C | 0% | 0hPa | 0V | 00:00:00 | 00:00:00 | 00:00:00 | |
| MIELECB | 2026-09-02 23:44:58 | 49.99527 | 21.23097 | 104° | 75km/h | 9363m | 2.5m/s | 0°C | 0% | 0hPa | 0V | 00:00:00 | 00:00:00 | 00:00:00 | |
| SQ9PSP-11 | 2026-09-02 23:44:54 | 49.99548 | 21.22988 | 105° | 66km/h | 9341m | 3.9m/s | 0°C | 0% | 0hPa | 0V | 00:00:00 | 00:00:00 | 00:00:00 | |
| MIELECB | 2026-09-02 23:44:53 | 49.99553 | 21.22964 | 108° | 58km/h | 9336m | 7.2m/s | 0°C | 0% | 0hPa | 0V | 00:00:00 | 00:00:00 | 00:00:00 | |
| MIELECB | 2026-09-02 23:44:47 | 49.99570 | 21.22798 | 104° | 73km/h | 9301m | 6.5m/s | 0°C | 0% | 0hPa | 0V | 00:00:00 | 00:00:00 | 00:00:00 | |
| SQ9EZE-12 | 2026-09-02 23:44:46 | 49.99574 | 21.22771 | 105° | 73km/h | 9295m | 4.6m/s | 0°C | 0% | 0hPa | 0V | 00:00:00 | 00:00:00 | 00:00:00 | |
| MIELECB | 2026-09-02 23:44:42 | 49.99593 | 21.22668 | 106° | 57km/h | 9273m | 2.8m/s | 0°C | 0% | 0hPa | 0V | 00:00:00 | 00:00:00 | 00:00:00 | |
| SQ9PSP-11 | 2026-09-02 23:44:38 | 49.99611 | 21.22569 | 106° | 80km/h | 9251m | 7.6m/s | 0°C | 0% | 0hPa | 0V | 00:00:00 | 00:00:00 | 00:00:00 | |
| MIELECB | 2026-09-02 23:44:36 | 49.99619 | 21.22508 | 101° | 77km/h | 9239m | 6.8m/s | 0°C | 0% | 0hPa | 0V | 00:00:00 | 00:00:00 | 00:00:00 | |
| MIELECB | 2026-09-02 23:44:31 | 49.99636 | 21.22384 | 106° | 71km/h | 9215m | 4.3m/s | 0°C | 0% | 0hPa | 0V | 00:00:00 | 00:00:00 | 00:00:00 | |
| SQ9EZE-12 | 2026-09-02 23:44:30 | 49.99641 | 21.22355 | 108° | 78km/h | 9209m | 6.6m/s | 0°C | 0% | 0hPa | 0V | 00:00:00 | 00:00:00 | 00:00:00 | |
| AKAW68 | 2026-09-02 23:44:27 | 49.99660 | 21.22273 | 110° | 69km/h | 9194m | 6.5m/s | 0°C | 0% | 0hPa | 0V | 00:00:00 | 00:00:00 | 00:00:00 | |
| MIELECB | 2026-09-02 23:44:26 | 49.99665 | 21.22248 | 106° | 64km/h | 9187m | 6.6m/s | 0°C | 0% | 0hPa | 0V | 00:00:00 | 00:00:00 | 00:00:00 | |
| SQ9PSP-11 | 2026-09-02 23:44:22 | 49.99680 | 21.22149 | 108° | 71km/h | 9165m | 4.9m/s | 0°C | 0% | 0hPa | 0V | 00:00:00 | 00:00:00 | 00:00:00 | |
| MIELECB | 2026-09-02 23:44:20 | 49.99690 | 21.22092 | 105° | 78km/h | 9153m | 6.6m/s | 0°C | 0% | 0hPa | 0V | 00:00:00 | 00:00:00 | 00:00:00 | |
| AKAW682 | 2026-09-02 23:44:17 | 49.99702 | 21.22001 | 105° | 73km/h | 9136m | 3.4m/s | 0°C | 0% | 0hPa | 0V | 00:00:00 | 00:00:00 | 00:00:00 | |
| MIELECB | 2026-09-02 23:44:15 | 49.99713 | 21.21950 | 116° | 68km/h | 9124m | 6.7m/s | 0°C | 0% | 0hPa | 0V | 00:00:00 | 00:00:00 | 00:00:00 | |
| MIELECB | 2026-09-02 23:44:09 | 49.99740 | 21.21809 | 101° | 62km/h | 9093m | 3.6m/s | 0°C | 0% | 0hPa | 0V | 00:00:00 | 00:00:00 | 00:00:00 | |
| SQ9PSP-11 | 2026-09-02 23:44:07 | 49.99747 | 21.21762 | 111° | 64km/h | 9082m | 4.2m/s | 0°C | 0% | 0hPa | 0V | 00:00:00 | 00:00:00 | 00:00:00 | |
| MIELECB | 2026-09-02 23:44:04 | 49.99769 | 21.21687 | 115° | 71km/h | 9067m | 5.2m/s | 0°C | 0% | 0hPa | 0V | 00:00:00 | 00:00:00 | 00:00:00 | |
| SQ9EZE-12 | 2026-09-02 23:44:00 | 49.99788 | 21.21577 | 101° | 71km/h | 9048m | 4.4m/s | 0°C | 0% | 0hPa | 0V | 00:00:00 | 00:00:00 | 00:00:00 | |
| MIELECB | 2026-09-02 23:43:58 | 49.99796 | 21.21526 | 107° | 62km/h | 9039m | 3.8m/s | 0°C | 0% | 0hPa | 0V | 00:00:00 | 00:00:00 | 00:00:00 | |
| MIELECB | 2026-09-02 23:43:53 | 49.99824 | 21.21393 | 112° | 73km/h | 9018m | 4.7m/s | 0°C | 0% | 0hPa | 0V | 00:00:00 | 00:00:00 | 00:00:00 | |
| SQ9PSP-11 | 2026-09-02 23:43:51 | 49.99837 | 21.21343 | 112° | 62km/h | 9010m | 4.0m/s | 0°C | 0% | 0hPa | 0V | 00:00:00 | 00:00:00 | 00:00:00 | |
| MIELECB | 2026-09-02 23:43:47 | 49.99855 | 21.21247 | 106° | 66km/h | 8990m | 5.6m/s | 0°C | 0% | 0hPa | 0V | 00:00:00 | 00:00:00 | 00:00:00 | |
| AKAW68 | 2026-09-02 23:43:46 | 49.99859 | 21.21223 | 104° | 60km/h | 8983m | 7.4m/s | 0°C | 0% | 0hPa | 0V | 00:00:00 | 00:00:00 | 00:00:00 | |
| SQ9EZE-12 | 2026-09-02 23:43:42 | 49.99877 | 21.21128 | 109° | 77km/h | 8960m | 3.2m/s | 0°C | 0% | 0hPa | 0V | 00:00:00 | 00:00:00 | 00:00:00 | |
| MIELECB | 2026-09-02 23:43:41 | 49.99883 | 21.21098 | 107° | 82km/h | 8955m | 7.8m/s | 0°C | 0% | 0hPa | 0V | 00:00:00 | 00:00:00 | 00:00:00 | |
| SQ9PSP-11 | 2026-09-02 23:43:36 | 49.99906 | 21.20967 | 106° | 55km/h | 8930m | 4.2m/s | 0°C | 0% | 0hPa | 0V | 00:00:00 | 00:00:00 | 00:00:00 | |
| AKAW682 | 2026-09-02 23:43:33 | 49.99921 | 21.20895 | 108° | 77km/h | 8914m | 3.5m/s | 0°C | 0% | 0hPa | 0V | 00:00:00 | 00:00:00 | 00:00:00 | |
| MIELECB | 2026-09-02 23:43:31 | 49.99932 | 21.20838 | 109° | 77km/h | 8904m | 3.5m/s | 0°C | 0% | 0hPa | 0V | 00:00:00 | 00:00:00 | 00:00:00 | |
| AKAW68 | 2026-09-02 23:43:25 | 49.99963 | 21.20678 | 108° | 71km/h | 8869m | 6.6m/s | 0°C | 0% | 0hPa | 0V | 00:00:00 | 00:00:00 | 00:00:00 | |
| SQ9PSP-11 | 2026-09-02 23:43:20 | 49.99982 | 21.20540 | 112° | 71km/h | 8844m | 4.8m/s | 0°C | 0% | 0hPa | 0V | 00:00:00 | 00:00:00 | 00:00:00 | |
| MIELECB | 2026-09-02 23:43:15 | 50.00015 | 21.20410 | 106° | 69km/h | 8819m | 6.6m/s | 0°C | 0% | 0hPa | 0V | 00:00:00 | 00:00:00 | 00:00:00 | |
| AKAW682 | 2026-09-02 23:43:10 | 50.00036 | 21.20285 | 103° | 75km/h | 8787m | 6.1m/s | 0°C | 0% | 0hPa | 0V | 00:00:00 | 00:00:00 | 00:00:00 | |
| SQ9EZE-12 | 2026-09-02 23:43:09 | 50.00040 | 21.20257 | 108° | 71km/h | 8781m | 4.9m/s | 0°C | 0% | 0hPa | 0V | 00:00:00 | 00:00:00 | 00:00:00 | |
| SQ9PSP-11 | 2026-09-02 23:43:05 | 50.00071 | 21.20148 | 114° | 84km/h | 8761m | 3.7m/s | 0°C | 0% | 0hPa | 0V | 00:00:00 | 00:00:00 | 00:00:00 | |
| AKAW68 | 2026-09-02 23:43:04 | 50.00077 | 21.20118 | 108° | 77km/h | 8756m | 5.0m/s | 0°C | 0% | 0hPa | 0V | 00:00:00 | 00:00:00 | 00:00:00 | |
| MIELECB | 2026-09-02 23:43:03 | 50.00082 | 21.20088 | 103° | 82km/h | 8751m | 6.5m/s | 0°C | 0% | 0hPa | 0V | 00:00:00 | 00:00:00 | 00:00:00 | |
| MIELECB | 2026-09-02 23:42:58 | 50.00111 | 21.19965 | 116° | 64km/h | 8724m | 4.2m/s | 0°C | 0% | 0hPa | 0V | 00:00:00 | 00:00:00 | 00:00:00 | |
| SQ9EZE-12 | 2026-09-02 23:42:53 | 50.00145 | 21.19832 | 108° | 84km/h | 8700m | 4.9m/s | 0°C | 0% | 0hPa | 0V | 00:00:00 | 00:00:00 | 00:00:00 | |
| MIELECB | 2026-09-02 23:42:52 | 50.00151 | 21.19803 | 108° | 75km/h | 8696m | 3.1m/s | 0°C | 0% | 0hPa | 0V | 00:00:00 | 00:00:00 | 00:00:00 | |
| SQ9PSP-11 | 2026-09-02 23:42:49 | 50.00171 | 21.19720 | 113° | 75km/h | 8679m | 5.1m/s | 0°C | 0% | 0hPa | 0V | 00:00:00 | 00:00:00 | 00:00:00 | |
| AKAW682 | 2026-09-02 23:42:48 | 50.00177 | 21.19693 | 111° | 75km/h | 8673m | 7.0m/s | 0°C | 0% | 0hPa | 0V | 00:00:00 | 00:00:00 | 00:00:00 | |
| MIELECB | 2026-09-02 23:42:47 | 50.00183 | 21.19666 | 106° | 73km/h | 8666m | 6.9m/s | 0°C | 0% | 0hPa | 0V | 00:00:00 | 00:00:00 | 00:00:00 | |
| AKAW68 | 2026-09-02 23:42:44 | 50.00193 | 21.19587 | 106° | 71km/h | 8648m | 3.8m/s | 0°C | 0% | 0hPa | 0V | 00:00:00 | 00:00:00 | 00:00:00 | |
| MIELECB | 2026-09-02 23:42:41 | 50.00212 | 21.19500 | 112° | 88km/h | 8632m | 3.1m/s | 0°C | 0% | 0hPa | 0V | 00:00:00 | 00:00:00 | 00:00:00 | |
| SQ9EZE-12 | 2026-09-02 23:42:37 | 50.00241 | 21.19380 | 113° | 75km/h | 8612m | 8.1m/s | 0°C | 0% | 0hPa | 0V | 00:00:00 | 00:00:00 | 00:00:00 | |
| MIELECB | 2026-09-02 23:42:35 | 50.00256 | 21.19325 | 113° | 78km/h | 8600m | 8.8m/s | 0°C | 0% | 0hPa | 0V | 00:00:00 | 00:00:00 | 00:00:00 | |
| SQ9PSP-11 | 2026-09-02 23:42:34 | 50.00263 | 21.19296 | 107° | 75km/h | 8594m | 5.1m/s | 0°C | 0% | 0hPa | 0V | 00:00:00 | 00:00:00 | 00:00:00 | |
| MIELECB | 2026-09-02 23:42:29 | 50.00295 | 21.19153 | 117° | 80km/h | 8566m | 4.8m/s | 0°C | 0% | 0hPa | 0V | 00:00:00 | 00:00:00 | 00:00:00 | |
| AKAW682 | 2026-09-02 23:42:28 | 50.00304 | 21.19125 | 116° | 77km/h | 8562m | 5.1m/s | 0°C | 0% | 0hPa | 0V | 00:00:00 | 00:00:00 | 00:00:00 | |
| AKAW68 | 2026-09-02 23:42:23 | 50.00332 | 21.18987 | 108° | 84km/h | 8533m | 6.1m/s | 0°C | 0% | 0hPa | 0V | 00:00:00 | 00:00:00 | 00:00:00 | |
| SQ9EZE-12 | 2026-09-02 23:42:22 | 50.00339 | 21.18956 | 111° | 84km/h | 8528m | 3.8m/s | 0°C | 0% | 0hPa | 0V | 00:00:00 | 00:00:00 | 00:00:00 | |
| SQ9PSP-11 | 2026-09-02 23:42:18 | 50.00361 | 21.18842 | 108° | 75km/h | 8505m | 4.7m/s | 0°C | 0% | 0hPa | 0V | 00:00:00 | 00:00:00 | 00:00:00 | |
| MIELECB | 2026-09-02 23:42:17 | 50.00367 | 21.18814 | 111° | 73km/h | 8498m | 10.1m/s | 0°C | 0% | 0hPa | 0V | 00:00:00 | 00:00:00 | 00:00:00 | |
| MIELECB | 2026-09-02 23:42:13 | 50.00400 | 21.18666 | 111° | 80km/h | 8470m | 5.3m/s | 0°C | 0% | 0hPa | 0V | 00:00:00 | 00:00:00 | 00:00:00 | |
| SQ9EZE-12 | 2026-09-02 23:42:07 | 50.00427 | 21.18506 | 106° | 89km/h | 8446m | 6.1m/s | 0°C | 0% | 0hPa | 0V | 00:00:00 | 00:00:00 | 00:00:00 | |
| MIELECB | 2026-09-02 23:42:06 | 50.00433 | 21.18474 | 106° | 78km/h | 8440m | 5.5m/s | 0°C | 0% | 0hPa | 0V | 00:00:00 | 00:00:00 | 00:00:00 | |
| AKAW68 | 2026-09-02 23:42:03 | 50.00452 | 21.18392 | 116° | 75km/h | 8424m | 4.1m/s | 0°C | 0% | 0hPa | 0V | 00:00:00 | 00:00:00 | 00:00:00 | |
| SQ9PSP-11 | 2026-09-02 23:42:02 | 50.00461 | 21.18364 | 116° | 84km/h | 8420m | 4.3m/s | 0°C | 0% | 0hPa | 0V | 00:00:00 | 00:00:00 | 00:00:00 | |
| MIELECB | 2026-09-02 23:42:01 | 50.00469 | 21.18334 | 115° | 82km/h | 8415m | 5.6m/s | 0°C | 0% | 0hPa | 0V | 00:00:00 | 00:00:00 | 00:00:00 | |
| MIELECB | 2026-09-02 23:41:55 | 50.00510 | 21.18148 | 103° | 86km/h | 8382m | 5.5m/s | 0°C | 0% | 0hPa | 0V | 00:00:00 | 00:00:00 | 00:00:00 | |
| SQ9EZE-12 | 2026-09-02 23:41:51 | 50.00529 | 21.18028 | 108° | 73km/h | 8364m | 6.6m/s | 0°C | 0% | 0hPa | 0V | 00:00:00 | 00:00:00 | 00:00:00 | |
| MIELECB | 2026-09-02 23:41:49 | 50.00540 | 21.17969 | 110° | 86km/h | 8352m | 5.6m/s | 0°C | 0% | 0hPa | 0V | 00:00:00 | 00:00:00 | 00:00:00 | |
| MIELECB | 2026-09-02 23:41:44 | 50.00580 | 21.17811 | 115° | 84km/h | 8325m | 6.8m/s | 0°C | 0% | 0hPa | 0V | 00:00:00 | 00:00:00 | 00:00:00 | |
| AKAW68 | 2026-09-02 23:41:42 | 50.00594 | 21.17751 | 112° | 82km/h | 8315m | 7.4m/s | 0°C | 0% | 0hPa | 0V | 00:00:00 | 00:00:00 | 00:00:00 | |
| MIELECB | 2026-09-02 23:41:38 | 50.00622 | 21.17642 | 120° | 71km/h | 8286m | 3.9m/s | 0°C | 0% | 0hPa | 0V | 00:00:00 | 00:00:00 | 00:00:00 | |
| SQ9EZE-12 | 2026-09-02 23:41:36 | 50.00638 | 21.17593 | 118° | 69km/h | 8275m | 6.1m/s | 0°C | 0% | 0hPa | 0V | 00:00:00 | 00:00:00 | 00:00:00 | |
| MIELECB | 2026-09-02 23:41:32 | 50.00666 | 21.17467 | 108° | 95km/h | 8254m | 3.6m/s | 0°C | 0% | 0hPa | 0V | 00:00:00 | 00:00:00 | 00:00:00 | |
| SQ9PSP-11 | 2026-09-02 23:41:30 | 50.00679 | 21.17399 | 109° | 86km/h | 8245m | 5.3m/s | 0°C | 0% | 0hPa | 0V | 00:00:00 | 00:00:00 | 00:00:00 | |
| AKAW682 | 2026-09-02 23:41:25 | 50.00722 | 21.17253 | 106° | 78km/h | 8216m | 5.2m/s | 0°C | 0% | 0hPa | 0V | 00:00:00 | 00:00:00 | 00:00:00 | |
| AKAW68 | 2026-09-02 23:41:22 | 50.00738 | 21.17161 | 110° | 80km/h | 8198m | 2.1m/s | 0°C | 0% | 0hPa | 0V | 00:00:00 | 00:00:00 | 00:00:00 | |
| MIELECB | 2026-09-02 23:41:20 | 50.00751 | 21.17101 | 106° | 78km/h | 8187m | 5.3m/s | 0°C | 0% | 0hPa | 0V | 00:00:00 | 00:00:00 | 00:00:00 | |
| SQ9PSP-11 | 2026-09-02 23:41:15 | 50.00784 | 21.16956 | 115° | 89km/h | 8155m | 5.9m/s | 0°C | 0% | 0hPa | 0V | 00:00:00 | 00:00:00 | 00:00:00 | |
| MIELECB | 2026-09-02 23:41:14 | 50.00794 | 21.16923 | 116° | 93km/h | 8149m | 3.4m/s | 0°C | 0% | 0hPa | 0V | 00:00:00 | 00:00:00 | 00:00:00 | |
| MIELECB | 2026-09-02 23:41:07 | 50.00845 | 21.16718 | 109° | 82km/h | 8115m | 3.3m/s | 0°C | 0% | 0hPa | 0V | 00:00:00 | 00:00:00 | 00:00:00 | |
| SQ9EZE-12 | 2026-09-02 23:41:04 | 50.00867 | 21.16622 | 111° | 88km/h | 8099m | 3.8m/s | 0°C | 0% | 0hPa | 0V | 00:00:00 | 00:00:00 | 00:00:00 | |
| AKAW68 | 2026-09-02 23:41:02 | 50.00884 | 21.16555 | 114° | 97km/h | 8092m | 6.3m/s | 0°C | 0% | 0hPa | 0V | 00:00:00 | 00:00:00 | 00:00:00 | |
| SQ9PSP-11 | 2026-09-02 23:40:59 | 50.00911 | 21.16453 | 113° | 80km/h | 8078m | 7.0m/s | 0°C | 0% | 0hPa | 0V | 00:00:00 | 00:00:00 | 00:00:00 | |
| MIELECB | 2026-09-02 23:40:56 | 50.00936 | 21.16375 | 117° | 75km/h | 8058m | 7.5m/s | 0°C | 0% | 0hPa | 0V | 00:00:00 | 00:00:00 | 00:00:00 | |
| MIELECB | 2026-09-02 23:40:51 | 50.00972 | 21.16218 | 114° | 93km/h | 8030m | 4.6m/s | 0°C | 0% | 0hPa | 0V | 00:00:00 | 00:00:00 | 00:00:00 | |
| SQ9EZE-12 | 2026-09-02 23:40:45 | 50.01031 | 21.16026 | 108° | 82km/h | 7993m | 5.2m/s | 0°C | 0% | 0hPa | 0V | 00:00:00 | 00:00:00 | 00:00:00 | |
| AKAW682 | 2026-09-02 23:40:43 | 50.01040 | 21.15964 | 102° | 80km/h | 7984m | 5.8m/s | 0°C | 0% | 0hPa | 0V | 00:00:00 | 00:00:00 | 00:00:00 | |
| AKAW68 | 2026-09-02 23:40:41 | 50.01051 | 21.15900 | 109° | 86km/h | 7973m | 3.5m/s | 0°C | 0% | 0hPa | 0V | 00:00:00 | 00:00:00 | 00:00:00 | |
| MIELECB | 2026-09-02 23:40:37 | 50.01094 | 21.15769 | 123° | 93km/h | 7953m | 4.4m/s | 0°C | 0% | 0hPa | 0V | 00:00:00 | 00:00:00 | 00:00:00 | |
| MIELECB | 2026-09-02 23:40:32 | 50.01135 | 21.15593 | 113° | 82km/h | 7921m | 7.3m/s | 0°C | 0% | 0hPa | 0V | 00:00:00 | 00:00:00 | 00:00:00 | |
| SQ9PSP-11 | 2026-09-02 23:40:27 | 50.01173 | 21.15477 | 113° | 77km/h | 7903m | 4.5m/s | 0°C | 0% | 0hPa | 0V | 00:00:00 | 00:00:00 | 00:00:00 | |
| MIELECB | 2026-09-02 23:40:24 | 50.01192 | 21.15383 | 105° | 91km/h | 7886m | 3.9m/s | 0°C | 0% | 0hPa | 0V | 00:00:00 | 00:00:00 | 00:00:00 | |
| AKAW682 | 2026-09-02 23:40:23 | 50.01197 | 21.15348 | 104° | 89km/h | 7883m | 3.5m/s | 0°C | 0% | 0hPa | 0V | 00:00:00 | 00:00:00 | 00:00:00 | |
| SQ9EZE-12 | 2026-09-02 23:40:21 | 50.01207 | 21.15284 | 106° | 75km/h | 7873m | 6.3m/s | 0°C | 0% | 0hPa | 0V | 00:00:00 | 00:00:00 | 00:00:00 | |
| AKAW68 | 2026-09-02 23:40:20 | 50.01213 | 21.15259 | 113° | 64km/h | 7867m | 4.9m/s | 0°C | 0% | 0hPa | 0V | 00:00:00 | 00:00:00 | 00:00:00 | |
| MIELECB | 2026-09-02 23:40:18 | 50.01227 | 21.15218 | 124° | 57km/h | 7859m | 3.2m/s | 0°C | 0% | 0hPa | 0V | 00:00:00 | 00:00:00 | 00:00:00 | |
| MIELECB | 2026-09-02 23:40:12 | 50.01265 | 21.15050 | 108° | 75km/h | 7831m | 3.2m/s | 0°C | 0% | 0hPa | 0V | 00:00:00 | 00:00:00 | 00:00:00 | |
| SQ9PSP-11 | 2026-09-02 23:40:11 | 50.01271 | 21.15023 | 112° | 69km/h | 7826m | 7.0m/s | 0°C | 0% | 0hPa | 0V | 00:00:00 | 00:00:00 | 00:00:00 | |
| MIELECB | 2026-09-02 23:40:06 | 50.01316 | 21.14893 | 115° | 82km/h | 7794m | 8.0m/s | 0°C | 0% | 0hPa | 0V | 00:00:00 | 00:00:00 | 00:00:00 | |
| AKAW682 | 2026-09-02 23:40:02 | 50.01337 | 21.14775 | 104° | 80km/h | 7772m | 3.7m/s | 0°C | 0% | 0hPa | 0V | 00:00:00 | 00:00:00 | 00:00:00 | |
| MIELECB | 2026-09-02 23:40:00 | 50.01347 | 21.14713 | 105° | 80km/h | 7760m | 7.7m/s | 0°C | 0% | 0hPa | 0V | 00:00:00 | 00:00:00 | 00:00:00 | |
| SQ9PSP-11 | 2026-09-02 23:39:56 | 50.01373 | 21.14615 | 116° | 66km/h | 7736m | 8.8m/s | 0°C | 0% | 0hPa | 0V | 00:00:00 | 00:00:00 | 00:00:00 | |
| MIELECB | 2026-09-02 23:39:48 | 50.01419 | 21.14410 | 108° | 77km/h | 7690m | 3.2m/s | 0°C | 0% | 0hPa | 0V | 00:00:00 | 00:00:00 | 00:00:00 | |
| MIELECB | 2026-09-02 23:39:42 | 50.01460 | 21.14255 | 107° | 68km/h | 7656m | 5.2m/s | 0°C | 0% | 0hPa | 0V | 00:00:00 | 00:00:00 | 00:00:00 | |
| SQ9PSP-11 | 2026-09-02 23:39:41 | 50.01464 | 21.14230 | 102° | 62km/h | 7650m | 4.4m/s | 0°C | 0% | 0hPa | 0V | 00:00:00 | 00:00:00 | 00:00:00 | |
| AKAW68 | 2026-09-02 23:39:39 | 50.01470 | 21.14179 | 100° | 66km/h | 7640m | 4.6m/s | 0°C | 0% | 0hPa | 0V | 00:00:00 | 00:00:00 | 00:00:00 | |
| MIELECB | 2026-09-02 23:39:36 | 50.01481 | 21.14110 | 111° | 51km/h | 7625m | 6.5m/s | 0°C | 0% | 0hPa | 0V | 00:00:00 | 00:00:00 | 00:00:00 | |
| MIELECB | 2026-09-02 23:39:30 | 50.01506 | 21.13976 | 100° | 77km/h | 7592m | 3.8m/s | 0°C | 0% | 0hPa | 0V | 00:00:00 | 00:00:00 | 00:00:00 | |
| SQ9PSP-11 | 2026-09-02 23:39:26 | 50.01514 | 21.13880 | 97° | 46km/h | 7570m | 8.2m/s | 0°C | 0% | 0hPa | 0V | 00:00:00 | 00:00:00 | 00:00:00 | |
| MIELECB | 2026-09-02 23:39:25 | 50.01516 | 21.13860 | 105° | 53km/h | 7564m | 4.5m/s | 0°C | 0% | 0hPa | 0V | 00:00:00 | 00:00:00 | 00:00:00 | |
| MIELECB | 2026-09-02 23:39:19 | 50.01540 | 21.13703 | 105° | 66km/h | 7532m | 7.2m/s | 0°C | 0% | 0hPa | 0V | 00:00:00 | 00:00:00 | 00:00:00 | |
| MIELECB | 2026-09-02 23:39:13 | 50.01559 | 21.13574 | 100° | 82km/h | 7498m | 7.2m/s | 0°C | 0% | 0hPa | 0V | 00:00:00 | 00:00:00 | 00:00:00 | |
| SQ9PSP-11 | 2026-09-02 23:39:10 | 50.01568 | 21.13489 | 100° | 57km/h | 7481m | 7.5m/s | 0°C | 0% | 0hPa | 0V | 00:00:00 | 00:00:00 | 00:00:00 | |
| MIELECB | 2026-09-02 23:39:08 | 50.01571 | 21.13451 | 95° | 51km/h | 7469m | 5.5m/s | 0°C | 0% | 0hPa | 0V | 00:00:00 | 00:00:00 | 00:00:00 | |
| MIELECB | 2026-09-02 23:39:02 | 50.01587 | 21.13304 | 92° | 53km/h | 7438m | 4.3m/s | 0°C | 0% | 0hPa | 0V | 00:00:00 | 00:00:00 | 00:00:00 | |
| AKAW682 | 2026-09-02 23:38:59 | 50.01594 | 21.13232 | 109° | 69km/h | 7425m | 4.8m/s | 0°C | 0% | 0hPa | 0V | 00:00:00 | 00:00:00 | 00:00:00 | |
| AKAW68 | 2026-09-02 23:38:58 | 50.01600 | 21.13207 | 116° | 68km/h | 7421m | 3.1m/s | 0°C | 0% | 0hPa | 0V | 00:00:00 | 00:00:00 | 00:00:00 | |
| MIELECB | 2026-09-02 23:38:56 | 50.01614 | 21.13159 | 111° | 69km/h | 7417m | 4.1m/s | 0°C | 0% | 0hPa | 0V | 00:00:00 | 00:00:00 | 00:00:00 | |
| SQ9PSP-11 | 2026-09-02 23:38:55 | 50.01618 | 21.13132 | 100° | 73km/h | 7412m | 6.3m/s | 0°C | 0% | 0hPa | 0V | 00:00:00 | 00:00:00 | 00:00:00 | |
| MIELECB | 2026-09-02 23:38:51 | 50.01616 | 21.13023 | 98° | 58km/h | 7387m | 5.5m/s | 0°C | 0% | 0hPa | 0V | 00:00:00 | 00:00:00 | 00:00:00 | |
| MIELECB | 2026-09-02 23:38:45 | 50.01633 | 21.12867 | 103° | 88km/h | 7358m | 3.6m/s | 0°C | 0% | 0hPa | 0V | 00:00:00 | 00:00:00 | 00:00:00 | |
| MIELECB | 2026-09-02 23:38:40 | 50.01641 | 21.12703 | 83° | 57km/h | 7334m | 3.8m/s | 0°C | 0% | 0hPa | 0V | 00:00:00 | 00:00:00 | 00:00:00 | |
| SQ9PSP-11 | 2026-09-02 23:38:39 | 50.01641 | 21.12682 | 97° | 47km/h | 7330m | 4.3m/s | 0°C | 0% | 0hPa | 0V | 00:00:00 | 00:00:00 | 00:00:00 | |
| AKAW682 | 2026-09-02 23:38:38 | 50.01643 | 21.12662 | 103° | 57km/h | 7325m | 5.5m/s | 0°C | 0% | 0hPa | 0V | 00:00:00 | 00:00:00 | 00:00:00 | |
| AKAW68 | 2026-09-02 23:38:37 | 50.01647 | 21.12637 | 104° | 73km/h | 7318m | 8.3m/s | 0°C | 0% | 0hPa | 0V | 00:00:00 | 00:00:00 | 00:00:00 | |
| MIELECB | 2026-09-02 23:38:34 | 50.01656 | 21.12536 | 94° | 80km/h | 7299m | 4.3m/s | 0°C | 0% | 0hPa | 0V | 00:00:00 | 00:00:00 | 00:00:00 | |
| MIELECB | 2026-09-02 23:38:29 | 50.01656 | 21.12425 | 87° | 60km/h | 7276m | 4.5m/s | 0°C | 0% | 0hPa | 0V | 00:00:00 | 00:00:00 | 00:00:00 | |
| SQ9PSP-11 | 2026-09-02 23:38:24 | 50.01656 | 21.12277 | 94° | 86km/h | 7247m | 4.1m/s | 0°C | 0% | 0hPa | 0V | 00:00:00 | 00:00:00 | 00:00:00 | |
| MIELECB | 2026-09-02 23:38:23 | 50.01657 | 21.12243 | 98° | 86km/h | 7242m | 4.3m/s | 0°C | 0% | 0hPa | 0V | 00:00:00 | 00:00:00 | 00:00:00 | |
| AKAW682 | 2026-09-02 23:38:18 | 50.01677 | 21.12115 | 90° | 49km/h | 7219m | 4.5m/s | 0°C | 0% | 0hPa | 0V | 00:00:00 | 00:00:00 | 00:00:00 | |
| AKAW68 | 2026-09-02 23:38:15 | 50.01668 | 21.12061 | 71° | 51km/h | 7208m | 3.5m/s | 0°C | 0% | 0hPa | 0V | 00:00:00 | 00:00:00 | 00:00:00 | |
| MIELECB | 2026-09-02 23:38:13 | 50.01662 | 21.12014 | 87° | 71km/h | 7196m | 8.3m/s | 0°C | 0% | 0hPa | 0V | 00:00:00 | 00:00:00 | 00:00:00 | |
| SQ9PSP-11 | 2026-09-02 23:38:08 | 50.01676 | 21.11873 | 93° | 57km/h | 7166m | 5.5m/s | 0°C | 0% | 0hPa | 0V | 00:00:00 | 00:00:00 | 00:00:00 | |
| MIELECB | 2026-09-02 23:38:02 | 50.01679 | 21.11728 | 90° | 53km/h | 7135m | 3.8m/s | 0°C | 0% | 0hPa | 0V | 00:00:00 | 00:00:00 | 00:00:00 | |
| AKAW682 | 2026-09-02 23:37:57 | 50.01664 | 21.11608 | 88° | 64km/h | 7110m | 5.8m/s | 0°C | 0% | 0hPa | 0V | 00:00:00 | 00:00:00 | 00:00:00 | |
| MIELECB | 2026-09-02 23:37:55 | 50.01667 | 21.11566 | 108° | 44km/h | 7097m | 5.1m/s | 0°C | 0% | 0hPa | 0V | 00:00:00 | 00:00:00 | 00:00:00 | |
| AKAW68 | 2026-09-02 23:37:54 | 50.01670 | 21.11548 | 103° | 49km/h | 7093m | 4.5m/s | 0°C | 0% | 0hPa | 0V | 00:00:00 | 00:00:00 | 00:00:00 | |
| SQ9PSP-11 | 2026-09-02 23:37:52 | 50.01671 | 21.11503 | 85° | 66km/h | 7083m | 6.3m/s | 0°C | 0% | 0hPa | 0V | 00:00:00 | 00:00:00 | 00:00:00 | |
| MIELECB | 2026-09-02 23:37:50 | 50.01664 | 21.11452 | 73° | 66km/h | 7074m | 3.5m/s | 0°C | 0% | 0hPa | 0V | 00:00:00 | 00:00:00 | 00:00:00 | |
| MIELECB | 2026-09-02 23:37:44 | 50.01660 | 21.11323 | 98° | 55km/h | 7041m | 7.1m/s | 0°C | 0% | 0hPa | 0V | 00:00:00 | 00:00:00 | 00:00:00 | |
| MIELECB | 2026-09-02 23:37:39 | 50.01657 | 21.11220 | 99° | 64km/h | 7015m | 4.5m/s | 0°C | 0% | 0hPa | 0V | 00:00:00 | 00:00:00 | 00:00:00 | |
| SQ9PSP-11 | 2026-09-02 23:37:37 | 50.01662 | 21.11167 | 99° | 71km/h | 7006m | 3.8m/s | 0°C | 0% | 0hPa | 0V | 00:00:00 | 00:00:00 | 00:00:00 | |
| AKAW682 | 2026-09-02 23:37:35 | 50.01669 | 21.11111 | 105° | 71km/h | 6996m | 4.4m/s | 0°C | 0% | 0hPa | 0V | 00:00:00 | 00:00:00 | 00:00:00 | |
| MIELECB | 2026-09-02 23:37:34 | 50.01673 | 21.11084 | 109° | 71km/h | 6992m | 3.7m/s | 0°C | 0% | 0hPa | 0V | 00:00:00 | 00:00:00 | 00:00:00 | |
| AKAW68 | 2026-09-02 23:37:33 | 50.01678 | 21.11057 | 104° | 69km/h | 6987m | 5.6m/s | 0°C | 0% | 0hPa | 0V | 00:00:00 | 00:00:00 | 00:00:00 | |
| MIELECB | 2026-09-02 23:37:28 | 50.01679 | 21.10948 | 99° | 49km/h | 6956m | 3.5m/s | 0°C | 0% | 0hPa | 0V | 00:00:00 | 00:00:00 | 00:00:00 | |
| SQ9PSP-11 | 2026-09-02 23:37:21 | 50.01670 | 21.10783 | 118° | 46km/h | 6919m | 6.1m/s | 0°C | 0% | 0hPa | 0V | 00:00:00 | 00:00:00 | 00:00:00 | |
| MIELECB | 2026-09-02 23:37:16 | 50.01688 | 21.10652 | 85° | 78km/h | 6894m | 4.2m/s | 0°C | 0% | 0hPa | 0V | 00:00:00 | 00:00:00 | 00:00:00 | |
| AKAW682 | 2026-09-02 23:37:15 | 50.01685 | 21.10622 | 82° | 75km/h | 6890m | 3.5m/s | 0°C | 0% | 0hPa | 0V | 00:00:00 | 00:00:00 | 00:00:00 | |
| AKAW68 | 2026-09-02 23:37:13 | 50.01681 | 21.10565 | 92° | 69km/h | 6881m | 5.2m/s | 0°C | 0% | 0hPa | 0V | 00:00:00 | 00:00:00 | 00:00:00 | |
| SQ9PSP-11 | 2026-09-02 23:37:06 | 50.01696 | 21.10392 | 81° | 38km/h | 6835m | 7.0m/s | 0°C | 0% | 0hPa | 0V | 00:00:00 | 00:00:00 | 00:00:00 | |
| MIELECB | 2026-09-02 23:36:54 | 50.01705 | 21.10114 | 80° | 42km/h | 6772m | 7.2m/s | 0°C | 0% | 0hPa | 0V | 00:00:00 | 00:00:00 | 00:00:00 | |
| AKAW682 | 2026-09-02 23:36:53 | 50.01703 | 21.10098 | 81° | 42km/h | 6766m | 5.9m/s | 0°C | 0% | 0hPa | 0V | 00:00:00 | 00:00:00 | 00:00:00 | |
| SQ9PSP-11 | 2026-09-02 23:36:51 | 50.01704 | 21.10066 | 104° | 44km/h | 6753m | 6.8m/s | 0°C | 0% | 0hPa | 0V | 00:00:00 | 00:00:00 | 00:00:00 | |
| AKAW68 | 2026-09-02 23:36:49 | 50.01710 | 21.10027 | 100° | 60km/h | 6739m | 7.4m/s | 0°C | 0% | 0hPa | 0V | 00:00:00 | 00:00:00 | 00:00:00 | |
| MIELECB | 2026-09-02 23:36:46 | 50.01705 | 21.09948 | 74° | 71km/h | 6721m | 5.6m/s | 0°C | 0% | 0hPa | 0V | 00:00:00 | 00:00:00 | 00:00:00 | |
| MIELECB | 2026-09-02 23:36:39 | 50.01714 | 21.09798 | 78° | 57km/h | 6678m | 4.8m/s | 0°C | 0% | 0hPa | 0V | 00:00:00 | 00:00:00 | 00:00:00 | |
| SQ9PSP-11 | 2026-09-02 23:36:35 | 50.01706 | 21.09711 | 97° | 47km/h | 6652m | 4.9m/s | 0°C | 0% | 0hPa | 0V | 00:00:00 | 00:00:00 | 00:00:00 | |
| AKAW682 | 2026-09-02 23:36:32 | 50.01702 | 21.09661 | 74° | 51km/h | 6638m | 7.6m/s | 0°C | 0% | 0hPa | 0V | 00:00:00 | 00:00:00 | 00:00:00 | |
| AKAW68 | 2026-09-02 23:36:28 | 50.01699 | 21.09559 | 103° | 58km/h | 6614m | 3.8m/s | 0°C | 0% | 0hPa | 0V | 00:00:00 | 00:00:00 | 00:00:00 | |
| MIELECB | 2026-09-02 23:36:24 | 50.01710 | 21.09478 | 103° | 60km/h | 6596m | 5.6m/s | 0°C | 0% | 0hPa | 0V | 00:00:00 | 00:00:00 | 00:00:00 | |
| SQ9PSP-11 | 2026-09-02 23:36:20 | 50.01723 | 21.09371 | 97° | 58km/h | 6577m | 5.8m/s | 0°C | 0% | 0hPa | 0V | 00:00:00 | 00:00:00 | 00:00:00 | |
| MIELECB | 2026-09-02 23:36:19 | 50.01722 | 21.09352 | 86° | 46km/h | 6570m | 6.4m/s | 0°C | 0% | 0hPa | 0V | 00:00:00 | 00:00:00 | 00:00:00 | |
| MIELECB | 2026-09-02 23:36:13 | 50.01718 | 21.09199 | 92° | 77km/h | 6539m | 3.0m/s | 0°C | 0% | 0hPa | 0V | 00:00:00 | 00:00:00 | 00:00:00 | |
| AKAW68 | 2026-09-02 23:36:07 | 50.01707 | 21.09035 | 99° | 75km/h | 6504m | 4.4m/s | 0°C | 0% | 0hPa | 0V | 00:00:00 | 00:00:00 | 00:00:00 | |
| SQ9PSP-11 | 2026-09-02 23:36:04 | 50.01714 | 21.08970 | 86° | 46km/h | 6487m | 4.7m/s | 0°C | 0% | 0hPa | 0V | 00:00:00 | 00:00:00 | 00:00:00 | |
| MIELECB | 2026-09-02 23:36:02 | 50.01709 | 21.08924 | 83° | 73km/h | 6478m | 4.8m/s | 0°C | 0% | 0hPa | 0V | 00:00:00 | 00:00:00 | 00:00:00 | |
| MIELECB | 2026-09-02 23:35:56 | 50.01695 | 21.08771 | 76° | 58km/h | 6444m | 5.9m/s | 0°C | 0% | 0hPa | 0V | 00:00:00 | 00:00:00 | 00:00:00 | |
| MIELECB | 2026-09-02 23:35:49 | 50.01715 | 21.08622 | 91° | 64km/h | 6405m | 5.7m/s | 0°C | 0% | 0hPa | 0V | 00:00:00 | 00:00:00 | 00:00:00 | |
| AKAW682 | 2026-09-02 23:35:47 | 50.01710 | 21.08569 | 81° | 68km/h | 6393m | 4.1m/s | 0°C | 0% | 0hPa | 0V | 00:00:00 | 00:00:00 | 00:00:00 | |
| MIELECB | 2026-09-02 23:35:44 | 50.01708 | 21.08503 | 93° | 46km/h | 6378m | 3.8m/s | 0°C | 0% | 0hPa | 0V | 00:00:00 | 00:00:00 | 00:00:00 | |
| MIELECB | 2026-09-02 23:35:38 | 50.01694 | 21.08358 | 90° | 88km/h | 6349m | 5.4m/s | 0°C | 0% | 0hPa | 0V | 00:00:00 | 00:00:00 | 00:00:00 | |
| SQ9PSP-11 | 2026-09-02 23:35:33 | 50.01706 | 21.08236 | 101° | 51km/h | 6318m | 3.1m/s | 0°C | 0% | 0hPa | 0V | 00:00:00 | 00:00:00 | 00:00:00 | |
| MIELECB | 2026-09-02 23:35:32 | 50.01708 | 21.08213 | 102° | 66km/h | 6313m | 7.3m/s | 0°C | 0% | 0hPa | 0V | 00:00:00 | 00:00:00 | 00:00:00 | |
| AKAW682 | 2026-09-02 23:35:27 | 50.01697 | 21.08068 | 105° | 62km/h | 6280m | 5.4m/s | 0°C | 0% | 0hPa | 0V | 00:00:00 | 00:00:00 | 00:00:00 | |
| MIELECB | 2026-09-02 23:35:21 | 50.01702 | 21.07927 | 83° | 75km/h | 6253m | 5.5m/s | 0°C | 0% | 0hPa | 0V | 00:00:00 | 00:00:00 | 00:00:00 | |
| SQ9PSP-11 | 2026-09-02 23:35:17 | 50.01703 | 21.07811 | 97° | 68km/h | 6228m | 5.2m/s | 0°C | 0% | 0hPa | 0V | 00:00:00 | 00:00:00 | 00:00:00 | |
| MIELECB | 2026-09-02 23:35:12 | 50.01719 | 21.07702 | 101° | 73km/h | 6201m | 4.9m/s | 0°C | 0% | 0hPa | 0V | 00:00:00 | 00:00:00 | 00:00:00 | |
| MIELECB | 2026-09-02 23:35:05 | 50.01719 | 21.07538 | 104° | 64km/h | 6165m | 4.8m/s | 0°C | 0% | 0hPa | 0V | 00:00:00 | 00:00:00 | 00:00:00 | |
| SQ9PSP-11 | 2026-09-02 23:35:02 | 50.01721 | 21.07456 | 84° | 78km/h | 6144m | 5.6m/s | 0°C | 0% | 0hPa | 0V | 00:00:00 | 00:00:00 | 00:00:00 | |
| MIELECB | 2026-09-02 23:35:00 | 50.01718 | 21.07395 | 94° | 75km/h | 6134m | 4.3m/s | 0°C | 0% | 0hPa | 0V | 00:00:00 | 00:00:00 | 00:00:00 | |
| MIELECB | 2026-09-02 23:34:54 | 50.01744 | 21.07237 | 84° | 64km/h | 6105m | 8.6m/s | 0°C | 0% | 0hPa | 0V | 00:00:00 | 00:00:00 | 00:00:00 | |
| MIELECB | 2026-09-02 23:34:49 | 50.01734 | 21.07132 | 93° | 53km/h | 6071m | 6.4m/s | 0°C | 0% | 0hPa | 0V | 00:00:00 | 00:00:00 | 00:00:00 | |
| SQ9PSP-11 | 2026-09-02 23:34:47 | 50.01736 | 21.07085 | 99° | 69km/h | 6054m | 8.3m/s | 0°C | 0% | 0hPa | 0V | 00:00:00 | 00:00:00 | 00:00:00 | |
| AKAW682 | 2026-09-02 23:34:44 | 50.01744 | 21.06987 | 100° | 80km/h | 6038m | 2.4m/s | 0°C | 0% | 0hPa | 0V | 00:00:00 | 00:00:00 | 00:00:00 | |
| MIELECB | 2026-09-02 23:34:43 | 50.01747 | 21.06959 | 99° | 68km/h | 6034m | 4.3m/s | 0°C | 0% | 0hPa | 0V | 00:00:00 | 00:00:00 | 00:00:00 | |
| MIELECB | 2026-09-02 23:34:38 | 50.01751 | 21.06849 | 99° | 66km/h | 6006m | 6.6m/s | 0°C | 0% | 0hPa | 0V | 00:00:00 | 00:00:00 | 00:00:00 | |
| MIELECB | 2026-09-02 23:34:33 | 50.01778 | 21.06697 | 85° | 71km/h | 5977m | 5.7m/s | 0°C | 0% | 0hPa | 0V | 00:00:00 | 00:00:00 | 00:00:00 | |
| SQ9PSP-11 | 2026-09-02 23:34:31 | 50.01775 | 21.06670 | 74° | 64km/h | 5972m | 4.2m/s | 0°C | 0% | 0hPa | 0V | 00:00:00 | 00:00:00 | 00:00:00 | |
| MIELECB | 2026-09-02 23:34:27 | 50.01777 | 21.06580 | 115° | 78km/h | 5953m | 2.7m/s | 0°C | 0% | 0hPa | 0V | 00:00:00 | 00:00:00 | 00:00:00 | |
| AKAW682 | 2026-09-02 23:34:22 | 50.01782 | 21.06444 | 79° | 49km/h | 5926m | 6.7m/s | 0°C | 0% | 0hPa | 0V | 00:00:00 | 00:00:00 | 00:00:00 | |
| MIELECB | 2026-09-02 23:34:21 | 50.01781 | 21.06427 | 98° | 40km/h | 5920m | 3.6m/s | 0°C | 0% | 0hPa | 0V | 00:00:00 | 00:00:00 | 00:00:00 | |
| AKAW68 | 2026-09-02 23:34:18 | 50.01794 | 21.06368 | 109° | 69km/h | 5905m | 4.4m/s | 0°C | 0% | 0hPa | 0V | 00:00:00 | 00:00:00 | 00:00:00 | |
| SQ9PSP-11 | 2026-09-02 23:34:16 | 50.01798 | 21.06308 | 95° | 78km/h | 5894m | 4.2m/s | 0°C | 0% | 0hPa | 0V | 00:00:00 | 00:00:00 | 00:00:00 | |
| SQ9PSP-11 | 2026-09-02 23:34:01 | 50.01830 | 21.05975 | 82° | 71km/h | 5819m | 3.9m/s | 0°C | 0% | 0hPa | 0V | 00:00:00 | 00:00:00 | 00:00:00 | |
| AKAW682 | 2026-09-02 23:34:00 | 50.01827 | 21.05951 | 84° | 57km/h | 5814m | 7.8m/s | 0°C | 0% | 0hPa | 0V | 00:00:00 | 00:00:00 | 00:00:00 | |
| AKAW68 | 2026-09-02 23:33:58 | 50.01830 | 21.05910 | 109° | 47km/h | 5797m | 8.3m/s | 0°C | 0% | 0hPa | 0V | 00:00:00 | 00:00:00 | 00:00:00 | |
| MIELECB | 2026-09-02 23:33:55 | 50.01848 | 21.05847 | 115° | 68km/h | 5777m | 5.5m/s | 0°C | 0% | 0hPa | 0V | 00:00:00 | 00:00:00 | 00:00:00 | |
| SQ9EZE-12 | 2026-09-02 23:33:46 | 50.01870 | 21.05664 | 112° | 44km/h | 5727m | 2.4m/s | 0°C | 0% | 0hPa | 0V | 00:00:00 | 00:00:00 | 00:00:00 | |
| SQ9PSP-11 | 2026-09-02 23:33:45 | 50.01875 | 21.05649 | 119° | 46km/h | 5723m | 4.1m/s | 0°C | 0% | 0hPa | 0V | 00:00:00 | 00:00:00 | 00:00:00 | |
| MIELECB | 2026-09-02 23:33:44 | 50.01881 | 21.05631 | 114° | 53km/h | 5719m | 5.0m/s | 0°C | 0% | 0hPa | 0V | 00:00:00 | 00:00:00 | 00:00:00 | |
| MIELECB | 2026-09-02 23:33:39 | 50.01892 | 21.05530 | 95° | 37km/h | 5687m | 6.5m/s | 0°C | 0% | 0hPa | 0V | 00:00:00 | 00:00:00 | 00:00:00 | |
| AKAW682 | 2026-09-02 23:33:37 | 50.01900 | 21.05501 | 119° | 42km/h | 5678m | 4.5m/s | 0°C | 0% | 0hPa | 0V | 00:00:00 | 00:00:00 | 00:00:00 | |
| MIELECB | 2026-09-02 23:33:31 | 50.01914 | 21.05365 | 104° | 66km/h | 5637m | 2.3m/s | 0°C | 0% | 0hPa | 0V | 00:00:00 | 00:00:00 | 00:00:00 | |
| SQ9PSP-11 | 2026-09-02 23:33:29 | 50.01924 | 21.05323 | 116° | 51km/h | 5629m | 3.6m/s | 0°C | 0% | 0hPa | 0V | 00:00:00 | 00:00:00 | 00:00:00 | |
| MIELECB | 2026-09-02 23:33:24 | 50.01925 | 21.05206 | 89° | 68km/h | 5605m | 1.8m/s | 0°C | 0% | 0hPa | 0V | 00:00:00 | 00:00:00 | 00:00:00 | |
| AKAW682 | 2026-09-02 23:33:17 | 50.01936 | 21.05046 | 85° | 49km/h | 5571m | 3.7m/s | 0°C | 0% | 0hPa | 0V | 00:00:00 | 00:00:00 | 00:00:00 | |
| SQ9PSP-11 | 2026-09-02 23:33:14 | 50.01941 | 21.04984 | 112° | 55km/h | 5556m | 2.9m/s | 0°C | 0% | 0hPa | 0V | 00:00:00 | 00:00:00 | 00:00:00 | |
| AKAW68 | 2026-09-02 23:33:03 | 50.01953 | 21.04776 | 90° | 51km/h | 5502m | 8.3m/s | 0°C | 0% | 0hPa | 0V | 00:00:00 | 00:00:00 | 00:00:00 | |
| SQ9PSP-11 | 2026-09-02 23:32:59 | 50.01948 | 21.04693 | 92° | 40km/h | 5465m | 6.3m/s | 0°C | 0% | 0hPa | 0V | 00:00:00 | 00:00:00 | 00:00:00 | |
| AKAW682 | 2026-09-02 23:32:54 | 50.01958 | 21.04604 | 97° | 66km/h | 5435m | 5.5m/s | 0°C | 0% | 0hPa | 0V | 00:00:00 | 00:00:00 | 00:00:00 | |
| SQ9EZE-12 | 2026-09-02 23:32:45 | 50.01979 | 21.04424 | 111° | 73km/h | 5386m | 2.0m/s | 0°C | 0% | 0hPa | 0V | 00:00:00 | 00:00:00 | 00:00:00 | |
| SQ9PSP-11 | 2026-09-02 23:32:43 | 50.01991 | 21.04375 | 108° | 55km/h | 5379m | 5.9m/s | 0°C | 0% | 0hPa | 0V | 00:00:00 | 00:00:00 | 00:00:00 | |
| AKAW68 | 2026-09-02 23:32:39 | 50.02003 | 21.04311 | 98° | 46km/h | 5350m | 7.8m/s | 0°C | 0% | 0hPa | 0V | 00:00:00 | 00:00:00 | 00:00:00 | |
| MIELECB | 2026-09-02 23:32:35 | 50.02003 | 21.04221 | 93° | 58km/h | 5327m | 6.6m/s | 0°C | 0% | 0hPa | 0V | 00:00:00 | 00:00:00 | 00:00:00 | |
| AKAW682 | 2026-09-02 23:32:34 | 50.02005 | 21.04199 | 105° | 53km/h | 5319m | 8.0m/s | 0°C | 0% | 0hPa | 0V | 00:00:00 | 00:00:00 | 00:00:00 | |
| MIELECB | 2026-09-02 23:32:30 | 50.02020 | 21.04121 | 93° | 49km/h | 5294m | 4.6m/s | 0°C | 0% | 0hPa | 0V | 00:00:00 | 00:00:00 | 00:00:00 | |
| SQ9EZE-12 | 2026-09-02 23:32:29 | 50.02021 | 21.04103 | 99° | 49km/h | 5289m | 5.1m/s | 0°C | 0% | 0hPa | 0V | 00:00:00 | 00:00:00 | 00:00:00 | |
| SQ9PSP-11 | 2026-09-02 23:32:27 | 50.02031 | 21.04058 | 114° | 66km/h | 5281m | 2.9m/s | 0°C | 0% | 0hPa | 0V | 00:00:00 | 00:00:00 | 00:00:00 | |
| MIELECB | 2026-09-02 23:32:24 | 50.02038 | 21.03987 | 82° | 57km/h | 5268m | 4.8m/s | 0°C | 0% | 0hPa | 0V | 00:00:00 | 00:00:00 | 00:00:00 | |
| AKAW68 | 2026-09-02 23:32:20 | 50.02048 | 21.03906 | 103° | 44km/h | 5248m | 7.9m/s | 0°C | 0% | 0hPa | 0V | 00:00:00 | 00:00:00 | 00:00:00 | |
| SQ9PSP-11 | 2026-09-02 23:32:11 | 50.02062 | 21.03726 | 114° | 49km/h | 5201m | 5.9m/s | 0°C | 0% | 0hPa | 0V | 00:00:00 | 00:00:00 | 00:00:00 | |
| AKAW682 | 2026-09-02 23:32:09 | 50.02075 | 21.03687 | 116° | 58km/h | 5189m | 3.9m/s | 0°C | 0% | 0hPa | 0V | 00:00:00 | 00:00:00 | 00:00:00 | |
| SQ9EZE-12 | 2026-09-02 23:32:03 | 50.02092 | 21.03572 | 113° | 46km/h | 5159m | 5.0m/s | 0°C | 0% | 0hPa | 0V | 00:00:00 | 00:00:00 | 00:00:00 | |
| AKAW68 | 2026-09-02 23:31:58 | 50.02109 | 21.03469 | 114° | 64km/h | 5143m | 3.7m/s | 0°C | 0% | 0hPa | 0V | 00:00:00 | 00:00:00 | 00:00:00 | |
| SQ9PSP-11 | 2026-09-02 23:31:56 | 50.02121 | 21.03425 | 113° | 57km/h | 5138m | 3.9m/s | 0°C | 0% | 0hPa | 0V | 00:00:00 | 00:00:00 | 00:00:00 | |
| AKAW682 | 2026-09-02 23:31:48 | 50.02150 | 21.03299 | 95° | 58km/h | 5100m | 7.7m/s | 0°C | 0% | 0hPa | 0V | 00:00:00 | 00:00:00 | 00:00:00 | |
| SQ9PSP-11 | 2026-09-02 23:31:40 | 50.02142 | 21.03132 | 84° | 33km/h | 5060m | 5.3m/s | 0°C | 0% | 0hPa | 0V | 00:00:00 | 00:00:00 | 00:00:00 | |
| AKAW68 | 2026-09-02 23:31:37 | 50.02146 | 21.03088 | 106° | 49km/h | 5042m | 8.1m/s | 0°C | 0% | 0hPa | 0V | 00:00:00 | 00:00:00 | 00:00:00 | |
| SQ9EZE-12 | 2026-09-02 23:31:27 | 50.02167 | 21.02904 | 86° | 40km/h | 4984m | 4.4m/s | 0°C | 0% | 0hPa | 0V | 00:00:00 | 00:00:00 | 00:00:00 | |
| SQ9PSP-11 | 2026-09-02 23:31:25 | 50.02166 | 21.02869 | 94° | 55km/h | 4978m | 5.0m/s | 0°C | 0% | 0hPa | 0V | 00:00:00 | 00:00:00 | 00:00:00 | |
| MIELECB | 2026-09-02 23:31:22 | 50.02180 | 21.02803 | 115° | 62km/h | 4962m | 2.3m/s | 0°C | 0% | 0hPa | 0V | 00:00:00 | 00:00:00 | 00:00:00 | |
| AKAW68 | 2026-09-02 23:31:17 | 50.02191 | 21.02713 | 76° | 38km/h | 4936m | 5.3m/s | 0°C | 0% | 0hPa | 0V | 00:00:00 | 00:00:00 | 00:00:00 | |
| MIELECB | 2026-09-02 23:31:15 | 50.02191 | 21.02687 | 108° | 40km/h | 4924m | 5.3m/s | 0°C | 0% | 0hPa | 0V | 00:00:00 | 00:00:00 | 00:00:00 | |
| SQ9EZE-12 | 2026-09-02 23:31:10 | 50.02201 | 21.02592 | 86° | 46km/h | 4894m | 6.2m/s | 0°C | 0% | 0hPa | 0V | 00:00:00 | 00:00:00 | 00:00:00 | |
| AKAW682 | 2026-09-02 23:31:09 | 50.02201 | 21.02577 | 98° | 35km/h | 4888m | 3.7m/s | 0°C | 0% | 0hPa | 0V | 00:00:00 | 00:00:00 | 00:00:00 | |
| MIELECB | 2026-09-02 23:31:08 | 50.02202 | 21.02566 | 102° | 29km/h | 4884m | 4.3m/s | 0°C | 0% | 0hPa | 0V | 00:00:00 | 00:00:00 | 00:00:00 | |
| AKAW68 | 2026-09-02 23:30:57 | 50.02211 | 21.02373 | 98° | 37km/h | 4830m | 3.9m/s | 0°C | 0% | 0hPa | 0V | 00:00:00 | 00:00:00 | 00:00:00 | |
| MIELECB | 2026-09-02 23:30:56 | 50.02210 | 21.02359 | 83° | 37km/h | 4827m | 4.1m/s | 0°C | 0% | 0hPa | 0V | 00:00:00 | 00:00:00 | 00:00:00 | |
| SQ9PSP-11 | 2026-09-02 23:30:54 | 50.02212 | 21.02333 | 111° | 31km/h | 4814m | 6.0m/s | 0°C | 0% | 0hPa | 0V | 00:00:00 | 00:00:00 | 00:00:00 | |
| AKAW682 | 2026-09-02 23:30:43 | 50.02223 | 21.02149 | 101° | 40km/h | 4753m | 4.6m/s | 0°C | 0% | 0hPa | 0V | 00:00:00 | 00:00:00 | 00:00:00 | |
| SQ9EZE-12 | 2026-09-02 23:30:41 | 50.02221 | 21.02118 | 83° | 37km/h | 4745m | 3.1m/s | 0°C | 0% | 0hPa | 0V | 00:00:00 | 00:00:00 | 00:00:00 | |
| SQ9PSP-11 | 2026-09-02 23:30:38 | 50.02223 | 21.02080 | 110° | 26km/h | 4732m | 5.6m/s | 0°C | 0% | 0hPa | 0V | 00:00:00 | 00:00:00 | 00:00:00 | |
| AKAW68 | 2026-09-02 23:30:37 | 50.02226 | 21.02069 | 121° | 31km/h | 4728m | 3.5m/s | 0°C | 0% | 0hPa | 0V | 00:00:00 | 00:00:00 | 00:00:00 | |
| SQ9PSP-11 | 2026-09-02 23:30:23 | 50.02231 | 21.01794 | 69° | 53km/h | 4662m | 5.3m/s | 0°C | 0% | 0hPa | 0V | 00:00:00 | 00:00:00 | 00:00:00 | |
| SQ9EZE-12 | 2026-09-02 23:30:19 | 50.02231 | 21.01742 | 117° | 42km/h | 4640m | 4.3m/s | 0°C | 0% | 0hPa | 0V | 00:00:00 | 00:00:00 | 00:00:00 | |
| AKAW68 | 2026-09-02 23:30:17 | 50.02242 | 21.01676 | 90° | 68km/h | 4626m | 4.8m/s | 0°C | 0% | 0hPa | 0V | 00:00:00 | 00:00:00 | 00:00:00 | |
| SQ9PSP-11 | 2026-09-02 23:30:07 | 50.02236 | 21.01513 | 83° | 57km/h | 4577m | 2.9m/s | 0°C | 0% | 0hPa | 0V | 00:00:00 | 00:00:00 | 00:00:00 | |
| SQ9PSP-11 | 2026-09-02 23:29:52 | 50.02236 | 21.01260 | 123° | 40km/h | 4504m | 5.3m/s | 0°C | 0% | 0hPa | 0V | 00:00:00 | 00:00:00 | 00:00:00 | |
| SQ9PSP-11 | 2026-09-02 23:29:37 | 50.02242 | 21.01013 | 105° | 35km/h | 4428m | 5.0m/s | 0°C | 0% | 0hPa | 0V | 00:00:00 | 00:00:00 | 00:00:00 | |
| SQ9EZE-12 | 2026-09-02 23:29:36 | 50.02245 | 21.00999 | 110° | 38km/h | 4424m | 3.0m/s | 0°C | 0% | 0hPa | 0V | 00:00:00 | 00:00:00 | 00:00:00 | |
| AKAW68 | 2026-09-02 23:29:35 | 50.02248 | 21.00985 | 112° | 44km/h | 4421m | 4.0m/s | 0°C | 0% | 0hPa | 0V | 00:00:00 | 00:00:00 | 00:00:00 | |
| MIELECB | 2026-09-02 23:29:34 | 50.02253 | 21.00968 | 116° | 49km/h | 4416m | 4.0m/s | 0°C | 0% | 0hPa | 0V | 00:00:00 | 00:00:00 | 00:00:00 | |
| SQ9PSP-11 | 2026-09-02 23:29:21 | 50.02262 | 21.00730 | 95° | 60km/h | 4361m | 5.1m/s | 0°C | 0% | 0hPa | 0V | 00:00:00 | 00:00:00 | 00:00:00 | |
| AKAW68 | 2026-09-02 23:29:14 | 50.02272 | 21.00583 | 118° | 38km/h | 4333m | 2.7m/s | 0°C | 0% | 0hPa | 0V | 00:00:00 | 00:00:00 | 00:00:00 | |
| MIELECB | 2026-09-02 23:29:10 | 50.02267 | 21.00540 | 65° | 38km/h | 4315m | 3.2m/s | 0°C | 0% | 0hPa | 0V | 00:00:00 | 00:00:00 | 00:00:00 | |
| SQ9EZE-12 | 2026-09-02 23:29:08 | 50.02266 | 21.00504 | 103° | 55km/h | 4308m | 4.8m/s | 0°C | 0% | 0hPa | 0V | 00:00:00 | 00:00:00 | 00:00:00 | |
| SQ9PSP-11 | 2026-09-02 23:29:06 | 50.02273 | 21.00467 | 109° | 38km/h | 4300m | 3.3m/s | 0°C | 0% | 0hPa | 0V | 00:00:00 | 00:00:00 | 00:00:00 | |
| AKAW68 | 2026-09-02 23:28:53 | 50.02263 | 21.00260 | 102° | 27km/h | 4249m | 3.0m/s | 0°C | 0% | 0hPa | 0V | 00:00:00 | 00:00:00 | 00:00:00 | |
| SQ9PSP-11 | 2026-09-02 23:28:50 | 50.02264 | 21.00234 | 76° | 31km/h | 4242m | 4.7m/s | 0°C | 0% | 0hPa | 0V | 00:00:00 | 00:00:00 | 00:00:00 | |
| SQ9PSP-11 | 2026-09-02 23:28:35 | 50.02255 | 21.00003 | 86° | 47km/h | 4186m | 2.6m/s | 0°C | 0% | 0hPa | 0V | 00:00:00 | 00:00:00 | 00:00:00 | |
| AKAW68 | 2026-09-02 23:28:33 | 50.02253 | 20.99965 | 88° | 53km/h | 4178m | 3.8m/s | 0°C | 0% | 0hPa | 0V | 00:00:00 | 00:00:00 | 00:00:00 | |
| SQ9PSP-11 | 2026-09-02 23:28:20 | 50.02255 | 20.99745 | 99° | 57km/h | 4126m | 3.5m/s | 0°C | 0% | 0hPa | 0V | 00:00:00 | 00:00:00 | 00:00:00 | |
| MIELECB | 2026-09-02 23:28:08 | 50.02268 | 20.99563 | 110° | 57km/h | 4072m | 1.4m/s | 0°C | 0% | 0hPa | 0V | 00:00:00 | 00:00:00 | 00:00:00 | |
| AKAW68 | 2026-09-02 23:28:07 | 50.02272 | 20.99543 | 110° | 51km/h | 4069m | 3.2m/s | 0°C | 0% | 0hPa | 0V | 00:00:00 | 00:00:00 | 00:00:00 | |
| SQ9PSP-11 | 2026-09-02 23:28:04 | 50.02279 | 20.99506 | 99° | 22km/h | 4052m | 5.7m/s | 0°C | 0% | 0hPa | 0V | 00:00:00 | 00:00:00 | 00:00:00 | |
| MIELECB | 2026-09-02 23:28:02 | 50.02275 | 20.99484 | 72° | 35km/h | 4042m | 4.0m/s | 0°C | 0% | 0hPa | 0V | 00:00:00 | 00:00:00 | 00:00:00 | |
| MIELECB | 2026-09-02 23:27:57 | 50.02258 | 20.99399 | 90° | 47km/h | 4025m | 4.0m/s | 0°C | 0% | 0hPa | 0V | 00:00:00 | 00:00:00 | 00:00:00 | |
| SQ9PSP-11 | 2026-09-02 23:27:49 | 50.02283 | 20.99275 | 112° | 31km/h | 3989m | 6.1m/s | 0°C | 0% | 0hPa | 0V | 00:00:00 | 00:00:00 | 00:00:00 | |
| AKAW68 | 2026-09-02 23:27:47 | 50.02290 | 20.99261 | 122° | 15km/h | 3981m | 3.4m/s | 0°C | 0% | 0hPa | 0V | 00:00:00 | 00:00:00 | 00:00:00 | |
| MIELECB | 2026-09-02 23:27:42 | 50.02282 | 20.99192 | 72° | 47km/h | 3958m | 4.3m/s | 0°C | 0% | 0hPa | 0V | 00:00:00 | 00:00:00 | 00:00:00 | |
| MIELECB | 2026-09-02 23:27:37 | 50.02293 | 20.99105 | 104° | 51km/h | 3928m | 5.6m/s | 0°C | 0% | 0hPa | 0V | 00:00:00 | 00:00:00 | 00:00:00 | |
| SQ9EZE-12 | 2026-09-02 23:27:33 | 50.02294 | 20.99026 | 73° | 38km/h | 3911m | 3.9m/s | 0°C | 0% | 0hPa | 0V | 00:00:00 | 00:00:00 | 00:00:00 | |
| MIELECB | 2026-09-02 23:27:31 | 50.02290 | 20.99003 | 77° | 24km/h | 3904m | 4.6m/s | 0°C | 0% | 0hPa | 0V | 00:00:00 | 00:00:00 | 00:00:00 | |
| AKAW68 | 2026-09-02 23:27:25 | 50.02312 | 20.98932 | 113° | 57km/h | 3876m | 3.4m/s | 0°C | 0% | 0hPa | 0V | 00:00:00 | 00:00:00 | 00:00:00 | |
| MIELECB | 2026-09-02 23:27:10 | 50.02323 | 20.98700 | 58° | 37km/h | 3808m | 5.5m/s | 0°C | 0% | 0hPa | 0V | 00:00:00 | 00:00:00 | 00:00:00 | |
| MIELECB | 2026-09-02 23:27:04 | 50.02327 | 20.98629 | 133° | 29km/h | 3774m | 7.2m/s | 0°C | 0% | 0hPa | 0V | 00:00:00 | 00:00:00 | 00:00:00 | |
| SQ9PSP-11 | 2026-09-02 23:27:02 | 50.02334 | 20.98610 | 112° | 33km/h | 3764m | 5.1m/s | 0°C | 0% | 0hPa | 0V | 00:00:00 | 00:00:00 | 00:00:00 | |
| MIELECB | 2026-09-02 23:26:42 | 50.02381 | 20.98364 | 84° | 24km/h | 3656m | 4.9m/s | 0°C | 0% | 0hPa | 0V | 00:00:00 | 00:00:00 | 00:00:00 | |
| MIELECB | 2026-09-02 23:26:37 | 50.02387 | 20.98307 | 124° | 47km/h | 3633m | 3.0m/s | 0°C | 0% | 0hPa | 0V | 00:00:00 | 00:00:00 | 00:00:00 | |
| SQ9PSP-11 | 2026-09-02 23:26:31 | 50.02408 | 20.98247 | 82° | 33km/h | 3608m | 5.6m/s | 0°C | 0% | 0hPa | 0V | 00:00:00 | 00:00:00 | 00:00:00 | |
| MIELECB | 2026-09-02 23:26:24 | 50.02416 | 20.98156 | 127° | 46km/h | 3571m | 3.0m/s | 0°C | 0% | 0hPa | 0V | 00:00:00 | 00:00:00 | 00:00:00 | |
| AKAW68 | 2026-09-02 23:26:20 | 50.02435 | 20.98108 | 112° | 27km/h | 3552m | 7.8m/s | 0°C | 0% | 0hPa | 0V | 00:00:00 | 00:00:00 | 00:00:00 | |
| SQ9PSP-11 | 2026-09-02 23:26:15 | 50.02431 | 20.98038 | 78° | 37km/h | 3520m | 5.4m/s | 0°C | 0% | 0hPa | 0V | 00:00:00 | 00:00:00 | 00:00:00 | |
| SQ9EZE-12 | 2026-09-02 23:26:02 | 50.02446 | 20.97908 | 144° | 29km/h | 3453m | 5.3m/s | 0°C | 0% | 0hPa | 0V | 00:00:00 | 00:00:00 | 00:00:00 | |
| SQ9PSP-11 | 2026-09-02 23:26:00 | 50.02458 | 20.97887 | 127° | 37km/h | 3444m | 2.5m/s | 0°C | 0% | 0hPa | 0V | 00:00:00 | 00:00:00 | 00:00:00 | |
| AKAW68 | 2026-09-02 23:25:56 | 50.02470 | 20.97842 | 92° | 20km/h | 3423m | 5.8m/s | 0°C | 0% | 0hPa | 0V | 00:00:00 | 00:00:00 | 00:00:00 | |
| SQ9PSP-11 | 2026-09-02 23:25:45 | 50.02482 | 20.97732 | 143° | 11km/h | 3371m | 3.0m/s | 0°C | 0% | 0hPa | 0V | 00:00:00 | 00:00:00 | 00:00:00 | |
| AKAW68 | 2026-09-02 23:25:35 | 50.02496 | 20.97626 | 121° | 33km/h | 3329m | 1.5m/s | 0°C | 0% | 0hPa | 0V | 00:00:00 | 00:00:00 | 00:00:00 | |
| SQ9PSP-11 | 2026-09-02 23:25:29 | 50.02512 | 20.97566 | 44° | 29km/h | 3300m | 5.6m/s | 0°C | 0% | 0hPa | 0V | 00:00:00 | 00:00:00 | 00:00:00 | |
| SQ9EZE-12 | 2026-09-02 23:25:20 | 50.02515 | 20.97472 | 95° | 46km/h | 3252m | 4.4m/s | 0°C | 0% | 0hPa | 0V | 00:00:00 | 00:00:00 | 00:00:00 | |
| SQ9PSP-11 | 2026-09-02 23:25:14 | 50.02518 | 20.97392 | 64° | 24km/h | 3222m | 5.0m/s | 0°C | 0% | 0hPa | 0V | 00:00:00 | 00:00:00 | 00:00:00 | |
| AKAW68 | 2026-09-02 23:25:04 | 50.02530 | 20.97262 | 88° | 29km/h | 3171m | 6.9m/s | 0°C | 0% | 0hPa | 0V | 00:00:00 | 00:00:00 | 00:00:00 | |
| SQ9EZE-12 | 2026-09-02 23:25:02 | 50.02527 | 20.97247 | 77° | 18km/h | 3160m | 3.7m/s | 0°C | 0% | 0hPa | 0V | 00:00:00 | 00:00:00 | 00:00:00 | |
| SQ9PSP-11 | 2026-09-02 23:24:59 | 50.02518 | 20.97216 | 70° | 35km/h | 3148m | 4.4m/s | 0°C | 0% | 0hPa | 0V | 00:00:00 | 00:00:00 | 00:00:00 | |
| SQ9PSP-11 | 2026-09-02 23:24:44 | 50.02526 | 20.97058 | 96° | 38km/h | 3076m | 5.3m/s | 0°C | 0% | 0hPa | 0V | 00:00:00 | 00:00:00 | 00:00:00 | |
| AKAW68 | 2026-09-02 23:24:39 | 50.02518 | 20.96994 | 103° | 31km/h | 3047m | 7.8m/s | 0°C | 0% | 0hPa | 0V | 00:00:00 | 00:00:00 | 00:00:00 | |
| SQ9PSP-11 | 2026-09-02 23:24:28 | 50.02532 | 20.96838 | 87° | 11km/h | 2995m | 2.4m/s | 0°C | 0% | 0hPa | 0V | 00:00:00 | 00:00:00 | 00:00:00 | |
| SQ9PSP-11 | 2026-09-02 23:24:13 | 50.02555 | 20.96680 | 105° | 16km/h | 2921m | 4.4m/s | 0°C | 0% | 0hPa | 0V | 00:00:00 | 00:00:00 | 00:00:00 | |
| SQ9PSP-11 | 2026-09-02 23:23:49 | 50.02535 | 20.96406 | 92° | 46km/h | 2806m | 3.1m/s | 0°C | 0% | 0hPa | 0V | 00:00:00 | 00:00:00 | 00:00:00 | |
| SQ9PSP-11 | 2026-09-02 23:23:33 | 50.02529 | 20.96207 | 95° | 42km/h | 2726m | 4.8m/s | 0°C | 0% | 0hPa | 0V | 00:00:00 | 00:00:00 | 00:00:00 | |
| SQ9EZE-12 | 2026-09-02 23:23:18 | 50.02516 | 20.96015 | 65° | 37km/h | 2654m | 2.6m/s | 0°C | 0% | 0hPa | 0V | 00:00:00 | 00:00:00 | 00:00:00 | |
| SQ9PSP-11 | 2026-09-02 23:23:16 | 50.02510 | 20.95989 | 93° | 35km/h | 2644m | 6.3m/s | 0°C | 0% | 0hPa | 0V | 00:00:00 | 00:00:00 | 00:00:00 | |
| SQ9PSP-11 | 2026-09-02 23:23:00 | 50.02548 | 20.95780 | 119° | 37km/h | 2552m | 5.7m/s | 0°C | 0% | 0hPa | 0V | 00:00:00 | 00:00:00 | 00:00:00 | |
| SQ9PSP-11 | 2026-09-02 23:22:45 | 50.02580 | 20.95619 | 149° | 26km/h | 2472m | 2.5m/s | 0°C | 0% | 0hPa | 0V | 00:00:00 | 00:00:00 | 00:00:00 | |
| SQ9EZE-12 | 2026-09-02 23:22:32 | 50.02623 | 20.95479 | 143° | 42km/h | 2400m | 4.2m/s | 0°C | 0% | 0hPa | 0V | 00:00:00 | 00:00:00 | 00:00:00 | |
| SQ9PSP-11 | 2026-09-02 23:22:27 | 50.02649 | 20.95449 | 119° | 16km/h | 2382m | 3.3m/s | 0°C | 0% | 0hPa | 0V | 00:00:00 | 00:00:00 | 00:00:00 | |
| SQ9PSP-11 | 2026-09-02 23:22:12 | 50.02688 | 20.95289 | 112° | 40km/h | 2313m | 2.9m/s | 0°C | 0% | 0hPa | 0V | 00:00:00 | 00:00:00 | 00:00:00 | |
| SQ9PSP-11 | 2026-09-02 23:21:54 | 50.02747 | 20.95110 | 120° | 42km/h | 2222m | 1.8m/s | 0°C | 0% | 0hPa | 0V | 00:00:00 | 00:00:00 | 00:00:00 | |
| SQ9PSP-11 | 2026-09-02 23:21:39 | 50.02797 | 20.94934 | 83° | 18km/h | 2143m | 2.9m/s | 0°C | 0% | 0hPa | 0V | 00:00:00 | 00:00:00 | 00:00:00 | |
| SQ9PSP-11 | 2026-09-02 23:21:23 | 50.02800 | 20.94780 | 105° | 38km/h | 2071m | 4.2m/s | 0°C | 0% | 0hPa | 0V | 00:00:00 | 00:00:00 | 00:00:00 | |
| AKAW68 | 2026-09-02 23:20:49 | 50.02905 | 20.94430 | 121° | 33km/h | 1906m | 3.3m/s | 0°C | 0% | 0hPa | 0V | 00:00:00 | 00:00:00 | 00:00:00 | |
| SQ9PSP-11 | 2026-09-02 23:20:38 | 50.02928 | 20.94320 | 79° | 27km/h | 1853m | 3.2m/s | 0°C | 0% | 0hPa | 0V | 00:00:00 | 00:00:00 | 00:00:00 | |
| SQ9PSP-11 | 2026-09-02 23:20:22 | 50.02955 | 20.94191 | 92° | 27km/h | 1775m | 3.5m/s | 0°C | 0% | 0hPa | 0V | 00:00:00 | 00:00:00 | 00:00:00 | |
| SQ9PSP-11 | 2026-09-02 23:20:04 | 50.02980 | 20.94076 | 38° | 9km/h | 1675m | 3.6m/s | 0°C | 0% | 0hPa | 0V | 00:00:00 | 00:00:00 | 00:00:00 |